<?xml version="1.0" encoding="UTF-8" standalone="no" ?>
<gpx xmlns="http://www.topografix.com/GPX/1/1" xmlns:xsi="http://www.w3.org/2001/XMLSchema-instance" xsi:schemaLocation="http://www.topografix.com/GPX/1/1 http://www.topografix.com/GPX/1/1/gpx.xsd" version="1.1" creator="VisuGPX - https://www.visugpx.com">
  <metadata>
    <name>8064824-76kms-14-01</name>
    <desc><![CDATA[
01]]></desc>
  </metadata>
  <trk>
    <name><![CDATA[8064824-76kms-14-01]]></name>
    <trkseg>
      <trkpt lat="46.69915" lon="-1.93383">
        <ele>4</ele>
        <time>2018-01-12T14:33:31Z</time>
      </trkpt>
      <trkpt lat="46.69922" lon="-1.93383">
        <ele>4</ele>
        <time>2018-01-12T14:34:31Z</time>
      </trkpt>
      <trkpt lat="46.69925" lon="-1.93383">
        <ele>4</ele>
        <time>2018-01-12T14:35:31Z</time>
      </trkpt>
      <trkpt lat="46.69935" lon="-1.93382">
        <ele>4</ele>
        <time>2018-01-12T14:36:31Z</time>
      </trkpt>
      <trkpt lat="46.69944" lon="-1.93381">
        <ele>4</ele>
        <time>2018-01-12T14:37:31Z</time>
      </trkpt>
      <trkpt lat="46.69949" lon="-1.93379">
        <ele>4</ele>
        <time>2018-01-12T14:38:31Z</time>
      </trkpt>
      <trkpt lat="46.69953" lon="-1.93377">
        <ele>4</ele>
        <time>2018-01-12T14:39:31Z</time>
      </trkpt>
      <trkpt lat="46.69958" lon="-1.93375">
        <ele>4</ele>
        <time>2018-01-12T14:40:31Z</time>
      </trkpt>
      <trkpt lat="46.69963" lon="-1.93373">
        <ele>4</ele>
        <time>2018-01-12T14:41:31Z</time>
      </trkpt>
      <trkpt lat="46.69969" lon="-1.9337">
        <ele>4</ele>
        <time>2018-01-12T14:42:31Z</time>
      </trkpt>
      <trkpt lat="46.69973" lon="-1.93367">
        <ele>4</ele>
        <time>2018-01-12T14:43:31Z</time>
      </trkpt>
      <trkpt lat="46.69976" lon="-1.93367">
        <ele>4</ele>
        <time>2018-01-12T14:44:31Z</time>
      </trkpt>
      <trkpt lat="46.69978" lon="-1.93366">
        <ele>3</ele>
        <time>2018-01-12T14:45:31Z</time>
      </trkpt>
      <trkpt lat="46.69979" lon="-1.93366">
        <ele>3</ele>
        <time>2018-01-12T14:46:31Z</time>
      </trkpt>
      <trkpt lat="46.69982" lon="-1.93367">
        <ele>3</ele>
        <time>2018-01-12T14:47:31Z</time>
      </trkpt>
      <trkpt lat="46.69987" lon="-1.93369">
        <ele>3</ele>
        <time>2018-01-12T14:48:31Z</time>
      </trkpt>
      <trkpt lat="46.70002" lon="-1.93375">
        <ele>3</ele>
        <time>2018-01-12T14:49:31Z</time>
      </trkpt>
      <trkpt lat="46.70015" lon="-1.9338">
        <ele>3</ele>
        <time>2018-01-12T14:50:31Z</time>
      </trkpt>
      <trkpt lat="46.7002" lon="-1.93382">
        <ele>3</ele>
        <time>2018-01-12T14:51:31Z</time>
      </trkpt>
      <trkpt lat="46.70023" lon="-1.93384">
        <ele>3</ele>
        <time>2018-01-12T14:52:31Z</time>
      </trkpt>
      <trkpt lat="46.70025" lon="-1.93386">
        <ele>3</ele>
        <time>2018-01-12T14:53:31Z</time>
      </trkpt>
      <trkpt lat="46.70028" lon="-1.93388">
        <ele>3</ele>
        <time>2018-01-12T14:54:31Z</time>
      </trkpt>
      <trkpt lat="46.7003" lon="-1.93391">
        <ele>3</ele>
        <time>2018-01-12T14:55:31Z</time>
      </trkpt>
      <trkpt lat="46.70033" lon="-1.93394">
        <ele>2</ele>
        <time>2018-01-12T14:56:31Z</time>
      </trkpt>
      <trkpt lat="46.70036" lon="-1.93397">
        <ele>2</ele>
        <time>2018-01-12T14:57:31Z</time>
      </trkpt>
      <trkpt lat="46.70038" lon="-1.93398">
        <ele>2</ele>
        <time>2018-01-12T14:58:31Z</time>
      </trkpt>
      <trkpt lat="46.70041" lon="-1.934">
        <ele>2</ele>
        <time>2018-01-12T14:59:31Z</time>
      </trkpt>
      <trkpt lat="46.70043" lon="-1.93401">
        <ele>2</ele>
        <time>2018-01-12T15:00:31Z</time>
      </trkpt>
      <trkpt lat="46.70046" lon="-1.93402">
        <ele>2</ele>
        <time>2018-01-12T15:01:31Z</time>
      </trkpt>
      <trkpt lat="46.70052" lon="-1.93405">
        <ele>2</ele>
        <time>2018-01-12T15:02:31Z</time>
      </trkpt>
      <trkpt lat="46.70052" lon="-1.93404">
        <ele>2</ele>
        <time>2018-01-12T15:03:31Z</time>
      </trkpt>
      <trkpt lat="46.70052" lon="-1.93403">
        <ele>2</ele>
        <time>2018-01-12T15:04:31Z</time>
      </trkpt>
      <trkpt lat="46.70052" lon="-1.93402">
        <ele>2</ele>
        <time>2018-01-12T15:05:31Z</time>
      </trkpt>
      <trkpt lat="46.70052" lon="-1.93401">
        <ele>2</ele>
        <time>2018-01-12T15:06:31Z</time>
      </trkpt>
      <trkpt lat="46.70053" lon="-1.93401">
        <ele>2</ele>
        <time>2018-01-12T15:07:31Z</time>
      </trkpt>
      <trkpt lat="46.70053" lon="-1.934">
        <ele>2</ele>
        <time>2018-01-12T15:08:31Z</time>
      </trkpt>
      <trkpt lat="46.70053" lon="-1.93399">
        <ele>2</ele>
        <time>2018-01-12T15:09:31Z</time>
      </trkpt>
      <trkpt lat="46.70054" lon="-1.93399">
        <ele>2</ele>
        <time>2018-01-12T15:10:31Z</time>
      </trkpt>
      <trkpt lat="46.70054" lon="-1.93398">
        <ele>2</ele>
        <time>2018-01-12T15:11:31Z</time>
      </trkpt>
      <trkpt lat="46.70055" lon="-1.93398">
        <ele>2</ele>
        <time>2018-01-12T15:12:31Z</time>
      </trkpt>
      <trkpt lat="46.70056" lon="-1.93398">
        <ele>2</ele>
        <time>2018-01-12T15:13:31Z</time>
      </trkpt>
      <trkpt lat="46.70056" lon="-1.93397">
        <ele>2</ele>
        <time>2018-01-12T15:14:31Z</time>
      </trkpt>
      <trkpt lat="46.70057" lon="-1.93397">
        <ele>2</ele>
        <time>2018-01-12T15:15:31Z</time>
      </trkpt>
      <trkpt lat="46.70058" lon="-1.93397">
        <ele>2</ele>
        <time>2018-01-12T15:16:31Z</time>
      </trkpt>
      <trkpt lat="46.70059" lon="-1.93398">
        <ele>2</ele>
        <time>2018-01-12T15:17:31Z</time>
      </trkpt>
      <trkpt lat="46.7006" lon="-1.93398">
        <ele>2</ele>
        <time>2018-01-12T15:18:31Z</time>
      </trkpt>
      <trkpt lat="46.7006" lon="-1.93399">
        <ele>2</ele>
        <time>2018-01-12T15:19:31Z</time>
      </trkpt>
      <trkpt lat="46.70061" lon="-1.93399">
        <ele>2</ele>
        <time>2018-01-12T15:20:31Z</time>
      </trkpt>
      <trkpt lat="46.70061" lon="-1.934">
        <ele>2</ele>
        <time>2018-01-12T15:21:31Z</time>
      </trkpt>
      <trkpt lat="46.70061" lon="-1.93401">
        <ele>2</ele>
        <time>2018-01-12T15:22:31Z</time>
      </trkpt>
      <trkpt lat="46.70062" lon="-1.93401">
        <ele>2</ele>
        <time>2018-01-12T15:23:31Z</time>
      </trkpt>
      <trkpt lat="46.70062" lon="-1.93402">
        <ele>2</ele>
        <time>2018-01-12T15:24:31Z</time>
      </trkpt>
      <trkpt lat="46.70062" lon="-1.93403">
        <ele>2</ele>
        <time>2018-01-12T15:25:31Z</time>
      </trkpt>
      <trkpt lat="46.70062" lon="-1.93404">
        <ele>2</ele>
        <time>2018-01-12T15:26:31Z</time>
      </trkpt>
      <trkpt lat="46.70062" lon="-1.93405">
        <ele>2</ele>
        <time>2018-01-12T15:27:31Z</time>
      </trkpt>
      <trkpt lat="46.70083" lon="-1.93405">
        <ele>2</ele>
        <time>2018-01-12T15:28:31Z</time>
      </trkpt>
      <trkpt lat="46.70093" lon="-1.934">
        <ele>2</ele>
        <time>2018-01-12T15:29:31Z</time>
      </trkpt>
      <trkpt lat="46.70098" lon="-1.93397">
        <ele>2</ele>
        <time>2018-01-12T15:30:31Z</time>
      </trkpt>
      <trkpt lat="46.70102" lon="-1.93395">
        <ele>2</ele>
        <time>2018-01-12T15:31:31Z</time>
      </trkpt>
      <trkpt lat="46.70107" lon="-1.93391">
        <ele>2</ele>
        <time>2018-01-12T15:32:31Z</time>
      </trkpt>
      <trkpt lat="46.70111" lon="-1.93388">
        <ele>2</ele>
        <time>2018-01-12T15:33:31Z</time>
      </trkpt>
      <trkpt lat="46.70114" lon="-1.93384">
        <ele>2</ele>
        <time>2018-01-12T15:34:31Z</time>
      </trkpt>
      <trkpt lat="46.70114" lon="-1.93384">
        <ele>2</ele>
        <time>2018-01-12T15:35:31Z</time>
      </trkpt>
      <trkpt lat="46.70115" lon="-1.93383">
        <ele>2</ele>
        <time>2018-01-12T15:36:31Z</time>
      </trkpt>
      <trkpt lat="46.70115" lon="-1.93382">
        <ele>2</ele>
        <time>2018-01-12T15:37:31Z</time>
      </trkpt>
      <trkpt lat="46.70115" lon="-1.93381">
        <ele>2</ele>
        <time>2018-01-12T15:38:31Z</time>
      </trkpt>
      <trkpt lat="46.70116" lon="-1.9338">
        <ele>2</ele>
        <time>2018-01-12T15:39:31Z</time>
      </trkpt>
      <trkpt lat="46.70116" lon="-1.93378">
        <ele>2</ele>
        <time>2018-01-12T15:40:31Z</time>
      </trkpt>
      <trkpt lat="46.70116" lon="-1.93377">
        <ele>2</ele>
        <time>2018-01-12T15:41:31Z</time>
      </trkpt>
      <trkpt lat="46.70117" lon="-1.93376">
        <ele>2</ele>
        <time>2018-01-12T15:42:31Z</time>
      </trkpt>
      <trkpt lat="46.70117" lon="-1.93375">
        <ele>2</ele>
        <time>2018-01-12T15:43:31Z</time>
      </trkpt>
      <trkpt lat="46.70118" lon="-1.93374">
        <ele>1</ele>
        <time>2018-01-12T15:44:31Z</time>
      </trkpt>
      <trkpt lat="46.70119" lon="-1.93373">
        <ele>1</ele>
        <time>2018-01-12T15:45:31Z</time>
      </trkpt>
      <trkpt lat="46.70119" lon="-1.93372">
        <ele>1</ele>
        <time>2018-01-12T15:46:31Z</time>
      </trkpt>
      <trkpt lat="46.7012" lon="-1.93372">
        <ele>1</ele>
        <time>2018-01-12T15:47:31Z</time>
      </trkpt>
      <trkpt lat="46.70121" lon="-1.93371">
        <ele>1</ele>
        <time>2018-01-12T15:48:31Z</time>
      </trkpt>
      <trkpt lat="46.70122" lon="-1.9337">
        <ele>1</ele>
        <time>2018-01-12T15:49:31Z</time>
      </trkpt>
      <trkpt lat="46.70123" lon="-1.93369">
        <ele>1</ele>
        <time>2018-01-12T15:50:31Z</time>
      </trkpt>
      <trkpt lat="46.70124" lon="-1.93369">
        <ele>1</ele>
        <time>2018-01-12T15:51:31Z</time>
      </trkpt>
      <trkpt lat="46.70125" lon="-1.93368">
        <ele>2</ele>
        <time>2018-01-12T15:52:31Z</time>
      </trkpt>
      <trkpt lat="46.70126" lon="-1.93368">
        <ele>2</ele>
        <time>2018-01-12T15:53:31Z</time>
      </trkpt>
      <trkpt lat="46.70127" lon="-1.93368">
        <ele>2</ele>
        <time>2018-01-12T15:54:31Z</time>
      </trkpt>
      <trkpt lat="46.70128" lon="-1.93368">
        <ele>2</ele>
        <time>2018-01-12T15:55:31Z</time>
      </trkpt>
      <trkpt lat="46.70129" lon="-1.93368">
        <ele>2</ele>
        <time>2018-01-12T15:56:31Z</time>
      </trkpt>
      <trkpt lat="46.7013" lon="-1.93368">
        <ele>2</ele>
        <time>2018-01-12T15:57:31Z</time>
      </trkpt>
      <trkpt lat="46.70131" lon="-1.93369">
        <ele>2</ele>
        <time>2018-01-12T15:58:31Z</time>
      </trkpt>
      <trkpt lat="46.70132" lon="-1.93369">
        <ele>2</ele>
        <time>2018-01-12T15:59:31Z</time>
      </trkpt>
      <trkpt lat="46.70132" lon="-1.9337">
        <ele>2</ele>
        <time>2018-01-12T16:00:31Z</time>
      </trkpt>
      <trkpt lat="46.70133" lon="-1.9337">
        <ele>2</ele>
        <time>2018-01-12T16:01:31Z</time>
      </trkpt>
      <trkpt lat="46.70134" lon="-1.93371">
        <ele>2</ele>
        <time>2018-01-12T16:02:31Z</time>
      </trkpt>
      <trkpt lat="46.70135" lon="-1.93372">
        <ele>2</ele>
        <time>2018-01-12T16:03:31Z</time>
      </trkpt>
      <trkpt lat="46.70136" lon="-1.93373">
        <ele>2</ele>
        <time>2018-01-12T16:04:31Z</time>
      </trkpt>
      <trkpt lat="46.70136" lon="-1.93374">
        <ele>2</ele>
        <time>2018-01-12T16:05:31Z</time>
      </trkpt>
      <trkpt lat="46.70137" lon="-1.93374">
        <ele>2</ele>
        <time>2018-01-12T16:06:31Z</time>
      </trkpt>
      <trkpt lat="46.70137" lon="-1.93375">
        <ele>1</ele>
        <time>2018-01-12T16:07:31Z</time>
      </trkpt>
      <trkpt lat="46.70138" lon="-1.93376">
        <ele>1</ele>
        <time>2018-01-12T16:08:31Z</time>
      </trkpt>
      <trkpt lat="46.70138" lon="-1.93377">
        <ele>1</ele>
        <time>2018-01-12T16:09:31Z</time>
      </trkpt>
      <trkpt lat="46.70138" lon="-1.93378">
        <ele>1</ele>
        <time>2018-01-12T16:10:31Z</time>
      </trkpt>
      <trkpt lat="46.70139" lon="-1.93379">
        <ele>1</ele>
        <time>2018-01-12T16:11:31Z</time>
      </trkpt>
      <trkpt lat="46.70139" lon="-1.93381">
        <ele>1</ele>
        <time>2018-01-12T16:12:31Z</time>
      </trkpt>
      <trkpt lat="46.7014" lon="-1.93382">
        <ele>1</ele>
        <time>2018-01-12T16:13:31Z</time>
      </trkpt>
      <trkpt lat="46.7014" lon="-1.93384">
        <ele>1</ele>
        <time>2018-01-12T16:14:31Z</time>
      </trkpt>
      <trkpt lat="46.70141" lon="-1.93386">
        <ele>1</ele>
        <time>2018-01-12T16:15:31Z</time>
      </trkpt>
      <trkpt lat="46.70141" lon="-1.93388">
        <ele>1</ele>
        <time>2018-01-12T16:16:31Z</time>
      </trkpt>
      <trkpt lat="46.70141" lon="-1.9339">
        <ele>1</ele>
        <time>2018-01-12T16:17:31Z</time>
      </trkpt>
      <trkpt lat="46.70141" lon="-1.93391">
        <ele>1</ele>
        <time>2018-01-12T16:18:31Z</time>
      </trkpt>
      <trkpt lat="46.70141" lon="-1.93393">
        <ele>1</ele>
        <time>2018-01-12T16:19:31Z</time>
      </trkpt>
      <trkpt lat="46.70141" lon="-1.93394">
        <ele>1</ele>
        <time>2018-01-12T16:20:31Z</time>
      </trkpt>
      <trkpt lat="46.70141" lon="-1.93395">
        <ele>1</ele>
        <time>2018-01-12T16:21:31Z</time>
      </trkpt>
      <trkpt lat="46.7014" lon="-1.93396">
        <ele>1</ele>
        <time>2018-01-12T16:22:31Z</time>
      </trkpt>
      <trkpt lat="46.7014" lon="-1.93397">
        <ele>1</ele>
        <time>2018-01-12T16:23:31Z</time>
      </trkpt>
      <trkpt lat="46.7014" lon="-1.93398">
        <ele>1</ele>
        <time>2018-01-12T16:24:31Z</time>
      </trkpt>
      <trkpt lat="46.70139" lon="-1.93399">
        <ele>1</ele>
        <time>2018-01-12T16:25:31Z</time>
      </trkpt>
      <trkpt lat="46.70139" lon="-1.93401">
        <ele>1</ele>
        <time>2018-01-12T16:26:31Z</time>
      </trkpt>
      <trkpt lat="46.70138" lon="-1.93408">
        <ele>1</ele>
        <time>2018-01-12T16:27:31Z</time>
      </trkpt>
      <trkpt lat="46.70138" lon="-1.93411">
        <ele>1</ele>
        <time>2018-01-12T16:28:31Z</time>
      </trkpt>
      <trkpt lat="46.70138" lon="-1.93415">
        <ele>1</ele>
        <time>2018-01-12T16:29:31Z</time>
      </trkpt>
      <trkpt lat="46.70138" lon="-1.93418">
        <ele>1</ele>
        <time>2018-01-12T16:30:31Z</time>
      </trkpt>
      <trkpt lat="46.70138" lon="-1.93423">
        <ele>1</ele>
        <time>2018-01-12T16:31:31Z</time>
      </trkpt>
      <trkpt lat="46.70139" lon="-1.93429">
        <ele>1</ele>
        <time>2018-01-12T16:32:31Z</time>
      </trkpt>
      <trkpt lat="46.70139" lon="-1.93431">
        <ele>1</ele>
        <time>2018-01-12T16:33:31Z</time>
      </trkpt>
      <trkpt lat="46.7014" lon="-1.93433">
        <ele>1</ele>
        <time>2018-01-12T16:34:31Z</time>
      </trkpt>
      <trkpt lat="46.7014" lon="-1.93435">
        <ele>1</ele>
        <time>2018-01-12T16:35:31Z</time>
      </trkpt>
      <trkpt lat="46.70141" lon="-1.93441">
        <ele>1</ele>
        <time>2018-01-12T16:36:31Z</time>
      </trkpt>
      <trkpt lat="46.70142" lon="-1.93448">
        <ele>1</ele>
        <time>2018-01-12T16:37:31Z</time>
      </trkpt>
      <trkpt lat="46.70144" lon="-1.93457">
        <ele>1</ele>
        <time>2018-01-12T16:38:31Z</time>
      </trkpt>
      <trkpt lat="46.70146" lon="-1.93464">
        <ele>1</ele>
        <time>2018-01-12T16:39:31Z</time>
      </trkpt>
      <trkpt lat="46.70151" lon="-1.93485">
        <ele>1</ele>
        <time>2018-01-12T16:40:31Z</time>
      </trkpt>
      <trkpt lat="46.70189" lon="-1.93655">
        <ele>1</ele>
        <time>2018-01-12T16:41:31Z</time>
      </trkpt>
      <trkpt lat="46.70196" lon="-1.93681">
        <ele>2</ele>
        <time>2018-01-12T16:42:31Z</time>
      </trkpt>
      <trkpt lat="46.702" lon="-1.93698">
        <ele>2</ele>
        <time>2018-01-12T16:43:31Z</time>
      </trkpt>
      <trkpt lat="46.70204" lon="-1.93714">
        <ele>2</ele>
        <time>2018-01-12T16:44:31Z</time>
      </trkpt>
      <trkpt lat="46.70208" lon="-1.93728">
        <ele>3</ele>
        <time>2018-01-12T16:45:31Z</time>
      </trkpt>
      <trkpt lat="46.70211" lon="-1.93742">
        <ele>3</ele>
        <time>2018-01-12T16:46:31Z</time>
      </trkpt>
      <trkpt lat="46.70214" lon="-1.93753">
        <ele>3</ele>
        <time>2018-01-12T16:47:31Z</time>
      </trkpt>
      <trkpt lat="46.70228" lon="-1.93802">
        <ele>4</ele>
        <time>2018-01-12T16:48:31Z</time>
      </trkpt>
      <trkpt lat="46.70229" lon="-1.93804">
        <ele>4</ele>
        <time>2018-01-12T16:49:31Z</time>
      </trkpt>
      <trkpt lat="46.70239" lon="-1.93837">
        <ele>4</ele>
        <time>2018-01-12T16:50:31Z</time>
      </trkpt>
      <trkpt lat="46.70243" lon="-1.93848">
        <ele>4</ele>
        <time>2018-01-12T16:51:31Z</time>
      </trkpt>
      <trkpt lat="46.70246" lon="-1.93857">
        <ele>3</ele>
        <time>2018-01-12T16:52:31Z</time>
      </trkpt>
      <trkpt lat="46.70248" lon="-1.93861">
        <ele>3</ele>
        <time>2018-01-12T16:53:31Z</time>
      </trkpt>
      <trkpt lat="46.70249" lon="-1.93864">
        <ele>3</ele>
        <time>2018-01-12T16:54:31Z</time>
      </trkpt>
      <trkpt lat="46.70252" lon="-1.9387">
        <ele>3</ele>
        <time>2018-01-12T16:55:31Z</time>
      </trkpt>
      <trkpt lat="46.70253" lon="-1.93874">
        <ele>3</ele>
        <time>2018-01-12T16:56:31Z</time>
      </trkpt>
      <trkpt lat="46.70255" lon="-1.93877">
        <ele>3</ele>
        <time>2018-01-12T16:57:31Z</time>
      </trkpt>
      <trkpt lat="46.70256" lon="-1.93879">
        <ele>3</ele>
        <time>2018-01-12T16:58:31Z</time>
      </trkpt>
      <trkpt lat="46.70257" lon="-1.93881">
        <ele>3</ele>
        <time>2018-01-12T16:59:31Z</time>
      </trkpt>
      <trkpt lat="46.70259" lon="-1.93884">
        <ele>3</ele>
        <time>2018-01-12T17:00:31Z</time>
      </trkpt>
      <trkpt lat="46.70259" lon="-1.93884">
        <ele>3</ele>
        <time>2018-01-12T17:01:31Z</time>
      </trkpt>
      <trkpt lat="46.70261" lon="-1.93884">
        <ele>3</ele>
        <time>2018-01-12T17:02:31Z</time>
      </trkpt>
      <trkpt lat="46.70262" lon="-1.93884">
        <ele>3</ele>
        <time>2018-01-12T17:03:31Z</time>
      </trkpt>
      <trkpt lat="46.70263" lon="-1.93884">
        <ele>3</ele>
        <time>2018-01-12T17:04:31Z</time>
      </trkpt>
      <trkpt lat="46.70264" lon="-1.93884">
        <ele>3</ele>
        <time>2018-01-12T17:05:31Z</time>
      </trkpt>
      <trkpt lat="46.70265" lon="-1.93885">
        <ele>3</ele>
        <time>2018-01-12T17:06:31Z</time>
      </trkpt>
      <trkpt lat="46.70266" lon="-1.93886">
        <ele>3</ele>
        <time>2018-01-12T17:07:31Z</time>
      </trkpt>
      <trkpt lat="46.70267" lon="-1.93886">
        <ele>3</ele>
        <time>2018-01-12T17:08:31Z</time>
      </trkpt>
      <trkpt lat="46.70268" lon="-1.93887">
        <ele>3</ele>
        <time>2018-01-12T17:09:31Z</time>
      </trkpt>
      <trkpt lat="46.70269" lon="-1.93888">
        <ele>3</ele>
        <time>2018-01-12T17:10:31Z</time>
      </trkpt>
      <trkpt lat="46.7027" lon="-1.93889">
        <ele>3</ele>
        <time>2018-01-12T17:11:31Z</time>
      </trkpt>
      <trkpt lat="46.70271" lon="-1.9389">
        <ele>3</ele>
        <time>2018-01-12T17:12:31Z</time>
      </trkpt>
      <trkpt lat="46.70271" lon="-1.93891">
        <ele>3</ele>
        <time>2018-01-12T17:13:31Z</time>
      </trkpt>
      <trkpt lat="46.70272" lon="-1.93893">
        <ele>3</ele>
        <time>2018-01-12T17:14:31Z</time>
      </trkpt>
      <trkpt lat="46.70273" lon="-1.93894">
        <ele>3</ele>
        <time>2018-01-12T17:15:31Z</time>
      </trkpt>
      <trkpt lat="46.70273" lon="-1.93895">
        <ele>3</ele>
        <time>2018-01-12T17:16:31Z</time>
      </trkpt>
      <trkpt lat="46.70274" lon="-1.93897">
        <ele>3</ele>
        <time>2018-01-12T17:17:31Z</time>
      </trkpt>
      <trkpt lat="46.70274" lon="-1.93898">
        <ele>3</ele>
        <time>2018-01-12T17:18:31Z</time>
      </trkpt>
      <trkpt lat="46.70275" lon="-1.939">
        <ele>3</ele>
        <time>2018-01-12T17:19:31Z</time>
      </trkpt>
      <trkpt lat="46.70275" lon="-1.93902">
        <ele>3</ele>
        <time>2018-01-12T17:20:31Z</time>
      </trkpt>
      <trkpt lat="46.70275" lon="-1.93903">
        <ele>3</ele>
        <time>2018-01-12T17:21:31Z</time>
      </trkpt>
      <trkpt lat="46.70275" lon="-1.93905">
        <ele>3</ele>
        <time>2018-01-12T17:22:31Z</time>
      </trkpt>
      <trkpt lat="46.70275" lon="-1.93906">
        <ele>3</ele>
        <time>2018-01-12T17:23:31Z</time>
      </trkpt>
      <trkpt lat="46.70275" lon="-1.93909">
        <ele>2</ele>
        <time>2018-01-12T17:24:31Z</time>
      </trkpt>
      <trkpt lat="46.70275" lon="-1.9391">
        <ele>2</ele>
        <time>2018-01-12T17:25:31Z</time>
      </trkpt>
      <trkpt lat="46.70275" lon="-1.93911">
        <ele>2</ele>
        <time>2018-01-12T17:26:31Z</time>
      </trkpt>
      <trkpt lat="46.70275" lon="-1.93912">
        <ele>2</ele>
        <time>2018-01-12T17:27:31Z</time>
      </trkpt>
      <trkpt lat="46.70275" lon="-1.93913">
        <ele>2</ele>
        <time>2018-01-12T17:28:31Z</time>
      </trkpt>
      <trkpt lat="46.70275" lon="-1.93914">
        <ele>2</ele>
        <time>2018-01-12T17:29:31Z</time>
      </trkpt>
      <trkpt lat="46.70275" lon="-1.93915">
        <ele>2</ele>
        <time>2018-01-12T17:30:31Z</time>
      </trkpt>
      <trkpt lat="46.70275" lon="-1.93916">
        <ele>2</ele>
        <time>2018-01-12T17:31:31Z</time>
      </trkpt>
      <trkpt lat="46.7028" lon="-1.93929">
        <ele>2</ele>
        <time>2018-01-12T17:32:31Z</time>
      </trkpt>
      <trkpt lat="46.70285" lon="-1.9394">
        <ele>3</ele>
        <time>2018-01-12T17:33:31Z</time>
      </trkpt>
      <trkpt lat="46.70289" lon="-1.93949">
        <ele>3</ele>
        <time>2018-01-12T17:34:31Z</time>
      </trkpt>
      <trkpt lat="46.70293" lon="-1.93957">
        <ele>3</ele>
        <time>2018-01-12T17:35:31Z</time>
      </trkpt>
      <trkpt lat="46.70299" lon="-1.93967">
        <ele>3</ele>
        <time>2018-01-12T17:36:31Z</time>
      </trkpt>
      <trkpt lat="46.70302" lon="-1.93973">
        <ele>3</ele>
        <time>2018-01-12T17:37:31Z</time>
      </trkpt>
      <trkpt lat="46.70307" lon="-1.93981">
        <ele>3</ele>
        <time>2018-01-12T17:38:31Z</time>
      </trkpt>
      <trkpt lat="46.70313" lon="-1.93991">
        <ele>3</ele>
        <time>2018-01-12T17:39:31Z</time>
      </trkpt>
      <trkpt lat="46.70321" lon="-1.94004">
        <ele>3</ele>
        <time>2018-01-12T17:40:31Z</time>
      </trkpt>
      <trkpt lat="46.70327" lon="-1.94013">
        <ele>3</ele>
        <time>2018-01-12T17:41:31Z</time>
      </trkpt>
      <trkpt lat="46.70331" lon="-1.9402">
        <ele>3</ele>
        <time>2018-01-12T17:42:31Z</time>
      </trkpt>
      <trkpt lat="46.70338" lon="-1.94029">
        <ele>3</ele>
        <time>2018-01-12T17:43:31Z</time>
      </trkpt>
      <trkpt lat="46.70345" lon="-1.94039">
        <ele>3</ele>
        <time>2018-01-12T17:44:31Z</time>
      </trkpt>
      <trkpt lat="46.70349" lon="-1.94044">
        <ele>4</ele>
        <time>2018-01-12T17:45:31Z</time>
      </trkpt>
      <trkpt lat="46.70353" lon="-1.9405">
        <ele>4</ele>
        <time>2018-01-12T17:46:31Z</time>
      </trkpt>
      <trkpt lat="46.70357" lon="-1.94055">
        <ele>4</ele>
        <time>2018-01-12T17:47:31Z</time>
      </trkpt>
      <trkpt lat="46.70361" lon="-1.9406">
        <ele>4</ele>
        <time>2018-01-12T17:48:31Z</time>
      </trkpt>
      <trkpt lat="46.70369" lon="-1.9407">
        <ele>4</ele>
        <time>2018-01-12T17:49:31Z</time>
      </trkpt>
      <trkpt lat="46.70374" lon="-1.94079">
        <ele>4</ele>
        <time>2018-01-12T17:50:31Z</time>
      </trkpt>
      <trkpt lat="46.7038" lon="-1.94085">
        <ele>4</ele>
        <time>2018-01-12T17:51:31Z</time>
      </trkpt>
      <trkpt lat="46.70382" lon="-1.94087">
        <ele>4</ele>
        <time>2018-01-12T17:52:31Z</time>
      </trkpt>
      <trkpt lat="46.70384" lon="-1.9409">
        <ele>4</ele>
        <time>2018-01-12T17:53:31Z</time>
      </trkpt>
      <trkpt lat="46.70387" lon="-1.94093">
        <ele>4</ele>
        <time>2018-01-12T17:54:31Z</time>
      </trkpt>
      <trkpt lat="46.7039" lon="-1.94095">
        <ele>4</ele>
        <time>2018-01-12T17:55:31Z</time>
      </trkpt>
      <trkpt lat="46.70393" lon="-1.94098">
        <ele>4</ele>
        <time>2018-01-12T17:56:31Z</time>
      </trkpt>
      <trkpt lat="46.70396" lon="-1.94101">
        <ele>4</ele>
        <time>2018-01-12T17:57:31Z</time>
      </trkpt>
      <trkpt lat="46.70405" lon="-1.94109">
        <ele>4</ele>
        <time>2018-01-12T17:58:31Z</time>
      </trkpt>
      <trkpt lat="46.70411" lon="-1.94114">
        <ele>5</ele>
        <time>2018-01-12T17:59:31Z</time>
      </trkpt>
      <trkpt lat="46.70416" lon="-1.94119">
        <ele>5</ele>
        <time>2018-01-12T18:00:31Z</time>
      </trkpt>
      <trkpt lat="46.70423" lon="-1.94124">
        <ele>5</ele>
        <time>2018-01-12T18:01:31Z</time>
      </trkpt>
      <trkpt lat="46.70428" lon="-1.94128">
        <ele>5</ele>
        <time>2018-01-12T18:02:31Z</time>
      </trkpt>
      <trkpt lat="46.70434" lon="-1.94132">
        <ele>5</ele>
        <time>2018-01-12T18:03:31Z</time>
      </trkpt>
      <trkpt lat="46.7044" lon="-1.94137">
        <ele>5</ele>
        <time>2018-01-12T18:04:31Z</time>
      </trkpt>
      <trkpt lat="46.70447" lon="-1.94142">
        <ele>5</ele>
        <time>2018-01-12T18:05:31Z</time>
      </trkpt>
      <trkpt lat="46.70452" lon="-1.94145">
        <ele>5</ele>
        <time>2018-01-12T18:06:31Z</time>
      </trkpt>
      <trkpt lat="46.70458" lon="-1.94149">
        <ele>5</ele>
        <time>2018-01-12T18:07:31Z</time>
      </trkpt>
      <trkpt lat="46.70467" lon="-1.94154">
        <ele>5</ele>
        <time>2018-01-12T18:08:31Z</time>
      </trkpt>
      <trkpt lat="46.70476" lon="-1.94159">
        <ele>4</ele>
        <time>2018-01-12T18:09:31Z</time>
      </trkpt>
      <trkpt lat="46.70481" lon="-1.94162">
        <ele>4</ele>
        <time>2018-01-12T18:10:31Z</time>
      </trkpt>
      <trkpt lat="46.70485" lon="-1.94164">
        <ele>4</ele>
        <time>2018-01-12T18:11:31Z</time>
      </trkpt>
      <trkpt lat="46.70489" lon="-1.94166">
        <ele>4</ele>
        <time>2018-01-12T18:12:31Z</time>
      </trkpt>
      <trkpt lat="46.70494" lon="-1.94169">
        <ele>4</ele>
        <time>2018-01-12T18:13:31Z</time>
      </trkpt>
      <trkpt lat="46.705" lon="-1.94171">
        <ele>4</ele>
        <time>2018-01-12T18:14:31Z</time>
      </trkpt>
      <trkpt lat="46.70506" lon="-1.94174">
        <ele>4</ele>
        <time>2018-01-12T18:15:31Z</time>
      </trkpt>
      <trkpt lat="46.70515" lon="-1.94178">
        <ele>4</ele>
        <time>2018-01-12T18:16:31Z</time>
      </trkpt>
      <trkpt lat="46.70522" lon="-1.94181">
        <ele>4</ele>
        <time>2018-01-12T18:17:31Z</time>
      </trkpt>
      <trkpt lat="46.70528" lon="-1.94183">
        <ele>4</ele>
        <time>2018-01-12T18:18:31Z</time>
      </trkpt>
      <trkpt lat="46.70534" lon="-1.94185">
        <ele>4</ele>
        <time>2018-01-12T18:19:31Z</time>
      </trkpt>
      <trkpt lat="46.70539" lon="-1.94187">
        <ele>4</ele>
        <time>2018-01-12T18:20:31Z</time>
      </trkpt>
      <trkpt lat="46.70544" lon="-1.94189">
        <ele>4</ele>
        <time>2018-01-12T18:21:31Z</time>
      </trkpt>
      <trkpt lat="46.70549" lon="-1.9419">
        <ele>4</ele>
        <time>2018-01-12T18:22:31Z</time>
      </trkpt>
      <trkpt lat="46.70555" lon="-1.94192">
        <ele>4</ele>
        <time>2018-01-12T18:23:31Z</time>
      </trkpt>
      <trkpt lat="46.70562" lon="-1.94194">
        <ele>4</ele>
        <time>2018-01-12T18:24:31Z</time>
      </trkpt>
      <trkpt lat="46.70568" lon="-1.94196">
        <ele>5</ele>
        <time>2018-01-12T18:25:31Z</time>
      </trkpt>
      <trkpt lat="46.70577" lon="-1.94199">
        <ele>5</ele>
        <time>2018-01-12T18:26:31Z</time>
      </trkpt>
      <trkpt lat="46.70588" lon="-1.94201">
        <ele>5</ele>
        <time>2018-01-12T18:27:31Z</time>
      </trkpt>
      <trkpt lat="46.70598" lon="-1.94204">
        <ele>5</ele>
        <time>2018-01-12T18:28:31Z</time>
      </trkpt>
      <trkpt lat="46.70607" lon="-1.94205">
        <ele>5</ele>
        <time>2018-01-12T18:29:31Z</time>
      </trkpt>
      <trkpt lat="46.70617" lon="-1.94208">
        <ele>5</ele>
        <time>2018-01-12T18:30:31Z</time>
      </trkpt>
      <trkpt lat="46.70624" lon="-1.94209">
        <ele>5</ele>
        <time>2018-01-12T18:31:31Z</time>
      </trkpt>
      <trkpt lat="46.70629" lon="-1.9421">
        <ele>5</ele>
        <time>2018-01-12T18:32:31Z</time>
      </trkpt>
      <trkpt lat="46.70635" lon="-1.94211">
        <ele>5</ele>
        <time>2018-01-12T18:33:31Z</time>
      </trkpt>
      <trkpt lat="46.70641" lon="-1.94212">
        <ele>5</ele>
        <time>2018-01-12T18:34:31Z</time>
      </trkpt>
      <trkpt lat="46.70649" lon="-1.94213">
        <ele>6</ele>
        <time>2018-01-12T18:35:31Z</time>
      </trkpt>
      <trkpt lat="46.7066" lon="-1.94214">
        <ele>6</ele>
        <time>2018-01-12T18:36:31Z</time>
      </trkpt>
      <trkpt lat="46.70677" lon="-1.94212">
        <ele>6</ele>
        <time>2018-01-12T18:37:31Z</time>
      </trkpt>
      <trkpt lat="46.7069" lon="-1.94211">
        <ele>6</ele>
        <time>2018-01-12T18:38:31Z</time>
      </trkpt>
      <trkpt lat="46.70691" lon="-1.94211">
        <ele>6</ele>
        <time>2018-01-12T18:39:31Z</time>
      </trkpt>
      <trkpt lat="46.70691" lon="-1.9421">
        <ele>6</ele>
        <time>2018-01-12T18:40:31Z</time>
      </trkpt>
      <trkpt lat="46.70692" lon="-1.9421">
        <ele>6</ele>
        <time>2018-01-12T18:41:31Z</time>
      </trkpt>
      <trkpt lat="46.70692" lon="-1.94209">
        <ele>6</ele>
        <time>2018-01-12T18:42:31Z</time>
      </trkpt>
      <trkpt lat="46.70693" lon="-1.94209">
        <ele>6</ele>
        <time>2018-01-12T18:43:31Z</time>
      </trkpt>
      <trkpt lat="46.70693" lon="-1.94208">
        <ele>6</ele>
        <time>2018-01-12T18:44:31Z</time>
      </trkpt>
      <trkpt lat="46.70694" lon="-1.94208">
        <ele>6</ele>
        <time>2018-01-12T18:45:31Z</time>
      </trkpt>
      <trkpt lat="46.70695" lon="-1.94208">
        <ele>6</ele>
        <time>2018-01-12T18:46:31Z</time>
      </trkpt>
      <trkpt lat="46.70696" lon="-1.94208">
        <ele>6</ele>
        <time>2018-01-12T18:47:31Z</time>
      </trkpt>
      <trkpt lat="46.70696" lon="-1.94207">
        <ele>6</ele>
        <time>2018-01-12T18:48:31Z</time>
      </trkpt>
      <trkpt lat="46.70697" lon="-1.94207">
        <ele>6</ele>
        <time>2018-01-12T18:49:31Z</time>
      </trkpt>
      <trkpt lat="46.70698" lon="-1.94208">
        <ele>6</ele>
        <time>2018-01-12T18:50:31Z</time>
      </trkpt>
      <trkpt lat="46.70699" lon="-1.94208">
        <ele>6</ele>
        <time>2018-01-12T18:51:31Z</time>
      </trkpt>
      <trkpt lat="46.707" lon="-1.94208">
        <ele>6</ele>
        <time>2018-01-12T18:52:31Z</time>
      </trkpt>
      <trkpt lat="46.70701" lon="-1.94209">
        <ele>6</ele>
        <time>2018-01-12T18:53:31Z</time>
      </trkpt>
      <trkpt lat="46.70702" lon="-1.94209">
        <ele>6</ele>
        <time>2018-01-12T18:54:31Z</time>
      </trkpt>
      <trkpt lat="46.70702" lon="-1.9421">
        <ele>6</ele>
        <time>2018-01-12T18:55:31Z</time>
      </trkpt>
      <trkpt lat="46.70703" lon="-1.9421">
        <ele>6</ele>
        <time>2018-01-12T18:56:31Z</time>
      </trkpt>
      <trkpt lat="46.70703" lon="-1.94211">
        <ele>6</ele>
        <time>2018-01-12T18:57:31Z</time>
      </trkpt>
      <trkpt lat="46.70704" lon="-1.94211">
        <ele>6</ele>
        <time>2018-01-12T18:58:31Z</time>
      </trkpt>
      <trkpt lat="46.70704" lon="-1.94212">
        <ele>6</ele>
        <time>2018-01-12T18:59:31Z</time>
      </trkpt>
      <trkpt lat="46.70717" lon="-1.94216">
        <ele>6</ele>
        <time>2018-01-12T19:00:31Z</time>
      </trkpt>
      <trkpt lat="46.70726" lon="-1.94219">
        <ele>6</ele>
        <time>2018-01-12T19:01:31Z</time>
      </trkpt>
      <trkpt lat="46.70732" lon="-1.94219">
        <ele>6</ele>
        <time>2018-01-12T19:02:31Z</time>
      </trkpt>
      <trkpt lat="46.70737" lon="-1.94219">
        <ele>6</ele>
        <time>2018-01-12T19:03:31Z</time>
      </trkpt>
      <trkpt lat="46.70742" lon="-1.94219">
        <ele>6</ele>
        <time>2018-01-12T19:04:31Z</time>
      </trkpt>
      <trkpt lat="46.70747" lon="-1.94219">
        <ele>6</ele>
        <time>2018-01-12T19:05:31Z</time>
      </trkpt>
      <trkpt lat="46.70753" lon="-1.94219">
        <ele>6</ele>
        <time>2018-01-12T19:06:31Z</time>
      </trkpt>
      <trkpt lat="46.70758" lon="-1.94219">
        <ele>6</ele>
        <time>2018-01-12T19:07:31Z</time>
      </trkpt>
      <trkpt lat="46.70763" lon="-1.94218">
        <ele>6</ele>
        <time>2018-01-12T19:08:31Z</time>
      </trkpt>
      <trkpt lat="46.70767" lon="-1.94218">
        <ele>6</ele>
        <time>2018-01-12T19:09:31Z</time>
      </trkpt>
      <trkpt lat="46.70775" lon="-1.94218">
        <ele>6</ele>
        <time>2018-01-12T19:10:31Z</time>
      </trkpt>
      <trkpt lat="46.70783" lon="-1.94217">
        <ele>6</ele>
        <time>2018-01-12T19:11:31Z</time>
      </trkpt>
      <trkpt lat="46.70799" lon="-1.94216">
        <ele>5</ele>
        <time>2018-01-12T19:12:31Z</time>
      </trkpt>
      <trkpt lat="46.70812" lon="-1.94214">
        <ele>5</ele>
        <time>2018-01-12T19:13:31Z</time>
      </trkpt>
      <trkpt lat="46.70823" lon="-1.94213">
        <ele>5</ele>
        <time>2018-01-12T19:14:31Z</time>
      </trkpt>
      <trkpt lat="46.70834" lon="-1.94212">
        <ele>5</ele>
        <time>2018-01-12T19:15:31Z</time>
      </trkpt>
      <trkpt lat="46.70847" lon="-1.94211">
        <ele>5</ele>
        <time>2018-01-12T19:16:31Z</time>
      </trkpt>
      <trkpt lat="46.70857" lon="-1.94209">
        <ele>5</ele>
        <time>2018-01-12T19:17:31Z</time>
      </trkpt>
      <trkpt lat="46.70869" lon="-1.94208">
        <ele>5</ele>
        <time>2018-01-12T19:18:31Z</time>
      </trkpt>
      <trkpt lat="46.70887" lon="-1.94205">
        <ele>4</ele>
        <time>2018-01-12T19:19:31Z</time>
      </trkpt>
      <trkpt lat="46.7093" lon="-1.94197">
        <ele>4</ele>
        <time>2018-01-12T19:20:31Z</time>
      </trkpt>
      <trkpt lat="46.7097" lon="-1.94189">
        <ele>3</ele>
        <time>2018-01-12T19:21:31Z</time>
      </trkpt>
      <trkpt lat="46.70987" lon="-1.94186">
        <ele>2</ele>
        <time>2018-01-12T19:22:31Z</time>
      </trkpt>
      <trkpt lat="46.71004" lon="-1.94182">
        <ele>2</ele>
        <time>2018-01-12T19:23:31Z</time>
      </trkpt>
      <trkpt lat="46.71093" lon="-1.94162">
        <ele>1</ele>
        <time>2018-01-12T19:24:31Z</time>
      </trkpt>
      <trkpt lat="46.71263" lon="-1.94122">
        <ele>2</ele>
        <time>2018-01-12T19:25:31Z</time>
      </trkpt>
      <trkpt lat="46.71344" lon="-1.94103">
        <ele>4</ele>
        <time>2018-01-12T19:26:31Z</time>
      </trkpt>
      <trkpt lat="46.71362" lon="-1.94099">
        <ele>4</ele>
        <time>2018-01-12T19:27:31Z</time>
      </trkpt>
      <trkpt lat="46.71736" lon="-1.94013">
        <ele>2</ele>
        <time>2018-01-12T19:28:31Z</time>
      </trkpt>
      <trkpt lat="46.71743" lon="-1.94011">
        <ele>2</ele>
        <time>2018-01-12T19:29:31Z</time>
      </trkpt>
      <trkpt lat="46.71775" lon="-1.94">
        <ele>1</ele>
        <time>2018-01-12T19:30:31Z</time>
      </trkpt>
      <trkpt lat="46.71778" lon="-1.93999">
        <ele>1</ele>
        <time>2018-01-12T19:31:31Z</time>
      </trkpt>
      <trkpt lat="46.71781" lon="-1.93998">
        <ele>1</ele>
        <time>2018-01-12T19:32:31Z</time>
      </trkpt>
      <trkpt lat="46.71783" lon="-1.93997">
        <ele>1</ele>
        <time>2018-01-12T19:33:31Z</time>
      </trkpt>
      <trkpt lat="46.71785" lon="-1.93995">
        <ele>1</ele>
        <time>2018-01-12T19:34:31Z</time>
      </trkpt>
      <trkpt lat="46.71788" lon="-1.93994">
        <ele>1</ele>
        <time>2018-01-12T19:35:31Z</time>
      </trkpt>
      <trkpt lat="46.7179" lon="-1.93993">
        <ele>1</ele>
        <time>2018-01-12T19:36:31Z</time>
      </trkpt>
      <trkpt lat="46.71792" lon="-1.93991">
        <ele>1</ele>
        <time>2018-01-12T19:37:31Z</time>
      </trkpt>
      <trkpt lat="46.71794" lon="-1.93989">
        <ele>1</ele>
        <time>2018-01-12T19:38:31Z</time>
      </trkpt>
      <trkpt lat="46.71799" lon="-1.93985">
        <ele>1</ele>
        <time>2018-01-12T19:39:31Z</time>
      </trkpt>
      <trkpt lat="46.71799" lon="-1.93984">
        <ele>1</ele>
        <time>2018-01-12T19:40:31Z</time>
      </trkpt>
      <trkpt lat="46.718" lon="-1.93983">
        <ele>1</ele>
        <time>2018-01-12T19:41:31Z</time>
      </trkpt>
      <trkpt lat="46.718" lon="-1.93982">
        <ele>1</ele>
        <time>2018-01-12T19:42:31Z</time>
      </trkpt>
      <trkpt lat="46.718" lon="-1.93981">
        <ele>1</ele>
        <time>2018-01-12T19:43:31Z</time>
      </trkpt>
      <trkpt lat="46.71801" lon="-1.93981">
        <ele>1</ele>
        <time>2018-01-12T19:44:31Z</time>
      </trkpt>
      <trkpt lat="46.71801" lon="-1.9398">
        <ele>1</ele>
        <time>2018-01-12T19:45:31Z</time>
      </trkpt>
      <trkpt lat="46.71802" lon="-1.93979">
        <ele>1</ele>
        <time>2018-01-12T19:46:31Z</time>
      </trkpt>
      <trkpt lat="46.71802" lon="-1.93978">
        <ele>1</ele>
        <time>2018-01-12T19:47:31Z</time>
      </trkpt>
      <trkpt lat="46.71804" lon="-1.93977">
        <ele>1</ele>
        <time>2018-01-12T19:48:31Z</time>
      </trkpt>
      <trkpt lat="46.71805" lon="-1.93977">
        <ele>1</ele>
        <time>2018-01-12T19:49:31Z</time>
      </trkpt>
      <trkpt lat="46.71806" lon="-1.93976">
        <ele>1</ele>
        <time>2018-01-12T19:50:31Z</time>
      </trkpt>
      <trkpt lat="46.71807" lon="-1.93976">
        <ele>1</ele>
        <time>2018-01-12T19:51:31Z</time>
      </trkpt>
      <trkpt lat="46.71808" lon="-1.93975">
        <ele>1</ele>
        <time>2018-01-12T19:52:31Z</time>
      </trkpt>
      <trkpt lat="46.71809" lon="-1.93975">
        <ele>1</ele>
        <time>2018-01-12T19:53:31Z</time>
      </trkpt>
      <trkpt lat="46.7181" lon="-1.93975">
        <ele>1</ele>
        <time>2018-01-12T19:54:31Z</time>
      </trkpt>
      <trkpt lat="46.71812" lon="-1.93975">
        <ele>1</ele>
        <time>2018-01-12T19:55:31Z</time>
      </trkpt>
      <trkpt lat="46.71813" lon="-1.93975">
        <ele>1</ele>
        <time>2018-01-12T19:56:31Z</time>
      </trkpt>
      <trkpt lat="46.71814" lon="-1.93975">
        <ele>1</ele>
        <time>2018-01-12T19:57:31Z</time>
      </trkpt>
      <trkpt lat="46.71815" lon="-1.93975">
        <ele>1</ele>
        <time>2018-01-12T19:58:31Z</time>
      </trkpt>
      <trkpt lat="46.71815" lon="-1.93976">
        <ele>1</ele>
        <time>2018-01-12T19:59:31Z</time>
      </trkpt>
      <trkpt lat="46.71816" lon="-1.93976">
        <ele>1</ele>
        <time>2018-01-12T20:00:31Z</time>
      </trkpt>
      <trkpt lat="46.71817" lon="-1.93976">
        <ele>1</ele>
        <time>2018-01-12T20:01:31Z</time>
      </trkpt>
      <trkpt lat="46.71818" lon="-1.93977">
        <ele>1</ele>
        <time>2018-01-12T20:02:31Z</time>
      </trkpt>
      <trkpt lat="46.71819" lon="-1.93978">
        <ele>1</ele>
        <time>2018-01-12T20:03:31Z</time>
      </trkpt>
      <trkpt lat="46.71819" lon="-1.93979">
        <ele>1</ele>
        <time>2018-01-12T20:04:31Z</time>
      </trkpt>
      <trkpt lat="46.7182" lon="-1.9398">
        <ele>1</ele>
        <time>2018-01-12T20:05:31Z</time>
      </trkpt>
      <trkpt lat="46.71821" lon="-1.93981">
        <ele>1</ele>
        <time>2018-01-12T20:06:31Z</time>
      </trkpt>
      <trkpt lat="46.71821" lon="-1.93982">
        <ele>1</ele>
        <time>2018-01-12T20:07:31Z</time>
      </trkpt>
      <trkpt lat="46.71822" lon="-1.93983">
        <ele>1</ele>
        <time>2018-01-12T20:08:31Z</time>
      </trkpt>
      <trkpt lat="46.71829" lon="-1.93984">
        <ele>1</ele>
        <time>2018-01-12T20:09:31Z</time>
      </trkpt>
      <trkpt lat="46.71832" lon="-1.93984">
        <ele>1</ele>
        <time>2018-01-12T20:10:31Z</time>
      </trkpt>
      <trkpt lat="46.71835" lon="-1.93984">
        <ele>1</ele>
        <time>2018-01-12T20:11:31Z</time>
      </trkpt>
      <trkpt lat="46.71838" lon="-1.93984">
        <ele>1</ele>
        <time>2018-01-12T20:12:31Z</time>
      </trkpt>
      <trkpt lat="46.7184" lon="-1.93984">
        <ele>1</ele>
        <time>2018-01-12T20:13:31Z</time>
      </trkpt>
      <trkpt lat="46.71843" lon="-1.93984">
        <ele>1</ele>
        <time>2018-01-12T20:14:31Z</time>
      </trkpt>
      <trkpt lat="46.71845" lon="-1.93984">
        <ele>1</ele>
        <time>2018-01-12T20:15:31Z</time>
      </trkpt>
      <trkpt lat="46.71876" lon="-1.9398">
        <ele>1</ele>
        <time>2018-01-12T20:16:31Z</time>
      </trkpt>
      <trkpt lat="46.71884" lon="-1.93978">
        <ele>1</ele>
        <time>2018-01-12T20:17:31Z</time>
      </trkpt>
      <trkpt lat="46.71946" lon="-1.93964">
        <ele>1</ele>
        <time>2018-01-12T20:18:31Z</time>
      </trkpt>
      <trkpt lat="46.71967" lon="-1.93959">
        <ele>2</ele>
        <time>2018-01-12T20:19:31Z</time>
      </trkpt>
      <trkpt lat="46.71981" lon="-1.93957">
        <ele>2</ele>
        <time>2018-01-12T20:20:31Z</time>
      </trkpt>
      <trkpt lat="46.71994" lon="-1.93954">
        <ele>2</ele>
        <time>2018-01-12T20:21:31Z</time>
      </trkpt>
      <trkpt lat="46.72012" lon="-1.93952">
        <ele>2</ele>
        <time>2018-01-12T20:22:31Z</time>
      </trkpt>
      <trkpt lat="46.72021" lon="-1.93951">
        <ele>2</ele>
        <time>2018-01-12T20:23:31Z</time>
      </trkpt>
      <trkpt lat="46.72029" lon="-1.93951">
        <ele>2</ele>
        <time>2018-01-12T20:24:31Z</time>
      </trkpt>
      <trkpt lat="46.72036" lon="-1.9395">
        <ele>2</ele>
        <time>2018-01-12T20:25:31Z</time>
      </trkpt>
      <trkpt lat="46.72043" lon="-1.9395">
        <ele>2</ele>
        <time>2018-01-12T20:26:31Z</time>
      </trkpt>
      <trkpt lat="46.72049" lon="-1.93951">
        <ele>2</ele>
        <time>2018-01-12T20:27:31Z</time>
      </trkpt>
      <trkpt lat="46.72054" lon="-1.93951">
        <ele>2</ele>
        <time>2018-01-12T20:28:31Z</time>
      </trkpt>
      <trkpt lat="46.72062" lon="-1.93951">
        <ele>2</ele>
        <time>2018-01-12T20:29:31Z</time>
      </trkpt>
      <trkpt lat="46.7207" lon="-1.93952">
        <ele>2</ele>
        <time>2018-01-12T20:30:31Z</time>
      </trkpt>
      <trkpt lat="46.7208" lon="-1.93953">
        <ele>2</ele>
        <time>2018-01-12T20:31:31Z</time>
      </trkpt>
      <trkpt lat="46.72086" lon="-1.93954">
        <ele>2</ele>
        <time>2018-01-12T20:32:31Z</time>
      </trkpt>
      <trkpt lat="46.72094" lon="-1.93955">
        <ele>2</ele>
        <time>2018-01-12T20:33:31Z</time>
      </trkpt>
      <trkpt lat="46.72106" lon="-1.93957">
        <ele>2</ele>
        <time>2018-01-12T20:34:31Z</time>
      </trkpt>
      <trkpt lat="46.72117" lon="-1.93959">
        <ele>2</ele>
        <time>2018-01-12T20:35:31Z</time>
      </trkpt>
      <trkpt lat="46.72129" lon="-1.93963">
        <ele>2</ele>
        <time>2018-01-12T20:36:31Z</time>
      </trkpt>
      <trkpt lat="46.72139" lon="-1.93966">
        <ele>2</ele>
        <time>2018-01-12T20:37:31Z</time>
      </trkpt>
      <trkpt lat="46.72149" lon="-1.93969">
        <ele>2</ele>
        <time>2018-01-12T20:38:31Z</time>
      </trkpt>
      <trkpt lat="46.72158" lon="-1.93972">
        <ele>2</ele>
        <time>2018-01-12T20:39:31Z</time>
      </trkpt>
      <trkpt lat="46.72167" lon="-1.93976">
        <ele>2</ele>
        <time>2018-01-12T20:40:31Z</time>
      </trkpt>
      <trkpt lat="46.72174" lon="-1.93979">
        <ele>2</ele>
        <time>2018-01-12T20:41:31Z</time>
      </trkpt>
      <trkpt lat="46.72178" lon="-1.93981">
        <ele>2</ele>
        <time>2018-01-12T20:42:31Z</time>
      </trkpt>
      <trkpt lat="46.72183" lon="-1.93983">
        <ele>2</ele>
        <time>2018-01-12T20:43:31Z</time>
      </trkpt>
      <trkpt lat="46.72187" lon="-1.93985">
        <ele>2</ele>
        <time>2018-01-12T20:44:31Z</time>
      </trkpt>
      <trkpt lat="46.72191" lon="-1.93987">
        <ele>2</ele>
        <time>2018-01-12T20:45:31Z</time>
      </trkpt>
      <trkpt lat="46.72195" lon="-1.9399">
        <ele>2</ele>
        <time>2018-01-12T20:46:31Z</time>
      </trkpt>
      <trkpt lat="46.72201" lon="-1.93993">
        <ele>2</ele>
        <time>2018-01-12T20:47:31Z</time>
      </trkpt>
      <trkpt lat="46.72208" lon="-1.93997">
        <ele>2</ele>
        <time>2018-01-12T20:48:31Z</time>
      </trkpt>
      <trkpt lat="46.72214" lon="-1.94">
        <ele>1</ele>
        <time>2018-01-12T20:49:31Z</time>
      </trkpt>
      <trkpt lat="46.72222" lon="-1.94005">
        <ele>1</ele>
        <time>2018-01-12T20:50:31Z</time>
      </trkpt>
      <trkpt lat="46.72228" lon="-1.94009">
        <ele>1</ele>
        <time>2018-01-12T20:51:31Z</time>
      </trkpt>
      <trkpt lat="46.72235" lon="-1.94014">
        <ele>1</ele>
        <time>2018-01-12T20:52:31Z</time>
      </trkpt>
      <trkpt lat="46.72241" lon="-1.94019">
        <ele>2</ele>
        <time>2018-01-12T20:53:31Z</time>
      </trkpt>
      <trkpt lat="46.72248" lon="-1.94024">
        <ele>2</ele>
        <time>2018-01-12T20:54:31Z</time>
      </trkpt>
      <trkpt lat="46.72254" lon="-1.94029">
        <ele>2</ele>
        <time>2018-01-12T20:55:31Z</time>
      </trkpt>
      <trkpt lat="46.72262" lon="-1.94035">
        <ele>2</ele>
        <time>2018-01-12T20:56:31Z</time>
      </trkpt>
      <trkpt lat="46.72271" lon="-1.94043">
        <ele>2</ele>
        <time>2018-01-12T20:57:31Z</time>
      </trkpt>
      <trkpt lat="46.72278" lon="-1.94048">
        <ele>2</ele>
        <time>2018-01-12T20:58:31Z</time>
      </trkpt>
      <trkpt lat="46.72291" lon="-1.94061">
        <ele>3</ele>
        <time>2018-01-12T20:59:31Z</time>
      </trkpt>
      <trkpt lat="46.723" lon="-1.94069">
        <ele>3</ele>
        <time>2018-01-12T21:00:31Z</time>
      </trkpt>
      <trkpt lat="46.72306" lon="-1.94075">
        <ele>3</ele>
        <time>2018-01-12T21:01:31Z</time>
      </trkpt>
      <trkpt lat="46.72313" lon="-1.94083">
        <ele>4</ele>
        <time>2018-01-12T21:02:31Z</time>
      </trkpt>
      <trkpt lat="46.72321" lon="-1.94092">
        <ele>4</ele>
        <time>2018-01-12T21:03:31Z</time>
      </trkpt>
      <trkpt lat="46.72327" lon="-1.94099">
        <ele>4</ele>
        <time>2018-01-12T21:04:31Z</time>
      </trkpt>
      <trkpt lat="46.72334" lon="-1.94107">
        <ele>4</ele>
        <time>2018-01-12T21:05:31Z</time>
      </trkpt>
      <trkpt lat="46.72342" lon="-1.94117">
        <ele>4</ele>
        <time>2018-01-12T21:06:31Z</time>
      </trkpt>
      <trkpt lat="46.72346" lon="-1.94123">
        <ele>4</ele>
        <time>2018-01-12T21:07:31Z</time>
      </trkpt>
      <trkpt lat="46.7235" lon="-1.94128">
        <ele>4</ele>
        <time>2018-01-12T21:08:31Z</time>
      </trkpt>
      <trkpt lat="46.72354" lon="-1.94133">
        <ele>4</ele>
        <time>2018-01-12T21:09:31Z</time>
      </trkpt>
      <trkpt lat="46.72357" lon="-1.94138">
        <ele>4</ele>
        <time>2018-01-12T21:10:31Z</time>
      </trkpt>
      <trkpt lat="46.72362" lon="-1.94142">
        <ele>4</ele>
        <time>2018-01-12T21:11:31Z</time>
      </trkpt>
      <trkpt lat="46.72368" lon="-1.94152">
        <ele>4</ele>
        <time>2018-01-12T21:12:31Z</time>
      </trkpt>
      <trkpt lat="46.72373" lon="-1.94159">
        <ele>3</ele>
        <time>2018-01-12T21:13:31Z</time>
      </trkpt>
      <trkpt lat="46.72379" lon="-1.94169">
        <ele>3</ele>
        <time>2018-01-12T21:14:31Z</time>
      </trkpt>
      <trkpt lat="46.72386" lon="-1.9418">
        <ele>3</ele>
        <time>2018-01-12T21:15:31Z</time>
      </trkpt>
      <trkpt lat="46.72393" lon="-1.9419">
        <ele>3</ele>
        <time>2018-01-12T21:16:31Z</time>
      </trkpt>
      <trkpt lat="46.72401" lon="-1.94205">
        <ele>3</ele>
        <time>2018-01-12T21:17:31Z</time>
      </trkpt>
      <trkpt lat="46.7241" lon="-1.9422">
        <ele>3</ele>
        <time>2018-01-12T21:18:31Z</time>
      </trkpt>
      <trkpt lat="46.72424" lon="-1.94243">
        <ele>4</ele>
        <time>2018-01-12T21:19:31Z</time>
      </trkpt>
      <trkpt lat="46.72442" lon="-1.94276">
        <ele>4</ele>
        <time>2018-01-12T21:20:31Z</time>
      </trkpt>
      <trkpt lat="46.72468" lon="-1.94322">
        <ele>4</ele>
        <time>2018-01-12T21:21:31Z</time>
      </trkpt>
      <trkpt lat="46.72468" lon="-1.94322">
        <ele>4</ele>
        <time>2018-01-12T21:22:31Z</time>
      </trkpt>
      <trkpt lat="46.72487" lon="-1.94312">
        <ele>4</ele>
        <time>2018-01-12T21:23:31Z</time>
      </trkpt>
      <trkpt lat="46.72489" lon="-1.94311">
        <ele>4</ele>
        <time>2018-01-12T21:24:31Z</time>
      </trkpt>
      <trkpt lat="46.72493" lon="-1.94311">
        <ele>4</ele>
        <time>2018-01-12T21:25:31Z</time>
      </trkpt>
      <trkpt lat="46.72496" lon="-1.94311">
        <ele>4</ele>
        <time>2018-01-12T21:26:31Z</time>
      </trkpt>
      <trkpt lat="46.72501" lon="-1.94308">
        <ele>4</ele>
        <time>2018-01-12T21:27:31Z</time>
      </trkpt>
      <trkpt lat="46.72505" lon="-1.94305">
        <ele>4</ele>
        <time>2018-01-12T21:28:31Z</time>
      </trkpt>
      <trkpt lat="46.72508" lon="-1.94302">
        <ele>4</ele>
        <time>2018-01-12T21:29:31Z</time>
      </trkpt>
      <trkpt lat="46.72511" lon="-1.943">
        <ele>4</ele>
        <time>2018-01-12T21:30:31Z</time>
      </trkpt>
      <trkpt lat="46.72516" lon="-1.94294">
        <ele>4</ele>
        <time>2018-01-12T21:31:31Z</time>
      </trkpt>
      <trkpt lat="46.7252" lon="-1.94289">
        <ele>4</ele>
        <time>2018-01-12T21:32:31Z</time>
      </trkpt>
      <trkpt lat="46.72523" lon="-1.94283">
        <ele>4</ele>
        <time>2018-01-12T21:33:31Z</time>
      </trkpt>
      <trkpt lat="46.72526" lon="-1.94279">
        <ele>4</ele>
        <time>2018-01-12T21:34:31Z</time>
      </trkpt>
      <trkpt lat="46.72535" lon="-1.94259">
        <ele>4</ele>
        <time>2018-01-12T21:35:31Z</time>
      </trkpt>
      <trkpt lat="46.72558" lon="-1.942">
        <ele>3</ele>
        <time>2018-01-12T21:36:31Z</time>
      </trkpt>
      <trkpt lat="46.72576" lon="-1.94156">
        <ele>3</ele>
        <time>2018-01-12T21:37:31Z</time>
      </trkpt>
      <trkpt lat="46.72592" lon="-1.94115">
        <ele>3</ele>
        <time>2018-01-12T21:38:31Z</time>
      </trkpt>
      <trkpt lat="46.72604" lon="-1.94088">
        <ele>3</ele>
        <time>2018-01-12T21:39:31Z</time>
      </trkpt>
      <trkpt lat="46.72614" lon="-1.94064">
        <ele>3</ele>
        <time>2018-01-12T21:40:31Z</time>
      </trkpt>
      <trkpt lat="46.7263" lon="-1.94032">
        <ele>4</ele>
        <time>2018-01-12T21:41:31Z</time>
      </trkpt>
      <trkpt lat="46.72638" lon="-1.94014">
        <ele>4</ele>
        <time>2018-01-12T21:42:31Z</time>
      </trkpt>
      <trkpt lat="46.72646" lon="-1.93999">
        <ele>4</ele>
        <time>2018-01-12T21:43:31Z</time>
      </trkpt>
      <trkpt lat="46.72659" lon="-1.93978">
        <ele>4</ele>
        <time>2018-01-12T21:44:31Z</time>
      </trkpt>
      <trkpt lat="46.72665" lon="-1.9397">
        <ele>4</ele>
        <time>2018-01-12T21:45:31Z</time>
      </trkpt>
      <trkpt lat="46.72675" lon="-1.9396">
        <ele>4</ele>
        <time>2018-01-12T21:46:31Z</time>
      </trkpt>
      <trkpt lat="46.72693" lon="-1.93944">
        <ele>4</ele>
        <time>2018-01-12T21:47:31Z</time>
      </trkpt>
      <trkpt lat="46.72728" lon="-1.93918">
        <ele>4</ele>
        <time>2018-01-12T21:48:31Z</time>
      </trkpt>
      <trkpt lat="46.72764" lon="-1.93888">
        <ele>3</ele>
        <time>2018-01-12T21:49:31Z</time>
      </trkpt>
      <trkpt lat="46.72788" lon="-1.93868">
        <ele>3</ele>
        <time>2018-01-12T21:50:31Z</time>
      </trkpt>
      <trkpt lat="46.72813" lon="-1.93847">
        <ele>3</ele>
        <time>2018-01-12T21:51:31Z</time>
      </trkpt>
      <trkpt lat="46.72837" lon="-1.93824">
        <ele>3</ele>
        <time>2018-01-12T21:52:31Z</time>
      </trkpt>
      <trkpt lat="46.72848" lon="-1.93812">
        <ele>2</ele>
        <time>2018-01-12T21:53:31Z</time>
      </trkpt>
      <trkpt lat="46.72861" lon="-1.93798">
        <ele>2</ele>
        <time>2018-01-12T21:54:31Z</time>
      </trkpt>
      <trkpt lat="46.72875" lon="-1.93779">
        <ele>2</ele>
        <time>2018-01-12T21:55:31Z</time>
      </trkpt>
      <trkpt lat="46.72905" lon="-1.93732">
        <ele>1</ele>
        <time>2018-01-12T21:56:31Z</time>
      </trkpt>
      <trkpt lat="46.7291" lon="-1.93724">
        <ele>1</ele>
        <time>2018-01-12T21:57:31Z</time>
      </trkpt>
      <trkpt lat="46.72928" lon="-1.93697">
        <ele>1</ele>
        <time>2018-01-12T21:58:31Z</time>
      </trkpt>
      <trkpt lat="46.72932" lon="-1.93689">
        <ele>1</ele>
        <time>2018-01-12T21:59:31Z</time>
      </trkpt>
      <trkpt lat="46.72951" lon="-1.9366">
        <ele>1</ele>
        <time>2018-01-12T22:00:31Z</time>
      </trkpt>
      <trkpt lat="46.72961" lon="-1.93643">
        <ele>1</ele>
        <time>2018-01-12T22:01:31Z</time>
      </trkpt>
      <trkpt lat="46.72967" lon="-1.93631">
        <ele>1</ele>
        <time>2018-01-12T22:02:31Z</time>
      </trkpt>
      <trkpt lat="46.72973" lon="-1.9362">
        <ele>1</ele>
        <time>2018-01-12T22:03:31Z</time>
      </trkpt>
      <trkpt lat="46.72976" lon="-1.93612">
        <ele>1</ele>
        <time>2018-01-12T22:04:31Z</time>
      </trkpt>
      <trkpt lat="46.72981" lon="-1.93597">
        <ele>2</ele>
        <time>2018-01-12T22:05:31Z</time>
      </trkpt>
      <trkpt lat="46.72986" lon="-1.93582">
        <ele>2</ele>
        <time>2018-01-12T22:06:31Z</time>
      </trkpt>
      <trkpt lat="46.72987" lon="-1.93576">
        <ele>2</ele>
        <time>2018-01-12T22:07:31Z</time>
      </trkpt>
      <trkpt lat="46.72991" lon="-1.9356">
        <ele>1</ele>
        <time>2018-01-12T22:08:31Z</time>
      </trkpt>
      <trkpt lat="46.72997" lon="-1.93533">
        <ele>1</ele>
        <time>2018-01-12T22:09:31Z</time>
      </trkpt>
      <trkpt lat="46.73002" lon="-1.93484">
        <ele>2.5</ele>
        <time>2018-01-12T22:10:31Z</time>
      </trkpt>
      <trkpt lat="46.73007" lon="-1.93413">
        <ele>1</ele>
        <time>2018-01-12T22:11:31Z</time>
      </trkpt>
      <trkpt lat="46.73012" lon="-1.93352">
        <ele>2</ele>
        <time>2018-01-12T22:12:31Z</time>
      </trkpt>
      <trkpt lat="46.73013" lon="-1.93326">
        <ele>3</ele>
        <time>2018-01-12T22:13:31Z</time>
      </trkpt>
      <trkpt lat="46.73013" lon="-1.93306">
        <ele>3</ele>
        <time>2018-01-12T22:14:31Z</time>
      </trkpt>
      <trkpt lat="46.73012" lon="-1.9329">
        <ele>3</ele>
        <time>2018-01-12T22:15:31Z</time>
      </trkpt>
      <trkpt lat="46.73011" lon="-1.93282">
        <ele>4</ele>
        <time>2018-01-12T22:16:31Z</time>
      </trkpt>
      <trkpt lat="46.73009" lon="-1.93253">
        <ele>4</ele>
        <time>2018-01-12T22:17:31Z</time>
      </trkpt>
      <trkpt lat="46.73009" lon="-1.93242">
        <ele>4</ele>
        <time>2018-01-12T22:18:31Z</time>
      </trkpt>
      <trkpt lat="46.73008" lon="-1.93236">
        <ele>4</ele>
        <time>2018-01-12T22:19:31Z</time>
      </trkpt>
      <trkpt lat="46.73005" lon="-1.93202">
        <ele>3</ele>
        <time>2018-01-12T22:20:31Z</time>
      </trkpt>
      <trkpt lat="46.72999" lon="-1.93142">
        <ele>2</ele>
        <time>2018-01-12T22:21:31Z</time>
      </trkpt>
      <trkpt lat="46.72992" lon="-1.93073">
        <ele>2</ele>
        <time>2018-01-12T22:22:31Z</time>
      </trkpt>
      <trkpt lat="46.72991" lon="-1.93061">
        <ele>2</ele>
        <time>2018-01-12T22:23:31Z</time>
      </trkpt>
      <trkpt lat="46.72988" lon="-1.93017">
        <ele>3</ele>
        <time>2018-01-12T22:24:31Z</time>
      </trkpt>
      <trkpt lat="46.72986" lon="-1.92984">
        <ele>4</ele>
        <time>2018-01-12T22:25:31Z</time>
      </trkpt>
      <trkpt lat="46.72987" lon="-1.92966">
        <ele>4</ele>
        <time>2018-01-12T22:26:31Z</time>
      </trkpt>
      <trkpt lat="46.72988" lon="-1.9295">
        <ele>3</ele>
        <time>2018-01-12T22:27:31Z</time>
      </trkpt>
      <trkpt lat="46.72991" lon="-1.92935">
        <ele>3</ele>
        <time>2018-01-12T22:28:31Z</time>
      </trkpt>
      <trkpt lat="46.72995" lon="-1.92922">
        <ele>3</ele>
        <time>2018-01-12T22:29:31Z</time>
      </trkpt>
      <trkpt lat="46.73003" lon="-1.92906">
        <ele>3</ele>
        <time>2018-01-12T22:30:31Z</time>
      </trkpt>
      <trkpt lat="46.73013" lon="-1.92891">
        <ele>4</ele>
        <time>2018-01-12T22:31:31Z</time>
      </trkpt>
      <trkpt lat="46.7302" lon="-1.92882">
        <ele>4</ele>
        <time>2018-01-12T22:32:31Z</time>
      </trkpt>
      <trkpt lat="46.7303" lon="-1.92875">
        <ele>5</ele>
        <time>2018-01-12T22:33:31Z</time>
      </trkpt>
      <trkpt lat="46.73039" lon="-1.92872">
        <ele>5</ele>
        <time>2018-01-12T22:34:31Z</time>
      </trkpt>
      <trkpt lat="46.73048" lon="-1.92868">
        <ele>5</ele>
        <time>2018-01-12T22:35:31Z</time>
      </trkpt>
      <trkpt lat="46.73062" lon="-1.92865">
        <ele>5</ele>
        <time>2018-01-12T22:36:31Z</time>
      </trkpt>
      <trkpt lat="46.73087" lon="-1.92863">
        <ele>6</ele>
        <time>2018-01-12T22:37:31Z</time>
      </trkpt>
      <trkpt lat="46.73108" lon="-1.92861">
        <ele>6</ele>
        <time>2018-01-12T22:38:31Z</time>
      </trkpt>
      <trkpt lat="46.73108" lon="-1.92861">
        <ele>6</ele>
        <time>2018-01-12T22:39:31Z</time>
      </trkpt>
      <trkpt lat="46.73113" lon="-1.92851">
        <ele>6</ele>
        <time>2018-01-12T22:40:31Z</time>
      </trkpt>
      <trkpt lat="46.7312" lon="-1.9284">
        <ele>7</ele>
        <time>2018-01-12T22:41:31Z</time>
      </trkpt>
      <trkpt lat="46.73138" lon="-1.92824">
        <ele>7</ele>
        <time>2018-01-12T22:42:31Z</time>
      </trkpt>
      <trkpt lat="46.73156" lon="-1.92807">
        <ele>7</ele>
        <time>2018-01-12T22:43:31Z</time>
      </trkpt>
      <trkpt lat="46.73191" lon="-1.92776">
        <ele>8</ele>
        <time>2018-01-12T22:44:31Z</time>
      </trkpt>
      <trkpt lat="46.73214" lon="-1.92753">
        <ele>8</ele>
        <time>2018-01-12T22:45:31Z</time>
      </trkpt>
      <trkpt lat="46.73238" lon="-1.92725">
        <ele>8</ele>
        <time>2018-01-12T22:46:31Z</time>
      </trkpt>
      <trkpt lat="46.73277" lon="-1.92674">
        <ele>9</ele>
        <time>2018-01-12T22:47:31Z</time>
      </trkpt>
      <trkpt lat="46.73317" lon="-1.9262">
        <ele>9</ele>
        <time>2018-01-12T22:48:31Z</time>
      </trkpt>
      <trkpt lat="46.73362" lon="-1.92559">
        <ele>9</ele>
        <time>2018-01-12T22:49:31Z</time>
      </trkpt>
      <trkpt lat="46.73384" lon="-1.92531">
        <ele>9</ele>
        <time>2018-01-12T22:50:31Z</time>
      </trkpt>
      <trkpt lat="46.734" lon="-1.92511">
        <ele>9</ele>
        <time>2018-01-12T22:51:31Z</time>
      </trkpt>
      <trkpt lat="46.73407" lon="-1.92503">
        <ele>9</ele>
        <time>2018-01-12T22:52:31Z</time>
      </trkpt>
      <trkpt lat="46.73416" lon="-1.92492">
        <ele>9</ele>
        <time>2018-01-12T22:53:31Z</time>
      </trkpt>
      <trkpt lat="46.73425" lon="-1.92479">
        <ele>9</ele>
        <time>2018-01-12T22:54:31Z</time>
      </trkpt>
      <trkpt lat="46.73441" lon="-1.92457">
        <ele>10</ele>
        <time>2018-01-12T22:55:31Z</time>
      </trkpt>
      <trkpt lat="46.73469" lon="-1.92417">
        <ele>10</ele>
        <time>2018-01-12T22:56:31Z</time>
      </trkpt>
      <trkpt lat="46.73473" lon="-1.92412">
        <ele>10</ele>
        <time>2018-01-12T22:57:31Z</time>
      </trkpt>
      <trkpt lat="46.73494" lon="-1.92381">
        <ele>10</ele>
        <time>2018-01-12T22:58:31Z</time>
      </trkpt>
      <trkpt lat="46.73535" lon="-1.92326">
        <ele>10</ele>
        <time>2018-01-12T22:59:31Z</time>
      </trkpt>
      <trkpt lat="46.73545" lon="-1.92313">
        <ele>9</ele>
        <time>2018-01-12T23:00:31Z</time>
      </trkpt>
      <trkpt lat="46.73578" lon="-1.92269">
        <ele>9</ele>
        <time>2018-01-12T23:01:31Z</time>
      </trkpt>
      <trkpt lat="46.73602" lon="-1.92237">
        <ele>9</ele>
        <time>2018-01-12T23:02:31Z</time>
      </trkpt>
      <trkpt lat="46.73621" lon="-1.92211">
        <ele>9</ele>
        <time>2018-01-12T23:03:31Z</time>
      </trkpt>
      <trkpt lat="46.73635" lon="-1.92191">
        <ele>9</ele>
        <time>2018-01-12T23:04:31Z</time>
      </trkpt>
      <trkpt lat="46.73646" lon="-1.92175">
        <ele>9</ele>
        <time>2018-01-12T23:05:31Z</time>
      </trkpt>
      <trkpt lat="46.73659" lon="-1.92154">
        <ele>9</ele>
        <time>2018-01-12T23:06:31Z</time>
      </trkpt>
      <trkpt lat="46.73671" lon="-1.92133">
        <ele>8</ele>
        <time>2018-01-12T23:07:31Z</time>
      </trkpt>
      <trkpt lat="46.7369" lon="-1.92099">
        <ele>7</ele>
        <time>2018-01-12T23:08:31Z</time>
      </trkpt>
      <trkpt lat="46.73727" lon="-1.92027">
        <ele>6</ele>
        <time>2018-01-12T23:09:31Z</time>
      </trkpt>
      <trkpt lat="46.73756" lon="-1.91966">
        <ele>6</ele>
        <time>2018-01-12T23:10:31Z</time>
      </trkpt>
      <trkpt lat="46.73777" lon="-1.91924">
        <ele>5</ele>
        <time>2018-01-12T23:11:31Z</time>
      </trkpt>
      <trkpt lat="46.73782" lon="-1.91913">
        <ele>5</ele>
        <time>2018-01-12T23:12:31Z</time>
      </trkpt>
      <trkpt lat="46.73787" lon="-1.91904">
        <ele>5</ele>
        <time>2018-01-12T23:13:31Z</time>
      </trkpt>
      <trkpt lat="46.73793" lon="-1.91895">
        <ele>5</ele>
        <time>2018-01-12T23:14:31Z</time>
      </trkpt>
      <trkpt lat="46.738" lon="-1.91886">
        <ele>5</ele>
        <time>2018-01-12T23:15:31Z</time>
      </trkpt>
      <trkpt lat="46.73813" lon="-1.91873">
        <ele>5</ele>
        <time>2018-01-12T23:16:31Z</time>
      </trkpt>
      <trkpt lat="46.73863" lon="-1.91828">
        <ele>4</ele>
        <time>2018-01-12T23:17:31Z</time>
      </trkpt>
      <trkpt lat="46.73918" lon="-1.91773">
        <ele>4</ele>
        <time>2018-01-12T23:18:31Z</time>
      </trkpt>
      <trkpt lat="46.73929" lon="-1.91762">
        <ele>4</ele>
        <time>2018-01-12T23:19:31Z</time>
      </trkpt>
      <trkpt lat="46.73946" lon="-1.91744">
        <ele>4</ele>
        <time>2018-01-12T23:20:31Z</time>
      </trkpt>
      <trkpt lat="46.73954" lon="-1.91736">
        <ele>5</ele>
        <time>2018-01-12T23:21:31Z</time>
      </trkpt>
      <trkpt lat="46.73966" lon="-1.91725">
        <ele>5</ele>
        <time>2018-01-12T23:22:31Z</time>
      </trkpt>
      <trkpt lat="46.73966" lon="-1.91725">
        <ele>5</ele>
        <time>2018-01-12T23:23:31Z</time>
      </trkpt>
      <trkpt lat="46.73994" lon="-1.91701">
        <ele>5</ele>
        <time>2018-01-12T23:24:31Z</time>
      </trkpt>
      <trkpt lat="46.74036" lon="-1.91667">
        <ele>6</ele>
        <time>2018-01-12T23:25:31Z</time>
      </trkpt>
      <trkpt lat="46.74089" lon="-1.91626">
        <ele>5</ele>
        <time>2018-01-12T23:26:31Z</time>
      </trkpt>
      <trkpt lat="46.74117" lon="-1.91604">
        <ele>5</ele>
        <time>2018-01-12T23:27:31Z</time>
      </trkpt>
      <trkpt lat="46.74143" lon="-1.91582">
        <ele>5</ele>
        <time>2018-01-12T23:28:31Z</time>
      </trkpt>
      <trkpt lat="46.74156" lon="-1.9157">
        <ele>5</ele>
        <time>2018-01-12T23:29:31Z</time>
      </trkpt>
      <trkpt lat="46.74172" lon="-1.91555">
        <ele>5</ele>
        <time>2018-01-12T23:30:31Z</time>
      </trkpt>
      <trkpt lat="46.74174" lon="-1.91553">
        <ele>5</ele>
        <time>2018-01-12T23:31:31Z</time>
      </trkpt>
      <trkpt lat="46.74192" lon="-1.91535">
        <ele>5</ele>
        <time>2018-01-12T23:32:31Z</time>
      </trkpt>
      <trkpt lat="46.74235" lon="-1.91492">
        <ele>5</ele>
        <time>2018-01-12T23:33:31Z</time>
      </trkpt>
      <trkpt lat="46.74245" lon="-1.91482">
        <ele>5</ele>
        <time>2018-01-12T23:34:31Z</time>
      </trkpt>
      <trkpt lat="46.74283" lon="-1.91443">
        <ele>4</ele>
        <time>2018-01-12T23:35:31Z</time>
      </trkpt>
      <trkpt lat="46.74292" lon="-1.91432">
        <ele>4</ele>
        <time>2018-01-12T23:36:31Z</time>
      </trkpt>
      <trkpt lat="46.74294" lon="-1.91432">
        <ele>4</ele>
        <time>2018-01-12T23:37:31Z</time>
      </trkpt>
      <trkpt lat="46.74297" lon="-1.91431">
        <ele>4</ele>
        <time>2018-01-12T23:38:31Z</time>
      </trkpt>
      <trkpt lat="46.74311" lon="-1.91431">
        <ele>4</ele>
        <time>2018-01-12T23:39:31Z</time>
      </trkpt>
      <trkpt lat="46.74311" lon="-1.91431">
        <ele>4</ele>
        <time>2018-01-12T23:40:31Z</time>
      </trkpt>
      <trkpt lat="46.74317" lon="-1.91418">
        <ele>4</ele>
        <time>2018-01-12T23:41:31Z</time>
      </trkpt>
      <trkpt lat="46.74324" lon="-1.91402">
        <ele>4</ele>
        <time>2018-01-12T23:42:31Z</time>
      </trkpt>
      <trkpt lat="46.74333" lon="-1.91384">
        <ele>4</ele>
        <time>2018-01-12T23:43:31Z</time>
      </trkpt>
      <trkpt lat="46.74344" lon="-1.9136">
        <ele>4</ele>
        <time>2018-01-12T23:44:31Z</time>
      </trkpt>
      <trkpt lat="46.74351" lon="-1.91346">
        <ele>4</ele>
        <time>2018-01-12T23:45:31Z</time>
      </trkpt>
      <trkpt lat="46.74358" lon="-1.91334">
        <ele>4</ele>
        <time>2018-01-12T23:46:31Z</time>
      </trkpt>
      <trkpt lat="46.74367" lon="-1.91321">
        <ele>4</ele>
        <time>2018-01-12T23:47:31Z</time>
      </trkpt>
      <trkpt lat="46.74375" lon="-1.91309">
        <ele>3</ele>
        <time>2018-01-12T23:48:31Z</time>
      </trkpt>
      <trkpt lat="46.74385" lon="-1.91297">
        <ele>3</ele>
        <time>2018-01-12T23:49:31Z</time>
      </trkpt>
      <trkpt lat="46.74388" lon="-1.91293">
        <ele>3</ele>
        <time>2018-01-12T23:50:31Z</time>
      </trkpt>
      <trkpt lat="46.74418" lon="-1.91257">
        <ele>3</ele>
        <time>2018-01-12T23:51:31Z</time>
      </trkpt>
      <trkpt lat="46.74469" lon="-1.91194">
        <ele>4</ele>
        <time>2018-01-12T23:52:31Z</time>
      </trkpt>
      <trkpt lat="46.74477" lon="-1.91184">
        <ele>4</ele>
        <time>2018-01-12T23:53:31Z</time>
      </trkpt>
      <trkpt lat="46.74534" lon="-1.91117">
        <ele>3</ele>
        <time>2018-01-12T23:54:31Z</time>
      </trkpt>
      <trkpt lat="46.74563" lon="-1.91079">
        <ele>3</ele>
        <time>2018-01-12T23:55:31Z</time>
      </trkpt>
      <trkpt lat="46.74569" lon="-1.91072">
        <ele>2</ele>
        <time>2018-01-12T23:56:31Z</time>
      </trkpt>
      <trkpt lat="46.74573" lon="-1.91066">
        <ele>2</ele>
        <time>2018-01-12T23:57:31Z</time>
      </trkpt>
      <trkpt lat="46.74576" lon="-1.9106">
        <ele>2</ele>
        <time>2018-01-12T23:58:31Z</time>
      </trkpt>
      <trkpt lat="46.74584" lon="-1.91045">
        <ele>2</ele>
        <time>2018-01-12T23:59:31Z</time>
      </trkpt>
      <trkpt lat="46.74581" lon="-1.91042">
        <ele>3</ele>
        <time>2018-01-13T00:00:31Z</time>
      </trkpt>
      <trkpt lat="46.7458" lon="-1.91039">
        <ele>3</ele>
        <time>2018-01-13T00:01:31Z</time>
      </trkpt>
      <trkpt lat="46.74579" lon="-1.91036">
        <ele>3</ele>
        <time>2018-01-13T00:02:31Z</time>
      </trkpt>
      <trkpt lat="46.74579" lon="-1.91033">
        <ele>3</ele>
        <time>2018-01-13T00:03:31Z</time>
      </trkpt>
      <trkpt lat="46.7458" lon="-1.9103">
        <ele>3</ele>
        <time>2018-01-13T00:04:31Z</time>
      </trkpt>
      <trkpt lat="46.74583" lon="-1.91026">
        <ele>3</ele>
        <time>2018-01-13T00:05:31Z</time>
      </trkpt>
      <trkpt lat="46.74586" lon="-1.91024">
        <ele>3</ele>
        <time>2018-01-13T00:06:31Z</time>
      </trkpt>
      <trkpt lat="46.74589" lon="-1.91025">
        <ele>3</ele>
        <time>2018-01-13T00:07:31Z</time>
      </trkpt>
      <trkpt lat="46.74591" lon="-1.91026">
        <ele>3</ele>
        <time>2018-01-13T00:08:31Z</time>
      </trkpt>
      <trkpt lat="46.74596" lon="-1.91019">
        <ele>3</ele>
        <time>2018-01-13T00:09:31Z</time>
      </trkpt>
      <trkpt lat="46.74597" lon="-1.91017">
        <ele>3</ele>
        <time>2018-01-13T00:10:31Z</time>
      </trkpt>
      <trkpt lat="46.74598" lon="-1.91015">
        <ele>3</ele>
        <time>2018-01-13T00:11:31Z</time>
      </trkpt>
      <trkpt lat="46.746" lon="-1.91009">
        <ele>3</ele>
        <time>2018-01-13T00:12:31Z</time>
      </trkpt>
      <trkpt lat="46.74602" lon="-1.91001">
        <ele>3</ele>
        <time>2018-01-13T00:13:31Z</time>
      </trkpt>
      <trkpt lat="46.74603" lon="-1.9099">
        <ele>3</ele>
        <time>2018-01-13T00:14:31Z</time>
      </trkpt>
      <trkpt lat="46.74603" lon="-1.9098">
        <ele>3</ele>
        <time>2018-01-13T00:15:31Z</time>
      </trkpt>
      <trkpt lat="46.74602" lon="-1.9097">
        <ele>3</ele>
        <time>2018-01-13T00:16:31Z</time>
      </trkpt>
      <trkpt lat="46.74599" lon="-1.9096">
        <ele>3</ele>
        <time>2018-01-13T00:17:31Z</time>
      </trkpt>
      <trkpt lat="46.74594" lon="-1.90947">
        <ele>3</ele>
        <time>2018-01-13T00:18:31Z</time>
      </trkpt>
      <trkpt lat="46.74591" lon="-1.9094">
        <ele>3</ele>
        <time>2018-01-13T00:19:31Z</time>
      </trkpt>
      <trkpt lat="46.74581" lon="-1.90912">
        <ele>3</ele>
        <time>2018-01-13T00:20:31Z</time>
      </trkpt>
      <trkpt lat="46.7458" lon="-1.90911">
        <ele>3</ele>
        <time>2018-01-13T00:21:31Z</time>
      </trkpt>
      <trkpt lat="46.74576" lon="-1.90901">
        <ele>3</ele>
        <time>2018-01-13T00:22:31Z</time>
      </trkpt>
      <trkpt lat="46.74572" lon="-1.90893">
        <ele>4</ele>
        <time>2018-01-13T00:23:31Z</time>
      </trkpt>
      <trkpt lat="46.74566" lon="-1.9088">
        <ele>4</ele>
        <time>2018-01-13T00:24:31Z</time>
      </trkpt>
      <trkpt lat="46.74566" lon="-1.9088">
        <ele>4</ele>
        <time>2018-01-13T00:25:31Z</time>
      </trkpt>
      <trkpt lat="46.74564" lon="-1.90876">
        <ele>4</ele>
        <time>2018-01-13T00:26:31Z</time>
      </trkpt>
      <trkpt lat="46.74554" lon="-1.90862">
        <ele>4</ele>
        <time>2018-01-13T00:27:31Z</time>
      </trkpt>
      <trkpt lat="46.74534" lon="-1.90836">
        <ele>5</ele>
        <time>2018-01-13T00:28:31Z</time>
      </trkpt>
      <trkpt lat="46.74528" lon="-1.90828">
        <ele>5</ele>
        <time>2018-01-13T00:29:31Z</time>
      </trkpt>
      <trkpt lat="46.74523" lon="-1.90822">
        <ele>5</ele>
        <time>2018-01-13T00:30:31Z</time>
      </trkpt>
      <trkpt lat="46.74511" lon="-1.90805">
        <ele>5</ele>
        <time>2018-01-13T00:31:31Z</time>
      </trkpt>
      <trkpt lat="46.74508" lon="-1.90798">
        <ele>5</ele>
        <time>2018-01-13T00:32:31Z</time>
      </trkpt>
      <trkpt lat="46.74503" lon="-1.90787">
        <ele>5</ele>
        <time>2018-01-13T00:33:31Z</time>
      </trkpt>
      <trkpt lat="46.74496" lon="-1.90771">
        <ele>5</ele>
        <time>2018-01-13T00:34:31Z</time>
      </trkpt>
      <trkpt lat="46.74491" lon="-1.90757">
        <ele>5</ele>
        <time>2018-01-13T00:35:31Z</time>
      </trkpt>
      <trkpt lat="46.74487" lon="-1.90744">
        <ele>5</ele>
        <time>2018-01-13T00:36:31Z</time>
      </trkpt>
      <trkpt lat="46.74486" lon="-1.90734">
        <ele>5</ele>
        <time>2018-01-13T00:37:31Z</time>
      </trkpt>
      <trkpt lat="46.74485" lon="-1.90722">
        <ele>5</ele>
        <time>2018-01-13T00:38:31Z</time>
      </trkpt>
      <trkpt lat="46.74486" lon="-1.90716">
        <ele>5</ele>
        <time>2018-01-13T00:39:31Z</time>
      </trkpt>
      <trkpt lat="46.74487" lon="-1.90711">
        <ele>5</ele>
        <time>2018-01-13T00:40:31Z</time>
      </trkpt>
      <trkpt lat="46.74489" lon="-1.90704">
        <ele>5</ele>
        <time>2018-01-13T00:41:31Z</time>
      </trkpt>
      <trkpt lat="46.74493" lon="-1.90698">
        <ele>4</ele>
        <time>2018-01-13T00:42:31Z</time>
      </trkpt>
      <trkpt lat="46.74497" lon="-1.9069">
        <ele>4</ele>
        <time>2018-01-13T00:43:31Z</time>
      </trkpt>
      <trkpt lat="46.74502" lon="-1.90684">
        <ele>4</ele>
        <time>2018-01-13T00:44:31Z</time>
      </trkpt>
      <trkpt lat="46.74506" lon="-1.90678">
        <ele>4</ele>
        <time>2018-01-13T00:45:31Z</time>
      </trkpt>
      <trkpt lat="46.74512" lon="-1.90668">
        <ele>4</ele>
        <time>2018-01-13T00:46:31Z</time>
      </trkpt>
      <trkpt lat="46.74519" lon="-1.90656">
        <ele>4</ele>
        <time>2018-01-13T00:47:31Z</time>
      </trkpt>
      <trkpt lat="46.74519" lon="-1.90656">
        <ele>4</ele>
        <time>2018-01-13T00:48:31Z</time>
      </trkpt>
      <trkpt lat="46.74523" lon="-1.90646">
        <ele>4</ele>
        <time>2018-01-13T00:49:31Z</time>
      </trkpt>
      <trkpt lat="46.74529" lon="-1.90639">
        <ele>4</ele>
        <time>2018-01-13T00:50:31Z</time>
      </trkpt>
      <trkpt lat="46.74538" lon="-1.90629">
        <ele>4</ele>
        <time>2018-01-13T00:51:31Z</time>
      </trkpt>
      <trkpt lat="46.74549" lon="-1.90627">
        <ele>3</ele>
        <time>2018-01-13T00:52:31Z</time>
      </trkpt>
      <trkpt lat="46.74552" lon="-1.90625">
        <ele>3</ele>
        <time>2018-01-13T00:53:31Z</time>
      </trkpt>
      <trkpt lat="46.74567" lon="-1.90615">
        <ele>3</ele>
        <time>2018-01-13T00:54:31Z</time>
      </trkpt>
      <trkpt lat="46.74573" lon="-1.9061">
        <ele>3</ele>
        <time>2018-01-13T00:55:31Z</time>
      </trkpt>
      <trkpt lat="46.74591" lon="-1.90595">
        <ele>2</ele>
        <time>2018-01-13T00:56:31Z</time>
      </trkpt>
      <trkpt lat="46.74603" lon="-1.90586">
        <ele>2</ele>
        <time>2018-01-13T00:57:31Z</time>
      </trkpt>
      <trkpt lat="46.74612" lon="-1.90578">
        <ele>2</ele>
        <time>2018-01-13T00:58:31Z</time>
      </trkpt>
      <trkpt lat="46.74618" lon="-1.90573">
        <ele>2</ele>
        <time>2018-01-13T00:59:31Z</time>
      </trkpt>
      <trkpt lat="46.74672" lon="-1.90525">
        <ele>3</ele>
        <time>2018-01-13T01:00:31Z</time>
      </trkpt>
      <trkpt lat="46.74727" lon="-1.90479">
        <ele>4</ele>
        <time>2018-01-13T01:01:31Z</time>
      </trkpt>
      <trkpt lat="46.7473" lon="-1.90477">
        <ele>4</ele>
        <time>2018-01-13T01:02:31Z</time>
      </trkpt>
      <trkpt lat="46.74758" lon="-1.90455">
        <ele>4</ele>
        <time>2018-01-13T01:03:31Z</time>
      </trkpt>
      <trkpt lat="46.74812" lon="-1.90415">
        <ele>4</ele>
        <time>2018-01-13T01:04:31Z</time>
      </trkpt>
      <trkpt lat="46.74824" lon="-1.90396">
        <ele>4</ele>
        <time>2018-01-13T01:05:31Z</time>
      </trkpt>
      <trkpt lat="46.74826" lon="-1.90393">
        <ele>4</ele>
        <time>2018-01-13T01:06:31Z</time>
      </trkpt>
      <trkpt lat="46.74827" lon="-1.9039">
        <ele>4</ele>
        <time>2018-01-13T01:07:31Z</time>
      </trkpt>
      <trkpt lat="46.74828" lon="-1.90387">
        <ele>4</ele>
        <time>2018-01-13T01:08:31Z</time>
      </trkpt>
      <trkpt lat="46.74833" lon="-1.90376">
        <ele>4</ele>
        <time>2018-01-13T01:09:31Z</time>
      </trkpt>
      <trkpt lat="46.74837" lon="-1.90359">
        <ele>5</ele>
        <time>2018-01-13T01:10:31Z</time>
      </trkpt>
      <trkpt lat="46.74841" lon="-1.9034">
        <ele>5</ele>
        <time>2018-01-13T01:11:31Z</time>
      </trkpt>
      <trkpt lat="46.74845" lon="-1.90331">
        <ele>5</ele>
        <time>2018-01-13T01:12:31Z</time>
      </trkpt>
      <trkpt lat="46.74846" lon="-1.90329">
        <ele>5</ele>
        <time>2018-01-13T01:13:31Z</time>
      </trkpt>
      <trkpt lat="46.74849" lon="-1.90315">
        <ele>5</ele>
        <time>2018-01-13T01:14:31Z</time>
      </trkpt>
      <trkpt lat="46.74851" lon="-1.90299">
        <ele>5</ele>
        <time>2018-01-13T01:15:31Z</time>
      </trkpt>
      <trkpt lat="46.74852" lon="-1.90282">
        <ele>5</ele>
        <time>2018-01-13T01:16:31Z</time>
      </trkpt>
      <trkpt lat="46.74853" lon="-1.90275">
        <ele>6</ele>
        <time>2018-01-13T01:17:31Z</time>
      </trkpt>
      <trkpt lat="46.74853" lon="-1.90266">
        <ele>6</ele>
        <time>2018-01-13T01:18:31Z</time>
      </trkpt>
      <trkpt lat="46.74855" lon="-1.90247">
        <ele>6</ele>
        <time>2018-01-13T01:19:31Z</time>
      </trkpt>
      <trkpt lat="46.74855" lon="-1.90226">
        <ele>6</ele>
        <time>2018-01-13T01:20:31Z</time>
      </trkpt>
      <trkpt lat="46.74856" lon="-1.90215">
        <ele>6</ele>
        <time>2018-01-13T01:21:31Z</time>
      </trkpt>
      <trkpt lat="46.74857" lon="-1.90195">
        <ele>6</ele>
        <time>2018-01-13T01:22:31Z</time>
      </trkpt>
      <trkpt lat="46.74857" lon="-1.90183">
        <ele>6</ele>
        <time>2018-01-13T01:23:31Z</time>
      </trkpt>
      <trkpt lat="46.74857" lon="-1.9018">
        <ele>6</ele>
        <time>2018-01-13T01:24:31Z</time>
      </trkpt>
      <trkpt lat="46.74857" lon="-1.90159">
        <ele>6</ele>
        <time>2018-01-13T01:25:31Z</time>
      </trkpt>
      <trkpt lat="46.74856" lon="-1.90129">
        <ele>6</ele>
        <time>2018-01-13T01:26:31Z</time>
      </trkpt>
      <trkpt lat="46.74852" lon="-1.90014">
        <ele>6</ele>
        <time>2018-01-13T01:27:31Z</time>
      </trkpt>
      <trkpt lat="46.7485" lon="-1.89954">
        <ele>6</ele>
        <time>2018-01-13T01:28:31Z</time>
      </trkpt>
      <trkpt lat="46.74849" lon="-1.89943">
        <ele>6</ele>
        <time>2018-01-13T01:29:31Z</time>
      </trkpt>
      <trkpt lat="46.7485" lon="-1.89908">
        <ele>6</ele>
        <time>2018-01-13T01:30:31Z</time>
      </trkpt>
      <trkpt lat="46.7485" lon="-1.8988">
        <ele>6</ele>
        <time>2018-01-13T01:31:31Z</time>
      </trkpt>
      <trkpt lat="46.74849" lon="-1.89871">
        <ele>6</ele>
        <time>2018-01-13T01:32:31Z</time>
      </trkpt>
      <trkpt lat="46.74848" lon="-1.89861">
        <ele>6</ele>
        <time>2018-01-13T01:33:31Z</time>
      </trkpt>
      <trkpt lat="46.74848" lon="-1.89855">
        <ele>7</ele>
        <time>2018-01-13T01:34:31Z</time>
      </trkpt>
      <trkpt lat="46.74845" lon="-1.89818">
        <ele>7</ele>
        <time>2018-01-13T01:35:31Z</time>
      </trkpt>
      <trkpt lat="46.74844" lon="-1.89797">
        <ele>7</ele>
        <time>2018-01-13T01:36:31Z</time>
      </trkpt>
      <trkpt lat="46.74844" lon="-1.89793">
        <ele>7</ele>
        <time>2018-01-13T01:37:31Z</time>
      </trkpt>
      <trkpt lat="46.74844" lon="-1.89789">
        <ele>7</ele>
        <time>2018-01-13T01:38:31Z</time>
      </trkpt>
      <trkpt lat="46.74845" lon="-1.89778">
        <ele>7</ele>
        <time>2018-01-13T01:39:31Z</time>
      </trkpt>
      <trkpt lat="46.74844" lon="-1.89745">
        <ele>7</ele>
        <time>2018-01-13T01:40:31Z</time>
      </trkpt>
      <trkpt lat="46.74843" lon="-1.89721">
        <ele>8</ele>
        <time>2018-01-13T01:41:31Z</time>
      </trkpt>
      <trkpt lat="46.74843" lon="-1.89717">
        <ele>8</ele>
        <time>2018-01-13T01:42:31Z</time>
      </trkpt>
      <trkpt lat="46.74843" lon="-1.8971">
        <ele>8</ele>
        <time>2018-01-13T01:43:31Z</time>
      </trkpt>
      <trkpt lat="46.74843" lon="-1.89689">
        <ele>8</ele>
        <time>2018-01-13T01:44:31Z</time>
      </trkpt>
      <trkpt lat="46.74843" lon="-1.89675">
        <ele>9</ele>
        <time>2018-01-13T01:45:31Z</time>
      </trkpt>
      <trkpt lat="46.74843" lon="-1.89647">
        <ele>9</ele>
        <time>2018-01-13T01:46:31Z</time>
      </trkpt>
      <trkpt lat="46.74842" lon="-1.89634">
        <ele>9</ele>
        <time>2018-01-13T01:47:31Z</time>
      </trkpt>
      <trkpt lat="46.74842" lon="-1.89606">
        <ele>8</ele>
        <time>2018-01-13T01:48:31Z</time>
      </trkpt>
      <trkpt lat="46.74842" lon="-1.89571">
        <ele>8</ele>
        <time>2018-01-13T01:49:31Z</time>
      </trkpt>
      <trkpt lat="46.74842" lon="-1.8955">
        <ele>8</ele>
        <time>2018-01-13T01:50:31Z</time>
      </trkpt>
      <trkpt lat="46.74843" lon="-1.89509">
        <ele>8</ele>
        <time>2018-01-13T01:51:31Z</time>
      </trkpt>
      <trkpt lat="46.74843" lon="-1.895">
        <ele>8</ele>
        <time>2018-01-13T01:52:31Z</time>
      </trkpt>
      <trkpt lat="46.74843" lon="-1.89466">
        <ele>8</ele>
        <time>2018-01-13T01:53:31Z</time>
      </trkpt>
      <trkpt lat="46.74843" lon="-1.89447">
        <ele>8</ele>
        <time>2018-01-13T01:54:31Z</time>
      </trkpt>
      <trkpt lat="46.74843" lon="-1.89423">
        <ele>8</ele>
        <time>2018-01-13T01:55:31Z</time>
      </trkpt>
      <trkpt lat="46.74843" lon="-1.89411">
        <ele>8</ele>
        <time>2018-01-13T01:56:31Z</time>
      </trkpt>
      <trkpt lat="46.74842" lon="-1.89383">
        <ele>8</ele>
        <time>2018-01-13T01:57:31Z</time>
      </trkpt>
      <trkpt lat="46.74842" lon="-1.89372">
        <ele>8</ele>
        <time>2018-01-13T01:58:31Z</time>
      </trkpt>
      <trkpt lat="46.74842" lon="-1.89365">
        <ele>8</ele>
        <time>2018-01-13T01:59:31Z</time>
      </trkpt>
      <trkpt lat="46.74842" lon="-1.89349">
        <ele>8</ele>
        <time>2018-01-13T02:00:31Z</time>
      </trkpt>
      <trkpt lat="46.74841" lon="-1.89332">
        <ele>8</ele>
        <time>2018-01-13T02:01:31Z</time>
      </trkpt>
      <trkpt lat="46.7484" lon="-1.89315">
        <ele>8</ele>
        <time>2018-01-13T02:02:31Z</time>
      </trkpt>
      <trkpt lat="46.74838" lon="-1.89279">
        <ele>9</ele>
        <time>2018-01-13T02:03:31Z</time>
      </trkpt>
      <trkpt lat="46.74834" lon="-1.89221">
        <ele>10</ele>
        <time>2018-01-13T02:04:31Z</time>
      </trkpt>
      <trkpt lat="46.74831" lon="-1.89174">
        <ele>11</ele>
        <time>2018-01-13T02:05:31Z</time>
      </trkpt>
      <trkpt lat="46.74828" lon="-1.8912">
        <ele>11</ele>
        <time>2018-01-13T02:06:31Z</time>
      </trkpt>
      <trkpt lat="46.74826" lon="-1.89092">
        <ele>11</ele>
        <time>2018-01-13T02:07:31Z</time>
      </trkpt>
      <trkpt lat="46.74825" lon="-1.89073">
        <ele>11</ele>
        <time>2018-01-13T02:08:31Z</time>
      </trkpt>
      <trkpt lat="46.74825" lon="-1.89055">
        <ele>11</ele>
        <time>2018-01-13T02:09:31Z</time>
      </trkpt>
      <trkpt lat="46.74824" lon="-1.8904">
        <ele>11</ele>
        <time>2018-01-13T02:10:31Z</time>
      </trkpt>
      <trkpt lat="46.74824" lon="-1.89025">
        <ele>11</ele>
        <time>2018-01-13T02:11:31Z</time>
      </trkpt>
      <trkpt lat="46.74824" lon="-1.89008">
        <ele>11</ele>
        <time>2018-01-13T02:12:31Z</time>
      </trkpt>
      <trkpt lat="46.74825" lon="-1.88973">
        <ele>11</ele>
        <time>2018-01-13T02:13:31Z</time>
      </trkpt>
      <trkpt lat="46.74826" lon="-1.88934">
        <ele>12</ele>
        <time>2018-01-13T02:14:31Z</time>
      </trkpt>
      <trkpt lat="46.74826" lon="-1.88892">
        <ele>12</ele>
        <time>2018-01-13T02:15:31Z</time>
      </trkpt>
      <trkpt lat="46.74827" lon="-1.88854">
        <ele>12</ele>
        <time>2018-01-13T02:16:31Z</time>
      </trkpt>
      <trkpt lat="46.74829" lon="-1.88817">
        <ele>12</ele>
        <time>2018-01-13T02:17:31Z</time>
      </trkpt>
      <trkpt lat="46.7483" lon="-1.8879">
        <ele>12</ele>
        <time>2018-01-13T02:18:31Z</time>
      </trkpt>
      <trkpt lat="46.74832" lon="-1.8877">
        <ele>12</ele>
        <time>2018-01-13T02:19:31Z</time>
      </trkpt>
      <trkpt lat="46.74834" lon="-1.88748">
        <ele>12</ele>
        <time>2018-01-13T02:20:31Z</time>
      </trkpt>
      <trkpt lat="46.74839" lon="-1.88686">
        <ele>12</ele>
        <time>2018-01-13T02:21:31Z</time>
      </trkpt>
      <trkpt lat="46.74846" lon="-1.88622">
        <ele>12</ele>
        <time>2018-01-13T02:22:31Z</time>
      </trkpt>
      <trkpt lat="46.7485" lon="-1.88595">
        <ele>11</ele>
        <time>2018-01-13T02:23:31Z</time>
      </trkpt>
      <trkpt lat="46.74853" lon="-1.88575">
        <ele>11</ele>
        <time>2018-01-13T02:24:31Z</time>
      </trkpt>
      <trkpt lat="46.74856" lon="-1.88561">
        <ele>12</ele>
        <time>2018-01-13T02:25:31Z</time>
      </trkpt>
      <trkpt lat="46.7486" lon="-1.88545">
        <ele>12</ele>
        <time>2018-01-13T02:26:31Z</time>
      </trkpt>
      <trkpt lat="46.74881" lon="-1.88465">
        <ele>12</ele>
        <time>2018-01-13T02:27:31Z</time>
      </trkpt>
      <trkpt lat="46.74883" lon="-1.88454">
        <ele>11</ele>
        <time>2018-01-13T02:28:31Z</time>
      </trkpt>
      <trkpt lat="46.74896" lon="-1.88406">
        <ele>11</ele>
        <time>2018-01-13T02:29:31Z</time>
      </trkpt>
      <trkpt lat="46.74914" lon="-1.88342">
        <ele>13</ele>
        <time>2018-01-13T02:30:31Z</time>
      </trkpt>
      <trkpt lat="46.74925" lon="-1.883">
        <ele>13</ele>
        <time>2018-01-13T02:31:31Z</time>
      </trkpt>
      <trkpt lat="46.74934" lon="-1.88272">
        <ele>13</ele>
        <time>2018-01-13T02:32:31Z</time>
      </trkpt>
      <trkpt lat="46.74938" lon="-1.88258">
        <ele>13</ele>
        <time>2018-01-13T02:33:31Z</time>
      </trkpt>
      <trkpt lat="46.74943" lon="-1.88246">
        <ele>12</ele>
        <time>2018-01-13T02:34:31Z</time>
      </trkpt>
      <trkpt lat="46.74948" lon="-1.88233">
        <ele>12</ele>
        <time>2018-01-13T02:35:31Z</time>
      </trkpt>
      <trkpt lat="46.74954" lon="-1.88221">
        <ele>11</ele>
        <time>2018-01-13T02:36:31Z</time>
      </trkpt>
      <trkpt lat="46.7496" lon="-1.88208">
        <ele>11</ele>
        <time>2018-01-13T02:37:31Z</time>
      </trkpt>
      <trkpt lat="46.74967" lon="-1.88193">
        <ele>10</ele>
        <time>2018-01-13T02:38:31Z</time>
      </trkpt>
      <trkpt lat="46.74976" lon="-1.88179">
        <ele>10</ele>
        <time>2018-01-13T02:39:31Z</time>
      </trkpt>
      <trkpt lat="46.7499" lon="-1.88159">
        <ele>9</ele>
        <time>2018-01-13T02:40:31Z</time>
      </trkpt>
      <trkpt lat="46.75019" lon="-1.88119">
        <ele>9</ele>
        <time>2018-01-13T02:41:31Z</time>
      </trkpt>
      <trkpt lat="46.75026" lon="-1.8811">
        <ele>9</ele>
        <time>2018-01-13T02:42:31Z</time>
      </trkpt>
      <trkpt lat="46.75039" lon="-1.88095">
        <ele>9</ele>
        <time>2018-01-13T02:43:31Z</time>
      </trkpt>
      <trkpt lat="46.75058" lon="-1.8807">
        <ele>9</ele>
        <time>2018-01-13T02:44:31Z</time>
      </trkpt>
      <trkpt lat="46.75083" lon="-1.88037">
        <ele>9</ele>
        <time>2018-01-13T02:45:31Z</time>
      </trkpt>
      <trkpt lat="46.75098" lon="-1.88016">
        <ele>10</ele>
        <time>2018-01-13T02:46:31Z</time>
      </trkpt>
      <trkpt lat="46.75106" lon="-1.88003">
        <ele>10</ele>
        <time>2018-01-13T02:47:31Z</time>
      </trkpt>
      <trkpt lat="46.75111" lon="-1.87992">
        <ele>10</ele>
        <time>2018-01-13T02:48:31Z</time>
      </trkpt>
      <trkpt lat="46.75114" lon="-1.87984">
        <ele>11</ele>
        <time>2018-01-13T02:49:31Z</time>
      </trkpt>
      <trkpt lat="46.75118" lon="-1.87973">
        <ele>11</ele>
        <time>2018-01-13T02:50:31Z</time>
      </trkpt>
      <trkpt lat="46.75123" lon="-1.87957">
        <ele>11</ele>
        <time>2018-01-13T02:51:31Z</time>
      </trkpt>
      <trkpt lat="46.75126" lon="-1.87941">
        <ele>12</ele>
        <time>2018-01-13T02:52:31Z</time>
      </trkpt>
      <trkpt lat="46.75129" lon="-1.87925">
        <ele>12</ele>
        <time>2018-01-13T02:53:31Z</time>
      </trkpt>
      <trkpt lat="46.75131" lon="-1.87908">
        <ele>12</ele>
        <time>2018-01-13T02:54:31Z</time>
      </trkpt>
      <trkpt lat="46.75134" lon="-1.87889">
        <ele>12</ele>
        <time>2018-01-13T02:55:31Z</time>
      </trkpt>
      <trkpt lat="46.75136" lon="-1.87871">
        <ele>11</ele>
        <time>2018-01-13T02:56:31Z</time>
      </trkpt>
      <trkpt lat="46.75138" lon="-1.87851">
        <ele>11</ele>
        <time>2018-01-13T02:57:31Z</time>
      </trkpt>
      <trkpt lat="46.7514" lon="-1.87824">
        <ele>11</ele>
        <time>2018-01-13T02:58:31Z</time>
      </trkpt>
      <trkpt lat="46.75142" lon="-1.87797">
        <ele>11</ele>
        <time>2018-01-13T02:59:31Z</time>
      </trkpt>
      <trkpt lat="46.75144" lon="-1.87765">
        <ele>11</ele>
        <time>2018-01-13T03:00:31Z</time>
      </trkpt>
      <trkpt lat="46.75145" lon="-1.87742">
        <ele>11</ele>
        <time>2018-01-13T03:01:31Z</time>
      </trkpt>
      <trkpt lat="46.75147" lon="-1.87715">
        <ele>11</ele>
        <time>2018-01-13T03:02:31Z</time>
      </trkpt>
      <trkpt lat="46.75149" lon="-1.8768">
        <ele>11</ele>
        <time>2018-01-13T03:03:31Z</time>
      </trkpt>
      <trkpt lat="46.75149" lon="-1.87652">
        <ele>12</ele>
        <time>2018-01-13T03:04:31Z</time>
      </trkpt>
      <trkpt lat="46.7515" lon="-1.87634">
        <ele>12</ele>
        <time>2018-01-13T03:05:31Z</time>
      </trkpt>
      <trkpt lat="46.7515" lon="-1.87615">
        <ele>12</ele>
        <time>2018-01-13T03:06:31Z</time>
      </trkpt>
      <trkpt lat="46.75149" lon="-1.87581">
        <ele>12</ele>
        <time>2018-01-13T03:07:31Z</time>
      </trkpt>
      <trkpt lat="46.75149" lon="-1.87548">
        <ele>13</ele>
        <time>2018-01-13T03:08:31Z</time>
      </trkpt>
      <trkpt lat="46.75148" lon="-1.87517">
        <ele>13</ele>
        <time>2018-01-13T03:09:31Z</time>
      </trkpt>
      <trkpt lat="46.75146" lon="-1.8748">
        <ele>13</ele>
        <time>2018-01-13T03:10:31Z</time>
      </trkpt>
      <trkpt lat="46.75144" lon="-1.8744">
        <ele>13</ele>
        <time>2018-01-13T03:11:31Z</time>
      </trkpt>
      <trkpt lat="46.7514" lon="-1.87388">
        <ele>13</ele>
        <time>2018-01-13T03:12:31Z</time>
      </trkpt>
      <trkpt lat="46.75135" lon="-1.87327">
        <ele>13</ele>
        <time>2018-01-13T03:13:31Z</time>
      </trkpt>
      <trkpt lat="46.75132" lon="-1.87295">
        <ele>14</ele>
        <time>2018-01-13T03:14:31Z</time>
      </trkpt>
      <trkpt lat="46.75132" lon="-1.87281">
        <ele>14</ele>
        <time>2018-01-13T03:15:31Z</time>
      </trkpt>
      <trkpt lat="46.75131" lon="-1.87259">
        <ele>15</ele>
        <time>2018-01-13T03:16:31Z</time>
      </trkpt>
      <trkpt lat="46.75132" lon="-1.87241">
        <ele>15</ele>
        <time>2018-01-13T03:17:31Z</time>
      </trkpt>
      <trkpt lat="46.75133" lon="-1.87222">
        <ele>15</ele>
        <time>2018-01-13T03:18:31Z</time>
      </trkpt>
      <trkpt lat="46.75134" lon="-1.87212">
        <ele>16</ele>
        <time>2018-01-13T03:19:31Z</time>
      </trkpt>
      <trkpt lat="46.75136" lon="-1.87195">
        <ele>16</ele>
        <time>2018-01-13T03:20:31Z</time>
      </trkpt>
      <trkpt lat="46.75138" lon="-1.8718">
        <ele>16</ele>
        <time>2018-01-13T03:21:31Z</time>
      </trkpt>
      <trkpt lat="46.75142" lon="-1.87159">
        <ele>17</ele>
        <time>2018-01-13T03:22:31Z</time>
      </trkpt>
      <trkpt lat="46.75142" lon="-1.87151">
        <ele>17</ele>
        <time>2018-01-13T03:23:31Z</time>
      </trkpt>
      <trkpt lat="46.75143" lon="-1.87144">
        <ele>17</ele>
        <time>2018-01-13T03:24:31Z</time>
      </trkpt>
      <trkpt lat="46.75145" lon="-1.87131">
        <ele>17</ele>
        <time>2018-01-13T03:25:31Z</time>
      </trkpt>
      <trkpt lat="46.75147" lon="-1.87119">
        <ele>17</ele>
        <time>2018-01-13T03:26:31Z</time>
      </trkpt>
      <trkpt lat="46.75148" lon="-1.87108">
        <ele>17</ele>
        <time>2018-01-13T03:27:31Z</time>
      </trkpt>
      <trkpt lat="46.75148" lon="-1.87097">
        <ele>16</ele>
        <time>2018-01-13T03:28:31Z</time>
      </trkpt>
      <trkpt lat="46.75149" lon="-1.87086">
        <ele>16</ele>
        <time>2018-01-13T03:29:31Z</time>
      </trkpt>
      <trkpt lat="46.75148" lon="-1.87078">
        <ele>16</ele>
        <time>2018-01-13T03:30:31Z</time>
      </trkpt>
      <trkpt lat="46.75148" lon="-1.87072">
        <ele>16</ele>
        <time>2018-01-13T03:31:31Z</time>
      </trkpt>
      <trkpt lat="46.75147" lon="-1.87059">
        <ele>16</ele>
        <time>2018-01-13T03:32:31Z</time>
      </trkpt>
      <trkpt lat="46.75147" lon="-1.87059">
        <ele>16</ele>
        <time>2018-01-13T03:33:31Z</time>
      </trkpt>
      <trkpt lat="46.75144" lon="-1.87055">
        <ele>16</ele>
        <time>2018-01-13T03:34:31Z</time>
      </trkpt>
      <trkpt lat="46.75142" lon="-1.8705">
        <ele>16</ele>
        <time>2018-01-13T03:35:31Z</time>
      </trkpt>
      <trkpt lat="46.7514" lon="-1.87045">
        <ele>16</ele>
        <time>2018-01-13T03:36:31Z</time>
      </trkpt>
      <trkpt lat="46.75139" lon="-1.8704">
        <ele>16</ele>
        <time>2018-01-13T03:37:31Z</time>
      </trkpt>
      <trkpt lat="46.75139" lon="-1.87036">
        <ele>16</ele>
        <time>2018-01-13T03:38:31Z</time>
      </trkpt>
      <trkpt lat="46.7514" lon="-1.87028">
        <ele>16</ele>
        <time>2018-01-13T03:39:31Z</time>
      </trkpt>
      <trkpt lat="46.75143" lon="-1.87019">
        <ele>16</ele>
        <time>2018-01-13T03:40:31Z</time>
      </trkpt>
      <trkpt lat="46.75147" lon="-1.87011">
        <ele>16</ele>
        <time>2018-01-13T03:41:31Z</time>
      </trkpt>
      <trkpt lat="46.75149" lon="-1.8701">
        <ele>16</ele>
        <time>2018-01-13T03:42:31Z</time>
      </trkpt>
      <trkpt lat="46.75151" lon="-1.87007">
        <ele>16</ele>
        <time>2018-01-13T03:43:31Z</time>
      </trkpt>
      <trkpt lat="46.75153" lon="-1.87006">
        <ele>16</ele>
        <time>2018-01-13T03:44:31Z</time>
      </trkpt>
      <trkpt lat="46.75156" lon="-1.87005">
        <ele>16</ele>
        <time>2018-01-13T03:45:31Z</time>
      </trkpt>
      <trkpt lat="46.75159" lon="-1.87005">
        <ele>17</ele>
        <time>2018-01-13T03:46:31Z</time>
      </trkpt>
      <trkpt lat="46.75161" lon="-1.87006">
        <ele>17</ele>
        <time>2018-01-13T03:47:31Z</time>
      </trkpt>
      <trkpt lat="46.75164" lon="-1.87007">
        <ele>17</ele>
        <time>2018-01-13T03:48:31Z</time>
      </trkpt>
      <trkpt lat="46.75173" lon="-1.86993">
        <ele>17</ele>
        <time>2018-01-13T03:49:31Z</time>
      </trkpt>
      <trkpt lat="46.75179" lon="-1.86983">
        <ele>17</ele>
        <time>2018-01-13T03:50:31Z</time>
      </trkpt>
      <trkpt lat="46.75185" lon="-1.8697">
        <ele>17</ele>
        <time>2018-01-13T03:51:31Z</time>
      </trkpt>
      <trkpt lat="46.75193" lon="-1.86941">
        <ele>17</ele>
        <time>2018-01-13T03:52:31Z</time>
      </trkpt>
      <trkpt lat="46.75204" lon="-1.86904">
        <ele>18</ele>
        <time>2018-01-13T03:53:31Z</time>
      </trkpt>
      <trkpt lat="46.75217" lon="-1.86859">
        <ele>18</ele>
        <time>2018-01-13T03:54:31Z</time>
      </trkpt>
      <trkpt lat="46.75225" lon="-1.86832">
        <ele>18</ele>
        <time>2018-01-13T03:55:31Z</time>
      </trkpt>
      <trkpt lat="46.75233" lon="-1.86808">
        <ele>18</ele>
        <time>2018-01-13T03:56:31Z</time>
      </trkpt>
      <trkpt lat="46.75236" lon="-1.868">
        <ele>17</ele>
        <time>2018-01-13T03:57:31Z</time>
      </trkpt>
      <trkpt lat="46.75246" lon="-1.86771">
        <ele>17</ele>
        <time>2018-01-13T03:58:31Z</time>
      </trkpt>
      <trkpt lat="46.75252" lon="-1.86754">
        <ele>17</ele>
        <time>2018-01-13T03:59:31Z</time>
      </trkpt>
      <trkpt lat="46.75264" lon="-1.86722">
        <ele>17</ele>
        <time>2018-01-13T04:00:31Z</time>
      </trkpt>
      <trkpt lat="46.7528" lon="-1.86682">
        <ele>18</ele>
        <time>2018-01-13T04:01:31Z</time>
      </trkpt>
      <trkpt lat="46.75292" lon="-1.8665">
        <ele>18</ele>
        <time>2018-01-13T04:02:31Z</time>
      </trkpt>
      <trkpt lat="46.753" lon="-1.86632">
        <ele>18</ele>
        <time>2018-01-13T04:03:31Z</time>
      </trkpt>
      <trkpt lat="46.75308" lon="-1.86612">
        <ele>18</ele>
        <time>2018-01-13T04:04:31Z</time>
      </trkpt>
      <trkpt lat="46.7531" lon="-1.86608">
        <ele>18</ele>
        <time>2018-01-13T04:05:31Z</time>
      </trkpt>
      <trkpt lat="46.75316" lon="-1.86596">
        <ele>18</ele>
        <time>2018-01-13T04:06:31Z</time>
      </trkpt>
      <trkpt lat="46.75321" lon="-1.86586">
        <ele>18</ele>
        <time>2018-01-13T04:07:31Z</time>
      </trkpt>
      <trkpt lat="46.75327" lon="-1.86575">
        <ele>18</ele>
        <time>2018-01-13T04:08:31Z</time>
      </trkpt>
      <trkpt lat="46.75333" lon="-1.86564">
        <ele>18</ele>
        <time>2018-01-13T04:09:31Z</time>
      </trkpt>
      <trkpt lat="46.75335" lon="-1.8656">
        <ele>18</ele>
        <time>2018-01-13T04:10:31Z</time>
      </trkpt>
      <trkpt lat="46.75345" lon="-1.86543">
        <ele>18</ele>
        <time>2018-01-13T04:11:31Z</time>
      </trkpt>
      <trkpt lat="46.7536" lon="-1.86518">
        <ele>18</ele>
        <time>2018-01-13T04:12:31Z</time>
      </trkpt>
      <trkpt lat="46.75372" lon="-1.86496">
        <ele>18</ele>
        <time>2018-01-13T04:13:31Z</time>
      </trkpt>
      <trkpt lat="46.75386" lon="-1.86469">
        <ele>18</ele>
        <time>2018-01-13T04:14:31Z</time>
      </trkpt>
      <trkpt lat="46.75396" lon="-1.86449">
        <ele>17</ele>
        <time>2018-01-13T04:15:31Z</time>
      </trkpt>
      <trkpt lat="46.75407" lon="-1.86422">
        <ele>16</ele>
        <time>2018-01-13T04:16:31Z</time>
      </trkpt>
      <trkpt lat="46.75417" lon="-1.86395">
        <ele>16</ele>
        <time>2018-01-13T04:17:31Z</time>
      </trkpt>
      <trkpt lat="46.75424" lon="-1.86374">
        <ele>17</ele>
        <time>2018-01-13T04:18:31Z</time>
      </trkpt>
      <trkpt lat="46.75429" lon="-1.8636">
        <ele>17</ele>
        <time>2018-01-13T04:19:31Z</time>
      </trkpt>
      <trkpt lat="46.75432" lon="-1.86348">
        <ele>17</ele>
        <time>2018-01-13T04:20:31Z</time>
      </trkpt>
      <trkpt lat="46.75436" lon="-1.86334">
        <ele>17</ele>
        <time>2018-01-13T04:21:31Z</time>
      </trkpt>
      <trkpt lat="46.75438" lon="-1.86321">
        <ele>17</ele>
        <time>2018-01-13T04:22:31Z</time>
      </trkpt>
      <trkpt lat="46.75441" lon="-1.86306">
        <ele>17</ele>
        <time>2018-01-13T04:23:31Z</time>
      </trkpt>
      <trkpt lat="46.75443" lon="-1.8629">
        <ele>17</ele>
        <time>2018-01-13T04:24:31Z</time>
      </trkpt>
      <trkpt lat="46.75446" lon="-1.86272">
        <ele>17</ele>
        <time>2018-01-13T04:25:31Z</time>
      </trkpt>
      <trkpt lat="46.75452" lon="-1.8623">
        <ele>17</ele>
        <time>2018-01-13T04:26:31Z</time>
      </trkpt>
      <trkpt lat="46.75452" lon="-1.86222">
        <ele>17</ele>
        <time>2018-01-13T04:27:31Z</time>
      </trkpt>
      <trkpt lat="46.75452" lon="-1.86221">
        <ele>17</ele>
        <time>2018-01-13T04:28:31Z</time>
      </trkpt>
      <trkpt lat="46.75456" lon="-1.86188">
        <ele>17</ele>
        <time>2018-01-13T04:29:31Z</time>
      </trkpt>
      <trkpt lat="46.75464" lon="-1.8613">
        <ele>17</ele>
        <time>2018-01-13T04:30:31Z</time>
      </trkpt>
      <trkpt lat="46.75474" lon="-1.86059">
        <ele>17</ele>
        <time>2018-01-13T04:31:31Z</time>
      </trkpt>
      <trkpt lat="46.75482" lon="-1.86004">
        <ele>17</ele>
        <time>2018-01-13T04:32:31Z</time>
      </trkpt>
      <trkpt lat="46.75486" lon="-1.85986">
        <ele>18</ele>
        <time>2018-01-13T04:33:31Z</time>
      </trkpt>
      <trkpt lat="46.7549" lon="-1.85969">
        <ele>18</ele>
        <time>2018-01-13T04:34:31Z</time>
      </trkpt>
      <trkpt lat="46.75493" lon="-1.85957">
        <ele>18</ele>
        <time>2018-01-13T04:35:31Z</time>
      </trkpt>
      <trkpt lat="46.75495" lon="-1.8595">
        <ele>18</ele>
        <time>2018-01-13T04:36:31Z</time>
      </trkpt>
      <trkpt lat="46.75499" lon="-1.8593">
        <ele>18</ele>
        <time>2018-01-13T04:37:31Z</time>
      </trkpt>
      <trkpt lat="46.75506" lon="-1.85905">
        <ele>18</ele>
        <time>2018-01-13T04:38:31Z</time>
      </trkpt>
      <trkpt lat="46.75512" lon="-1.85881">
        <ele>19</ele>
        <time>2018-01-13T04:39:31Z</time>
      </trkpt>
      <trkpt lat="46.7552" lon="-1.85851">
        <ele>20</ele>
        <time>2018-01-13T04:40:31Z</time>
      </trkpt>
      <trkpt lat="46.75523" lon="-1.85839">
        <ele>20</ele>
        <time>2018-01-13T04:41:31Z</time>
      </trkpt>
      <trkpt lat="46.75531" lon="-1.85811">
        <ele>20</ele>
        <time>2018-01-13T04:42:31Z</time>
      </trkpt>
      <trkpt lat="46.75534" lon="-1.858">
        <ele>20</ele>
        <time>2018-01-13T04:43:31Z</time>
      </trkpt>
      <trkpt lat="46.75537" lon="-1.85788">
        <ele>19</ele>
        <time>2018-01-13T04:44:31Z</time>
      </trkpt>
      <trkpt lat="46.75545" lon="-1.85759">
        <ele>19</ele>
        <time>2018-01-13T04:45:31Z</time>
      </trkpt>
      <trkpt lat="46.75558" lon="-1.85712">
        <ele>19</ele>
        <time>2018-01-13T04:46:31Z</time>
      </trkpt>
      <trkpt lat="46.75568" lon="-1.85675">
        <ele>20</ele>
        <time>2018-01-13T04:47:31Z</time>
      </trkpt>
      <trkpt lat="46.75574" lon="-1.85653">
        <ele>20</ele>
        <time>2018-01-13T04:48:31Z</time>
      </trkpt>
      <trkpt lat="46.75581" lon="-1.85631">
        <ele>20</ele>
        <time>2018-01-13T04:49:31Z</time>
      </trkpt>
      <trkpt lat="46.75588" lon="-1.8561">
        <ele>21</ele>
        <time>2018-01-13T04:50:31Z</time>
      </trkpt>
      <trkpt lat="46.75594" lon="-1.85592">
        <ele>21</ele>
        <time>2018-01-13T04:51:31Z</time>
      </trkpt>
      <trkpt lat="46.756" lon="-1.85575">
        <ele>21</ele>
        <time>2018-01-13T04:52:31Z</time>
      </trkpt>
      <trkpt lat="46.75606" lon="-1.85556">
        <ele>21</ele>
        <time>2018-01-13T04:53:31Z</time>
      </trkpt>
      <trkpt lat="46.75615" lon="-1.85532">
        <ele>20</ele>
        <time>2018-01-13T04:54:31Z</time>
      </trkpt>
      <trkpt lat="46.75616" lon="-1.85529">
        <ele>20</ele>
        <time>2018-01-13T04:55:31Z</time>
      </trkpt>
      <trkpt lat="46.75624" lon="-1.85508">
        <ele>20</ele>
        <time>2018-01-13T04:56:31Z</time>
      </trkpt>
      <trkpt lat="46.75636" lon="-1.85478">
        <ele>20</ele>
        <time>2018-01-13T04:57:31Z</time>
      </trkpt>
      <trkpt lat="46.75654" lon="-1.85434">
        <ele>19</ele>
        <time>2018-01-13T04:58:31Z</time>
      </trkpt>
      <trkpt lat="46.75691" lon="-1.85347">
        <ele>21</ele>
        <time>2018-01-13T04:59:31Z</time>
      </trkpt>
      <trkpt lat="46.75711" lon="-1.85301">
        <ele>22</ele>
        <time>2018-01-13T05:00:31Z</time>
      </trkpt>
      <trkpt lat="46.75722" lon="-1.85275">
        <ele>21</ele>
        <time>2018-01-13T05:01:31Z</time>
      </trkpt>
      <trkpt lat="46.75734" lon="-1.85247">
        <ele>21</ele>
        <time>2018-01-13T05:02:31Z</time>
      </trkpt>
      <trkpt lat="46.7575" lon="-1.85209">
        <ele>21</ele>
        <time>2018-01-13T05:03:31Z</time>
      </trkpt>
      <trkpt lat="46.75767" lon="-1.8517">
        <ele>21</ele>
        <time>2018-01-13T05:04:31Z</time>
      </trkpt>
      <trkpt lat="46.75796" lon="-1.85103">
        <ele>21</ele>
        <time>2018-01-13T05:05:31Z</time>
      </trkpt>
      <trkpt lat="46.75811" lon="-1.85067">
        <ele>22</ele>
        <time>2018-01-13T05:06:31Z</time>
      </trkpt>
      <trkpt lat="46.75832" lon="-1.85019">
        <ele>21</ele>
        <time>2018-01-13T05:07:31Z</time>
      </trkpt>
      <trkpt lat="46.75832" lon="-1.85018">
        <ele>21</ele>
        <time>2018-01-13T05:08:31Z</time>
      </trkpt>
      <trkpt lat="46.75834" lon="-1.85013">
        <ele>21</ele>
        <time>2018-01-13T05:09:31Z</time>
      </trkpt>
      <trkpt lat="46.75851" lon="-1.84975">
        <ele>21</ele>
        <time>2018-01-13T05:10:31Z</time>
      </trkpt>
      <trkpt lat="46.75863" lon="-1.84948">
        <ele>20</ele>
        <time>2018-01-13T05:11:31Z</time>
      </trkpt>
      <trkpt lat="46.75872" lon="-1.84931">
        <ele>20</ele>
        <time>2018-01-13T05:12:31Z</time>
      </trkpt>
      <trkpt lat="46.75881" lon="-1.84913">
        <ele>21</ele>
        <time>2018-01-13T05:13:31Z</time>
      </trkpt>
      <trkpt lat="46.75891" lon="-1.84898">
        <ele>21</ele>
        <time>2018-01-13T05:14:31Z</time>
      </trkpt>
      <trkpt lat="46.75898" lon="-1.84887">
        <ele>21</ele>
        <time>2018-01-13T05:15:31Z</time>
      </trkpt>
      <trkpt lat="46.75899" lon="-1.84886">
        <ele>21</ele>
        <time>2018-01-13T05:16:31Z</time>
      </trkpt>
      <trkpt lat="46.75905" lon="-1.84877">
        <ele>21</ele>
        <time>2018-01-13T05:17:31Z</time>
      </trkpt>
      <trkpt lat="46.75914" lon="-1.84864">
        <ele>21</ele>
        <time>2018-01-13T05:18:31Z</time>
      </trkpt>
      <trkpt lat="46.75929" lon="-1.84845">
        <ele>21</ele>
        <time>2018-01-13T05:19:31Z</time>
      </trkpt>
      <trkpt lat="46.75935" lon="-1.84837">
        <ele>21</ele>
        <time>2018-01-13T05:20:31Z</time>
      </trkpt>
      <trkpt lat="46.75963" lon="-1.84797">
        <ele>20</ele>
        <time>2018-01-13T05:21:31Z</time>
      </trkpt>
      <trkpt lat="46.75982" lon="-1.84772">
        <ele>20</ele>
        <time>2018-01-13T05:22:31Z</time>
      </trkpt>
      <trkpt lat="46.75993" lon="-1.84756">
        <ele>20</ele>
        <time>2018-01-13T05:23:31Z</time>
      </trkpt>
      <trkpt lat="46.76011" lon="-1.8473">
        <ele>20</ele>
        <time>2018-01-13T05:24:31Z</time>
      </trkpt>
      <trkpt lat="46.76013" lon="-1.84726">
        <ele>20</ele>
        <time>2018-01-13T05:25:31Z</time>
      </trkpt>
      <trkpt lat="46.76021" lon="-1.84714">
        <ele>20</ele>
        <time>2018-01-13T05:26:31Z</time>
      </trkpt>
      <trkpt lat="46.76022" lon="-1.84712">
        <ele>20</ele>
        <time>2018-01-13T05:27:31Z</time>
      </trkpt>
      <trkpt lat="46.76029" lon="-1.847">
        <ele>20</ele>
        <time>2018-01-13T05:28:31Z</time>
      </trkpt>
      <trkpt lat="46.76031" lon="-1.84695">
        <ele>20</ele>
        <time>2018-01-13T05:29:31Z</time>
      </trkpt>
      <trkpt lat="46.76032" lon="-1.84693">
        <ele>20</ele>
        <time>2018-01-13T05:30:31Z</time>
      </trkpt>
      <trkpt lat="46.76033" lon="-1.8469">
        <ele>20</ele>
        <time>2018-01-13T05:31:31Z</time>
      </trkpt>
      <trkpt lat="46.76036" lon="-1.84683">
        <ele>20</ele>
        <time>2018-01-13T05:32:31Z</time>
      </trkpt>
      <trkpt lat="46.76038" lon="-1.84676">
        <ele>20</ele>
        <time>2018-01-13T05:33:31Z</time>
      </trkpt>
      <trkpt lat="46.7604" lon="-1.84672">
        <ele>20</ele>
        <time>2018-01-13T05:34:31Z</time>
      </trkpt>
      <trkpt lat="46.76044" lon="-1.84658">
        <ele>21</ele>
        <time>2018-01-13T05:35:31Z</time>
      </trkpt>
      <trkpt lat="46.76047" lon="-1.84646">
        <ele>21</ele>
        <time>2018-01-13T05:36:31Z</time>
      </trkpt>
      <trkpt lat="46.76049" lon="-1.84639">
        <ele>21</ele>
        <time>2018-01-13T05:37:31Z</time>
      </trkpt>
      <trkpt lat="46.7605" lon="-1.84633">
        <ele>21</ele>
        <time>2018-01-13T05:38:31Z</time>
      </trkpt>
      <trkpt lat="46.76052" lon="-1.84626">
        <ele>21</ele>
        <time>2018-01-13T05:39:31Z</time>
      </trkpt>
      <trkpt lat="46.76054" lon="-1.84612">
        <ele>21</ele>
        <time>2018-01-13T05:40:31Z</time>
      </trkpt>
      <trkpt lat="46.76061" lon="-1.84565">
        <ele>21</ele>
        <time>2018-01-13T05:41:31Z</time>
      </trkpt>
      <trkpt lat="46.76067" lon="-1.84521">
        <ele>20</ele>
        <time>2018-01-13T05:42:31Z</time>
      </trkpt>
      <trkpt lat="46.76068" lon="-1.84511">
        <ele>20</ele>
        <time>2018-01-13T05:43:31Z</time>
      </trkpt>
      <trkpt lat="46.7607" lon="-1.84493">
        <ele>20</ele>
        <time>2018-01-13T05:44:31Z</time>
      </trkpt>
      <trkpt lat="46.76072" lon="-1.84459">
        <ele>21</ele>
        <time>2018-01-13T05:45:31Z</time>
      </trkpt>
      <trkpt lat="46.76074" lon="-1.84436">
        <ele>21</ele>
        <time>2018-01-13T05:46:31Z</time>
      </trkpt>
      <trkpt lat="46.76075" lon="-1.84426">
        <ele>21</ele>
        <time>2018-01-13T05:47:31Z</time>
      </trkpt>
      <trkpt lat="46.76075" lon="-1.8442">
        <ele>21</ele>
        <time>2018-01-13T05:48:31Z</time>
      </trkpt>
      <trkpt lat="46.76075" lon="-1.84402">
        <ele>21</ele>
        <time>2018-01-13T05:49:31Z</time>
      </trkpt>
      <trkpt lat="46.76075" lon="-1.84382">
        <ele>21</ele>
        <time>2018-01-13T05:50:31Z</time>
      </trkpt>
      <trkpt lat="46.76075" lon="-1.84368">
        <ele>21</ele>
        <time>2018-01-13T05:51:31Z</time>
      </trkpt>
      <trkpt lat="46.76073" lon="-1.84343">
        <ele>21</ele>
        <time>2018-01-13T05:52:31Z</time>
      </trkpt>
      <trkpt lat="46.7607" lon="-1.84322">
        <ele>21</ele>
        <time>2018-01-13T05:53:31Z</time>
      </trkpt>
      <trkpt lat="46.76069" lon="-1.84301">
        <ele>21</ele>
        <time>2018-01-13T05:54:31Z</time>
      </trkpt>
      <trkpt lat="46.76068" lon="-1.84286">
        <ele>21</ele>
        <time>2018-01-13T05:55:31Z</time>
      </trkpt>
      <trkpt lat="46.76067" lon="-1.84269">
        <ele>21</ele>
        <time>2018-01-13T05:56:31Z</time>
      </trkpt>
      <trkpt lat="46.76066" lon="-1.84253">
        <ele>22</ele>
        <time>2018-01-13T05:57:31Z</time>
      </trkpt>
      <trkpt lat="46.76065" lon="-1.84236">
        <ele>22</ele>
        <time>2018-01-13T05:58:31Z</time>
      </trkpt>
      <trkpt lat="46.76064" lon="-1.84217">
        <ele>22</ele>
        <time>2018-01-13T05:59:31Z</time>
      </trkpt>
      <trkpt lat="46.76061" lon="-1.84195">
        <ele>22</ele>
        <time>2018-01-13T06:00:31Z</time>
      </trkpt>
      <trkpt lat="46.76058" lon="-1.84162">
        <ele>22</ele>
        <time>2018-01-13T06:01:31Z</time>
      </trkpt>
      <trkpt lat="46.76052" lon="-1.84108">
        <ele>21</ele>
        <time>2018-01-13T06:02:31Z</time>
      </trkpt>
      <trkpt lat="46.76049" lon="-1.84081">
        <ele>21</ele>
        <time>2018-01-13T06:03:31Z</time>
      </trkpt>
      <trkpt lat="46.76049" lon="-1.84068">
        <ele>21</ele>
        <time>2018-01-13T06:04:31Z</time>
      </trkpt>
      <trkpt lat="46.76048" lon="-1.84041">
        <ele>21</ele>
        <time>2018-01-13T06:05:31Z</time>
      </trkpt>
      <trkpt lat="46.76047" lon="-1.84017">
        <ele>21</ele>
        <time>2018-01-13T06:06:31Z</time>
      </trkpt>
      <trkpt lat="46.76046" lon="-1.83993">
        <ele>21</ele>
        <time>2018-01-13T06:07:31Z</time>
      </trkpt>
      <trkpt lat="46.76046" lon="-1.83973">
        <ele>21</ele>
        <time>2018-01-13T06:08:31Z</time>
      </trkpt>
      <trkpt lat="46.76047" lon="-1.83948">
        <ele>21</ele>
        <time>2018-01-13T06:09:31Z</time>
      </trkpt>
      <trkpt lat="46.76049" lon="-1.83928">
        <ele>21</ele>
        <time>2018-01-13T06:10:31Z</time>
      </trkpt>
      <trkpt lat="46.76049" lon="-1.83922">
        <ele>21</ele>
        <time>2018-01-13T06:11:31Z</time>
      </trkpt>
      <trkpt lat="46.76052" lon="-1.83903">
        <ele>21</ele>
        <time>2018-01-13T06:12:31Z</time>
      </trkpt>
      <trkpt lat="46.76054" lon="-1.83896">
        <ele>21</ele>
        <time>2018-01-13T06:13:31Z</time>
      </trkpt>
      <trkpt lat="46.76056" lon="-1.83892">
        <ele>21</ele>
        <time>2018-01-13T06:14:31Z</time>
      </trkpt>
      <trkpt lat="46.76075" lon="-1.8386">
        <ele>21</ele>
        <time>2018-01-13T06:15:31Z</time>
      </trkpt>
      <trkpt lat="46.76084" lon="-1.83843">
        <ele>21</ele>
        <time>2018-01-13T06:16:31Z</time>
      </trkpt>
      <trkpt lat="46.761" lon="-1.83814">
        <ele>21</ele>
        <time>2018-01-13T06:17:31Z</time>
      </trkpt>
      <trkpt lat="46.76119" lon="-1.8378">
        <ele>20</ele>
        <time>2018-01-13T06:18:31Z</time>
      </trkpt>
      <trkpt lat="46.76125" lon="-1.8377">
        <ele>20</ele>
        <time>2018-01-13T06:19:31Z</time>
      </trkpt>
      <trkpt lat="46.76129" lon="-1.83765">
        <ele>20</ele>
        <time>2018-01-13T06:20:31Z</time>
      </trkpt>
      <trkpt lat="46.76134" lon="-1.8376">
        <ele>20</ele>
        <time>2018-01-13T06:21:31Z</time>
      </trkpt>
      <trkpt lat="46.76139" lon="-1.83755">
        <ele>20</ele>
        <time>2018-01-13T06:22:31Z</time>
      </trkpt>
      <trkpt lat="46.76147" lon="-1.8375">
        <ele>20</ele>
        <time>2018-01-13T06:23:31Z</time>
      </trkpt>
      <trkpt lat="46.76168" lon="-1.83736">
        <ele>20</ele>
        <time>2018-01-13T06:24:31Z</time>
      </trkpt>
      <trkpt lat="46.76176" lon="-1.8373">
        <ele>20</ele>
        <time>2018-01-13T06:25:31Z</time>
      </trkpt>
      <trkpt lat="46.76182" lon="-1.83724">
        <ele>20</ele>
        <time>2018-01-13T06:26:31Z</time>
      </trkpt>
      <trkpt lat="46.76186" lon="-1.83718">
        <ele>19</ele>
        <time>2018-01-13T06:27:31Z</time>
      </trkpt>
      <trkpt lat="46.76191" lon="-1.8371">
        <ele>19</ele>
        <time>2018-01-13T06:28:31Z</time>
      </trkpt>
      <trkpt lat="46.76195" lon="-1.83703">
        <ele>19</ele>
        <time>2018-01-13T06:29:31Z</time>
      </trkpt>
      <trkpt lat="46.762" lon="-1.83696">
        <ele>19</ele>
        <time>2018-01-13T06:30:31Z</time>
      </trkpt>
      <trkpt lat="46.76207" lon="-1.83687">
        <ele>19</ele>
        <time>2018-01-13T06:31:31Z</time>
      </trkpt>
      <trkpt lat="46.7621" lon="-1.83684">
        <ele>19</ele>
        <time>2018-01-13T06:32:31Z</time>
      </trkpt>
      <trkpt lat="46.76212" lon="-1.83682">
        <ele>19</ele>
        <time>2018-01-13T06:33:31Z</time>
      </trkpt>
      <trkpt lat="46.76218" lon="-1.83677">
        <ele>19</ele>
        <time>2018-01-13T06:34:31Z</time>
      </trkpt>
      <trkpt lat="46.76226" lon="-1.83672">
        <ele>19</ele>
        <time>2018-01-13T06:35:31Z</time>
      </trkpt>
      <trkpt lat="46.76234" lon="-1.83668">
        <ele>19</ele>
        <time>2018-01-13T06:36:31Z</time>
      </trkpt>
      <trkpt lat="46.7624" lon="-1.83666">
        <ele>19</ele>
        <time>2018-01-13T06:37:31Z</time>
      </trkpt>
      <trkpt lat="46.76247" lon="-1.83667">
        <ele>19</ele>
        <time>2018-01-13T06:38:31Z</time>
      </trkpt>
      <trkpt lat="46.76251" lon="-1.83668">
        <ele>19</ele>
        <time>2018-01-13T06:39:31Z</time>
      </trkpt>
      <trkpt lat="46.7626" lon="-1.83671">
        <ele>19</ele>
        <time>2018-01-13T06:40:31Z</time>
      </trkpt>
      <trkpt lat="46.76263" lon="-1.83671">
        <ele>19</ele>
        <time>2018-01-13T06:41:31Z</time>
      </trkpt>
      <trkpt lat="46.7627" lon="-1.83671">
        <ele>19</ele>
        <time>2018-01-13T06:42:31Z</time>
      </trkpt>
      <trkpt lat="46.76279" lon="-1.8367">
        <ele>19</ele>
        <time>2018-01-13T06:43:31Z</time>
      </trkpt>
      <trkpt lat="46.76292" lon="-1.83667">
        <ele>19</ele>
        <time>2018-01-13T06:44:31Z</time>
      </trkpt>
      <trkpt lat="46.76305" lon="-1.83662">
        <ele>19</ele>
        <time>2018-01-13T06:45:31Z</time>
      </trkpt>
      <trkpt lat="46.76316" lon="-1.83658">
        <ele>19</ele>
        <time>2018-01-13T06:46:31Z</time>
      </trkpt>
      <trkpt lat="46.76327" lon="-1.83652">
        <ele>19</ele>
        <time>2018-01-13T06:47:31Z</time>
      </trkpt>
      <trkpt lat="46.76338" lon="-1.83644">
        <ele>19</ele>
        <time>2018-01-13T06:48:31Z</time>
      </trkpt>
      <trkpt lat="46.76348" lon="-1.83636">
        <ele>19</ele>
        <time>2018-01-13T06:49:31Z</time>
      </trkpt>
      <trkpt lat="46.76356" lon="-1.8363">
        <ele>18</ele>
        <time>2018-01-13T06:50:31Z</time>
      </trkpt>
      <trkpt lat="46.76366" lon="-1.83622">
        <ele>18</ele>
        <time>2018-01-13T06:51:31Z</time>
      </trkpt>
      <trkpt lat="46.7638" lon="-1.83613">
        <ele>18</ele>
        <time>2018-01-13T06:52:31Z</time>
      </trkpt>
      <trkpt lat="46.76395" lon="-1.83603">
        <ele>18</ele>
        <time>2018-01-13T06:53:31Z</time>
      </trkpt>
      <trkpt lat="46.7642" lon="-1.83588">
        <ele>18</ele>
        <time>2018-01-13T06:54:31Z</time>
      </trkpt>
      <trkpt lat="46.76438" lon="-1.83577">
        <ele>18</ele>
        <time>2018-01-13T06:55:31Z</time>
      </trkpt>
      <trkpt lat="46.7645" lon="-1.8357">
        <ele>17</ele>
        <time>2018-01-13T06:56:31Z</time>
      </trkpt>
      <trkpt lat="46.76458" lon="-1.83565">
        <ele>17</ele>
        <time>2018-01-13T06:57:31Z</time>
      </trkpt>
      <trkpt lat="46.76475" lon="-1.83556">
        <ele>17</ele>
        <time>2018-01-13T06:58:31Z</time>
      </trkpt>
      <trkpt lat="46.76482" lon="-1.83552">
        <ele>16</ele>
        <time>2018-01-13T06:59:31Z</time>
      </trkpt>
      <trkpt lat="46.76521" lon="-1.8353">
        <ele>16</ele>
        <time>2018-01-13T07:00:31Z</time>
      </trkpt>
      <trkpt lat="46.76564" lon="-1.83504">
        <ele>17</ele>
        <time>2018-01-13T07:01:31Z</time>
      </trkpt>
      <trkpt lat="46.76595" lon="-1.83484">
        <ele>17</ele>
        <time>2018-01-13T07:02:31Z</time>
      </trkpt>
      <trkpt lat="46.76611" lon="-1.83473">
        <ele>18</ele>
        <time>2018-01-13T07:03:31Z</time>
      </trkpt>
      <trkpt lat="46.76625" lon="-1.83462">
        <ele>18</ele>
        <time>2018-01-13T07:04:31Z</time>
      </trkpt>
      <trkpt lat="46.76636" lon="-1.83452">
        <ele>18</ele>
        <time>2018-01-13T07:05:31Z</time>
      </trkpt>
      <trkpt lat="46.76644" lon="-1.83445">
        <ele>19</ele>
        <time>2018-01-13T07:06:31Z</time>
      </trkpt>
      <trkpt lat="46.76653" lon="-1.83436">
        <ele>19</ele>
        <time>2018-01-13T07:07:31Z</time>
      </trkpt>
      <trkpt lat="46.76662" lon="-1.83427">
        <ele>19</ele>
        <time>2018-01-13T07:08:31Z</time>
      </trkpt>
      <trkpt lat="46.7667" lon="-1.83418">
        <ele>19</ele>
        <time>2018-01-13T07:09:31Z</time>
      </trkpt>
      <trkpt lat="46.76677" lon="-1.8341">
        <ele>19</ele>
        <time>2018-01-13T07:10:31Z</time>
      </trkpt>
      <trkpt lat="46.76689" lon="-1.83393">
        <ele>19</ele>
        <time>2018-01-13T07:11:31Z</time>
      </trkpt>
      <trkpt lat="46.76697" lon="-1.83383">
        <ele>19</ele>
        <time>2018-01-13T07:12:31Z</time>
      </trkpt>
      <trkpt lat="46.76704" lon="-1.83374">
        <ele>19</ele>
        <time>2018-01-13T07:13:31Z</time>
      </trkpt>
      <trkpt lat="46.76707" lon="-1.83368">
        <ele>19</ele>
        <time>2018-01-13T07:14:31Z</time>
      </trkpt>
      <trkpt lat="46.76715" lon="-1.83354">
        <ele>19</ele>
        <time>2018-01-13T07:15:31Z</time>
      </trkpt>
      <trkpt lat="46.76723" lon="-1.83342">
        <ele>19</ele>
        <time>2018-01-13T07:16:31Z</time>
      </trkpt>
      <trkpt lat="46.76738" lon="-1.83315">
        <ele>19</ele>
        <time>2018-01-13T07:17:31Z</time>
      </trkpt>
      <trkpt lat="46.76753" lon="-1.83287">
        <ele>19</ele>
        <time>2018-01-13T07:18:31Z</time>
      </trkpt>
      <trkpt lat="46.76761" lon="-1.83269">
        <ele>19</ele>
        <time>2018-01-13T07:19:31Z</time>
      </trkpt>
      <trkpt lat="46.76766" lon="-1.8326">
        <ele>19</ele>
        <time>2018-01-13T07:20:31Z</time>
      </trkpt>
      <trkpt lat="46.76777" lon="-1.83239">
        <ele>19</ele>
        <time>2018-01-13T07:21:31Z</time>
      </trkpt>
      <trkpt lat="46.76784" lon="-1.83221">
        <ele>19</ele>
        <time>2018-01-13T07:22:31Z</time>
      </trkpt>
      <trkpt lat="46.76787" lon="-1.83216">
        <ele>19</ele>
        <time>2018-01-13T07:23:31Z</time>
      </trkpt>
      <trkpt lat="46.76792" lon="-1.83201">
        <ele>19</ele>
        <time>2018-01-13T07:24:31Z</time>
      </trkpt>
      <trkpt lat="46.76797" lon="-1.83181">
        <ele>19</ele>
        <time>2018-01-13T07:25:31Z</time>
      </trkpt>
      <trkpt lat="46.76802" lon="-1.83166">
        <ele>19</ele>
        <time>2018-01-13T07:26:31Z</time>
      </trkpt>
      <trkpt lat="46.76813" lon="-1.83135">
        <ele>18</ele>
        <time>2018-01-13T07:27:31Z</time>
      </trkpt>
      <trkpt lat="46.76818" lon="-1.83118">
        <ele>18</ele>
        <time>2018-01-13T07:28:31Z</time>
      </trkpt>
      <trkpt lat="46.76824" lon="-1.83101">
        <ele>17</ele>
        <time>2018-01-13T07:29:31Z</time>
      </trkpt>
      <trkpt lat="46.76831" lon="-1.83082">
        <ele>17</ele>
        <time>2018-01-13T07:30:31Z</time>
      </trkpt>
      <trkpt lat="46.76838" lon="-1.83065">
        <ele>17</ele>
        <time>2018-01-13T07:31:31Z</time>
      </trkpt>
      <trkpt lat="46.76846" lon="-1.83047">
        <ele>18</ele>
        <time>2018-01-13T07:32:31Z</time>
      </trkpt>
      <trkpt lat="46.76857" lon="-1.83027">
        <ele>18</ele>
        <time>2018-01-13T07:33:31Z</time>
      </trkpt>
      <trkpt lat="46.76867" lon="-1.83007">
        <ele>19</ele>
        <time>2018-01-13T07:34:31Z</time>
      </trkpt>
      <trkpt lat="46.7688" lon="-1.82984">
        <ele>20</ele>
        <time>2018-01-13T07:35:31Z</time>
      </trkpt>
      <trkpt lat="46.7689" lon="-1.82965">
        <ele>21</ele>
        <time>2018-01-13T07:36:31Z</time>
      </trkpt>
      <trkpt lat="46.769" lon="-1.8295">
        <ele>22</ele>
        <time>2018-01-13T07:37:31Z</time>
      </trkpt>
      <trkpt lat="46.76915" lon="-1.82926">
        <ele>24</ele>
        <time>2018-01-13T07:38:31Z</time>
      </trkpt>
      <trkpt lat="46.76926" lon="-1.82909">
        <ele>24</ele>
        <time>2018-01-13T07:39:31Z</time>
      </trkpt>
      <trkpt lat="46.76936" lon="-1.82896">
        <ele>25</ele>
        <time>2018-01-13T07:40:31Z</time>
      </trkpt>
      <trkpt lat="46.76946" lon="-1.82882">
        <ele>25</ele>
        <time>2018-01-13T07:41:31Z</time>
      </trkpt>
      <trkpt lat="46.76955" lon="-1.82872">
        <ele>26</ele>
        <time>2018-01-13T07:42:31Z</time>
      </trkpt>
      <trkpt lat="46.76971" lon="-1.82857">
        <ele>26</ele>
        <time>2018-01-13T07:43:31Z</time>
      </trkpt>
      <trkpt lat="46.7699" lon="-1.82837">
        <ele>27</ele>
        <time>2018-01-13T07:44:31Z</time>
      </trkpt>
      <trkpt lat="46.77015" lon="-1.82811">
        <ele>27</ele>
        <time>2018-01-13T07:45:31Z</time>
      </trkpt>
      <trkpt lat="46.77041" lon="-1.82785">
        <ele>27</ele>
        <time>2018-01-13T07:46:31Z</time>
      </trkpt>
      <trkpt lat="46.7709" lon="-1.82734">
        <ele>28</ele>
        <time>2018-01-13T07:47:31Z</time>
      </trkpt>
      <trkpt lat="46.77134" lon="-1.82688">
        <ele>27</ele>
        <time>2018-01-13T07:48:31Z</time>
      </trkpt>
      <trkpt lat="46.77146" lon="-1.82676">
        <ele>26</ele>
        <time>2018-01-13T07:49:31Z</time>
      </trkpt>
      <trkpt lat="46.77212" lon="-1.82608">
        <ele>27</ele>
        <time>2018-01-13T07:50:31Z</time>
      </trkpt>
      <trkpt lat="46.77264" lon="-1.82553">
        <ele>27</ele>
        <time>2018-01-13T07:51:31Z</time>
      </trkpt>
      <trkpt lat="46.77345" lon="-1.82467">
        <ele>26</ele>
        <time>2018-01-13T07:52:31Z</time>
      </trkpt>
      <trkpt lat="46.7742" lon="-1.82389">
        <ele>26</ele>
        <time>2018-01-13T07:53:31Z</time>
      </trkpt>
      <trkpt lat="46.77487" lon="-1.8232">
        <ele>28</ele>
        <time>2018-01-13T07:54:31Z</time>
      </trkpt>
      <trkpt lat="46.77525" lon="-1.8228">
        <ele>28</ele>
        <time>2018-01-13T07:55:31Z</time>
      </trkpt>
      <trkpt lat="46.77568" lon="-1.82235">
        <ele>29</ele>
        <time>2018-01-13T07:56:31Z</time>
      </trkpt>
      <trkpt lat="46.77659" lon="-1.82141">
        <ele>31</ele>
        <time>2018-01-13T07:57:31Z</time>
      </trkpt>
      <trkpt lat="46.77721" lon="-1.82077">
        <ele>33</ele>
        <time>2018-01-13T07:58:31Z</time>
      </trkpt>
      <trkpt lat="46.7775" lon="-1.82047">
        <ele>34</ele>
        <time>2018-01-13T07:59:31Z</time>
      </trkpt>
      <trkpt lat="46.778" lon="-1.81995">
        <ele>34</ele>
        <time>2018-01-13T08:00:31Z</time>
      </trkpt>
      <trkpt lat="46.77884" lon="-1.81909">
        <ele>33</ele>
        <time>2018-01-13T08:01:31Z</time>
      </trkpt>
      <trkpt lat="46.77961" lon="-1.81828">
        <ele>32</ele>
        <time>2018-01-13T08:02:31Z</time>
      </trkpt>
      <trkpt lat="46.7797" lon="-1.81819">
        <ele>32</ele>
        <time>2018-01-13T08:03:31Z</time>
      </trkpt>
      <trkpt lat="46.78038" lon="-1.81748">
        <ele>30</ele>
        <time>2018-01-13T08:04:31Z</time>
      </trkpt>
      <trkpt lat="46.78066" lon="-1.81721">
        <ele>30</ele>
        <time>2018-01-13T08:05:31Z</time>
      </trkpt>
      <trkpt lat="46.7809" lon="-1.81695">
        <ele>30</ele>
        <time>2018-01-13T08:06:31Z</time>
      </trkpt>
      <trkpt lat="46.78121" lon="-1.81662">
        <ele>30</ele>
        <time>2018-01-13T08:07:31Z</time>
      </trkpt>
      <trkpt lat="46.78148" lon="-1.81634">
        <ele>31</ele>
        <time>2018-01-13T08:08:31Z</time>
      </trkpt>
      <trkpt lat="46.78182" lon="-1.81598">
        <ele>32</ele>
        <time>2018-01-13T08:09:31Z</time>
      </trkpt>
      <trkpt lat="46.78226" lon="-1.81552">
        <ele>30</ele>
        <time>2018-01-13T08:10:31Z</time>
      </trkpt>
      <trkpt lat="46.78267" lon="-1.81509">
        <ele>30</ele>
        <time>2018-01-13T08:11:31Z</time>
      </trkpt>
      <trkpt lat="46.78322" lon="-1.81452">
        <ele>30</ele>
        <time>2018-01-13T08:12:31Z</time>
      </trkpt>
      <trkpt lat="46.78354" lon="-1.81418">
        <ele>30</ele>
        <time>2018-01-13T08:13:31Z</time>
      </trkpt>
      <trkpt lat="46.78391" lon="-1.81379">
        <ele>31</ele>
        <time>2018-01-13T08:14:31Z</time>
      </trkpt>
      <trkpt lat="46.78446" lon="-1.81321">
        <ele>29</ele>
        <time>2018-01-13T08:15:31Z</time>
      </trkpt>
      <trkpt lat="46.78498" lon="-1.81267">
        <ele>27</ele>
        <time>2018-01-13T08:16:31Z</time>
      </trkpt>
      <trkpt lat="46.78524" lon="-1.81239">
        <ele>28</ele>
        <time>2018-01-13T08:17:31Z</time>
      </trkpt>
      <trkpt lat="46.78569" lon="-1.81193">
        <ele>29</ele>
        <time>2018-01-13T08:18:31Z</time>
      </trkpt>
      <trkpt lat="46.78605" lon="-1.81154">
        <ele>29</ele>
        <time>2018-01-13T08:19:31Z</time>
      </trkpt>
      <trkpt lat="46.78624" lon="-1.81135">
        <ele>29</ele>
        <time>2018-01-13T08:20:31Z</time>
      </trkpt>
      <trkpt lat="46.7868" lon="-1.81077">
        <ele>30</ele>
        <time>2018-01-13T08:21:31Z</time>
      </trkpt>
      <trkpt lat="46.78719" lon="-1.81037">
        <ele>29</ele>
        <time>2018-01-13T08:22:31Z</time>
      </trkpt>
      <trkpt lat="46.78762" lon="-1.80991">
        <ele>29</ele>
        <time>2018-01-13T08:23:31Z</time>
      </trkpt>
      <trkpt lat="46.78854" lon="-1.80896">
        <ele>30</ele>
        <time>2018-01-13T08:24:31Z</time>
      </trkpt>
      <trkpt lat="46.78856" lon="-1.80893">
        <ele>30</ele>
        <time>2018-01-13T08:25:31Z</time>
      </trkpt>
      <trkpt lat="46.78953" lon="-1.80791">
        <ele>30</ele>
        <time>2018-01-13T08:26:31Z</time>
      </trkpt>
      <trkpt lat="46.79029" lon="-1.80711">
        <ele>30</ele>
        <time>2018-01-13T08:27:31Z</time>
      </trkpt>
      <trkpt lat="46.79097" lon="-1.80639">
        <ele>31</ele>
        <time>2018-01-13T08:28:31Z</time>
      </trkpt>
      <trkpt lat="46.79199" lon="-1.80531">
        <ele>28</ele>
        <time>2018-01-13T08:29:31Z</time>
      </trkpt>
      <trkpt lat="46.79278" lon="-1.80448">
        <ele>28</ele>
        <time>2018-01-13T08:30:31Z</time>
      </trkpt>
      <trkpt lat="46.79347" lon="-1.80375">
        <ele>27</ele>
        <time>2018-01-13T08:31:31Z</time>
      </trkpt>
      <trkpt lat="46.79397" lon="-1.80323">
        <ele>26</ele>
        <time>2018-01-13T08:32:31Z</time>
      </trkpt>
      <trkpt lat="46.79413" lon="-1.80306">
        <ele>25</ele>
        <time>2018-01-13T08:33:31Z</time>
      </trkpt>
      <trkpt lat="46.79421" lon="-1.80297">
        <ele>25</ele>
        <time>2018-01-13T08:34:31Z</time>
      </trkpt>
      <trkpt lat="46.7943" lon="-1.80284">
        <ele>25</ele>
        <time>2018-01-13T08:35:31Z</time>
      </trkpt>
      <trkpt lat="46.7944" lon="-1.8027">
        <ele>25</ele>
        <time>2018-01-13T08:36:31Z</time>
      </trkpt>
      <trkpt lat="46.79449" lon="-1.80257">
        <ele>25</ele>
        <time>2018-01-13T08:37:31Z</time>
      </trkpt>
      <trkpt lat="46.79457" lon="-1.80244">
        <ele>26</ele>
        <time>2018-01-13T08:38:31Z</time>
      </trkpt>
      <trkpt lat="46.79492" lon="-1.80181">
        <ele>26</ele>
        <time>2018-01-13T08:39:31Z</time>
      </trkpt>
      <trkpt lat="46.79533" lon="-1.80105">
        <ele>26</ele>
        <time>2018-01-13T08:40:31Z</time>
      </trkpt>
      <trkpt lat="46.79558" lon="-1.80055">
        <ele>27</ele>
        <time>2018-01-13T08:41:31Z</time>
      </trkpt>
      <trkpt lat="46.79594" lon="-1.79987">
        <ele>28</ele>
        <time>2018-01-13T08:42:31Z</time>
      </trkpt>
      <trkpt lat="46.7964" lon="-1.79901">
        <ele>29</ele>
        <time>2018-01-13T08:43:31Z</time>
      </trkpt>
      <trkpt lat="46.79669" lon="-1.79846">
        <ele>29</ele>
        <time>2018-01-13T08:44:31Z</time>
      </trkpt>
      <trkpt lat="46.79704" lon="-1.7978">
        <ele>28</ele>
        <time>2018-01-13T08:45:31Z</time>
      </trkpt>
      <trkpt lat="46.79747" lon="-1.797">
        <ele>25</ele>
        <time>2018-01-13T08:46:31Z</time>
      </trkpt>
      <trkpt lat="46.79787" lon="-1.79623">
        <ele>25</ele>
        <time>2018-01-13T08:47:31Z</time>
      </trkpt>
      <trkpt lat="46.79807" lon="-1.79586">
        <ele>24</ele>
        <time>2018-01-13T08:48:31Z</time>
      </trkpt>
      <trkpt lat="46.79817" lon="-1.79566">
        <ele>25</ele>
        <time>2018-01-13T08:49:31Z</time>
      </trkpt>
      <trkpt lat="46.79824" lon="-1.79554">
        <ele>25</ele>
        <time>2018-01-13T08:50:31Z</time>
      </trkpt>
      <trkpt lat="46.79829" lon="-1.79542">
        <ele>25</ele>
        <time>2018-01-13T08:51:31Z</time>
      </trkpt>
      <trkpt lat="46.79831" lon="-1.79536">
        <ele>25</ele>
        <time>2018-01-13T08:52:31Z</time>
      </trkpt>
      <trkpt lat="46.79834" lon="-1.79531">
        <ele>25</ele>
        <time>2018-01-13T08:53:31Z</time>
      </trkpt>
      <trkpt lat="46.79835" lon="-1.79527">
        <ele>25</ele>
        <time>2018-01-13T08:54:31Z</time>
      </trkpt>
      <trkpt lat="46.7984" lon="-1.79516">
        <ele>26</ele>
        <time>2018-01-13T08:55:31Z</time>
      </trkpt>
      <trkpt lat="46.79848" lon="-1.79494">
        <ele>26</ele>
        <time>2018-01-13T08:56:31Z</time>
      </trkpt>
      <trkpt lat="46.79882" lon="-1.79392">
        <ele>27</ele>
        <time>2018-01-13T08:57:31Z</time>
      </trkpt>
      <trkpt lat="46.79897" lon="-1.79349">
        <ele>27</ele>
        <time>2018-01-13T08:58:31Z</time>
      </trkpt>
      <trkpt lat="46.79923" lon="-1.79276">
        <ele>27</ele>
        <time>2018-01-13T08:59:31Z</time>
      </trkpt>
      <trkpt lat="46.79944" lon="-1.79213">
        <ele>27</ele>
        <time>2018-01-13T09:00:31Z</time>
      </trkpt>
      <trkpt lat="46.79945" lon="-1.7921">
        <ele>27</ele>
        <time>2018-01-13T09:01:31Z</time>
      </trkpt>
      <trkpt lat="46.79948" lon="-1.79202">
        <ele>27</ele>
        <time>2018-01-13T09:02:31Z</time>
      </trkpt>
      <trkpt lat="46.79949" lon="-1.79199">
        <ele>27</ele>
        <time>2018-01-13T09:03:31Z</time>
      </trkpt>
      <trkpt lat="46.79955" lon="-1.79184">
        <ele>27</ele>
        <time>2018-01-13T09:04:31Z</time>
      </trkpt>
      <trkpt lat="46.7996" lon="-1.79172">
        <ele>27</ele>
        <time>2018-01-13T09:05:31Z</time>
      </trkpt>
      <trkpt lat="46.79964" lon="-1.79161">
        <ele>27</ele>
        <time>2018-01-13T09:06:31Z</time>
      </trkpt>
      <trkpt lat="46.79965" lon="-1.79158">
        <ele>27</ele>
        <time>2018-01-13T09:07:31Z</time>
      </trkpt>
      <trkpt lat="46.7998" lon="-1.79121">
        <ele>26</ele>
        <time>2018-01-13T09:08:31Z</time>
      </trkpt>
      <trkpt lat="46.7999" lon="-1.791">
        <ele>26</ele>
        <time>2018-01-13T09:09:31Z</time>
      </trkpt>
      <trkpt lat="46.80005" lon="-1.79063">
        <ele>26</ele>
        <time>2018-01-13T09:10:31Z</time>
      </trkpt>
      <trkpt lat="46.80036" lon="-1.7899">
        <ele>26</ele>
        <time>2018-01-13T09:11:31Z</time>
      </trkpt>
      <trkpt lat="46.80082" lon="-1.7888">
        <ele>27</ele>
        <time>2018-01-13T09:12:31Z</time>
      </trkpt>
      <trkpt lat="46.80108" lon="-1.78821">
        <ele>27</ele>
        <time>2018-01-13T09:13:31Z</time>
      </trkpt>
      <trkpt lat="46.8014" lon="-1.78744">
        <ele>25</ele>
        <time>2018-01-13T09:14:31Z</time>
      </trkpt>
      <trkpt lat="46.80174" lon="-1.78666">
        <ele>24</ele>
        <time>2018-01-13T09:15:31Z</time>
      </trkpt>
      <trkpt lat="46.80183" lon="-1.78645">
        <ele>23</ele>
        <time>2018-01-13T09:16:31Z</time>
      </trkpt>
      <trkpt lat="46.80187" lon="-1.78634">
        <ele>23</ele>
        <time>2018-01-13T09:17:31Z</time>
      </trkpt>
      <trkpt lat="46.80212" lon="-1.78578">
        <ele>23</ele>
        <time>2018-01-13T09:18:31Z</time>
      </trkpt>
      <trkpt lat="46.80221" lon="-1.78555">
        <ele>24</ele>
        <time>2018-01-13T09:19:31Z</time>
      </trkpt>
      <trkpt lat="46.80236" lon="-1.7852">
        <ele>25</ele>
        <time>2018-01-13T09:20:31Z</time>
      </trkpt>
      <trkpt lat="46.80254" lon="-1.78477">
        <ele>26</ele>
        <time>2018-01-13T09:21:31Z</time>
      </trkpt>
      <trkpt lat="46.80272" lon="-1.78436">
        <ele>26</ele>
        <time>2018-01-13T09:22:31Z</time>
      </trkpt>
      <trkpt lat="46.8031" lon="-1.78345">
        <ele>25</ele>
        <time>2018-01-13T09:23:31Z</time>
      </trkpt>
      <trkpt lat="46.80337" lon="-1.78283">
        <ele>26</ele>
        <time>2018-01-13T09:24:31Z</time>
      </trkpt>
      <trkpt lat="46.80373" lon="-1.78197">
        <ele>26</ele>
        <time>2018-01-13T09:25:31Z</time>
      </trkpt>
      <trkpt lat="46.80381" lon="-1.78179">
        <ele>26</ele>
        <time>2018-01-13T09:26:31Z</time>
      </trkpt>
      <trkpt lat="46.80387" lon="-1.78165">
        <ele>25</ele>
        <time>2018-01-13T09:27:31Z</time>
      </trkpt>
      <trkpt lat="46.80393" lon="-1.78153">
        <ele>25</ele>
        <time>2018-01-13T09:28:31Z</time>
      </trkpt>
      <trkpt lat="46.80397" lon="-1.78142">
        <ele>25</ele>
        <time>2018-01-13T09:29:31Z</time>
      </trkpt>
      <trkpt lat="46.80401" lon="-1.78133">
        <ele>25</ele>
        <time>2018-01-13T09:30:31Z</time>
      </trkpt>
      <trkpt lat="46.80408" lon="-1.7812">
        <ele>25</ele>
        <time>2018-01-13T09:31:31Z</time>
      </trkpt>
      <trkpt lat="46.80416" lon="-1.78107">
        <ele>25</ele>
        <time>2018-01-13T09:32:31Z</time>
      </trkpt>
      <trkpt lat="46.80425" lon="-1.78092">
        <ele>25</ele>
        <time>2018-01-13T09:33:31Z</time>
      </trkpt>
      <trkpt lat="46.80434" lon="-1.78077">
        <ele>25</ele>
        <time>2018-01-13T09:34:31Z</time>
      </trkpt>
      <trkpt lat="46.80445" lon="-1.78062">
        <ele>25</ele>
        <time>2018-01-13T09:35:31Z</time>
      </trkpt>
      <trkpt lat="46.80478" lon="-1.78017">
        <ele>24</ele>
        <time>2018-01-13T09:36:31Z</time>
      </trkpt>
      <trkpt lat="46.80505" lon="-1.77981">
        <ele>23</ele>
        <time>2018-01-13T09:37:31Z</time>
      </trkpt>
      <trkpt lat="46.80623" lon="-1.77821">
        <ele>21</ele>
        <time>2018-01-13T09:38:31Z</time>
      </trkpt>
      <trkpt lat="46.80674" lon="-1.77751">
        <ele>24</ele>
        <time>2018-01-13T09:39:31Z</time>
      </trkpt>
      <trkpt lat="46.807" lon="-1.77716">
        <ele>24</ele>
        <time>2018-01-13T09:40:31Z</time>
      </trkpt>
      <trkpt lat="46.80702" lon="-1.77713">
        <ele>24</ele>
        <time>2018-01-13T09:41:31Z</time>
      </trkpt>
      <trkpt lat="46.80735" lon="-1.77667">
        <ele>24</ele>
        <time>2018-01-13T09:42:31Z</time>
      </trkpt>
      <trkpt lat="46.8075" lon="-1.77647">
        <ele>24</ele>
        <time>2018-01-13T09:43:31Z</time>
      </trkpt>
      <trkpt lat="46.80765" lon="-1.77629">
        <ele>25</ele>
        <time>2018-01-13T09:44:31Z</time>
      </trkpt>
      <trkpt lat="46.80784" lon="-1.77608">
        <ele>25</ele>
        <time>2018-01-13T09:45:31Z</time>
      </trkpt>
      <trkpt lat="46.80803" lon="-1.77591">
        <ele>25</ele>
        <time>2018-01-13T09:46:31Z</time>
      </trkpt>
      <trkpt lat="46.80826" lon="-1.77574">
        <ele>25</ele>
        <time>2018-01-13T09:47:31Z</time>
      </trkpt>
      <trkpt lat="46.80858" lon="-1.77553">
        <ele>26</ele>
        <time>2018-01-13T09:48:31Z</time>
      </trkpt>
      <trkpt lat="46.80873" lon="-1.77543">
        <ele>26</ele>
        <time>2018-01-13T09:49:31Z</time>
      </trkpt>
      <trkpt lat="46.80888" lon="-1.77534">
        <ele>26</ele>
        <time>2018-01-13T09:50:31Z</time>
      </trkpt>
      <trkpt lat="46.80928" lon="-1.77507">
        <ele>26</ele>
        <time>2018-01-13T09:51:31Z</time>
      </trkpt>
      <trkpt lat="46.80977" lon="-1.77474">
        <ele>25</ele>
        <time>2018-01-13T09:52:31Z</time>
      </trkpt>
      <trkpt lat="46.80982" lon="-1.77471">
        <ele>25</ele>
        <time>2018-01-13T09:53:31Z</time>
      </trkpt>
      <trkpt lat="46.80995" lon="-1.77461">
        <ele>25</ele>
        <time>2018-01-13T09:54:31Z</time>
      </trkpt>
      <trkpt lat="46.81055" lon="-1.7742">
        <ele>23</ele>
        <time>2018-01-13T09:55:31Z</time>
      </trkpt>
      <trkpt lat="46.81057" lon="-1.77419">
        <ele>23</ele>
        <time>2018-01-13T09:56:31Z</time>
      </trkpt>
      <trkpt lat="46.81098" lon="-1.77391">
        <ele>22</ele>
        <time>2018-01-13T09:57:31Z</time>
      </trkpt>
      <trkpt lat="46.81134" lon="-1.77367">
        <ele>21</ele>
        <time>2018-01-13T09:58:31Z</time>
      </trkpt>
      <trkpt lat="46.81139" lon="-1.77364">
        <ele>21</ele>
        <time>2018-01-13T09:59:31Z</time>
      </trkpt>
      <trkpt lat="46.81142" lon="-1.77358">
        <ele>21</ele>
        <time>2018-01-13T10:00:31Z</time>
      </trkpt>
      <trkpt lat="46.81143" lon="-1.77358">
        <ele>21</ele>
        <time>2018-01-13T10:01:31Z</time>
      </trkpt>
      <trkpt lat="46.81153" lon="-1.7735">
        <ele>21</ele>
        <time>2018-01-13T10:02:31Z</time>
      </trkpt>
      <trkpt lat="46.81164" lon="-1.77341">
        <ele>21</ele>
        <time>2018-01-13T10:03:31Z</time>
      </trkpt>
      <trkpt lat="46.8118" lon="-1.7733">
        <ele>21</ele>
        <time>2018-01-13T10:04:31Z</time>
      </trkpt>
      <trkpt lat="46.812" lon="-1.77316">
        <ele>22</ele>
        <time>2018-01-13T10:05:31Z</time>
      </trkpt>
      <trkpt lat="46.81202" lon="-1.77315">
        <ele>22</ele>
        <time>2018-01-13T10:06:31Z</time>
      </trkpt>
      <trkpt lat="46.81212" lon="-1.77307">
        <ele>22</ele>
        <time>2018-01-13T10:07:31Z</time>
      </trkpt>
      <trkpt lat="46.81228" lon="-1.77294">
        <ele>22</ele>
        <time>2018-01-13T10:08:31Z</time>
      </trkpt>
      <trkpt lat="46.81242" lon="-1.77282">
        <ele>23</ele>
        <time>2018-01-13T10:09:31Z</time>
      </trkpt>
      <trkpt lat="46.81268" lon="-1.77258">
        <ele>23</ele>
        <time>2018-01-13T10:10:31Z</time>
      </trkpt>
      <trkpt lat="46.81292" lon="-1.77234">
        <ele>23</ele>
        <time>2018-01-13T10:11:31Z</time>
      </trkpt>
      <trkpt lat="46.813" lon="-1.77229">
        <ele>22</ele>
        <time>2018-01-13T10:12:31Z</time>
      </trkpt>
      <trkpt lat="46.81318" lon="-1.77207">
        <ele>22</ele>
        <time>2018-01-13T10:13:31Z</time>
      </trkpt>
      <trkpt lat="46.81338" lon="-1.77185">
        <ele>22</ele>
        <time>2018-01-13T10:14:31Z</time>
      </trkpt>
      <trkpt lat="46.8141" lon="-1.77102">
        <ele>25</ele>
        <time>2018-01-13T10:15:31Z</time>
      </trkpt>
      <trkpt lat="46.81485" lon="-1.77016">
        <ele>25</ele>
        <time>2018-01-13T10:16:31Z</time>
      </trkpt>
      <trkpt lat="46.81549" lon="-1.76943">
        <ele>26</ele>
        <time>2018-01-13T10:17:31Z</time>
      </trkpt>
      <trkpt lat="46.81582" lon="-1.76905">
        <ele>27</ele>
        <time>2018-01-13T10:18:31Z</time>
      </trkpt>
      <trkpt lat="46.81598" lon="-1.76886">
        <ele>28</ele>
        <time>2018-01-13T10:19:31Z</time>
      </trkpt>
      <trkpt lat="46.81614" lon="-1.76868">
        <ele>29</ele>
        <time>2018-01-13T10:20:31Z</time>
      </trkpt>
      <trkpt lat="46.8166" lon="-1.76816">
        <ele>31</ele>
        <time>2018-01-13T10:21:31Z</time>
      </trkpt>
      <trkpt lat="46.81689" lon="-1.76782">
        <ele>31</ele>
        <time>2018-01-13T10:22:31Z</time>
      </trkpt>
      <trkpt lat="46.81724" lon="-1.76741">
        <ele>32</ele>
        <time>2018-01-13T10:23:31Z</time>
      </trkpt>
      <trkpt lat="46.81731" lon="-1.76733">
        <ele>33</ele>
        <time>2018-01-13T10:24:31Z</time>
      </trkpt>
      <trkpt lat="46.81761" lon="-1.76699">
        <ele>34</ele>
        <time>2018-01-13T10:25:31Z</time>
      </trkpt>
      <trkpt lat="46.81785" lon="-1.76672">
        <ele>34</ele>
        <time>2018-01-13T10:26:31Z</time>
      </trkpt>
      <trkpt lat="46.8179" lon="-1.76666">
        <ele>34</ele>
        <time>2018-01-13T10:27:31Z</time>
      </trkpt>
      <trkpt lat="46.81799" lon="-1.76657">
        <ele>35</ele>
        <time>2018-01-13T10:28:31Z</time>
      </trkpt>
      <trkpt lat="46.8181" lon="-1.76648">
        <ele>35</ele>
        <time>2018-01-13T10:29:31Z</time>
      </trkpt>
      <trkpt lat="46.81839" lon="-1.76625">
        <ele>36</ele>
        <time>2018-01-13T10:30:31Z</time>
      </trkpt>
      <trkpt lat="46.8185" lon="-1.76617">
        <ele>36</ele>
        <time>2018-01-13T10:31:31Z</time>
      </trkpt>
      <trkpt lat="46.81861" lon="-1.7661">
        <ele>36</ele>
        <time>2018-01-13T10:32:31Z</time>
      </trkpt>
      <trkpt lat="46.81875" lon="-1.76603">
        <ele>36</ele>
        <time>2018-01-13T10:33:31Z</time>
      </trkpt>
      <trkpt lat="46.81906" lon="-1.76589">
        <ele>36</ele>
        <time>2018-01-13T10:34:31Z</time>
      </trkpt>
      <trkpt lat="46.81923" lon="-1.7658">
        <ele>36</ele>
        <time>2018-01-13T10:35:31Z</time>
      </trkpt>
      <trkpt lat="46.81931" lon="-1.76576">
        <ele>37</ele>
        <time>2018-01-13T10:36:31Z</time>
      </trkpt>
      <trkpt lat="46.81944" lon="-1.76569">
        <ele>37</ele>
        <time>2018-01-13T10:37:31Z</time>
      </trkpt>
      <trkpt lat="46.81944" lon="-1.76569">
        <ele>37</ele>
        <time>2018-01-13T10:38:31Z</time>
      </trkpt>
      <trkpt lat="46.81944" lon="-1.76567">
        <ele>37</ele>
        <time>2018-01-13T10:39:31Z</time>
      </trkpt>
      <trkpt lat="46.81944" lon="-1.76565">
        <ele>37</ele>
        <time>2018-01-13T10:40:31Z</time>
      </trkpt>
      <trkpt lat="46.81943" lon="-1.76564">
        <ele>37</ele>
        <time>2018-01-13T10:41:31Z</time>
      </trkpt>
      <trkpt lat="46.81943" lon="-1.76562">
        <ele>37</ele>
        <time>2018-01-13T10:42:31Z</time>
      </trkpt>
      <trkpt lat="46.81943" lon="-1.7656">
        <ele>37</ele>
        <time>2018-01-13T10:43:31Z</time>
      </trkpt>
      <trkpt lat="46.81943" lon="-1.76559">
        <ele>37</ele>
        <time>2018-01-13T10:44:31Z</time>
      </trkpt>
      <trkpt lat="46.81943" lon="-1.76557">
        <ele>37</ele>
        <time>2018-01-13T10:45:31Z</time>
      </trkpt>
      <trkpt lat="46.81943" lon="-1.76556">
        <ele>37</ele>
        <time>2018-01-13T10:46:31Z</time>
      </trkpt>
      <trkpt lat="46.81943" lon="-1.76554">
        <ele>37</ele>
        <time>2018-01-13T10:47:31Z</time>
      </trkpt>
      <trkpt lat="46.81944" lon="-1.76552">
        <ele>37</ele>
        <time>2018-01-13T10:48:31Z</time>
      </trkpt>
      <trkpt lat="46.81944" lon="-1.76551">
        <ele>37</ele>
        <time>2018-01-13T10:49:31Z</time>
      </trkpt>
      <trkpt lat="46.81945" lon="-1.76549">
        <ele>37</ele>
        <time>2018-01-13T10:50:31Z</time>
      </trkpt>
      <trkpt lat="46.81945" lon="-1.76548">
        <ele>37</ele>
        <time>2018-01-13T10:51:31Z</time>
      </trkpt>
      <trkpt lat="46.81946" lon="-1.76547">
        <ele>37</ele>
        <time>2018-01-13T10:52:31Z</time>
      </trkpt>
      <trkpt lat="46.81946" lon="-1.76545">
        <ele>37</ele>
        <time>2018-01-13T10:53:31Z</time>
      </trkpt>
      <trkpt lat="46.81947" lon="-1.76544">
        <ele>37</ele>
        <time>2018-01-13T10:54:31Z</time>
      </trkpt>
      <trkpt lat="46.81948" lon="-1.76543">
        <ele>37</ele>
        <time>2018-01-13T10:55:31Z</time>
      </trkpt>
      <trkpt lat="46.81949" lon="-1.76542">
        <ele>37</ele>
        <time>2018-01-13T10:56:31Z</time>
      </trkpt>
      <trkpt lat="46.8195" lon="-1.76541">
        <ele>38</ele>
        <time>2018-01-13T10:57:31Z</time>
      </trkpt>
      <trkpt lat="46.8195" lon="-1.7654">
        <ele>38</ele>
        <time>2018-01-13T10:58:31Z</time>
      </trkpt>
      <trkpt lat="46.81951" lon="-1.76539">
        <ele>38</ele>
        <time>2018-01-13T10:59:31Z</time>
      </trkpt>
      <trkpt lat="46.81952" lon="-1.76538">
        <ele>38</ele>
        <time>2018-01-13T11:00:31Z</time>
      </trkpt>
      <trkpt lat="46.81953" lon="-1.76538">
        <ele>38</ele>
        <time>2018-01-13T11:01:31Z</time>
      </trkpt>
      <trkpt lat="46.81954" lon="-1.76537">
        <ele>38</ele>
        <time>2018-01-13T11:02:31Z</time>
      </trkpt>
      <trkpt lat="46.81956" lon="-1.76537">
        <ele>38</ele>
        <time>2018-01-13T11:03:31Z</time>
      </trkpt>
      <trkpt lat="46.81957" lon="-1.76537">
        <ele>38</ele>
        <time>2018-01-13T11:04:31Z</time>
      </trkpt>
      <trkpt lat="46.81958" lon="-1.76536">
        <ele>38</ele>
        <time>2018-01-13T11:05:31Z</time>
      </trkpt>
      <trkpt lat="46.81959" lon="-1.76536">
        <ele>38</ele>
        <time>2018-01-13T11:06:31Z</time>
      </trkpt>
      <trkpt lat="46.8196" lon="-1.76536">
        <ele>38</ele>
        <time>2018-01-13T11:07:31Z</time>
      </trkpt>
      <trkpt lat="46.81961" lon="-1.76536">
        <ele>38</ele>
        <time>2018-01-13T11:08:31Z</time>
      </trkpt>
      <trkpt lat="46.81962" lon="-1.76537">
        <ele>38</ele>
        <time>2018-01-13T11:09:31Z</time>
      </trkpt>
      <trkpt lat="46.81963" lon="-1.76537">
        <ele>38</ele>
        <time>2018-01-13T11:10:31Z</time>
      </trkpt>
      <trkpt lat="46.81964" lon="-1.76538">
        <ele>38</ele>
        <time>2018-01-13T11:11:31Z</time>
      </trkpt>
      <trkpt lat="46.81965" lon="-1.76538">
        <ele>38</ele>
        <time>2018-01-13T11:12:31Z</time>
      </trkpt>
      <trkpt lat="46.81966" lon="-1.76539">
        <ele>38</ele>
        <time>2018-01-13T11:13:31Z</time>
      </trkpt>
      <trkpt lat="46.81967" lon="-1.7654">
        <ele>38</ele>
        <time>2018-01-13T11:14:31Z</time>
      </trkpt>
      <trkpt lat="46.81968" lon="-1.76541">
        <ele>38</ele>
        <time>2018-01-13T11:15:31Z</time>
      </trkpt>
      <trkpt lat="46.81969" lon="-1.76542">
        <ele>38</ele>
        <time>2018-01-13T11:16:31Z</time>
      </trkpt>
      <trkpt lat="46.8197" lon="-1.76543">
        <ele>38</ele>
        <time>2018-01-13T11:17:31Z</time>
      </trkpt>
      <trkpt lat="46.81971" lon="-1.76544">
        <ele>38</ele>
        <time>2018-01-13T11:18:31Z</time>
      </trkpt>
      <trkpt lat="46.81971" lon="-1.76545">
        <ele>38</ele>
        <time>2018-01-13T11:19:31Z</time>
      </trkpt>
      <trkpt lat="46.81972" lon="-1.76547">
        <ele>38</ele>
        <time>2018-01-13T11:20:31Z</time>
      </trkpt>
      <trkpt lat="46.81973" lon="-1.76549">
        <ele>38</ele>
        <time>2018-01-13T11:21:31Z</time>
      </trkpt>
      <trkpt lat="46.81986" lon="-1.76539">
        <ele>39</ele>
        <time>2018-01-13T11:22:31Z</time>
      </trkpt>
      <trkpt lat="46.81997" lon="-1.76529">
        <ele>39</ele>
        <time>2018-01-13T11:23:31Z</time>
      </trkpt>
      <trkpt lat="46.82013" lon="-1.76512">
        <ele>40</ele>
        <time>2018-01-13T11:24:31Z</time>
      </trkpt>
      <trkpt lat="46.8205" lon="-1.76468">
        <ele>41</ele>
        <time>2018-01-13T11:25:31Z</time>
      </trkpt>
      <trkpt lat="46.82056" lon="-1.76457">
        <ele>41</ele>
        <time>2018-01-13T11:26:31Z</time>
      </trkpt>
      <trkpt lat="46.82071" lon="-1.76436">
        <ele>42</ele>
        <time>2018-01-13T11:27:31Z</time>
      </trkpt>
      <trkpt lat="46.82089" lon="-1.76414">
        <ele>42</ele>
        <time>2018-01-13T11:28:31Z</time>
      </trkpt>
      <trkpt lat="46.82099" lon="-1.76404">
        <ele>43</ele>
        <time>2018-01-13T11:29:31Z</time>
      </trkpt>
      <trkpt lat="46.82115" lon="-1.76393">
        <ele>45</ele>
        <time>2018-01-13T11:30:31Z</time>
      </trkpt>
      <trkpt lat="46.82127" lon="-1.76385">
        <ele>46</ele>
        <time>2018-01-13T11:31:31Z</time>
      </trkpt>
      <trkpt lat="46.8214" lon="-1.76378">
        <ele>47</ele>
        <time>2018-01-13T11:32:31Z</time>
      </trkpt>
      <trkpt lat="46.82151" lon="-1.76373">
        <ele>47</ele>
        <time>2018-01-13T11:33:31Z</time>
      </trkpt>
      <trkpt lat="46.82159" lon="-1.76372">
        <ele>48</ele>
        <time>2018-01-13T11:34:31Z</time>
      </trkpt>
      <trkpt lat="46.82181" lon="-1.76363">
        <ele>49</ele>
        <time>2018-01-13T11:35:31Z</time>
      </trkpt>
      <trkpt lat="46.82221" lon="-1.7635">
        <ele>49</ele>
        <time>2018-01-13T11:36:31Z</time>
      </trkpt>
      <trkpt lat="46.82224" lon="-1.76348">
        <ele>50</ele>
        <time>2018-01-13T11:37:31Z</time>
      </trkpt>
      <trkpt lat="46.82263" lon="-1.76329">
        <ele>50</ele>
        <time>2018-01-13T11:38:31Z</time>
      </trkpt>
      <trkpt lat="46.82272" lon="-1.76323">
        <ele>51</ele>
        <time>2018-01-13T11:39:31Z</time>
      </trkpt>
      <trkpt lat="46.82282" lon="-1.76316">
        <ele>51</ele>
        <time>2018-01-13T11:40:31Z</time>
      </trkpt>
      <trkpt lat="46.82294" lon="-1.76306">
        <ele>52</ele>
        <time>2018-01-13T11:41:31Z</time>
      </trkpt>
      <trkpt lat="46.82306" lon="-1.76294">
        <ele>53</ele>
        <time>2018-01-13T11:42:31Z</time>
      </trkpt>
      <trkpt lat="46.82324" lon="-1.76274">
        <ele>54</ele>
        <time>2018-01-13T11:43:31Z</time>
      </trkpt>
      <trkpt lat="46.82335" lon="-1.76263">
        <ele>55</ele>
        <time>2018-01-13T11:44:31Z</time>
      </trkpt>
      <trkpt lat="46.82344" lon="-1.76255">
        <ele>56</ele>
        <time>2018-01-13T11:45:31Z</time>
      </trkpt>
      <trkpt lat="46.82351" lon="-1.76249">
        <ele>56</ele>
        <time>2018-01-13T11:46:31Z</time>
      </trkpt>
      <trkpt lat="46.82366" lon="-1.76239">
        <ele>56</ele>
        <time>2018-01-13T11:47:31Z</time>
      </trkpt>
      <trkpt lat="46.82375" lon="-1.76233">
        <ele>56</ele>
        <time>2018-01-13T11:48:31Z</time>
      </trkpt>
      <trkpt lat="46.82406" lon="-1.76212">
        <ele>57</ele>
        <time>2018-01-13T11:49:31Z</time>
      </trkpt>
      <trkpt lat="46.82406" lon="-1.76212">
        <ele>57</ele>
        <time>2018-01-13T11:50:31Z</time>
      </trkpt>
      <trkpt lat="46.82391" lon="-1.76153">
        <ele>57</ele>
        <time>2018-01-13T11:51:31Z</time>
      </trkpt>
      <trkpt lat="46.82386" lon="-1.76144">
        <ele>57</ele>
        <time>2018-01-13T11:52:31Z</time>
      </trkpt>
      <trkpt lat="46.8238" lon="-1.76136">
        <ele>57</ele>
        <time>2018-01-13T11:53:31Z</time>
      </trkpt>
      <trkpt lat="46.8237" lon="-1.76123">
        <ele>56</ele>
        <time>2018-01-13T11:54:31Z</time>
      </trkpt>
      <trkpt lat="46.82367" lon="-1.76116">
        <ele>56</ele>
        <time>2018-01-13T11:55:31Z</time>
      </trkpt>
      <trkpt lat="46.82361" lon="-1.76093">
        <ele>56</ele>
        <time>2018-01-13T11:56:31Z</time>
      </trkpt>
      <trkpt lat="46.8235" lon="-1.76055">
        <ele>55</ele>
        <time>2018-01-13T11:57:31Z</time>
      </trkpt>
      <trkpt lat="46.82319" lon="-1.75995">
        <ele>54</ele>
        <time>2018-01-13T11:58:31Z</time>
      </trkpt>
      <trkpt lat="46.82318" lon="-1.75992">
        <ele>54</ele>
        <time>2018-01-13T11:59:31Z</time>
      </trkpt>
      <trkpt lat="46.82313" lon="-1.75984">
        <ele>54</ele>
        <time>2018-01-13T12:00:31Z</time>
      </trkpt>
      <trkpt lat="46.82308" lon="-1.75976">
        <ele>55</ele>
        <time>2018-01-13T12:01:31Z</time>
      </trkpt>
      <trkpt lat="46.82296" lon="-1.75954">
        <ele>56</ele>
        <time>2018-01-13T12:02:31Z</time>
      </trkpt>
      <trkpt lat="46.82285" lon="-1.75937">
        <ele>57</ele>
        <time>2018-01-13T12:03:31Z</time>
      </trkpt>
      <trkpt lat="46.8226" lon="-1.75892">
        <ele>58</ele>
        <time>2018-01-13T12:04:31Z</time>
      </trkpt>
      <trkpt lat="46.82246" lon="-1.75869">
        <ele>57</ele>
        <time>2018-01-13T12:05:31Z</time>
      </trkpt>
      <trkpt lat="46.82229" lon="-1.75841">
        <ele>57</ele>
        <time>2018-01-13T12:06:31Z</time>
      </trkpt>
      <trkpt lat="46.82206" lon="-1.75802">
        <ele>56</ele>
        <time>2018-01-13T12:07:31Z</time>
      </trkpt>
      <trkpt lat="46.82184" lon="-1.75764">
        <ele>56</ele>
        <time>2018-01-13T12:08:31Z</time>
      </trkpt>
      <trkpt lat="46.8215" lon="-1.75706">
        <ele>54</ele>
        <time>2018-01-13T12:09:31Z</time>
      </trkpt>
      <trkpt lat="46.82118" lon="-1.75653">
        <ele>53</ele>
        <time>2018-01-13T12:10:31Z</time>
      </trkpt>
      <trkpt lat="46.82106" lon="-1.75631">
        <ele>52</ele>
        <time>2018-01-13T12:11:31Z</time>
      </trkpt>
      <trkpt lat="46.82098" lon="-1.75618">
        <ele>52</ele>
        <time>2018-01-13T12:12:31Z</time>
      </trkpt>
      <trkpt lat="46.82088" lon="-1.75599">
        <ele>52</ele>
        <time>2018-01-13T12:13:31Z</time>
      </trkpt>
      <trkpt lat="46.82072" lon="-1.75571">
        <ele>51</ele>
        <time>2018-01-13T12:14:31Z</time>
      </trkpt>
      <trkpt lat="46.82056" lon="-1.75544">
        <ele>49</ele>
        <time>2018-01-13T12:15:31Z</time>
      </trkpt>
      <trkpt lat="46.82046" lon="-1.75528">
        <ele>48</ele>
        <time>2018-01-13T12:16:31Z</time>
      </trkpt>
      <trkpt lat="46.82031" lon="-1.75505">
        <ele>46</ele>
        <time>2018-01-13T12:17:31Z</time>
      </trkpt>
      <trkpt lat="46.82013" lon="-1.75478">
        <ele>45</ele>
        <time>2018-01-13T12:18:31Z</time>
      </trkpt>
      <trkpt lat="46.81993" lon="-1.7545">
        <ele>44</ele>
        <time>2018-01-13T12:19:31Z</time>
      </trkpt>
      <trkpt lat="46.81988" lon="-1.75444">
        <ele>43</ele>
        <time>2018-01-13T12:20:31Z</time>
      </trkpt>
      <trkpt lat="46.81981" lon="-1.75435">
        <ele>43</ele>
        <time>2018-01-13T12:21:31Z</time>
      </trkpt>
      <trkpt lat="46.8196" lon="-1.75407">
        <ele>43</ele>
        <time>2018-01-13T12:22:31Z</time>
      </trkpt>
      <trkpt lat="46.81929" lon="-1.75367">
        <ele>42</ele>
        <time>2018-01-13T12:23:31Z</time>
      </trkpt>
      <trkpt lat="46.819" lon="-1.75329">
        <ele>41</ele>
        <time>2018-01-13T12:24:31Z</time>
      </trkpt>
      <trkpt lat="46.81873" lon="-1.75292">
        <ele>41</ele>
        <time>2018-01-13T12:25:31Z</time>
      </trkpt>
      <trkpt lat="46.81854" lon="-1.75268">
        <ele>40</ele>
        <time>2018-01-13T12:26:31Z</time>
      </trkpt>
      <trkpt lat="46.81816" lon="-1.75219">
        <ele>39</ele>
        <time>2018-01-13T12:27:31Z</time>
      </trkpt>
      <trkpt lat="46.81781" lon="-1.75173">
        <ele>38</ele>
        <time>2018-01-13T12:28:31Z</time>
      </trkpt>
      <trkpt lat="46.81742" lon="-1.75124">
        <ele>37</ele>
        <time>2018-01-13T12:29:31Z</time>
      </trkpt>
      <trkpt lat="46.81708" lon="-1.7508">
        <ele>36</ele>
        <time>2018-01-13T12:30:31Z</time>
      </trkpt>
      <trkpt lat="46.81683" lon="-1.75048">
        <ele>35</ele>
        <time>2018-01-13T12:31:31Z</time>
      </trkpt>
      <trkpt lat="46.81654" lon="-1.75012">
        <ele>33</ele>
        <time>2018-01-13T12:32:31Z</time>
      </trkpt>
      <trkpt lat="46.81622" lon="-1.74972">
        <ele>32</ele>
        <time>2018-01-13T12:33:31Z</time>
      </trkpt>
      <trkpt lat="46.81609" lon="-1.7496">
        <ele>31</ele>
        <time>2018-01-13T12:34:31Z</time>
      </trkpt>
      <trkpt lat="46.81609" lon="-1.7496">
        <ele>31</ele>
        <time>2018-01-13T12:35:31Z</time>
      </trkpt>
      <trkpt lat="46.8161" lon="-1.74915">
        <ele>32</ele>
        <time>2018-01-13T12:36:31Z</time>
      </trkpt>
      <trkpt lat="46.81611" lon="-1.74891">
        <ele>32</ele>
        <time>2018-01-13T12:37:31Z</time>
      </trkpt>
      <trkpt lat="46.81611" lon="-1.74876">
        <ele>32</ele>
        <time>2018-01-13T12:38:31Z</time>
      </trkpt>
      <trkpt lat="46.81612" lon="-1.74837">
        <ele>32</ele>
        <time>2018-01-13T12:39:31Z</time>
      </trkpt>
      <trkpt lat="46.81614" lon="-1.74804">
        <ele>32</ele>
        <time>2018-01-13T12:40:31Z</time>
      </trkpt>
      <trkpt lat="46.81617" lon="-1.74749">
        <ele>32</ele>
        <time>2018-01-13T12:41:31Z</time>
      </trkpt>
      <trkpt lat="46.8162" lon="-1.74698">
        <ele>33</ele>
        <time>2018-01-13T12:42:31Z</time>
      </trkpt>
      <trkpt lat="46.81623" lon="-1.7464">
        <ele>34</ele>
        <time>2018-01-13T12:43:31Z</time>
      </trkpt>
      <trkpt lat="46.81626" lon="-1.74591">
        <ele>35</ele>
        <time>2018-01-13T12:44:31Z</time>
      </trkpt>
      <trkpt lat="46.81632" lon="-1.74513">
        <ele>36</ele>
        <time>2018-01-13T12:45:31Z</time>
      </trkpt>
      <trkpt lat="46.81635" lon="-1.74447">
        <ele>36</ele>
        <time>2018-01-13T12:46:31Z</time>
      </trkpt>
      <trkpt lat="46.81639" lon="-1.74383">
        <ele>37</ele>
        <time>2018-01-13T12:47:31Z</time>
      </trkpt>
      <trkpt lat="46.81643" lon="-1.74318">
        <ele>37</ele>
        <time>2018-01-13T12:48:31Z</time>
      </trkpt>
      <trkpt lat="46.81646" lon="-1.7428">
        <ele>37</ele>
        <time>2018-01-13T12:49:31Z</time>
      </trkpt>
      <trkpt lat="46.81648" lon="-1.74253">
        <ele>37</ele>
        <time>2018-01-13T12:50:31Z</time>
      </trkpt>
      <trkpt lat="46.81649" lon="-1.74215">
        <ele>37</ele>
        <time>2018-01-13T12:51:31Z</time>
      </trkpt>
      <trkpt lat="46.81651" lon="-1.74183">
        <ele>37</ele>
        <time>2018-01-13T12:52:31Z</time>
      </trkpt>
      <trkpt lat="46.81651" lon="-1.74163">
        <ele>37</ele>
        <time>2018-01-13T12:53:31Z</time>
      </trkpt>
      <trkpt lat="46.81651" lon="-1.74147">
        <ele>37</ele>
        <time>2018-01-13T12:54:31Z</time>
      </trkpt>
      <trkpt lat="46.81648" lon="-1.74119">
        <ele>38</ele>
        <time>2018-01-13T12:55:31Z</time>
      </trkpt>
      <trkpt lat="46.81645" lon="-1.74095">
        <ele>38</ele>
        <time>2018-01-13T12:56:31Z</time>
      </trkpt>
      <trkpt lat="46.81642" lon="-1.7407">
        <ele>38</ele>
        <time>2018-01-13T12:57:31Z</time>
      </trkpt>
      <trkpt lat="46.81636" lon="-1.7402">
        <ele>39</ele>
        <time>2018-01-13T12:58:31Z</time>
      </trkpt>
      <trkpt lat="46.8163" lon="-1.73976">
        <ele>39</ele>
        <time>2018-01-13T12:59:31Z</time>
      </trkpt>
      <trkpt lat="46.81627" lon="-1.73945">
        <ele>40</ele>
        <time>2018-01-13T13:00:31Z</time>
      </trkpt>
      <trkpt lat="46.81622" lon="-1.73901">
        <ele>40</ele>
        <time>2018-01-13T13:01:31Z</time>
      </trkpt>
      <trkpt lat="46.81621" lon="-1.73881">
        <ele>40</ele>
        <time>2018-01-13T13:02:31Z</time>
      </trkpt>
      <trkpt lat="46.81618" lon="-1.73845">
        <ele>40</ele>
        <time>2018-01-13T13:03:31Z</time>
      </trkpt>
      <trkpt lat="46.81615" lon="-1.73797">
        <ele>40</ele>
        <time>2018-01-13T13:04:31Z</time>
      </trkpt>
      <trkpt lat="46.81612" lon="-1.7376">
        <ele>40</ele>
        <time>2018-01-13T13:05:31Z</time>
      </trkpt>
      <trkpt lat="46.81608" lon="-1.73707">
        <ele>40</ele>
        <time>2018-01-13T13:06:31Z</time>
      </trkpt>
      <trkpt lat="46.81604" lon="-1.7365">
        <ele>40</ele>
        <time>2018-01-13T13:07:31Z</time>
      </trkpt>
      <trkpt lat="46.81602" lon="-1.73608">
        <ele>39</ele>
        <time>2018-01-13T13:08:31Z</time>
      </trkpt>
      <trkpt lat="46.816" lon="-1.73574">
        <ele>39</ele>
        <time>2018-01-13T13:09:31Z</time>
      </trkpt>
      <trkpt lat="46.816" lon="-1.73561">
        <ele>39</ele>
        <time>2018-01-13T13:10:31Z</time>
      </trkpt>
      <trkpt lat="46.816" lon="-1.7355">
        <ele>39</ele>
        <time>2018-01-13T13:11:31Z</time>
      </trkpt>
      <trkpt lat="46.81597" lon="-1.73525">
        <ele>39</ele>
        <time>2018-01-13T13:12:31Z</time>
      </trkpt>
      <trkpt lat="46.81591" lon="-1.73488">
        <ele>38</ele>
        <time>2018-01-13T13:13:31Z</time>
      </trkpt>
      <trkpt lat="46.81587" lon="-1.7346">
        <ele>38</ele>
        <time>2018-01-13T13:14:31Z</time>
      </trkpt>
      <trkpt lat="46.81581" lon="-1.73431">
        <ele>38</ele>
        <time>2018-01-13T13:15:31Z</time>
      </trkpt>
      <trkpt lat="46.81576" lon="-1.7341">
        <ele>38</ele>
        <time>2018-01-13T13:16:31Z</time>
      </trkpt>
      <trkpt lat="46.81573" lon="-1.73396">
        <ele>38</ele>
        <time>2018-01-13T13:17:31Z</time>
      </trkpt>
      <trkpt lat="46.81568" lon="-1.73372">
        <ele>38</ele>
        <time>2018-01-13T13:18:31Z</time>
      </trkpt>
      <trkpt lat="46.81563" lon="-1.73342">
        <ele>38</ele>
        <time>2018-01-13T13:19:31Z</time>
      </trkpt>
      <trkpt lat="46.81561" lon="-1.73319">
        <ele>39</ele>
        <time>2018-01-13T13:20:31Z</time>
      </trkpt>
      <trkpt lat="46.8156" lon="-1.73306">
        <ele>39</ele>
        <time>2018-01-13T13:21:31Z</time>
      </trkpt>
      <trkpt lat="46.81558" lon="-1.73274">
        <ele>39</ele>
        <time>2018-01-13T13:22:31Z</time>
      </trkpt>
      <trkpt lat="46.81557" lon="-1.7326">
        <ele>39</ele>
        <time>2018-01-13T13:23:31Z</time>
      </trkpt>
      <trkpt lat="46.81557" lon="-1.73241">
        <ele>40</ele>
        <time>2018-01-13T13:24:31Z</time>
      </trkpt>
      <trkpt lat="46.81553" lon="-1.73182">
        <ele>41</ele>
        <time>2018-01-13T13:25:31Z</time>
      </trkpt>
      <trkpt lat="46.81552" lon="-1.73166">
        <ele>41</ele>
        <time>2018-01-13T13:26:31Z</time>
      </trkpt>
      <trkpt lat="46.81551" lon="-1.73148">
        <ele>40</ele>
        <time>2018-01-13T13:27:31Z</time>
      </trkpt>
      <trkpt lat="46.81547" lon="-1.73122">
        <ele>39</ele>
        <time>2018-01-13T13:28:31Z</time>
      </trkpt>
      <trkpt lat="46.81543" lon="-1.73104">
        <ele>39</ele>
        <time>2018-01-13T13:29:31Z</time>
      </trkpt>
      <trkpt lat="46.81539" lon="-1.73093">
        <ele>39</ele>
        <time>2018-01-13T13:30:31Z</time>
      </trkpt>
      <trkpt lat="46.81534" lon="-1.73074">
        <ele>38</ele>
        <time>2018-01-13T13:31:31Z</time>
      </trkpt>
      <trkpt lat="46.81529" lon="-1.73059">
        <ele>37</ele>
        <time>2018-01-13T13:32:31Z</time>
      </trkpt>
      <trkpt lat="46.81525" lon="-1.73045">
        <ele>37</ele>
        <time>2018-01-13T13:33:31Z</time>
      </trkpt>
      <trkpt lat="46.81523" lon="-1.73039">
        <ele>37</ele>
        <time>2018-01-13T13:34:31Z</time>
      </trkpt>
      <trkpt lat="46.81522" lon="-1.73032">
        <ele>36</ele>
        <time>2018-01-13T13:35:31Z</time>
      </trkpt>
      <trkpt lat="46.8152" lon="-1.73025">
        <ele>36</ele>
        <time>2018-01-13T13:36:31Z</time>
      </trkpt>
      <trkpt lat="46.81518" lon="-1.73017">
        <ele>36</ele>
        <time>2018-01-13T13:37:31Z</time>
      </trkpt>
      <trkpt lat="46.81515" lon="-1.72991">
        <ele>35</ele>
        <time>2018-01-13T13:38:31Z</time>
      </trkpt>
      <trkpt lat="46.81512" lon="-1.72948">
        <ele>36</ele>
        <time>2018-01-13T13:39:31Z</time>
      </trkpt>
      <trkpt lat="46.81512" lon="-1.72897">
        <ele>37</ele>
        <time>2018-01-13T13:40:31Z</time>
      </trkpt>
      <trkpt lat="46.81512" lon="-1.72844">
        <ele>38</ele>
        <time>2018-01-13T13:41:31Z</time>
      </trkpt>
      <trkpt lat="46.81512" lon="-1.72788">
        <ele>40</ele>
        <time>2018-01-13T13:42:31Z</time>
      </trkpt>
      <trkpt lat="46.81512" lon="-1.72761">
        <ele>41</ele>
        <time>2018-01-13T13:43:31Z</time>
      </trkpt>
      <trkpt lat="46.81512" lon="-1.72729">
        <ele>42</ele>
        <time>2018-01-13T13:44:31Z</time>
      </trkpt>
      <trkpt lat="46.81512" lon="-1.72702">
        <ele>43</ele>
        <time>2018-01-13T13:45:31Z</time>
      </trkpt>
      <trkpt lat="46.81511" lon="-1.7268">
        <ele>43</ele>
        <time>2018-01-13T13:46:31Z</time>
      </trkpt>
      <trkpt lat="46.81511" lon="-1.7266">
        <ele>44</ele>
        <time>2018-01-13T13:47:31Z</time>
      </trkpt>
      <trkpt lat="46.8151" lon="-1.72642">
        <ele>44</ele>
        <time>2018-01-13T13:48:31Z</time>
      </trkpt>
      <trkpt lat="46.81509" lon="-1.72631">
        <ele>44</ele>
        <time>2018-01-13T13:49:31Z</time>
      </trkpt>
      <trkpt lat="46.81507" lon="-1.72615">
        <ele>44</ele>
        <time>2018-01-13T13:50:31Z</time>
      </trkpt>
      <trkpt lat="46.81505" lon="-1.72601">
        <ele>45</ele>
        <time>2018-01-13T13:51:31Z</time>
      </trkpt>
      <trkpt lat="46.815" lon="-1.72559">
        <ele>45</ele>
        <time>2018-01-13T13:52:31Z</time>
      </trkpt>
      <trkpt lat="46.81496" lon="-1.72531">
        <ele>44</ele>
        <time>2018-01-13T13:53:31Z</time>
      </trkpt>
      <trkpt lat="46.81493" lon="-1.72513">
        <ele>44</ele>
        <time>2018-01-13T13:54:31Z</time>
      </trkpt>
      <trkpt lat="46.81489" lon="-1.72493">
        <ele>43</ele>
        <time>2018-01-13T13:55:31Z</time>
      </trkpt>
      <trkpt lat="46.81483" lon="-1.7247">
        <ele>43</ele>
        <time>2018-01-13T13:56:31Z</time>
      </trkpt>
      <trkpt lat="46.81475" lon="-1.72443">
        <ele>43</ele>
        <time>2018-01-13T13:57:31Z</time>
      </trkpt>
      <trkpt lat="46.81466" lon="-1.72421">
        <ele>42</ele>
        <time>2018-01-13T13:58:31Z</time>
      </trkpt>
      <trkpt lat="46.81464" lon="-1.72418">
        <ele>42</ele>
        <time>2018-01-13T13:59:31Z</time>
      </trkpt>
      <trkpt lat="46.81453" lon="-1.72394">
        <ele>42</ele>
        <time>2018-01-13T14:00:31Z</time>
      </trkpt>
      <trkpt lat="46.81437" lon="-1.72363">
        <ele>41</ele>
        <time>2018-01-13T14:01:31Z</time>
      </trkpt>
      <trkpt lat="46.8143" lon="-1.72348">
        <ele>41</ele>
        <time>2018-01-13T14:02:31Z</time>
      </trkpt>
      <trkpt lat="46.81421" lon="-1.72327">
        <ele>41</ele>
        <time>2018-01-13T14:03:31Z</time>
      </trkpt>
      <trkpt lat="46.81417" lon="-1.72316">
        <ele>41</ele>
        <time>2018-01-13T14:04:31Z</time>
      </trkpt>
      <trkpt lat="46.8141" lon="-1.72297">
        <ele>41</ele>
        <time>2018-01-13T14:05:31Z</time>
      </trkpt>
      <trkpt lat="46.81405" lon="-1.72275">
        <ele>41</ele>
        <time>2018-01-13T14:06:31Z</time>
      </trkpt>
      <trkpt lat="46.814" lon="-1.72252">
        <ele>40</ele>
        <time>2018-01-13T14:07:31Z</time>
      </trkpt>
      <trkpt lat="46.81399" lon="-1.7224">
        <ele>40</ele>
        <time>2018-01-13T14:08:31Z</time>
      </trkpt>
      <trkpt lat="46.81398" lon="-1.72219">
        <ele>40</ele>
        <time>2018-01-13T14:09:31Z</time>
      </trkpt>
      <trkpt lat="46.81394" lon="-1.7217">
        <ele>40</ele>
        <time>2018-01-13T14:10:31Z</time>
      </trkpt>
      <trkpt lat="46.81392" lon="-1.7212">
        <ele>39</ele>
        <time>2018-01-13T14:11:31Z</time>
      </trkpt>
      <trkpt lat="46.81389" lon="-1.72075">
        <ele>39</ele>
        <time>2018-01-13T14:12:31Z</time>
      </trkpt>
      <trkpt lat="46.81385" lon="-1.72029">
        <ele>39</ele>
        <time>2018-01-13T14:13:31Z</time>
      </trkpt>
      <trkpt lat="46.81382" lon="-1.71989">
        <ele>39</ele>
        <time>2018-01-13T14:14:31Z</time>
      </trkpt>
      <trkpt lat="46.81379" lon="-1.7196">
        <ele>39</ele>
        <time>2018-01-13T14:15:31Z</time>
      </trkpt>
      <trkpt lat="46.81376" lon="-1.7194">
        <ele>39</ele>
        <time>2018-01-13T14:16:31Z</time>
      </trkpt>
      <trkpt lat="46.81372" lon="-1.71916">
        <ele>38</ele>
        <time>2018-01-13T14:17:31Z</time>
      </trkpt>
      <trkpt lat="46.81366" lon="-1.71886">
        <ele>38</ele>
        <time>2018-01-13T14:18:31Z</time>
      </trkpt>
      <trkpt lat="46.8136" lon="-1.71859">
        <ele>38</ele>
        <time>2018-01-13T14:19:31Z</time>
      </trkpt>
      <trkpt lat="46.81352" lon="-1.71834">
        <ele>38</ele>
        <time>2018-01-13T14:20:31Z</time>
      </trkpt>
      <trkpt lat="46.81343" lon="-1.71805">
        <ele>38</ele>
        <time>2018-01-13T14:21:31Z</time>
      </trkpt>
      <trkpt lat="46.81339" lon="-1.71792">
        <ele>38</ele>
        <time>2018-01-13T14:22:31Z</time>
      </trkpt>
      <trkpt lat="46.81327" lon="-1.71753">
        <ele>38</ele>
        <time>2018-01-13T14:23:31Z</time>
      </trkpt>
      <trkpt lat="46.81317" lon="-1.71715">
        <ele>38</ele>
        <time>2018-01-13T14:24:31Z</time>
      </trkpt>
      <trkpt lat="46.81309" lon="-1.71681">
        <ele>38</ele>
        <time>2018-01-13T14:25:31Z</time>
      </trkpt>
      <trkpt lat="46.81304" lon="-1.71652">
        <ele>38</ele>
        <time>2018-01-13T14:26:31Z</time>
      </trkpt>
      <trkpt lat="46.813" lon="-1.71617">
        <ele>38</ele>
        <time>2018-01-13T14:27:31Z</time>
      </trkpt>
      <trkpt lat="46.81295" lon="-1.7157">
        <ele>39</ele>
        <time>2018-01-13T14:28:31Z</time>
      </trkpt>
      <trkpt lat="46.81293" lon="-1.71541">
        <ele>40</ele>
        <time>2018-01-13T14:29:31Z</time>
      </trkpt>
      <trkpt lat="46.81293" lon="-1.71532">
        <ele>40</ele>
        <time>2018-01-13T14:30:31Z</time>
      </trkpt>
      <trkpt lat="46.81293" lon="-1.7152">
        <ele>40</ele>
        <time>2018-01-13T14:31:31Z</time>
      </trkpt>
      <trkpt lat="46.81293" lon="-1.71516">
        <ele>40</ele>
        <time>2018-01-13T14:32:31Z</time>
      </trkpt>
      <trkpt lat="46.81294" lon="-1.71489">
        <ele>40</ele>
        <time>2018-01-13T14:33:31Z</time>
      </trkpt>
      <trkpt lat="46.81296" lon="-1.71457">
        <ele>40</ele>
        <time>2018-01-13T14:34:31Z</time>
      </trkpt>
      <trkpt lat="46.81296" lon="-1.71431">
        <ele>40</ele>
        <time>2018-01-13T14:35:31Z</time>
      </trkpt>
      <trkpt lat="46.81295" lon="-1.71405">
        <ele>40</ele>
        <time>2018-01-13T14:36:31Z</time>
      </trkpt>
      <trkpt lat="46.81294" lon="-1.71375">
        <ele>40</ele>
        <time>2018-01-13T14:37:31Z</time>
      </trkpt>
      <trkpt lat="46.81295" lon="-1.71354">
        <ele>40</ele>
        <time>2018-01-13T14:38:31Z</time>
      </trkpt>
      <trkpt lat="46.81294" lon="-1.71342">
        <ele>41</ele>
        <time>2018-01-13T14:39:31Z</time>
      </trkpt>
      <trkpt lat="46.81295" lon="-1.71333">
        <ele>41</ele>
        <time>2018-01-13T14:40:31Z</time>
      </trkpt>
      <trkpt lat="46.81296" lon="-1.71321">
        <ele>41</ele>
        <time>2018-01-13T14:41:31Z</time>
      </trkpt>
      <trkpt lat="46.81297" lon="-1.71301">
        <ele>41</ele>
        <time>2018-01-13T14:42:31Z</time>
      </trkpt>
      <trkpt lat="46.81303" lon="-1.71251">
        <ele>43</ele>
        <time>2018-01-13T14:43:31Z</time>
      </trkpt>
      <trkpt lat="46.81309" lon="-1.7119">
        <ele>42</ele>
        <time>2018-01-13T14:44:31Z</time>
      </trkpt>
      <trkpt lat="46.81314" lon="-1.71152">
        <ele>42</ele>
        <time>2018-01-13T14:45:31Z</time>
      </trkpt>
      <trkpt lat="46.81319" lon="-1.71121">
        <ele>42</ele>
        <time>2018-01-13T14:46:31Z</time>
      </trkpt>
      <trkpt lat="46.81324" lon="-1.71092">
        <ele>43</ele>
        <time>2018-01-13T14:47:31Z</time>
      </trkpt>
      <trkpt lat="46.81331" lon="-1.71053">
        <ele>43</ele>
        <time>2018-01-13T14:48:31Z</time>
      </trkpt>
      <trkpt lat="46.81338" lon="-1.71009">
        <ele>44</ele>
        <time>2018-01-13T14:49:31Z</time>
      </trkpt>
      <trkpt lat="46.81345" lon="-1.70973">
        <ele>44</ele>
        <time>2018-01-13T14:50:31Z</time>
      </trkpt>
      <trkpt lat="46.81349" lon="-1.7095">
        <ele>45</ele>
        <time>2018-01-13T14:51:31Z</time>
      </trkpt>
      <trkpt lat="46.81351" lon="-1.70936">
        <ele>45</ele>
        <time>2018-01-13T14:52:31Z</time>
      </trkpt>
      <trkpt lat="46.81354" lon="-1.70919">
        <ele>45</ele>
        <time>2018-01-13T14:53:31Z</time>
      </trkpt>
      <trkpt lat="46.81356" lon="-1.70898">
        <ele>45</ele>
        <time>2018-01-13T14:54:31Z</time>
      </trkpt>
      <trkpt lat="46.81358" lon="-1.70872">
        <ele>45</ele>
        <time>2018-01-13T14:55:31Z</time>
      </trkpt>
      <trkpt lat="46.81359" lon="-1.70855">
        <ele>45</ele>
        <time>2018-01-13T14:56:31Z</time>
      </trkpt>
      <trkpt lat="46.8136" lon="-1.70826">
        <ele>45</ele>
        <time>2018-01-13T14:57:31Z</time>
      </trkpt>
      <trkpt lat="46.81361" lon="-1.708">
        <ele>45</ele>
        <time>2018-01-13T14:58:31Z</time>
      </trkpt>
      <trkpt lat="46.81361" lon="-1.70776">
        <ele>45</ele>
        <time>2018-01-13T14:59:31Z</time>
      </trkpt>
      <trkpt lat="46.8136" lon="-1.70758">
        <ele>45</ele>
        <time>2018-01-13T15:00:31Z</time>
      </trkpt>
      <trkpt lat="46.81359" lon="-1.70741">
        <ele>44</ele>
        <time>2018-01-13T15:01:31Z</time>
      </trkpt>
      <trkpt lat="46.81355" lon="-1.70715">
        <ele>44</ele>
        <time>2018-01-13T15:02:31Z</time>
      </trkpt>
      <trkpt lat="46.8135" lon="-1.70677">
        <ele>43</ele>
        <time>2018-01-13T15:03:31Z</time>
      </trkpt>
      <trkpt lat="46.81348" lon="-1.70656">
        <ele>43</ele>
        <time>2018-01-13T15:04:31Z</time>
      </trkpt>
      <trkpt lat="46.81342" lon="-1.70612">
        <ele>43</ele>
        <time>2018-01-13T15:05:31Z</time>
      </trkpt>
      <trkpt lat="46.81338" lon="-1.70573">
        <ele>43</ele>
        <time>2018-01-13T15:06:31Z</time>
      </trkpt>
      <trkpt lat="46.81337" lon="-1.70556">
        <ele>43</ele>
        <time>2018-01-13T15:07:31Z</time>
      </trkpt>
      <trkpt lat="46.81334" lon="-1.70526">
        <ele>44</ele>
        <time>2018-01-13T15:08:31Z</time>
      </trkpt>
      <trkpt lat="46.81332" lon="-1.70503">
        <ele>44</ele>
        <time>2018-01-13T15:09:31Z</time>
      </trkpt>
      <trkpt lat="46.8133" lon="-1.70486">
        <ele>44</ele>
        <time>2018-01-13T15:10:31Z</time>
      </trkpt>
      <trkpt lat="46.8133" lon="-1.70476">
        <ele>44</ele>
        <time>2018-01-13T15:11:31Z</time>
      </trkpt>
      <trkpt lat="46.81329" lon="-1.70461">
        <ele>45</ele>
        <time>2018-01-13T15:12:31Z</time>
      </trkpt>
      <trkpt lat="46.8133" lon="-1.70438">
        <ele>45</ele>
        <time>2018-01-13T15:13:31Z</time>
      </trkpt>
      <trkpt lat="46.81331" lon="-1.70407">
        <ele>46</ele>
        <time>2018-01-13T15:14:31Z</time>
      </trkpt>
      <trkpt lat="46.81331" lon="-1.70385">
        <ele>46</ele>
        <time>2018-01-13T15:15:31Z</time>
      </trkpt>
      <trkpt lat="46.81329" lon="-1.70369">
        <ele>46</ele>
        <time>2018-01-13T15:16:31Z</time>
      </trkpt>
      <trkpt lat="46.81326" lon="-1.7035">
        <ele>46</ele>
        <time>2018-01-13T15:17:31Z</time>
      </trkpt>
      <trkpt lat="46.81321" lon="-1.70323">
        <ele>46</ele>
        <time>2018-01-13T15:18:31Z</time>
      </trkpt>
      <trkpt lat="46.81314" lon="-1.70284">
        <ele>46</ele>
        <time>2018-01-13T15:19:31Z</time>
      </trkpt>
      <trkpt lat="46.81309" lon="-1.70257">
        <ele>46</ele>
        <time>2018-01-13T15:20:31Z</time>
      </trkpt>
      <trkpt lat="46.81306" lon="-1.70238">
        <ele>46</ele>
        <time>2018-01-13T15:21:31Z</time>
      </trkpt>
      <trkpt lat="46.81304" lon="-1.7022">
        <ele>46</ele>
        <time>2018-01-13T15:22:31Z</time>
      </trkpt>
      <trkpt lat="46.81299" lon="-1.7017">
        <ele>46</ele>
        <time>2018-01-13T15:23:31Z</time>
      </trkpt>
      <trkpt lat="46.81294" lon="-1.7012">
        <ele>45</ele>
        <time>2018-01-13T15:24:31Z</time>
      </trkpt>
      <trkpt lat="46.8129" lon="-1.70077">
        <ele>44</ele>
        <time>2018-01-13T15:25:31Z</time>
      </trkpt>
      <trkpt lat="46.81288" lon="-1.70048">
        <ele>44</ele>
        <time>2018-01-13T15:26:31Z</time>
      </trkpt>
      <trkpt lat="46.81285" lon="-1.70022">
        <ele>44</ele>
        <time>2018-01-13T15:27:31Z</time>
      </trkpt>
      <trkpt lat="46.81282" lon="-1.69995">
        <ele>44</ele>
        <time>2018-01-13T15:28:31Z</time>
      </trkpt>
      <trkpt lat="46.81277" lon="-1.69969">
        <ele>44</ele>
        <time>2018-01-13T15:29:31Z</time>
      </trkpt>
      <trkpt lat="46.81272" lon="-1.69946">
        <ele>44</ele>
        <time>2018-01-13T15:30:31Z</time>
      </trkpt>
      <trkpt lat="46.81268" lon="-1.69929">
        <ele>44</ele>
        <time>2018-01-13T15:31:31Z</time>
      </trkpt>
      <trkpt lat="46.81265" lon="-1.69918">
        <ele>44</ele>
        <time>2018-01-13T15:32:31Z</time>
      </trkpt>
      <trkpt lat="46.81256" lon="-1.6989">
        <ele>44</ele>
        <time>2018-01-13T15:33:31Z</time>
      </trkpt>
      <trkpt lat="46.81247" lon="-1.6986">
        <ele>44</ele>
        <time>2018-01-13T15:34:31Z</time>
      </trkpt>
      <trkpt lat="46.8124" lon="-1.69839">
        <ele>44</ele>
        <time>2018-01-13T15:35:31Z</time>
      </trkpt>
      <trkpt lat="46.81235" lon="-1.69825">
        <ele>44</ele>
        <time>2018-01-13T15:36:31Z</time>
      </trkpt>
      <trkpt lat="46.8123" lon="-1.69808">
        <ele>44</ele>
        <time>2018-01-13T15:37:31Z</time>
      </trkpt>
      <trkpt lat="46.81221" lon="-1.6978">
        <ele>44</ele>
        <time>2018-01-13T15:38:31Z</time>
      </trkpt>
      <trkpt lat="46.81215" lon="-1.69756">
        <ele>44</ele>
        <time>2018-01-13T15:39:31Z</time>
      </trkpt>
      <trkpt lat="46.81212" lon="-1.69745">
        <ele>45</ele>
        <time>2018-01-13T15:40:31Z</time>
      </trkpt>
      <trkpt lat="46.8121" lon="-1.69732">
        <ele>45</ele>
        <time>2018-01-13T15:41:31Z</time>
      </trkpt>
      <trkpt lat="46.81208" lon="-1.69718">
        <ele>45</ele>
        <time>2018-01-13T15:42:31Z</time>
      </trkpt>
      <trkpt lat="46.81206" lon="-1.69698">
        <ele>45</ele>
        <time>2018-01-13T15:43:31Z</time>
      </trkpt>
      <trkpt lat="46.81202" lon="-1.6966">
        <ele>45</ele>
        <time>2018-01-13T15:44:31Z</time>
      </trkpt>
      <trkpt lat="46.81199" lon="-1.69634">
        <ele>45</ele>
        <time>2018-01-13T15:45:31Z</time>
      </trkpt>
      <trkpt lat="46.81199" lon="-1.69627">
        <ele>45</ele>
        <time>2018-01-13T15:46:31Z</time>
      </trkpt>
      <trkpt lat="46.81194" lon="-1.69584">
        <ele>45</ele>
        <time>2018-01-13T15:47:31Z</time>
      </trkpt>
      <trkpt lat="46.81188" lon="-1.69531">
        <ele>45</ele>
        <time>2018-01-13T15:48:31Z</time>
      </trkpt>
      <trkpt lat="46.81183" lon="-1.69484">
        <ele>44</ele>
        <time>2018-01-13T15:49:31Z</time>
      </trkpt>
      <trkpt lat="46.81177" lon="-1.69434">
        <ele>43</ele>
        <time>2018-01-13T15:50:31Z</time>
      </trkpt>
      <trkpt lat="46.81171" lon="-1.69391">
        <ele>42</ele>
        <time>2018-01-13T15:51:31Z</time>
      </trkpt>
      <trkpt lat="46.81168" lon="-1.69362">
        <ele>42</ele>
        <time>2018-01-13T15:52:31Z</time>
      </trkpt>
      <trkpt lat="46.81167" lon="-1.69352">
        <ele>42</ele>
        <time>2018-01-13T15:53:31Z</time>
      </trkpt>
      <trkpt lat="46.81167" lon="-1.69345">
        <ele>42</ele>
        <time>2018-01-13T15:54:31Z</time>
      </trkpt>
      <trkpt lat="46.81164" lon="-1.69324">
        <ele>42</ele>
        <time>2018-01-13T15:55:31Z</time>
      </trkpt>
      <trkpt lat="46.81163" lon="-1.69316">
        <ele>43</ele>
        <time>2018-01-13T15:56:31Z</time>
      </trkpt>
      <trkpt lat="46.8116" lon="-1.69286">
        <ele>44</ele>
        <time>2018-01-13T15:57:31Z</time>
      </trkpt>
      <trkpt lat="46.81154" lon="-1.69234">
        <ele>46</ele>
        <time>2018-01-13T15:58:31Z</time>
      </trkpt>
      <trkpt lat="46.81148" lon="-1.69184">
        <ele>47</ele>
        <time>2018-01-13T15:59:31Z</time>
      </trkpt>
      <trkpt lat="46.8114" lon="-1.69125">
        <ele>48</ele>
        <time>2018-01-13T16:00:31Z</time>
      </trkpt>
      <trkpt lat="46.81129" lon="-1.69048">
        <ele>49</ele>
        <time>2018-01-13T16:01:31Z</time>
      </trkpt>
      <trkpt lat="46.81126" lon="-1.69031">
        <ele>49</ele>
        <time>2018-01-13T16:02:31Z</time>
      </trkpt>
      <trkpt lat="46.81116" lon="-1.68956">
        <ele>50</ele>
        <time>2018-01-13T16:03:31Z</time>
      </trkpt>
      <trkpt lat="46.81107" lon="-1.68889">
        <ele>51</ele>
        <time>2018-01-13T16:04:31Z</time>
      </trkpt>
      <trkpt lat="46.81097" lon="-1.68823">
        <ele>52</ele>
        <time>2018-01-13T16:05:31Z</time>
      </trkpt>
      <trkpt lat="46.81088" lon="-1.68764">
        <ele>52</ele>
        <time>2018-01-13T16:06:31Z</time>
      </trkpt>
      <trkpt lat="46.81079" lon="-1.68702">
        <ele>52</ele>
        <time>2018-01-13T16:07:31Z</time>
      </trkpt>
      <trkpt lat="46.81073" lon="-1.6866">
        <ele>52</ele>
        <time>2018-01-13T16:08:31Z</time>
      </trkpt>
      <trkpt lat="46.8107" lon="-1.6862">
        <ele>51</ele>
        <time>2018-01-13T16:09:31Z</time>
      </trkpt>
      <trkpt lat="46.81068" lon="-1.68565">
        <ele>51</ele>
        <time>2018-01-13T16:10:31Z</time>
      </trkpt>
      <trkpt lat="46.81066" lon="-1.68522">
        <ele>50</ele>
        <time>2018-01-13T16:11:31Z</time>
      </trkpt>
      <trkpt lat="46.81064" lon="-1.6847">
        <ele>50</ele>
        <time>2018-01-13T16:12:31Z</time>
      </trkpt>
      <trkpt lat="46.8106" lon="-1.68415">
        <ele>50</ele>
        <time>2018-01-13T16:13:31Z</time>
      </trkpt>
      <trkpt lat="46.81056" lon="-1.68373">
        <ele>50</ele>
        <time>2018-01-13T16:14:31Z</time>
      </trkpt>
      <trkpt lat="46.81053" lon="-1.68354">
        <ele>49</ele>
        <time>2018-01-13T16:15:31Z</time>
      </trkpt>
      <trkpt lat="46.8105" lon="-1.68315">
        <ele>49</ele>
        <time>2018-01-13T16:16:31Z</time>
      </trkpt>
      <trkpt lat="46.81044" lon="-1.68249">
        <ele>49</ele>
        <time>2018-01-13T16:17:31Z</time>
      </trkpt>
      <trkpt lat="46.8104" lon="-1.68186">
        <ele>49</ele>
        <time>2018-01-13T16:18:31Z</time>
      </trkpt>
      <trkpt lat="46.81036" lon="-1.68143">
        <ele>49</ele>
        <time>2018-01-13T16:19:31Z</time>
      </trkpt>
      <trkpt lat="46.81033" lon="-1.68111">
        <ele>49</ele>
        <time>2018-01-13T16:20:31Z</time>
      </trkpt>
      <trkpt lat="46.81027" lon="-1.68086">
        <ele>49</ele>
        <time>2018-01-13T16:21:31Z</time>
      </trkpt>
      <trkpt lat="46.81015" lon="-1.6805">
        <ele>49</ele>
        <time>2018-01-13T16:22:31Z</time>
      </trkpt>
      <trkpt lat="46.80999" lon="-1.68016">
        <ele>49</ele>
        <time>2018-01-13T16:23:31Z</time>
      </trkpt>
      <trkpt lat="46.80982" lon="-1.67984">
        <ele>49</ele>
        <time>2018-01-13T16:24:31Z</time>
      </trkpt>
      <trkpt lat="46.80967" lon="-1.67957">
        <ele>48</ele>
        <time>2018-01-13T16:25:31Z</time>
      </trkpt>
      <trkpt lat="46.80956" lon="-1.67936">
        <ele>48</ele>
        <time>2018-01-13T16:26:31Z</time>
      </trkpt>
      <trkpt lat="46.8095" lon="-1.67918">
        <ele>48</ele>
        <time>2018-01-13T16:27:31Z</time>
      </trkpt>
      <trkpt lat="46.80944" lon="-1.679">
        <ele>47</ele>
        <time>2018-01-13T16:28:31Z</time>
      </trkpt>
      <trkpt lat="46.80939" lon="-1.67869">
        <ele>47</ele>
        <time>2018-01-13T16:29:31Z</time>
      </trkpt>
      <trkpt lat="46.80932" lon="-1.6782">
        <ele>46</ele>
        <time>2018-01-13T16:30:31Z</time>
      </trkpt>
      <trkpt lat="46.80926" lon="-1.67759">
        <ele>45</ele>
        <time>2018-01-13T16:31:31Z</time>
      </trkpt>
      <trkpt lat="46.80922" lon="-1.67721">
        <ele>44</ele>
        <time>2018-01-13T16:32:31Z</time>
      </trkpt>
      <trkpt lat="46.80917" lon="-1.67664">
        <ele>43</ele>
        <time>2018-01-13T16:33:31Z</time>
      </trkpt>
      <trkpt lat="46.80914" lon="-1.67629">
        <ele>42</ele>
        <time>2018-01-13T16:34:31Z</time>
      </trkpt>
      <trkpt lat="46.80912" lon="-1.67602">
        <ele>41</ele>
        <time>2018-01-13T16:35:31Z</time>
      </trkpt>
      <trkpt lat="46.80913" lon="-1.67582">
        <ele>40</ele>
        <time>2018-01-13T16:36:31Z</time>
      </trkpt>
      <trkpt lat="46.80915" lon="-1.67567">
        <ele>40</ele>
        <time>2018-01-13T16:37:31Z</time>
      </trkpt>
      <trkpt lat="46.80922" lon="-1.67551">
        <ele>40</ele>
        <time>2018-01-13T16:38:31Z</time>
      </trkpt>
      <trkpt lat="46.80935" lon="-1.67529">
        <ele>40</ele>
        <time>2018-01-13T16:39:31Z</time>
      </trkpt>
      <trkpt lat="46.80938" lon="-1.67525">
        <ele>40</ele>
        <time>2018-01-13T16:40:31Z</time>
      </trkpt>
      <trkpt lat="46.8094" lon="-1.6752">
        <ele>40</ele>
        <time>2018-01-13T16:41:31Z</time>
      </trkpt>
      <trkpt lat="46.80948" lon="-1.67505">
        <ele>40</ele>
        <time>2018-01-13T16:42:31Z</time>
      </trkpt>
      <trkpt lat="46.80953" lon="-1.67492">
        <ele>41</ele>
        <time>2018-01-13T16:43:31Z</time>
      </trkpt>
      <trkpt lat="46.80956" lon="-1.67482">
        <ele>41</ele>
        <time>2018-01-13T16:44:31Z</time>
      </trkpt>
      <trkpt lat="46.80958" lon="-1.67473">
        <ele>42</ele>
        <time>2018-01-13T16:45:31Z</time>
      </trkpt>
      <trkpt lat="46.80959" lon="-1.67467">
        <ele>42</ele>
        <time>2018-01-13T16:46:31Z</time>
      </trkpt>
      <trkpt lat="46.80959" lon="-1.67461">
        <ele>42</ele>
        <time>2018-01-13T16:47:31Z</time>
      </trkpt>
      <trkpt lat="46.80959" lon="-1.67452">
        <ele>43</ele>
        <time>2018-01-13T16:48:31Z</time>
      </trkpt>
      <trkpt lat="46.80959" lon="-1.67444">
        <ele>43</ele>
        <time>2018-01-13T16:49:31Z</time>
      </trkpt>
      <trkpt lat="46.80958" lon="-1.67435">
        <ele>44</ele>
        <time>2018-01-13T16:50:31Z</time>
      </trkpt>
      <trkpt lat="46.80955" lon="-1.67418">
        <ele>44</ele>
        <time>2018-01-13T16:51:31Z</time>
      </trkpt>
      <trkpt lat="46.80949" lon="-1.67377">
        <ele>45</ele>
        <time>2018-01-13T16:52:31Z</time>
      </trkpt>
      <trkpt lat="46.8094" lon="-1.67323">
        <ele>46</ele>
        <time>2018-01-13T16:53:31Z</time>
      </trkpt>
      <trkpt lat="46.80933" lon="-1.67285">
        <ele>45</ele>
        <time>2018-01-13T16:54:31Z</time>
      </trkpt>
      <trkpt lat="46.80931" lon="-1.67272">
        <ele>45</ele>
        <time>2018-01-13T16:55:31Z</time>
      </trkpt>
      <trkpt lat="46.80928" lon="-1.67259">
        <ele>45</ele>
        <time>2018-01-13T16:56:31Z</time>
      </trkpt>
      <trkpt lat="46.80922" lon="-1.67237">
        <ele>45</ele>
        <time>2018-01-13T16:57:31Z</time>
      </trkpt>
      <trkpt lat="46.8092" lon="-1.67227">
        <ele>45</ele>
        <time>2018-01-13T16:58:31Z</time>
      </trkpt>
      <trkpt lat="46.80919" lon="-1.67218">
        <ele>45</ele>
        <time>2018-01-13T16:59:31Z</time>
      </trkpt>
      <trkpt lat="46.80918" lon="-1.67209">
        <ele>45</ele>
        <time>2018-01-13T17:00:31Z</time>
      </trkpt>
      <trkpt lat="46.80917" lon="-1.6719">
        <ele>45</ele>
        <time>2018-01-13T17:01:31Z</time>
      </trkpt>
      <trkpt lat="46.80916" lon="-1.67172">
        <ele>45</ele>
        <time>2018-01-13T17:02:31Z</time>
      </trkpt>
      <trkpt lat="46.80916" lon="-1.67152">
        <ele>45</ele>
        <time>2018-01-13T17:03:31Z</time>
      </trkpt>
      <trkpt lat="46.80917" lon="-1.671">
        <ele>45</ele>
        <time>2018-01-13T17:04:31Z</time>
      </trkpt>
      <trkpt lat="46.80917" lon="-1.67077">
        <ele>45</ele>
        <time>2018-01-13T17:05:31Z</time>
      </trkpt>
      <trkpt lat="46.80918" lon="-1.67048">
        <ele>45</ele>
        <time>2018-01-13T17:06:31Z</time>
      </trkpt>
      <trkpt lat="46.80918" lon="-1.67018">
        <ele>44</ele>
        <time>2018-01-13T17:07:31Z</time>
      </trkpt>
      <trkpt lat="46.80917" lon="-1.66998">
        <ele>44</ele>
        <time>2018-01-13T17:08:31Z</time>
      </trkpt>
      <trkpt lat="46.80917" lon="-1.66984">
        <ele>44</ele>
        <time>2018-01-13T17:09:31Z</time>
      </trkpt>
      <trkpt lat="46.80915" lon="-1.66971">
        <ele>44</ele>
        <time>2018-01-13T17:10:31Z</time>
      </trkpt>
      <trkpt lat="46.80912" lon="-1.66949">
        <ele>44</ele>
        <time>2018-01-13T17:11:31Z</time>
      </trkpt>
      <trkpt lat="46.80911" lon="-1.66936">
        <ele>44</ele>
        <time>2018-01-13T17:12:31Z</time>
      </trkpt>
      <trkpt lat="46.80911" lon="-1.66928">
        <ele>44</ele>
        <time>2018-01-13T17:13:31Z</time>
      </trkpt>
      <trkpt lat="46.80911" lon="-1.66911">
        <ele>44</ele>
        <time>2018-01-13T17:14:31Z</time>
      </trkpt>
      <trkpt lat="46.80911" lon="-1.66897">
        <ele>44</ele>
        <time>2018-01-13T17:15:31Z</time>
      </trkpt>
      <trkpt lat="46.80911" lon="-1.66878">
        <ele>44</ele>
        <time>2018-01-13T17:16:31Z</time>
      </trkpt>
      <trkpt lat="46.80912" lon="-1.66863">
        <ele>44</ele>
        <time>2018-01-13T17:17:31Z</time>
      </trkpt>
      <trkpt lat="46.80911" lon="-1.66848">
        <ele>44</ele>
        <time>2018-01-13T17:18:31Z</time>
      </trkpt>
      <trkpt lat="46.8091" lon="-1.66838">
        <ele>44</ele>
        <time>2018-01-13T17:19:31Z</time>
      </trkpt>
      <trkpt lat="46.8091" lon="-1.66832">
        <ele>44</ele>
        <time>2018-01-13T17:20:31Z</time>
      </trkpt>
      <trkpt lat="46.80909" lon="-1.66826">
        <ele>43</ele>
        <time>2018-01-13T17:21:31Z</time>
      </trkpt>
      <trkpt lat="46.809" lon="-1.66783">
        <ele>42</ele>
        <time>2018-01-13T17:22:31Z</time>
      </trkpt>
      <trkpt lat="46.80892" lon="-1.66737">
        <ele>42</ele>
        <time>2018-01-13T17:23:31Z</time>
      </trkpt>
      <trkpt lat="46.80881" lon="-1.66679">
        <ele>43</ele>
        <time>2018-01-13T17:24:31Z</time>
      </trkpt>
      <trkpt lat="46.80878" lon="-1.66668">
        <ele>43</ele>
        <time>2018-01-13T17:25:31Z</time>
      </trkpt>
      <trkpt lat="46.80876" lon="-1.66656">
        <ele>43</ele>
        <time>2018-01-13T17:26:31Z</time>
      </trkpt>
      <trkpt lat="46.80871" lon="-1.66638">
        <ele>43</ele>
        <time>2018-01-13T17:27:31Z</time>
      </trkpt>
      <trkpt lat="46.80864" lon="-1.66616">
        <ele>43</ele>
        <time>2018-01-13T17:28:31Z</time>
      </trkpt>
      <trkpt lat="46.80858" lon="-1.66594">
        <ele>43</ele>
        <time>2018-01-13T17:29:31Z</time>
      </trkpt>
      <trkpt lat="46.80853" lon="-1.66575">
        <ele>43</ele>
        <time>2018-01-13T17:30:31Z</time>
      </trkpt>
      <trkpt lat="46.80849" lon="-1.66562">
        <ele>43</ele>
        <time>2018-01-13T17:31:31Z</time>
      </trkpt>
      <trkpt lat="46.80837" lon="-1.66523">
        <ele>44</ele>
        <time>2018-01-13T17:32:31Z</time>
      </trkpt>
      <trkpt lat="46.80823" lon="-1.66479">
        <ele>44</ele>
        <time>2018-01-13T17:33:31Z</time>
      </trkpt>
      <trkpt lat="46.80821" lon="-1.66468">
        <ele>44</ele>
        <time>2018-01-13T17:34:31Z</time>
      </trkpt>
      <trkpt lat="46.80818" lon="-1.66457">
        <ele>45</ele>
        <time>2018-01-13T17:35:31Z</time>
      </trkpt>
      <trkpt lat="46.80816" lon="-1.66443">
        <ele>45</ele>
        <time>2018-01-13T17:36:31Z</time>
      </trkpt>
      <trkpt lat="46.80813" lon="-1.66412">
        <ele>45</ele>
        <time>2018-01-13T17:37:31Z</time>
      </trkpt>
      <trkpt lat="46.80807" lon="-1.66351">
        <ele>47</ele>
        <time>2018-01-13T17:38:31Z</time>
      </trkpt>
      <trkpt lat="46.80804" lon="-1.66318">
        <ele>47</ele>
        <time>2018-01-13T17:39:31Z</time>
      </trkpt>
      <trkpt lat="46.808" lon="-1.6627">
        <ele>47</ele>
        <time>2018-01-13T17:40:31Z</time>
      </trkpt>
      <trkpt lat="46.80795" lon="-1.66226">
        <ele>47</ele>
        <time>2018-01-13T17:41:31Z</time>
      </trkpt>
      <trkpt lat="46.80791" lon="-1.66188">
        <ele>47</ele>
        <time>2018-01-13T17:42:31Z</time>
      </trkpt>
      <trkpt lat="46.80787" lon="-1.66149">
        <ele>47</ele>
        <time>2018-01-13T17:43:31Z</time>
      </trkpt>
      <trkpt lat="46.80784" lon="-1.66112">
        <ele>47</ele>
        <time>2018-01-13T17:44:31Z</time>
      </trkpt>
      <trkpt lat="46.80781" lon="-1.6608">
        <ele>47</ele>
        <time>2018-01-13T17:45:31Z</time>
      </trkpt>
      <trkpt lat="46.80779" lon="-1.66055">
        <ele>46</ele>
        <time>2018-01-13T17:46:31Z</time>
      </trkpt>
      <trkpt lat="46.80778" lon="-1.66033">
        <ele>46</ele>
        <time>2018-01-13T17:47:31Z</time>
      </trkpt>
      <trkpt lat="46.80777" lon="-1.66001">
        <ele>45</ele>
        <time>2018-01-13T17:48:31Z</time>
      </trkpt>
      <trkpt lat="46.80776" lon="-1.6596">
        <ele>44</ele>
        <time>2018-01-13T17:49:31Z</time>
      </trkpt>
      <trkpt lat="46.80774" lon="-1.65909">
        <ele>43</ele>
        <time>2018-01-13T17:50:31Z</time>
      </trkpt>
      <trkpt lat="46.80773" lon="-1.65859">
        <ele>43</ele>
        <time>2018-01-13T17:51:31Z</time>
      </trkpt>
      <trkpt lat="46.80772" lon="-1.65812">
        <ele>43</ele>
        <time>2018-01-13T17:52:31Z</time>
      </trkpt>
      <trkpt lat="46.8077" lon="-1.65774">
        <ele>42</ele>
        <time>2018-01-13T17:53:31Z</time>
      </trkpt>
      <trkpt lat="46.80769" lon="-1.6572">
        <ele>42</ele>
        <time>2018-01-13T17:54:31Z</time>
      </trkpt>
      <trkpt lat="46.80767" lon="-1.65664">
        <ele>41</ele>
        <time>2018-01-13T17:55:31Z</time>
      </trkpt>
      <trkpt lat="46.80766" lon="-1.65617">
        <ele>40</ele>
        <time>2018-01-13T17:56:31Z</time>
      </trkpt>
      <trkpt lat="46.80764" lon="-1.65562">
        <ele>39</ele>
        <time>2018-01-13T17:57:31Z</time>
      </trkpt>
      <trkpt lat="46.80762" lon="-1.65521">
        <ele>40</ele>
        <time>2018-01-13T17:58:31Z</time>
      </trkpt>
      <trkpt lat="46.80761" lon="-1.65475">
        <ele>41</ele>
        <time>2018-01-13T17:59:31Z</time>
      </trkpt>
      <trkpt lat="46.8076" lon="-1.6545">
        <ele>41</ele>
        <time>2018-01-13T18:00:31Z</time>
      </trkpt>
      <trkpt lat="46.80758" lon="-1.65397">
        <ele>41</ele>
        <time>2018-01-13T18:01:31Z</time>
      </trkpt>
      <trkpt lat="46.80757" lon="-1.65349">
        <ele>40</ele>
        <time>2018-01-13T18:02:31Z</time>
      </trkpt>
      <trkpt lat="46.80756" lon="-1.65312">
        <ele>40</ele>
        <time>2018-01-13T18:03:31Z</time>
      </trkpt>
      <trkpt lat="46.80756" lon="-1.65284">
        <ele>40</ele>
        <time>2018-01-13T18:04:31Z</time>
      </trkpt>
      <trkpt lat="46.80756" lon="-1.65261">
        <ele>40</ele>
        <time>2018-01-13T18:05:31Z</time>
      </trkpt>
      <trkpt lat="46.80757" lon="-1.65231">
        <ele>40</ele>
        <time>2018-01-13T18:06:31Z</time>
      </trkpt>
      <trkpt lat="46.80757" lon="-1.65203">
        <ele>40</ele>
        <time>2018-01-13T18:07:31Z</time>
      </trkpt>
      <trkpt lat="46.80758" lon="-1.65197">
        <ele>39</ele>
        <time>2018-01-13T18:08:31Z</time>
      </trkpt>
      <trkpt lat="46.80758" lon="-1.65197">
        <ele>39</ele>
        <time>2018-01-13T18:09:31Z</time>
      </trkpt>
      <trkpt lat="46.80745" lon="-1.65196">
        <ele>39</ele>
        <time>2018-01-13T18:10:31Z</time>
      </trkpt>
      <trkpt lat="46.80722" lon="-1.65201">
        <ele>39</ele>
        <time>2018-01-13T18:11:31Z</time>
      </trkpt>
      <trkpt lat="46.80702" lon="-1.65208">
        <ele>39</ele>
        <time>2018-01-13T18:12:31Z</time>
      </trkpt>
      <trkpt lat="46.80683" lon="-1.65215">
        <ele>39</ele>
        <time>2018-01-13T18:13:31Z</time>
      </trkpt>
      <trkpt lat="46.80666" lon="-1.65221">
        <ele>39</ele>
        <time>2018-01-13T18:14:31Z</time>
      </trkpt>
      <trkpt lat="46.80641" lon="-1.65228">
        <ele>38</ele>
        <time>2018-01-13T18:15:31Z</time>
      </trkpt>
      <trkpt lat="46.80622" lon="-1.65232">
        <ele>38</ele>
        <time>2018-01-13T18:16:31Z</time>
      </trkpt>
      <trkpt lat="46.80598" lon="-1.65237">
        <ele>37</ele>
        <time>2018-01-13T18:17:31Z</time>
      </trkpt>
      <trkpt lat="46.80573" lon="-1.65243">
        <ele>37</ele>
        <time>2018-01-13T18:18:31Z</time>
      </trkpt>
      <trkpt lat="46.80538" lon="-1.6525">
        <ele>36</ele>
        <time>2018-01-13T18:19:31Z</time>
      </trkpt>
      <trkpt lat="46.805" lon="-1.65259">
        <ele>35</ele>
        <time>2018-01-13T18:20:31Z</time>
      </trkpt>
      <trkpt lat="46.80463" lon="-1.65272">
        <ele>35</ele>
        <time>2018-01-13T18:21:31Z</time>
      </trkpt>
      <trkpt lat="46.80447" lon="-1.6528">
        <ele>35</ele>
        <time>2018-01-13T18:22:31Z</time>
      </trkpt>
      <trkpt lat="46.80435" lon="-1.65286">
        <ele>35</ele>
        <time>2018-01-13T18:23:31Z</time>
      </trkpt>
      <trkpt lat="46.80425" lon="-1.65293">
        <ele>35</ele>
        <time>2018-01-13T18:24:31Z</time>
      </trkpt>
      <trkpt lat="46.80416" lon="-1.65298">
        <ele>35</ele>
        <time>2018-01-13T18:25:31Z</time>
      </trkpt>
      <trkpt lat="46.80408" lon="-1.65303">
        <ele>35</ele>
        <time>2018-01-13T18:26:31Z</time>
      </trkpt>
      <trkpt lat="46.804" lon="-1.65308">
        <ele>35</ele>
        <time>2018-01-13T18:27:31Z</time>
      </trkpt>
      <trkpt lat="46.80399" lon="-1.65309">
        <ele>35</ele>
        <time>2018-01-13T18:28:31Z</time>
      </trkpt>
      <trkpt lat="46.80383" lon="-1.65321">
        <ele>35</ele>
        <time>2018-01-13T18:29:31Z</time>
      </trkpt>
      <trkpt lat="46.80369" lon="-1.65333">
        <ele>35</ele>
        <time>2018-01-13T18:30:31Z</time>
      </trkpt>
      <trkpt lat="46.8035" lon="-1.65349">
        <ele>34</ele>
        <time>2018-01-13T18:31:31Z</time>
      </trkpt>
      <trkpt lat="46.80335" lon="-1.65363">
        <ele>34</ele>
        <time>2018-01-13T18:32:31Z</time>
      </trkpt>
      <trkpt lat="46.80326" lon="-1.65373">
        <ele>33</ele>
        <time>2018-01-13T18:33:31Z</time>
      </trkpt>
      <trkpt lat="46.80316" lon="-1.65384">
        <ele>31</ele>
        <time>2018-01-13T18:34:31Z</time>
      </trkpt>
      <trkpt lat="46.80304" lon="-1.654">
        <ele>30</ele>
        <time>2018-01-13T18:35:31Z</time>
      </trkpt>
      <trkpt lat="46.80292" lon="-1.65421">
        <ele>29</ele>
        <time>2018-01-13T18:36:31Z</time>
      </trkpt>
      <trkpt lat="46.80284" lon="-1.65438">
        <ele>28</ele>
        <time>2018-01-13T18:37:31Z</time>
      </trkpt>
      <trkpt lat="46.80274" lon="-1.65465">
        <ele>27</ele>
        <time>2018-01-13T18:38:31Z</time>
      </trkpt>
      <trkpt lat="46.80269" lon="-1.65487">
        <ele>27</ele>
        <time>2018-01-13T18:39:31Z</time>
      </trkpt>
      <trkpt lat="46.80264" lon="-1.65509">
        <ele>27</ele>
        <time>2018-01-13T18:40:31Z</time>
      </trkpt>
      <trkpt lat="46.80261" lon="-1.65521">
        <ele>27</ele>
        <time>2018-01-13T18:41:31Z</time>
      </trkpt>
      <trkpt lat="46.8026" lon="-1.65524">
        <ele>27</ele>
        <time>2018-01-13T18:42:31Z</time>
      </trkpt>
      <trkpt lat="46.80258" lon="-1.65538">
        <ele>27</ele>
        <time>2018-01-13T18:43:31Z</time>
      </trkpt>
      <trkpt lat="46.80256" lon="-1.65557">
        <ele>26</ele>
        <time>2018-01-13T18:44:31Z</time>
      </trkpt>
      <trkpt lat="46.80254" lon="-1.65575">
        <ele>26</ele>
        <time>2018-01-13T18:45:31Z</time>
      </trkpt>
      <trkpt lat="46.80252" lon="-1.65596">
        <ele>26</ele>
        <time>2018-01-13T18:46:31Z</time>
      </trkpt>
      <trkpt lat="46.8025" lon="-1.65617">
        <ele>26</ele>
        <time>2018-01-13T18:47:31Z</time>
      </trkpt>
      <trkpt lat="46.80249" lon="-1.65636">
        <ele>27</ele>
        <time>2018-01-13T18:48:31Z</time>
      </trkpt>
      <trkpt lat="46.80248" lon="-1.65656">
        <ele>27</ele>
        <time>2018-01-13T18:49:31Z</time>
      </trkpt>
      <trkpt lat="46.80246" lon="-1.65677">
        <ele>27</ele>
        <time>2018-01-13T18:50:31Z</time>
      </trkpt>
      <trkpt lat="46.80244" lon="-1.6569">
        <ele>28</ele>
        <time>2018-01-13T18:51:31Z</time>
      </trkpt>
      <trkpt lat="46.8024" lon="-1.65705">
        <ele>28</ele>
        <time>2018-01-13T18:52:31Z</time>
      </trkpt>
      <trkpt lat="46.80236" lon="-1.65722">
        <ele>28</ele>
        <time>2018-01-13T18:53:31Z</time>
      </trkpt>
      <trkpt lat="46.80231" lon="-1.65737">
        <ele>29</ele>
        <time>2018-01-13T18:54:31Z</time>
      </trkpt>
      <trkpt lat="46.80225" lon="-1.65756">
        <ele>28</ele>
        <time>2018-01-13T18:55:31Z</time>
      </trkpt>
      <trkpt lat="46.80217" lon="-1.65776">
        <ele>28</ele>
        <time>2018-01-13T18:56:31Z</time>
      </trkpt>
      <trkpt lat="46.80209" lon="-1.65792">
        <ele>28</ele>
        <time>2018-01-13T18:57:31Z</time>
      </trkpt>
      <trkpt lat="46.80198" lon="-1.65811">
        <ele>27</ele>
        <time>2018-01-13T18:58:31Z</time>
      </trkpt>
      <trkpt lat="46.80188" lon="-1.65824">
        <ele>26</ele>
        <time>2018-01-13T18:59:31Z</time>
      </trkpt>
      <trkpt lat="46.80177" lon="-1.65837">
        <ele>25</ele>
        <time>2018-01-13T19:00:31Z</time>
      </trkpt>
      <trkpt lat="46.80167" lon="-1.65847">
        <ele>24</ele>
        <time>2018-01-13T19:01:31Z</time>
      </trkpt>
      <trkpt lat="46.80164" lon="-1.6585">
        <ele>24</ele>
        <time>2018-01-13T19:02:31Z</time>
      </trkpt>
      <trkpt lat="46.80162" lon="-1.65852">
        <ele>23</ele>
        <time>2018-01-13T19:03:31Z</time>
      </trkpt>
      <trkpt lat="46.80154" lon="-1.65858">
        <ele>23</ele>
        <time>2018-01-13T19:04:31Z</time>
      </trkpt>
      <trkpt lat="46.80151" lon="-1.65859">
        <ele>23</ele>
        <time>2018-01-13T19:05:31Z</time>
      </trkpt>
      <trkpt lat="46.80147" lon="-1.65862">
        <ele>23</ele>
        <time>2018-01-13T19:06:31Z</time>
      </trkpt>
      <trkpt lat="46.8014" lon="-1.65866">
        <ele>23</ele>
        <time>2018-01-13T19:07:31Z</time>
      </trkpt>
      <trkpt lat="46.80133" lon="-1.6587">
        <ele>23</ele>
        <time>2018-01-13T19:08:31Z</time>
      </trkpt>
      <trkpt lat="46.80123" lon="-1.65874">
        <ele>23</ele>
        <time>2018-01-13T19:09:31Z</time>
      </trkpt>
      <trkpt lat="46.80109" lon="-1.6588">
        <ele>23</ele>
        <time>2018-01-13T19:10:31Z</time>
      </trkpt>
      <trkpt lat="46.80097" lon="-1.65883">
        <ele>23</ele>
        <time>2018-01-13T19:11:31Z</time>
      </trkpt>
      <trkpt lat="46.80084" lon="-1.65889">
        <ele>23</ele>
        <time>2018-01-13T19:12:31Z</time>
      </trkpt>
      <trkpt lat="46.80068" lon="-1.65896">
        <ele>24</ele>
        <time>2018-01-13T19:13:31Z</time>
      </trkpt>
      <trkpt lat="46.80051" lon="-1.65902">
        <ele>26</ele>
        <time>2018-01-13T19:14:31Z</time>
      </trkpt>
      <trkpt lat="46.80033" lon="-1.65911">
        <ele>27</ele>
        <time>2018-01-13T19:15:31Z</time>
      </trkpt>
      <trkpt lat="46.80005" lon="-1.65927">
        <ele>29</ele>
        <time>2018-01-13T19:16:31Z</time>
      </trkpt>
      <trkpt lat="46.79986" lon="-1.65939">
        <ele>30</ele>
        <time>2018-01-13T19:17:31Z</time>
      </trkpt>
      <trkpt lat="46.79963" lon="-1.65957">
        <ele>31</ele>
        <time>2018-01-13T19:18:31Z</time>
      </trkpt>
      <trkpt lat="46.79943" lon="-1.65971">
        <ele>33</ele>
        <time>2018-01-13T19:19:31Z</time>
      </trkpt>
      <trkpt lat="46.79924" lon="-1.65984">
        <ele>34</ele>
        <time>2018-01-13T19:20:31Z</time>
      </trkpt>
      <trkpt lat="46.79902" lon="-1.66001">
        <ele>35</ele>
        <time>2018-01-13T19:21:31Z</time>
      </trkpt>
      <trkpt lat="46.79876" lon="-1.66019">
        <ele>35</ele>
        <time>2018-01-13T19:22:31Z</time>
      </trkpt>
      <trkpt lat="46.79862" lon="-1.66028">
        <ele>36</ele>
        <time>2018-01-13T19:23:31Z</time>
      </trkpt>
      <trkpt lat="46.79842" lon="-1.66041">
        <ele>36</ele>
        <time>2018-01-13T19:24:31Z</time>
      </trkpt>
      <trkpt lat="46.79827" lon="-1.66051">
        <ele>37</ele>
        <time>2018-01-13T19:25:31Z</time>
      </trkpt>
      <trkpt lat="46.79823" lon="-1.66053">
        <ele>37</ele>
        <time>2018-01-13T19:26:31Z</time>
      </trkpt>
      <trkpt lat="46.7981" lon="-1.66058">
        <ele>37</ele>
        <time>2018-01-13T19:27:31Z</time>
      </trkpt>
      <trkpt lat="46.79804" lon="-1.66061">
        <ele>37</ele>
        <time>2018-01-13T19:28:31Z</time>
      </trkpt>
      <trkpt lat="46.79794" lon="-1.66065">
        <ele>37</ele>
        <time>2018-01-13T19:29:31Z</time>
      </trkpt>
      <trkpt lat="46.79778" lon="-1.66072">
        <ele>37</ele>
        <time>2018-01-13T19:30:31Z</time>
      </trkpt>
      <trkpt lat="46.79744" lon="-1.66085">
        <ele>37</ele>
        <time>2018-01-13T19:31:31Z</time>
      </trkpt>
      <trkpt lat="46.79735" lon="-1.66093">
        <ele>37</ele>
        <time>2018-01-13T19:32:31Z</time>
      </trkpt>
      <trkpt lat="46.79735" lon="-1.66093">
        <ele>37</ele>
        <time>2018-01-13T19:33:31Z</time>
      </trkpt>
      <trkpt lat="46.79737" lon="-1.66098">
        <ele>37</ele>
        <time>2018-01-13T19:34:31Z</time>
      </trkpt>
      <trkpt lat="46.79737" lon="-1.66102">
        <ele>37</ele>
        <time>2018-01-13T19:35:31Z</time>
      </trkpt>
      <trkpt lat="46.79736" lon="-1.66107">
        <ele>38</ele>
        <time>2018-01-13T19:36:31Z</time>
      </trkpt>
      <trkpt lat="46.79734" lon="-1.6611">
        <ele>38</ele>
        <time>2018-01-13T19:37:31Z</time>
      </trkpt>
      <trkpt lat="46.79731" lon="-1.66113">
        <ele>38</ele>
        <time>2018-01-13T19:38:31Z</time>
      </trkpt>
      <trkpt lat="46.79728" lon="-1.66114">
        <ele>38</ele>
        <time>2018-01-13T19:39:31Z</time>
      </trkpt>
      <trkpt lat="46.79725" lon="-1.66113">
        <ele>38</ele>
        <time>2018-01-13T19:40:31Z</time>
      </trkpt>
      <trkpt lat="46.79722" lon="-1.6611">
        <ele>38</ele>
        <time>2018-01-13T19:41:31Z</time>
      </trkpt>
      <trkpt lat="46.7972" lon="-1.66106">
        <ele>38</ele>
        <time>2018-01-13T19:42:31Z</time>
      </trkpt>
      <trkpt lat="46.7972" lon="-1.66102">
        <ele>37</ele>
        <time>2018-01-13T19:43:31Z</time>
      </trkpt>
      <trkpt lat="46.79709" lon="-1.661">
        <ele>37</ele>
        <time>2018-01-13T19:44:31Z</time>
      </trkpt>
      <trkpt lat="46.79691" lon="-1.66105">
        <ele>38</ele>
        <time>2018-01-13T19:45:31Z</time>
      </trkpt>
      <trkpt lat="46.79641" lon="-1.66124">
        <ele>38</ele>
        <time>2018-01-13T19:46:31Z</time>
      </trkpt>
      <trkpt lat="46.79631" lon="-1.66128">
        <ele>38</ele>
        <time>2018-01-13T19:47:31Z</time>
      </trkpt>
      <trkpt lat="46.79629" lon="-1.66129">
        <ele>38</ele>
        <time>2018-01-13T19:48:31Z</time>
      </trkpt>
      <trkpt lat="46.79583" lon="-1.66146">
        <ele>38</ele>
        <time>2018-01-13T19:49:31Z</time>
      </trkpt>
      <trkpt lat="46.79558" lon="-1.66154">
        <ele>37</ele>
        <time>2018-01-13T19:50:31Z</time>
      </trkpt>
      <trkpt lat="46.79527" lon="-1.66165">
        <ele>37</ele>
        <time>2018-01-13T19:51:31Z</time>
      </trkpt>
      <trkpt lat="46.79498" lon="-1.66174">
        <ele>37</ele>
        <time>2018-01-13T19:52:31Z</time>
      </trkpt>
      <trkpt lat="46.79465" lon="-1.66179">
        <ele>38</ele>
        <time>2018-01-13T19:53:31Z</time>
      </trkpt>
      <trkpt lat="46.79437" lon="-1.66182">
        <ele>38</ele>
        <time>2018-01-13T19:54:31Z</time>
      </trkpt>
      <trkpt lat="46.79397" lon="-1.66187">
        <ele>38</ele>
        <time>2018-01-13T19:55:31Z</time>
      </trkpt>
      <trkpt lat="46.79351" lon="-1.66193">
        <ele>39</ele>
        <time>2018-01-13T19:56:31Z</time>
      </trkpt>
      <trkpt lat="46.79345" lon="-1.66194">
        <ele>39</ele>
        <time>2018-01-13T19:57:31Z</time>
      </trkpt>
      <trkpt lat="46.79331" lon="-1.66198">
        <ele>39</ele>
        <time>2018-01-13T19:58:31Z</time>
      </trkpt>
      <trkpt lat="46.79305" lon="-1.66207">
        <ele>39</ele>
        <time>2018-01-13T19:59:31Z</time>
      </trkpt>
      <trkpt lat="46.79277" lon="-1.66219">
        <ele>40</ele>
        <time>2018-01-13T20:00:31Z</time>
      </trkpt>
      <trkpt lat="46.79255" lon="-1.66229">
        <ele>40</ele>
        <time>2018-01-13T20:01:31Z</time>
      </trkpt>
      <trkpt lat="46.7923" lon="-1.66241">
        <ele>39</ele>
        <time>2018-01-13T20:02:31Z</time>
      </trkpt>
      <trkpt lat="46.79212" lon="-1.6625">
        <ele>39</ele>
        <time>2018-01-13T20:03:31Z</time>
      </trkpt>
      <trkpt lat="46.79192" lon="-1.6626">
        <ele>39</ele>
        <time>2018-01-13T20:04:31Z</time>
      </trkpt>
      <trkpt lat="46.79158" lon="-1.66282">
        <ele>38</ele>
        <time>2018-01-13T20:05:31Z</time>
      </trkpt>
      <trkpt lat="46.79136" lon="-1.66296">
        <ele>38</ele>
        <time>2018-01-13T20:06:31Z</time>
      </trkpt>
      <trkpt lat="46.79121" lon="-1.66307">
        <ele>37</ele>
        <time>2018-01-13T20:07:31Z</time>
      </trkpt>
      <trkpt lat="46.79111" lon="-1.66315">
        <ele>37</ele>
        <time>2018-01-13T20:08:31Z</time>
      </trkpt>
      <trkpt lat="46.791" lon="-1.66321">
        <ele>37</ele>
        <time>2018-01-13T20:09:31Z</time>
      </trkpt>
      <trkpt lat="46.79092" lon="-1.66326">
        <ele>37</ele>
        <time>2018-01-13T20:10:31Z</time>
      </trkpt>
      <trkpt lat="46.79088" lon="-1.66327">
        <ele>37</ele>
        <time>2018-01-13T20:11:31Z</time>
      </trkpt>
      <trkpt lat="46.79083" lon="-1.66329">
        <ele>37</ele>
        <time>2018-01-13T20:12:31Z</time>
      </trkpt>
      <trkpt lat="46.79077" lon="-1.66331">
        <ele>37</ele>
        <time>2018-01-13T20:13:31Z</time>
      </trkpt>
      <trkpt lat="46.79069" lon="-1.66333">
        <ele>37</ele>
        <time>2018-01-13T20:14:31Z</time>
      </trkpt>
      <trkpt lat="46.79065" lon="-1.66333">
        <ele>37</ele>
        <time>2018-01-13T20:15:31Z</time>
      </trkpt>
      <trkpt lat="46.79058" lon="-1.66333">
        <ele>37</ele>
        <time>2018-01-13T20:16:31Z</time>
      </trkpt>
      <trkpt lat="46.7905" lon="-1.66332">
        <ele>37</ele>
        <time>2018-01-13T20:17:31Z</time>
      </trkpt>
      <trkpt lat="46.7904" lon="-1.6633">
        <ele>36</ele>
        <time>2018-01-13T20:18:31Z</time>
      </trkpt>
      <trkpt lat="46.79034" lon="-1.66328">
        <ele>36</ele>
        <time>2018-01-13T20:19:31Z</time>
      </trkpt>
      <trkpt lat="46.79023" lon="-1.66323">
        <ele>36</ele>
        <time>2018-01-13T20:20:31Z</time>
      </trkpt>
      <trkpt lat="46.79007" lon="-1.66314">
        <ele>36</ele>
        <time>2018-01-13T20:21:31Z</time>
      </trkpt>
      <trkpt lat="46.78997" lon="-1.66308">
        <ele>35</ele>
        <time>2018-01-13T20:22:31Z</time>
      </trkpt>
      <trkpt lat="46.78985" lon="-1.66298">
        <ele>35</ele>
        <time>2018-01-13T20:23:31Z</time>
      </trkpt>
      <trkpt lat="46.78969" lon="-1.66284">
        <ele>35</ele>
        <time>2018-01-13T20:24:31Z</time>
      </trkpt>
      <trkpt lat="46.78963" lon="-1.66279">
        <ele>34</ele>
        <time>2018-01-13T20:25:31Z</time>
      </trkpt>
      <trkpt lat="46.78961" lon="-1.66277">
        <ele>34</ele>
        <time>2018-01-13T20:26:31Z</time>
      </trkpt>
      <trkpt lat="46.78954" lon="-1.6627">
        <ele>34</ele>
        <time>2018-01-13T20:27:31Z</time>
      </trkpt>
      <trkpt lat="46.78951" lon="-1.66268">
        <ele>34</ele>
        <time>2018-01-13T20:28:31Z</time>
      </trkpt>
      <trkpt lat="46.78947" lon="-1.66265">
        <ele>34</ele>
        <time>2018-01-13T20:29:31Z</time>
      </trkpt>
      <trkpt lat="46.78933" lon="-1.66255">
        <ele>34</ele>
        <time>2018-01-13T20:30:31Z</time>
      </trkpt>
      <trkpt lat="46.78924" lon="-1.6625">
        <ele>34</ele>
        <time>2018-01-13T20:31:31Z</time>
      </trkpt>
      <trkpt lat="46.789" lon="-1.66235">
        <ele>34</ele>
        <time>2018-01-13T20:32:31Z</time>
      </trkpt>
      <trkpt lat="46.78884" lon="-1.66226">
        <ele>34</ele>
        <time>2018-01-13T20:33:31Z</time>
      </trkpt>
      <trkpt lat="46.78883" lon="-1.66226">
        <ele>34</ele>
        <time>2018-01-13T20:34:31Z</time>
      </trkpt>
      <trkpt lat="46.78866" lon="-1.66216">
        <ele>34</ele>
        <time>2018-01-13T20:35:31Z</time>
      </trkpt>
      <trkpt lat="46.78853" lon="-1.66208">
        <ele>35</ele>
        <time>2018-01-13T20:36:31Z</time>
      </trkpt>
      <trkpt lat="46.78821" lon="-1.66189">
        <ele>35</ele>
        <time>2018-01-13T20:37:31Z</time>
      </trkpt>
      <trkpt lat="46.78792" lon="-1.66172">
        <ele>35</ele>
        <time>2018-01-13T20:38:31Z</time>
      </trkpt>
      <trkpt lat="46.78768" lon="-1.66158">
        <ele>36</ele>
        <time>2018-01-13T20:39:31Z</time>
      </trkpt>
      <trkpt lat="46.78755" lon="-1.66151">
        <ele>37</ele>
        <time>2018-01-13T20:40:31Z</time>
      </trkpt>
      <trkpt lat="46.78742" lon="-1.66144">
        <ele>37</ele>
        <time>2018-01-13T20:41:31Z</time>
      </trkpt>
      <trkpt lat="46.78725" lon="-1.66136">
        <ele>36</ele>
        <time>2018-01-13T20:42:31Z</time>
      </trkpt>
      <trkpt lat="46.78711" lon="-1.66131">
        <ele>36</ele>
        <time>2018-01-13T20:43:31Z</time>
      </trkpt>
      <trkpt lat="46.78706" lon="-1.6613">
        <ele>35</ele>
        <time>2018-01-13T20:44:31Z</time>
      </trkpt>
      <trkpt lat="46.78698" lon="-1.66129">
        <ele>35</ele>
        <time>2018-01-13T20:45:31Z</time>
      </trkpt>
      <trkpt lat="46.78691" lon="-1.66129">
        <ele>35</ele>
        <time>2018-01-13T20:46:31Z</time>
      </trkpt>
      <trkpt lat="46.78683" lon="-1.66131">
        <ele>35</ele>
        <time>2018-01-13T20:47:31Z</time>
      </trkpt>
      <trkpt lat="46.78679" lon="-1.66132">
        <ele>35</ele>
        <time>2018-01-13T20:48:31Z</time>
      </trkpt>
      <trkpt lat="46.78674" lon="-1.66134">
        <ele>34</ele>
        <time>2018-01-13T20:49:31Z</time>
      </trkpt>
      <trkpt lat="46.78668" lon="-1.66136">
        <ele>34</ele>
        <time>2018-01-13T20:50:31Z</time>
      </trkpt>
      <trkpt lat="46.78663" lon="-1.66139">
        <ele>34</ele>
        <time>2018-01-13T20:51:31Z</time>
      </trkpt>
      <trkpt lat="46.78654" lon="-1.66145">
        <ele>33</ele>
        <time>2018-01-13T20:52:31Z</time>
      </trkpt>
      <trkpt lat="46.78636" lon="-1.6616">
        <ele>32</ele>
        <time>2018-01-13T20:53:31Z</time>
      </trkpt>
      <trkpt lat="46.78617" lon="-1.66178">
        <ele>31</ele>
        <time>2018-01-13T20:54:31Z</time>
      </trkpt>
      <trkpt lat="46.78598" lon="-1.66197">
        <ele>30</ele>
        <time>2018-01-13T20:55:31Z</time>
      </trkpt>
      <trkpt lat="46.78584" lon="-1.66209">
        <ele>30</ele>
        <time>2018-01-13T20:56:31Z</time>
      </trkpt>
      <trkpt lat="46.7858" lon="-1.66214">
        <ele>30</ele>
        <time>2018-01-13T20:57:31Z</time>
      </trkpt>
      <trkpt lat="46.78573" lon="-1.66223">
        <ele>30</ele>
        <time>2018-01-13T20:58:31Z</time>
      </trkpt>
      <trkpt lat="46.78552" lon="-1.66251">
        <ele>29</ele>
        <time>2018-01-13T20:59:31Z</time>
      </trkpt>
      <trkpt lat="46.78531" lon="-1.6628">
        <ele>27</ele>
        <time>2018-01-13T21:00:31Z</time>
      </trkpt>
      <trkpt lat="46.7851" lon="-1.66308">
        <ele>24</ele>
        <time>2018-01-13T21:01:31Z</time>
      </trkpt>
      <trkpt lat="46.78494" lon="-1.66329">
        <ele>23</ele>
        <time>2018-01-13T21:02:31Z</time>
      </trkpt>
      <trkpt lat="46.78487" lon="-1.66336">
        <ele>22</ele>
        <time>2018-01-13T21:03:31Z</time>
      </trkpt>
      <trkpt lat="46.78478" lon="-1.66343">
        <ele>22</ele>
        <time>2018-01-13T21:04:31Z</time>
      </trkpt>
      <trkpt lat="46.78468" lon="-1.6635">
        <ele>22</ele>
        <time>2018-01-13T21:05:31Z</time>
      </trkpt>
      <trkpt lat="46.78458" lon="-1.66355">
        <ele>21</ele>
        <time>2018-01-13T21:06:31Z</time>
      </trkpt>
      <trkpt lat="46.78448" lon="-1.66359">
        <ele>21</ele>
        <time>2018-01-13T21:07:31Z</time>
      </trkpt>
      <trkpt lat="46.78447" lon="-1.66359">
        <ele>21</ele>
        <time>2018-01-13T21:08:31Z</time>
      </trkpt>
      <trkpt lat="46.78445" lon="-1.66359">
        <ele>21</ele>
        <time>2018-01-13T21:09:31Z</time>
      </trkpt>
      <trkpt lat="46.78439" lon="-1.6636">
        <ele>21</ele>
        <time>2018-01-13T21:10:31Z</time>
      </trkpt>
      <trkpt lat="46.78432" lon="-1.66361">
        <ele>20</ele>
        <time>2018-01-13T21:11:31Z</time>
      </trkpt>
      <trkpt lat="46.78428" lon="-1.66361">
        <ele>20</ele>
        <time>2018-01-13T21:12:31Z</time>
      </trkpt>
      <trkpt lat="46.78425" lon="-1.66361">
        <ele>20</ele>
        <time>2018-01-13T21:13:31Z</time>
      </trkpt>
      <trkpt lat="46.78417" lon="-1.66361">
        <ele>20</ele>
        <time>2018-01-13T21:14:31Z</time>
      </trkpt>
      <trkpt lat="46.78391" lon="-1.66358">
        <ele>20</ele>
        <time>2018-01-13T21:15:31Z</time>
      </trkpt>
      <trkpt lat="46.7836" lon="-1.66355">
        <ele>20</ele>
        <time>2018-01-13T21:16:31Z</time>
      </trkpt>
      <trkpt lat="46.78326" lon="-1.66351">
        <ele>20</ele>
        <time>2018-01-13T21:17:31Z</time>
      </trkpt>
      <trkpt lat="46.783" lon="-1.66349">
        <ele>21</ele>
        <time>2018-01-13T21:18:31Z</time>
      </trkpt>
      <trkpt lat="46.78292" lon="-1.66348">
        <ele>21</ele>
        <time>2018-01-13T21:19:31Z</time>
      </trkpt>
      <trkpt lat="46.78286" lon="-1.66348">
        <ele>21</ele>
        <time>2018-01-13T21:20:31Z</time>
      </trkpt>
      <trkpt lat="46.78278" lon="-1.66349">
        <ele>21</ele>
        <time>2018-01-13T21:21:31Z</time>
      </trkpt>
      <trkpt lat="46.78263" lon="-1.66351">
        <ele>22</ele>
        <time>2018-01-13T21:22:31Z</time>
      </trkpt>
      <trkpt lat="46.78247" lon="-1.66355">
        <ele>22</ele>
        <time>2018-01-13T21:23:31Z</time>
      </trkpt>
      <trkpt lat="46.78233" lon="-1.6636">
        <ele>22</ele>
        <time>2018-01-13T21:24:31Z</time>
      </trkpt>
      <trkpt lat="46.78223" lon="-1.66365">
        <ele>23</ele>
        <time>2018-01-13T21:25:31Z</time>
      </trkpt>
      <trkpt lat="46.78215" lon="-1.66368">
        <ele>23</ele>
        <time>2018-01-13T21:26:31Z</time>
      </trkpt>
      <trkpt lat="46.78209" lon="-1.66371">
        <ele>23</ele>
        <time>2018-01-13T21:27:31Z</time>
      </trkpt>
      <trkpt lat="46.78199" lon="-1.66377">
        <ele>23</ele>
        <time>2018-01-13T21:28:31Z</time>
      </trkpt>
      <trkpt lat="46.78176" lon="-1.66392">
        <ele>24</ele>
        <time>2018-01-13T21:29:31Z</time>
      </trkpt>
      <trkpt lat="46.78162" lon="-1.66402">
        <ele>24</ele>
        <time>2018-01-13T21:30:31Z</time>
      </trkpt>
      <trkpt lat="46.78152" lon="-1.66411">
        <ele>24</ele>
        <time>2018-01-13T21:31:31Z</time>
      </trkpt>
      <trkpt lat="46.78144" lon="-1.66417">
        <ele>24</ele>
        <time>2018-01-13T21:32:31Z</time>
      </trkpt>
      <trkpt lat="46.78141" lon="-1.6642">
        <ele>24</ele>
        <time>2018-01-13T21:33:31Z</time>
      </trkpt>
      <trkpt lat="46.78134" lon="-1.66426">
        <ele>24</ele>
        <time>2018-01-13T21:34:31Z</time>
      </trkpt>
      <trkpt lat="46.78123" lon="-1.66435">
        <ele>23</ele>
        <time>2018-01-13T21:35:31Z</time>
      </trkpt>
      <trkpt lat="46.78088" lon="-1.66465">
        <ele>22</ele>
        <time>2018-01-13T21:36:31Z</time>
      </trkpt>
      <trkpt lat="46.78078" lon="-1.66473">
        <ele>22</ele>
        <time>2018-01-13T21:37:31Z</time>
      </trkpt>
      <trkpt lat="46.78065" lon="-1.66484">
        <ele>22</ele>
        <time>2018-01-13T21:38:31Z</time>
      </trkpt>
      <trkpt lat="46.78054" lon="-1.66494">
        <ele>21</ele>
        <time>2018-01-13T21:39:31Z</time>
      </trkpt>
      <trkpt lat="46.78039" lon="-1.66507">
        <ele>21</ele>
        <time>2018-01-13T21:40:31Z</time>
      </trkpt>
      <trkpt lat="46.78025" lon="-1.66519">
        <ele>20</ele>
        <time>2018-01-13T21:41:31Z</time>
      </trkpt>
      <trkpt lat="46.78014" lon="-1.66527">
        <ele>20</ele>
        <time>2018-01-13T21:42:31Z</time>
      </trkpt>
      <trkpt lat="46.78007" lon="-1.66533">
        <ele>20</ele>
        <time>2018-01-13T21:43:31Z</time>
      </trkpt>
      <trkpt lat="46.78" lon="-1.66537">
        <ele>19</ele>
        <time>2018-01-13T21:44:31Z</time>
      </trkpt>
      <trkpt lat="46.77992" lon="-1.66541">
        <ele>19</ele>
        <time>2018-01-13T21:45:31Z</time>
      </trkpt>
      <trkpt lat="46.77986" lon="-1.66544">
        <ele>19</ele>
        <time>2018-01-13T21:46:31Z</time>
      </trkpt>
      <trkpt lat="46.77981" lon="-1.66545">
        <ele>19</ele>
        <time>2018-01-13T21:47:31Z</time>
      </trkpt>
      <trkpt lat="46.77976" lon="-1.66547">
        <ele>19</ele>
        <time>2018-01-13T21:48:31Z</time>
      </trkpt>
      <trkpt lat="46.77967" lon="-1.66549">
        <ele>18</ele>
        <time>2018-01-13T21:49:31Z</time>
      </trkpt>
      <trkpt lat="46.77952" lon="-1.66552">
        <ele>18</ele>
        <time>2018-01-13T21:50:31Z</time>
      </trkpt>
      <trkpt lat="46.77923" lon="-1.66557">
        <ele>17</ele>
        <time>2018-01-13T21:51:31Z</time>
      </trkpt>
      <trkpt lat="46.77904" lon="-1.66562">
        <ele>16</ele>
        <time>2018-01-13T21:52:31Z</time>
      </trkpt>
      <trkpt lat="46.77883" lon="-1.66568">
        <ele>16</ele>
        <time>2018-01-13T21:53:31Z</time>
      </trkpt>
      <trkpt lat="46.77865" lon="-1.66574">
        <ele>16</ele>
        <time>2018-01-13T21:54:31Z</time>
      </trkpt>
      <trkpt lat="46.77855" lon="-1.66578">
        <ele>15</ele>
        <time>2018-01-13T21:55:31Z</time>
      </trkpt>
      <trkpt lat="46.77836" lon="-1.66588">
        <ele>15</ele>
        <time>2018-01-13T21:56:31Z</time>
      </trkpt>
      <trkpt lat="46.77818" lon="-1.66598">
        <ele>15</ele>
        <time>2018-01-13T21:57:31Z</time>
      </trkpt>
      <trkpt lat="46.77798" lon="-1.6661">
        <ele>15</ele>
        <time>2018-01-13T21:58:31Z</time>
      </trkpt>
      <trkpt lat="46.77779" lon="-1.66623">
        <ele>15</ele>
        <time>2018-01-13T21:59:31Z</time>
      </trkpt>
      <trkpt lat="46.77766" lon="-1.66632">
        <ele>15</ele>
        <time>2018-01-13T22:00:31Z</time>
      </trkpt>
      <trkpt lat="46.77749" lon="-1.66645">
        <ele>15</ele>
        <time>2018-01-13T22:01:31Z</time>
      </trkpt>
      <trkpt lat="46.7773" lon="-1.66661">
        <ele>16</ele>
        <time>2018-01-13T22:02:31Z</time>
      </trkpt>
      <trkpt lat="46.77714" lon="-1.66676">
        <ele>17</ele>
        <time>2018-01-13T22:03:31Z</time>
      </trkpt>
      <trkpt lat="46.77697" lon="-1.66689">
        <ele>18</ele>
        <time>2018-01-13T22:04:31Z</time>
      </trkpt>
      <trkpt lat="46.77683" lon="-1.66698">
        <ele>18</ele>
        <time>2018-01-13T22:05:31Z</time>
      </trkpt>
      <trkpt lat="46.77678" lon="-1.66701">
        <ele>18</ele>
        <time>2018-01-13T22:06:31Z</time>
      </trkpt>
      <trkpt lat="46.7767" lon="-1.66705">
        <ele>19</ele>
        <time>2018-01-13T22:07:31Z</time>
      </trkpt>
      <trkpt lat="46.77657" lon="-1.66709">
        <ele>20</ele>
        <time>2018-01-13T22:08:31Z</time>
      </trkpt>
      <trkpt lat="46.77646" lon="-1.66711">
        <ele>21</ele>
        <time>2018-01-13T22:09:31Z</time>
      </trkpt>
      <trkpt lat="46.77636" lon="-1.66712">
        <ele>22</ele>
        <time>2018-01-13T22:10:31Z</time>
      </trkpt>
      <trkpt lat="46.77622" lon="-1.66712">
        <ele>24</ele>
        <time>2018-01-13T22:11:31Z</time>
      </trkpt>
      <trkpt lat="46.77608" lon="-1.66711">
        <ele>25</ele>
        <time>2018-01-13T22:12:31Z</time>
      </trkpt>
      <trkpt lat="46.77586" lon="-1.66709">
        <ele>27</ele>
        <time>2018-01-13T22:13:31Z</time>
      </trkpt>
      <trkpt lat="46.77566" lon="-1.66708">
        <ele>28</ele>
        <time>2018-01-13T22:14:31Z</time>
      </trkpt>
      <trkpt lat="46.77551" lon="-1.6671">
        <ele>28</ele>
        <time>2018-01-13T22:15:31Z</time>
      </trkpt>
      <trkpt lat="46.77536" lon="-1.66713">
        <ele>28</ele>
        <time>2018-01-13T22:16:31Z</time>
      </trkpt>
      <trkpt lat="46.77527" lon="-1.66716">
        <ele>28</ele>
        <time>2018-01-13T22:17:31Z</time>
      </trkpt>
      <trkpt lat="46.77518" lon="-1.66719">
        <ele>28</ele>
        <time>2018-01-13T22:18:31Z</time>
      </trkpt>
      <trkpt lat="46.77513" lon="-1.66722">
        <ele>28</ele>
        <time>2018-01-13T22:19:31Z</time>
      </trkpt>
      <trkpt lat="46.77507" lon="-1.66725">
        <ele>28</ele>
        <time>2018-01-13T22:20:31Z</time>
      </trkpt>
      <trkpt lat="46.77503" lon="-1.66728">
        <ele>28</ele>
        <time>2018-01-13T22:21:31Z</time>
      </trkpt>
      <trkpt lat="46.77498" lon="-1.66731">
        <ele>28</ele>
        <time>2018-01-13T22:22:31Z</time>
      </trkpt>
      <trkpt lat="46.77492" lon="-1.66735">
        <ele>28</ele>
        <time>2018-01-13T22:23:31Z</time>
      </trkpt>
      <trkpt lat="46.77485" lon="-1.6674">
        <ele>28</ele>
        <time>2018-01-13T22:24:31Z</time>
      </trkpt>
      <trkpt lat="46.77475" lon="-1.66749">
        <ele>28</ele>
        <time>2018-01-13T22:25:31Z</time>
      </trkpt>
      <trkpt lat="46.77465" lon="-1.66758">
        <ele>27</ele>
        <time>2018-01-13T22:26:31Z</time>
      </trkpt>
      <trkpt lat="46.77446" lon="-1.66774">
        <ele>27</ele>
        <time>2018-01-13T22:27:31Z</time>
      </trkpt>
      <trkpt lat="46.77441" lon="-1.66778">
        <ele>27</ele>
        <time>2018-01-13T22:28:31Z</time>
      </trkpt>
      <trkpt lat="46.77428" lon="-1.66788">
        <ele>26</ele>
        <time>2018-01-13T22:29:31Z</time>
      </trkpt>
      <trkpt lat="46.77417" lon="-1.66793">
        <ele>26</ele>
        <time>2018-01-13T22:30:31Z</time>
      </trkpt>
      <trkpt lat="46.77411" lon="-1.66798">
        <ele>26</ele>
        <time>2018-01-13T22:31:31Z</time>
      </trkpt>
      <trkpt lat="46.77403" lon="-1.66802">
        <ele>26</ele>
        <time>2018-01-13T22:32:31Z</time>
      </trkpt>
      <trkpt lat="46.77395" lon="-1.66802">
        <ele>25</ele>
        <time>2018-01-13T22:33:31Z</time>
      </trkpt>
      <trkpt lat="46.77395" lon="-1.66802">
        <ele>25</ele>
        <time>2018-01-13T22:34:31Z</time>
      </trkpt>
      <trkpt lat="46.77392" lon="-1.66812">
        <ele>25</ele>
        <time>2018-01-13T22:35:31Z</time>
      </trkpt>
      <trkpt lat="46.77389" lon="-1.66827">
        <ele>26</ele>
        <time>2018-01-13T22:36:31Z</time>
      </trkpt>
      <trkpt lat="46.77385" lon="-1.66842">
        <ele>26</ele>
        <time>2018-01-13T22:37:31Z</time>
      </trkpt>
      <trkpt lat="46.7738" lon="-1.66856">
        <ele>26</ele>
        <time>2018-01-13T22:38:31Z</time>
      </trkpt>
      <trkpt lat="46.77376" lon="-1.66869">
        <ele>26</ele>
        <time>2018-01-13T22:39:31Z</time>
      </trkpt>
      <trkpt lat="46.77372" lon="-1.66881">
        <ele>27</ele>
        <time>2018-01-13T22:40:31Z</time>
      </trkpt>
      <trkpt lat="46.77367" lon="-1.66893">
        <ele>27</ele>
        <time>2018-01-13T22:41:31Z</time>
      </trkpt>
      <trkpt lat="46.77362" lon="-1.66904">
        <ele>27</ele>
        <time>2018-01-13T22:42:31Z</time>
      </trkpt>
      <trkpt lat="46.77356" lon="-1.66916">
        <ele>27</ele>
        <time>2018-01-13T22:43:31Z</time>
      </trkpt>
      <trkpt lat="46.7735" lon="-1.66928">
        <ele>27</ele>
        <time>2018-01-13T22:44:31Z</time>
      </trkpt>
      <trkpt lat="46.77343" lon="-1.66939">
        <ele>27</ele>
        <time>2018-01-13T22:45:31Z</time>
      </trkpt>
      <trkpt lat="46.77337" lon="-1.6695">
        <ele>27</ele>
        <time>2018-01-13T22:46:31Z</time>
      </trkpt>
      <trkpt lat="46.7733" lon="-1.66961">
        <ele>28</ele>
        <time>2018-01-13T22:47:31Z</time>
      </trkpt>
      <trkpt lat="46.77322" lon="-1.66972">
        <ele>28</ele>
        <time>2018-01-13T22:48:31Z</time>
      </trkpt>
      <trkpt lat="46.77302" lon="-1.66996">
        <ele>28</ele>
        <time>2018-01-13T22:49:31Z</time>
      </trkpt>
      <trkpt lat="46.77297" lon="-1.67">
        <ele>29</ele>
        <time>2018-01-13T22:50:31Z</time>
      </trkpt>
      <trkpt lat="46.77295" lon="-1.67002">
        <ele>29</ele>
        <time>2018-01-13T22:51:31Z</time>
      </trkpt>
      <trkpt lat="46.77288" lon="-1.6701">
        <ele>29</ele>
        <time>2018-01-13T22:52:31Z</time>
      </trkpt>
      <trkpt lat="46.77279" lon="-1.6702">
        <ele>29</ele>
        <time>2018-01-13T22:53:31Z</time>
      </trkpt>
      <trkpt lat="46.7727" lon="-1.6703">
        <ele>29</ele>
        <time>2018-01-13T22:54:31Z</time>
      </trkpt>
      <trkpt lat="46.7726" lon="-1.67041">
        <ele>29</ele>
        <time>2018-01-13T22:55:31Z</time>
      </trkpt>
      <trkpt lat="46.77251" lon="-1.67051">
        <ele>29</ele>
        <time>2018-01-13T22:56:31Z</time>
      </trkpt>
      <trkpt lat="46.77245" lon="-1.67058">
        <ele>30</ele>
        <time>2018-01-13T22:57:31Z</time>
      </trkpt>
      <trkpt lat="46.77242" lon="-1.67061">
        <ele>30</ele>
        <time>2018-01-13T22:58:31Z</time>
      </trkpt>
      <trkpt lat="46.77236" lon="-1.67067">
        <ele>30</ele>
        <time>2018-01-13T22:59:31Z</time>
      </trkpt>
      <trkpt lat="46.77233" lon="-1.67071">
        <ele>30</ele>
        <time>2018-01-13T23:00:31Z</time>
      </trkpt>
      <trkpt lat="46.77216" lon="-1.6709">
        <ele>31</ele>
        <time>2018-01-13T23:01:31Z</time>
      </trkpt>
      <trkpt lat="46.77205" lon="-1.67102">
        <ele>32</ele>
        <time>2018-01-13T23:02:31Z</time>
      </trkpt>
      <trkpt lat="46.77201" lon="-1.67108">
        <ele>32</ele>
        <time>2018-01-13T23:03:31Z</time>
      </trkpt>
      <trkpt lat="46.77194" lon="-1.67122">
        <ele>32</ele>
        <time>2018-01-13T23:04:31Z</time>
      </trkpt>
      <trkpt lat="46.77189" lon="-1.6713">
        <ele>32</ele>
        <time>2018-01-13T23:05:31Z</time>
      </trkpt>
      <trkpt lat="46.77189" lon="-1.6713">
        <ele>32</ele>
        <time>2018-01-13T23:06:31Z</time>
      </trkpt>
      <trkpt lat="46.77189" lon="-1.67131">
        <ele>32</ele>
        <time>2018-01-13T23:07:31Z</time>
      </trkpt>
      <trkpt lat="46.7719" lon="-1.67132">
        <ele>32</ele>
        <time>2018-01-13T23:08:31Z</time>
      </trkpt>
      <trkpt lat="46.7719" lon="-1.67133">
        <ele>32</ele>
        <time>2018-01-13T23:09:31Z</time>
      </trkpt>
      <trkpt lat="46.7719" lon="-1.67135">
        <ele>32</ele>
        <time>2018-01-13T23:10:31Z</time>
      </trkpt>
      <trkpt lat="46.7719" lon="-1.67136">
        <ele>32</ele>
        <time>2018-01-13T23:11:31Z</time>
      </trkpt>
      <trkpt lat="46.7719" lon="-1.67137">
        <ele>32</ele>
        <time>2018-01-13T23:12:31Z</time>
      </trkpt>
      <trkpt lat="46.7719" lon="-1.67138">
        <ele>32</ele>
        <time>2018-01-13T23:13:31Z</time>
      </trkpt>
      <trkpt lat="46.77191" lon="-1.67139">
        <ele>32</ele>
        <time>2018-01-13T23:14:31Z</time>
      </trkpt>
      <trkpt lat="46.77191" lon="-1.67142">
        <ele>32</ele>
        <time>2018-01-13T23:15:31Z</time>
      </trkpt>
      <trkpt lat="46.7719" lon="-1.67145">
        <ele>32</ele>
        <time>2018-01-13T23:16:31Z</time>
      </trkpt>
      <trkpt lat="46.7719" lon="-1.67147">
        <ele>32</ele>
        <time>2018-01-13T23:17:31Z</time>
      </trkpt>
      <trkpt lat="46.7719" lon="-1.6715">
        <ele>32</ele>
        <time>2018-01-13T23:18:31Z</time>
      </trkpt>
      <trkpt lat="46.77189" lon="-1.67152">
        <ele>32</ele>
        <time>2018-01-13T23:19:31Z</time>
      </trkpt>
      <trkpt lat="46.77188" lon="-1.67155">
        <ele>32</ele>
        <time>2018-01-13T23:20:31Z</time>
      </trkpt>
      <trkpt lat="46.77187" lon="-1.67157">
        <ele>32</ele>
        <time>2018-01-13T23:21:31Z</time>
      </trkpt>
      <trkpt lat="46.77185" lon="-1.67161">
        <ele>32</ele>
        <time>2018-01-13T23:22:31Z</time>
      </trkpt>
      <trkpt lat="46.77184" lon="-1.67163">
        <ele>32</ele>
        <time>2018-01-13T23:23:31Z</time>
      </trkpt>
      <trkpt lat="46.77183" lon="-1.67165">
        <ele>32</ele>
        <time>2018-01-13T23:24:31Z</time>
      </trkpt>
      <trkpt lat="46.77181" lon="-1.67166">
        <ele>32</ele>
        <time>2018-01-13T23:25:31Z</time>
      </trkpt>
      <trkpt lat="46.77179" lon="-1.67167">
        <ele>32</ele>
        <time>2018-01-13T23:26:31Z</time>
      </trkpt>
      <trkpt lat="46.77178" lon="-1.67169">
        <ele>32</ele>
        <time>2018-01-13T23:27:31Z</time>
      </trkpt>
      <trkpt lat="46.77176" lon="-1.6717">
        <ele>32</ele>
        <time>2018-01-13T23:28:31Z</time>
      </trkpt>
      <trkpt lat="46.77174" lon="-1.6717">
        <ele>32</ele>
        <time>2018-01-13T23:29:31Z</time>
      </trkpt>
      <trkpt lat="46.77172" lon="-1.67171">
        <ele>32</ele>
        <time>2018-01-13T23:30:31Z</time>
      </trkpt>
      <trkpt lat="46.7717" lon="-1.67171">
        <ele>32</ele>
        <time>2018-01-13T23:31:31Z</time>
      </trkpt>
      <trkpt lat="46.77169" lon="-1.67171">
        <ele>32</ele>
        <time>2018-01-13T23:32:31Z</time>
      </trkpt>
      <trkpt lat="46.77167" lon="-1.6717">
        <ele>32</ele>
        <time>2018-01-13T23:33:31Z</time>
      </trkpt>
      <trkpt lat="46.77165" lon="-1.6717">
        <ele>32</ele>
        <time>2018-01-13T23:34:31Z</time>
      </trkpt>
      <trkpt lat="46.77163" lon="-1.67169">
        <ele>32</ele>
        <time>2018-01-13T23:35:31Z</time>
      </trkpt>
      <trkpt lat="46.77161" lon="-1.67168">
        <ele>32</ele>
        <time>2018-01-13T23:36:31Z</time>
      </trkpt>
      <trkpt lat="46.7716" lon="-1.67167">
        <ele>32</ele>
        <time>2018-01-13T23:37:31Z</time>
      </trkpt>
      <trkpt lat="46.77158" lon="-1.67165">
        <ele>32</ele>
        <time>2018-01-13T23:38:31Z</time>
      </trkpt>
      <trkpt lat="46.77156" lon="-1.67163">
        <ele>32</ele>
        <time>2018-01-13T23:39:31Z</time>
      </trkpt>
      <trkpt lat="46.77155" lon="-1.67161">
        <ele>32</ele>
        <time>2018-01-13T23:40:31Z</time>
      </trkpt>
      <trkpt lat="46.77154" lon="-1.67159">
        <ele>32</ele>
        <time>2018-01-13T23:41:31Z</time>
      </trkpt>
      <trkpt lat="46.77153" lon="-1.67157">
        <ele>32</ele>
        <time>2018-01-13T23:42:31Z</time>
      </trkpt>
      <trkpt lat="46.77152" lon="-1.67155">
        <ele>32</ele>
        <time>2018-01-13T23:43:31Z</time>
      </trkpt>
      <trkpt lat="46.77151" lon="-1.67152">
        <ele>32</ele>
        <time>2018-01-13T23:44:31Z</time>
      </trkpt>
      <trkpt lat="46.7715" lon="-1.67149">
        <ele>32</ele>
        <time>2018-01-13T23:45:31Z</time>
      </trkpt>
      <trkpt lat="46.7715" lon="-1.67147">
        <ele>32</ele>
        <time>2018-01-13T23:46:31Z</time>
      </trkpt>
      <trkpt lat="46.77149" lon="-1.67143">
        <ele>32</ele>
        <time>2018-01-13T23:47:31Z</time>
      </trkpt>
      <trkpt lat="46.77143" lon="-1.67138">
        <ele>32</ele>
        <time>2018-01-13T23:48:31Z</time>
      </trkpt>
      <trkpt lat="46.77135" lon="-1.67132">
        <ele>32</ele>
        <time>2018-01-13T23:49:31Z</time>
      </trkpt>
      <trkpt lat="46.77127" lon="-1.67126">
        <ele>32</ele>
        <time>2018-01-13T23:50:31Z</time>
      </trkpt>
      <trkpt lat="46.77121" lon="-1.67122">
        <ele>32</ele>
        <time>2018-01-13T23:51:31Z</time>
      </trkpt>
      <trkpt lat="46.77118" lon="-1.67121">
        <ele>32</ele>
        <time>2018-01-13T23:52:31Z</time>
      </trkpt>
      <trkpt lat="46.77074" lon="-1.67105">
        <ele>32</ele>
        <time>2018-01-13T23:53:31Z</time>
      </trkpt>
      <trkpt lat="46.77063" lon="-1.67101">
        <ele>31</ele>
        <time>2018-01-13T23:54:31Z</time>
      </trkpt>
      <trkpt lat="46.77051" lon="-1.67101">
        <ele>31</ele>
        <time>2018-01-13T23:55:31Z</time>
      </trkpt>
      <trkpt lat="46.77039" lon="-1.67097">
        <ele>30</ele>
        <time>2018-01-13T23:56:31Z</time>
      </trkpt>
      <trkpt lat="46.76986" lon="-1.67079">
        <ele>28</ele>
        <time>2018-01-13T23:57:31Z</time>
      </trkpt>
      <trkpt lat="46.76975" lon="-1.67075">
        <ele>28</ele>
        <time>2018-01-13T23:58:31Z</time>
      </trkpt>
      <trkpt lat="46.76966" lon="-1.67071">
        <ele>28</ele>
        <time>2018-01-13T23:59:31Z</time>
      </trkpt>
      <trkpt lat="46.76954" lon="-1.67066">
        <ele>27</ele>
        <time>2018-01-14T00:00:31Z</time>
      </trkpt>
      <trkpt lat="46.76944" lon="-1.67065">
        <ele>26</ele>
        <time>2018-01-14T00:01:31Z</time>
      </trkpt>
      <trkpt lat="46.76929" lon="-1.67063">
        <ele>26</ele>
        <time>2018-01-14T00:02:31Z</time>
      </trkpt>
      <trkpt lat="46.76921" lon="-1.67062">
        <ele>25</ele>
        <time>2018-01-14T00:03:31Z</time>
      </trkpt>
      <trkpt lat="46.76912" lon="-1.6706">
        <ele>25</ele>
        <time>2018-01-14T00:04:31Z</time>
      </trkpt>
      <trkpt lat="46.76893" lon="-1.67068">
        <ele>24</ele>
        <time>2018-01-14T00:05:31Z</time>
      </trkpt>
      <trkpt lat="46.76862" lon="-1.67082">
        <ele>22</ele>
        <time>2018-01-14T00:06:31Z</time>
      </trkpt>
      <trkpt lat="46.76838" lon="-1.67094">
        <ele>20</ele>
        <time>2018-01-14T00:07:31Z</time>
      </trkpt>
      <trkpt lat="46.76804" lon="-1.67108">
        <ele>19</ele>
        <time>2018-01-14T00:08:31Z</time>
      </trkpt>
      <trkpt lat="46.76774" lon="-1.67123">
        <ele>17</ele>
        <time>2018-01-14T00:09:31Z</time>
      </trkpt>
      <trkpt lat="46.76735" lon="-1.67141">
        <ele>15</ele>
        <time>2018-01-14T00:10:31Z</time>
      </trkpt>
      <trkpt lat="46.76729" lon="-1.67144">
        <ele>15</ele>
        <time>2018-01-14T00:11:31Z</time>
      </trkpt>
      <trkpt lat="46.76726" lon="-1.67146">
        <ele>15</ele>
        <time>2018-01-14T00:12:31Z</time>
      </trkpt>
      <trkpt lat="46.76718" lon="-1.67149">
        <ele>15</ele>
        <time>2018-01-14T00:13:31Z</time>
      </trkpt>
      <trkpt lat="46.7671" lon="-1.67153">
        <ele>15</ele>
        <time>2018-01-14T00:14:31Z</time>
      </trkpt>
      <trkpt lat="46.76666" lon="-1.67172">
        <ele>15</ele>
        <time>2018-01-14T00:15:31Z</time>
      </trkpt>
      <trkpt lat="46.76637" lon="-1.67186">
        <ele>14</ele>
        <time>2018-01-14T00:16:31Z</time>
      </trkpt>
      <trkpt lat="46.76608" lon="-1.672">
        <ele>14</ele>
        <time>2018-01-14T00:17:31Z</time>
      </trkpt>
      <trkpt lat="46.76568" lon="-1.67217">
        <ele>13</ele>
        <time>2018-01-14T00:18:31Z</time>
      </trkpt>
      <trkpt lat="46.76544" lon="-1.67228">
        <ele>13</ele>
        <time>2018-01-14T00:19:31Z</time>
      </trkpt>
      <trkpt lat="46.76538" lon="-1.67231">
        <ele>13</ele>
        <time>2018-01-14T00:20:31Z</time>
      </trkpt>
      <trkpt lat="46.76509" lon="-1.67245">
        <ele>13</ele>
        <time>2018-01-14T00:21:31Z</time>
      </trkpt>
      <trkpt lat="46.76481" lon="-1.67259">
        <ele>13</ele>
        <time>2018-01-14T00:22:31Z</time>
      </trkpt>
      <trkpt lat="46.76458" lon="-1.67273">
        <ele>13</ele>
        <time>2018-01-14T00:23:31Z</time>
      </trkpt>
      <trkpt lat="46.76441" lon="-1.67283">
        <ele>13</ele>
        <time>2018-01-14T00:24:31Z</time>
      </trkpt>
      <trkpt lat="46.76434" lon="-1.67288">
        <ele>13</ele>
        <time>2018-01-14T00:25:31Z</time>
      </trkpt>
      <trkpt lat="46.76423" lon="-1.67296">
        <ele>12</ele>
        <time>2018-01-14T00:26:31Z</time>
      </trkpt>
      <trkpt lat="46.76413" lon="-1.67305">
        <ele>12</ele>
        <time>2018-01-14T00:27:31Z</time>
      </trkpt>
      <trkpt lat="46.76391" lon="-1.67324">
        <ele>12</ele>
        <time>2018-01-14T00:28:31Z</time>
      </trkpt>
      <trkpt lat="46.76363" lon="-1.67353">
        <ele>13</ele>
        <time>2018-01-14T00:29:31Z</time>
      </trkpt>
      <trkpt lat="46.76353" lon="-1.67363">
        <ele>13</ele>
        <time>2018-01-14T00:30:31Z</time>
      </trkpt>
      <trkpt lat="46.76329" lon="-1.67392">
        <ele>13</ele>
        <time>2018-01-14T00:31:31Z</time>
      </trkpt>
      <trkpt lat="46.76317" lon="-1.67408">
        <ele>13</ele>
        <time>2018-01-14T00:32:31Z</time>
      </trkpt>
      <trkpt lat="46.763" lon="-1.6743">
        <ele>13</ele>
        <time>2018-01-14T00:33:31Z</time>
      </trkpt>
      <trkpt lat="46.76285" lon="-1.67453">
        <ele>14</ele>
        <time>2018-01-14T00:34:31Z</time>
      </trkpt>
      <trkpt lat="46.76256" lon="-1.67498">
        <ele>14</ele>
        <time>2018-01-14T00:35:31Z</time>
      </trkpt>
      <trkpt lat="46.76246" lon="-1.67516">
        <ele>14</ele>
        <time>2018-01-14T00:36:31Z</time>
      </trkpt>
      <trkpt lat="46.76234" lon="-1.67539">
        <ele>15</ele>
        <time>2018-01-14T00:37:31Z</time>
      </trkpt>
      <trkpt lat="46.76072" lon="-1.6789">
        <ele>18</ele>
        <time>2018-01-14T00:38:31Z</time>
      </trkpt>
      <trkpt lat="46.76069" lon="-1.67896">
        <ele>18</ele>
        <time>2018-01-14T00:39:31Z</time>
      </trkpt>
      <trkpt lat="46.76055" lon="-1.67926">
        <ele>19</ele>
        <time>2018-01-14T00:40:31Z</time>
      </trkpt>
      <trkpt lat="46.7604" lon="-1.67954">
        <ele>21</ele>
        <time>2018-01-14T00:41:31Z</time>
      </trkpt>
      <trkpt lat="46.76024" lon="-1.67986">
        <ele>23</ele>
        <time>2018-01-14T00:42:31Z</time>
      </trkpt>
      <trkpt lat="46.76009" lon="-1.68009">
        <ele>24</ele>
        <time>2018-01-14T00:43:31Z</time>
      </trkpt>
      <trkpt lat="46.75998" lon="-1.68023">
        <ele>24</ele>
        <time>2018-01-14T00:44:31Z</time>
      </trkpt>
      <trkpt lat="46.75983" lon="-1.68035">
        <ele>24</ele>
        <time>2018-01-14T00:45:31Z</time>
      </trkpt>
      <trkpt lat="46.75967" lon="-1.68047">
        <ele>24</ele>
        <time>2018-01-14T00:46:31Z</time>
      </trkpt>
      <trkpt lat="46.75959" lon="-1.68052">
        <ele>24</ele>
        <time>2018-01-14T00:47:31Z</time>
      </trkpt>
      <trkpt lat="46.75945" lon="-1.68062">
        <ele>24</ele>
        <time>2018-01-14T00:48:31Z</time>
      </trkpt>
      <trkpt lat="46.75931" lon="-1.68069">
        <ele>25</ele>
        <time>2018-01-14T00:49:31Z</time>
      </trkpt>
      <trkpt lat="46.75923" lon="-1.68075">
        <ele>25</ele>
        <time>2018-01-14T00:50:31Z</time>
      </trkpt>
      <trkpt lat="46.759" lon="-1.681">
        <ele>26</ele>
        <time>2018-01-14T00:51:31Z</time>
      </trkpt>
      <trkpt lat="46.75872" lon="-1.68133">
        <ele>27</ele>
        <time>2018-01-14T00:52:31Z</time>
      </trkpt>
      <trkpt lat="46.75854" lon="-1.68156">
        <ele>27</ele>
        <time>2018-01-14T00:53:31Z</time>
      </trkpt>
      <trkpt lat="46.75829" lon="-1.68185">
        <ele>27</ele>
        <time>2018-01-14T00:54:31Z</time>
      </trkpt>
      <trkpt lat="46.75799" lon="-1.68221">
        <ele>28</ele>
        <time>2018-01-14T00:55:31Z</time>
      </trkpt>
      <trkpt lat="46.75777" lon="-1.68247">
        <ele>28</ele>
        <time>2018-01-14T00:56:31Z</time>
      </trkpt>
      <trkpt lat="46.75772" lon="-1.68252">
        <ele>28</ele>
        <time>2018-01-14T00:57:31Z</time>
      </trkpt>
      <trkpt lat="46.75759" lon="-1.68268">
        <ele>29</ele>
        <time>2018-01-14T00:58:31Z</time>
      </trkpt>
      <trkpt lat="46.75741" lon="-1.68289">
        <ele>29</ele>
        <time>2018-01-14T00:59:31Z</time>
      </trkpt>
      <trkpt lat="46.75727" lon="-1.68306">
        <ele>30</ele>
        <time>2018-01-14T01:00:31Z</time>
      </trkpt>
      <trkpt lat="46.75714" lon="-1.68321">
        <ele>31</ele>
        <time>2018-01-14T01:01:31Z</time>
      </trkpt>
      <trkpt lat="46.75701" lon="-1.68335">
        <ele>31</ele>
        <time>2018-01-14T01:02:31Z</time>
      </trkpt>
      <trkpt lat="46.75696" lon="-1.68342">
        <ele>31</ele>
        <time>2018-01-14T01:03:31Z</time>
      </trkpt>
      <trkpt lat="46.75691" lon="-1.6835">
        <ele>32</ele>
        <time>2018-01-14T01:04:31Z</time>
      </trkpt>
      <trkpt lat="46.75681" lon="-1.68362">
        <ele>32</ele>
        <time>2018-01-14T01:05:31Z</time>
      </trkpt>
      <trkpt lat="46.75672" lon="-1.68375">
        <ele>32</ele>
        <time>2018-01-14T01:06:31Z</time>
      </trkpt>
      <trkpt lat="46.75664" lon="-1.68389">
        <ele>33</ele>
        <time>2018-01-14T01:07:31Z</time>
      </trkpt>
      <trkpt lat="46.75656" lon="-1.68404">
        <ele>33</ele>
        <time>2018-01-14T01:08:31Z</time>
      </trkpt>
      <trkpt lat="46.75645" lon="-1.6843">
        <ele>34</ele>
        <time>2018-01-14T01:09:31Z</time>
      </trkpt>
      <trkpt lat="46.75634" lon="-1.68458">
        <ele>35</ele>
        <time>2018-01-14T01:10:31Z</time>
      </trkpt>
      <trkpt lat="46.75625" lon="-1.68481">
        <ele>36</ele>
        <time>2018-01-14T01:11:31Z</time>
      </trkpt>
      <trkpt lat="46.7562" lon="-1.68495">
        <ele>37</ele>
        <time>2018-01-14T01:12:31Z</time>
      </trkpt>
      <trkpt lat="46.75615" lon="-1.68506">
        <ele>37</ele>
        <time>2018-01-14T01:13:31Z</time>
      </trkpt>
      <trkpt lat="46.75608" lon="-1.68518">
        <ele>38</ele>
        <time>2018-01-14T01:14:31Z</time>
      </trkpt>
      <trkpt lat="46.75602" lon="-1.68526">
        <ele>38</ele>
        <time>2018-01-14T01:15:31Z</time>
      </trkpt>
      <trkpt lat="46.75585" lon="-1.68541">
        <ele>39</ele>
        <time>2018-01-14T01:16:31Z</time>
      </trkpt>
      <trkpt lat="46.7558" lon="-1.68545">
        <ele>40</ele>
        <time>2018-01-14T01:17:31Z</time>
      </trkpt>
      <trkpt lat="46.7557" lon="-1.68552">
        <ele>40</ele>
        <time>2018-01-14T01:18:31Z</time>
      </trkpt>
      <trkpt lat="46.7556" lon="-1.68561">
        <ele>40</ele>
        <time>2018-01-14T01:19:31Z</time>
      </trkpt>
      <trkpt lat="46.75553" lon="-1.68568">
        <ele>41</ele>
        <time>2018-01-14T01:20:31Z</time>
      </trkpt>
      <trkpt lat="46.75547" lon="-1.68573">
        <ele>41</ele>
        <time>2018-01-14T01:21:31Z</time>
      </trkpt>
      <trkpt lat="46.75542" lon="-1.68576">
        <ele>41</ele>
        <time>2018-01-14T01:22:31Z</time>
      </trkpt>
      <trkpt lat="46.75538" lon="-1.68577">
        <ele>41</ele>
        <time>2018-01-14T01:23:31Z</time>
      </trkpt>
      <trkpt lat="46.75531" lon="-1.68577">
        <ele>41</ele>
        <time>2018-01-14T01:24:31Z</time>
      </trkpt>
      <trkpt lat="46.75518" lon="-1.68575">
        <ele>42</ele>
        <time>2018-01-14T01:25:31Z</time>
      </trkpt>
      <trkpt lat="46.75501" lon="-1.68572">
        <ele>42</ele>
        <time>2018-01-14T01:26:31Z</time>
      </trkpt>
      <trkpt lat="46.75482" lon="-1.6857">
        <ele>42</ele>
        <time>2018-01-14T01:27:31Z</time>
      </trkpt>
      <trkpt lat="46.75479" lon="-1.6857">
        <ele>41</ele>
        <time>2018-01-14T01:28:31Z</time>
      </trkpt>
      <trkpt lat="46.75472" lon="-1.6857">
        <ele>41</ele>
        <time>2018-01-14T01:29:31Z</time>
      </trkpt>
      <trkpt lat="46.75466" lon="-1.68569">
        <ele>41</ele>
        <time>2018-01-14T01:30:31Z</time>
      </trkpt>
      <trkpt lat="46.75462" lon="-1.68569">
        <ele>41</ele>
        <time>2018-01-14T01:31:31Z</time>
      </trkpt>
      <trkpt lat="46.75459" lon="-1.6857">
        <ele>41</ele>
        <time>2018-01-14T01:32:31Z</time>
      </trkpt>
      <trkpt lat="46.75454" lon="-1.68573">
        <ele>41</ele>
        <time>2018-01-14T01:33:31Z</time>
      </trkpt>
      <trkpt lat="46.75453" lon="-1.68573">
        <ele>41</ele>
        <time>2018-01-14T01:34:31Z</time>
      </trkpt>
      <trkpt lat="46.75441" lon="-1.6858">
        <ele>41</ele>
        <time>2018-01-14T01:35:31Z</time>
      </trkpt>
      <trkpt lat="46.75429" lon="-1.68591">
        <ele>40</ele>
        <time>2018-01-14T01:36:31Z</time>
      </trkpt>
      <trkpt lat="46.75419" lon="-1.68601">
        <ele>40</ele>
        <time>2018-01-14T01:37:31Z</time>
      </trkpt>
      <trkpt lat="46.75416" lon="-1.68608">
        <ele>41</ele>
        <time>2018-01-14T01:38:31Z</time>
      </trkpt>
      <trkpt lat="46.75411" lon="-1.6862">
        <ele>41</ele>
        <time>2018-01-14T01:39:31Z</time>
      </trkpt>
      <trkpt lat="46.75409" lon="-1.68625">
        <ele>41</ele>
        <time>2018-01-14T01:40:31Z</time>
      </trkpt>
      <trkpt lat="46.75407" lon="-1.68634">
        <ele>41</ele>
        <time>2018-01-14T01:41:31Z</time>
      </trkpt>
      <trkpt lat="46.75405" lon="-1.68643">
        <ele>41</ele>
        <time>2018-01-14T01:42:31Z</time>
      </trkpt>
      <trkpt lat="46.75404" lon="-1.68657">
        <ele>41</ele>
        <time>2018-01-14T01:43:31Z</time>
      </trkpt>
      <trkpt lat="46.75402" lon="-1.68688">
        <ele>42</ele>
        <time>2018-01-14T01:44:31Z</time>
      </trkpt>
      <trkpt lat="46.75399" lon="-1.68725">
        <ele>43</ele>
        <time>2018-01-14T01:45:31Z</time>
      </trkpt>
      <trkpt lat="46.75398" lon="-1.68739">
        <ele>43</ele>
        <time>2018-01-14T01:46:31Z</time>
      </trkpt>
      <trkpt lat="46.75397" lon="-1.68756">
        <ele>43</ele>
        <time>2018-01-14T01:47:31Z</time>
      </trkpt>
      <trkpt lat="46.75395" lon="-1.68778">
        <ele>44</ele>
        <time>2018-01-14T01:48:31Z</time>
      </trkpt>
      <trkpt lat="46.75394" lon="-1.68801">
        <ele>45</ele>
        <time>2018-01-14T01:49:31Z</time>
      </trkpt>
      <trkpt lat="46.75392" lon="-1.68828">
        <ele>46</ele>
        <time>2018-01-14T01:50:31Z</time>
      </trkpt>
      <trkpt lat="46.7539" lon="-1.68863">
        <ele>46</ele>
        <time>2018-01-14T01:51:31Z</time>
      </trkpt>
      <trkpt lat="46.75387" lon="-1.68906">
        <ele>46</ele>
        <time>2018-01-14T01:52:31Z</time>
      </trkpt>
      <trkpt lat="46.75385" lon="-1.68932">
        <ele>47</ele>
        <time>2018-01-14T01:53:31Z</time>
      </trkpt>
      <trkpt lat="46.75383" lon="-1.68952">
        <ele>47</ele>
        <time>2018-01-14T01:54:31Z</time>
      </trkpt>
      <trkpt lat="46.75384" lon="-1.68952">
        <ele>47</ele>
        <time>2018-01-14T01:55:31Z</time>
      </trkpt>
      <trkpt lat="46.75386" lon="-1.68953">
        <ele>47</ele>
        <time>2018-01-14T01:56:31Z</time>
      </trkpt>
      <trkpt lat="46.75386" lon="-1.68954">
        <ele>47</ele>
        <time>2018-01-14T01:57:31Z</time>
      </trkpt>
      <trkpt lat="46.75387" lon="-1.68956">
        <ele>47</ele>
        <time>2018-01-14T01:58:31Z</time>
      </trkpt>
      <trkpt lat="46.75387" lon="-1.68958">
        <ele>47</ele>
        <time>2018-01-14T01:59:31Z</time>
      </trkpt>
      <trkpt lat="46.75387" lon="-1.6896">
        <ele>47</ele>
        <time>2018-01-14T02:00:31Z</time>
      </trkpt>
      <trkpt lat="46.75386" lon="-1.68962">
        <ele>47</ele>
        <time>2018-01-14T02:01:31Z</time>
      </trkpt>
      <trkpt lat="46.75385" lon="-1.68964">
        <ele>47</ele>
        <time>2018-01-14T02:02:31Z</time>
      </trkpt>
      <trkpt lat="46.75383" lon="-1.68964">
        <ele>47</ele>
        <time>2018-01-14T02:03:31Z</time>
      </trkpt>
      <trkpt lat="46.75382" lon="-1.68964">
        <ele>47</ele>
        <time>2018-01-14T02:04:31Z</time>
      </trkpt>
      <trkpt lat="46.75382" lon="-1.6898">
        <ele>48</ele>
        <time>2018-01-14T02:05:31Z</time>
      </trkpt>
      <trkpt lat="46.75382" lon="-1.69009">
        <ele>48</ele>
        <time>2018-01-14T02:06:31Z</time>
      </trkpt>
      <trkpt lat="46.75385" lon="-1.6903">
        <ele>49</ele>
        <time>2018-01-14T02:07:31Z</time>
      </trkpt>
      <trkpt lat="46.75388" lon="-1.69045">
        <ele>49</ele>
        <time>2018-01-14T02:08:31Z</time>
      </trkpt>
      <trkpt lat="46.75394" lon="-1.69063">
        <ele>49</ele>
        <time>2018-01-14T02:09:31Z</time>
      </trkpt>
      <trkpt lat="46.75408" lon="-1.69097">
        <ele>50</ele>
        <time>2018-01-14T02:10:31Z</time>
      </trkpt>
      <trkpt lat="46.75421" lon="-1.69127">
        <ele>52</ele>
        <time>2018-01-14T02:11:31Z</time>
      </trkpt>
      <trkpt lat="46.75435" lon="-1.69163">
        <ele>53</ele>
        <time>2018-01-14T02:12:31Z</time>
      </trkpt>
      <trkpt lat="46.75439" lon="-1.69172">
        <ele>53</ele>
        <time>2018-01-14T02:13:31Z</time>
      </trkpt>
      <trkpt lat="46.75455" lon="-1.69214">
        <ele>54</ele>
        <time>2018-01-14T02:14:31Z</time>
      </trkpt>
      <trkpt lat="46.75472" lon="-1.69263">
        <ele>55</ele>
        <time>2018-01-14T02:15:31Z</time>
      </trkpt>
      <trkpt lat="46.75486" lon="-1.69306">
        <ele>56</ele>
        <time>2018-01-14T02:16:31Z</time>
      </trkpt>
      <trkpt lat="46.75502" lon="-1.69354">
        <ele>56</ele>
        <time>2018-01-14T02:17:31Z</time>
      </trkpt>
      <trkpt lat="46.7552" lon="-1.69411">
        <ele>55</ele>
        <time>2018-01-14T02:18:31Z</time>
      </trkpt>
      <trkpt lat="46.7553" lon="-1.6944">
        <ele>55</ele>
        <time>2018-01-14T02:19:31Z</time>
      </trkpt>
      <trkpt lat="46.75542" lon="-1.69475">
        <ele>56</ele>
        <time>2018-01-14T02:20:31Z</time>
      </trkpt>
      <trkpt lat="46.75552" lon="-1.69509">
        <ele>57</ele>
        <time>2018-01-14T02:21:31Z</time>
      </trkpt>
      <trkpt lat="46.75556" lon="-1.69526">
        <ele>57</ele>
        <time>2018-01-14T02:22:31Z</time>
      </trkpt>
      <trkpt lat="46.7556" lon="-1.69542">
        <ele>57</ele>
        <time>2018-01-14T02:23:31Z</time>
      </trkpt>
      <trkpt lat="46.75565" lon="-1.69562">
        <ele>58</ele>
        <time>2018-01-14T02:24:31Z</time>
      </trkpt>
      <trkpt lat="46.75568" lon="-1.69577">
        <ele>58</ele>
        <time>2018-01-14T02:25:31Z</time>
      </trkpt>
      <trkpt lat="46.75572" lon="-1.69595">
        <ele>58</ele>
        <time>2018-01-14T02:26:31Z</time>
      </trkpt>
      <trkpt lat="46.75575" lon="-1.69614">
        <ele>58</ele>
        <time>2018-01-14T02:27:31Z</time>
      </trkpt>
      <trkpt lat="46.75579" lon="-1.69642">
        <ele>58</ele>
        <time>2018-01-14T02:28:31Z</time>
      </trkpt>
      <trkpt lat="46.7559" lon="-1.69707">
        <ele>59</ele>
        <time>2018-01-14T02:29:31Z</time>
      </trkpt>
      <trkpt lat="46.75596" lon="-1.69742">
        <ele>59</ele>
        <time>2018-01-14T02:30:31Z</time>
      </trkpt>
      <trkpt lat="46.75596" lon="-1.69746">
        <ele>59</ele>
        <time>2018-01-14T02:31:31Z</time>
      </trkpt>
      <trkpt lat="46.75602" lon="-1.69782">
        <ele>59</ele>
        <time>2018-01-14T02:32:31Z</time>
      </trkpt>
      <trkpt lat="46.75607" lon="-1.69819">
        <ele>59</ele>
        <time>2018-01-14T02:33:31Z</time>
      </trkpt>
      <trkpt lat="46.75611" lon="-1.69841">
        <ele>59</ele>
        <time>2018-01-14T02:34:31Z</time>
      </trkpt>
      <trkpt lat="46.75618" lon="-1.69878">
        <ele>60</ele>
        <time>2018-01-14T02:35:31Z</time>
      </trkpt>
      <trkpt lat="46.75622" lon="-1.69903">
        <ele>60</ele>
        <time>2018-01-14T02:36:31Z</time>
      </trkpt>
      <trkpt lat="46.75627" lon="-1.6992">
        <ele>61</ele>
        <time>2018-01-14T02:37:31Z</time>
      </trkpt>
      <trkpt lat="46.75632" lon="-1.69934">
        <ele>61</ele>
        <time>2018-01-14T02:38:31Z</time>
      </trkpt>
      <trkpt lat="46.75641" lon="-1.69956">
        <ele>61</ele>
        <time>2018-01-14T02:39:31Z</time>
      </trkpt>
      <trkpt lat="46.75645" lon="-1.69967">
        <ele>61</ele>
        <time>2018-01-14T02:40:31Z</time>
      </trkpt>
      <trkpt lat="46.75648" lon="-1.69979">
        <ele>61</ele>
        <time>2018-01-14T02:41:31Z</time>
      </trkpt>
      <trkpt lat="46.75651" lon="-1.69993">
        <ele>62</ele>
        <time>2018-01-14T02:42:31Z</time>
      </trkpt>
      <trkpt lat="46.75653" lon="-1.70008">
        <ele>62</ele>
        <time>2018-01-14T02:43:31Z</time>
      </trkpt>
      <trkpt lat="46.75654" lon="-1.70015">
        <ele>62</ele>
        <time>2018-01-14T02:44:31Z</time>
      </trkpt>
      <trkpt lat="46.75656" lon="-1.70046">
        <ele>61</ele>
        <time>2018-01-14T02:45:31Z</time>
      </trkpt>
      <trkpt lat="46.7566" lon="-1.70095">
        <ele>61</ele>
        <time>2018-01-14T02:46:31Z</time>
      </trkpt>
      <trkpt lat="46.75666" lon="-1.70153">
        <ele>62</ele>
        <time>2018-01-14T02:47:31Z</time>
      </trkpt>
      <trkpt lat="46.7567" lon="-1.70205">
        <ele>61</ele>
        <time>2018-01-14T02:48:31Z</time>
      </trkpt>
      <trkpt lat="46.75671" lon="-1.70227">
        <ele>61</ele>
        <time>2018-01-14T02:49:31Z</time>
      </trkpt>
      <trkpt lat="46.75672" lon="-1.70246">
        <ele>61</ele>
        <time>2018-01-14T02:50:31Z</time>
      </trkpt>
      <trkpt lat="46.75673" lon="-1.70266">
        <ele>61</ele>
        <time>2018-01-14T02:51:31Z</time>
      </trkpt>
      <trkpt lat="46.75673" lon="-1.70286">
        <ele>61</ele>
        <time>2018-01-14T02:52:31Z</time>
      </trkpt>
      <trkpt lat="46.75673" lon="-1.70304">
        <ele>61</ele>
        <time>2018-01-14T02:53:31Z</time>
      </trkpt>
      <trkpt lat="46.75672" lon="-1.70323">
        <ele>61</ele>
        <time>2018-01-14T02:54:31Z</time>
      </trkpt>
      <trkpt lat="46.7567" lon="-1.70352">
        <ele>61</ele>
        <time>2018-01-14T02:55:31Z</time>
      </trkpt>
      <trkpt lat="46.75666" lon="-1.70422">
        <ele>61</ele>
        <time>2018-01-14T02:56:31Z</time>
      </trkpt>
      <trkpt lat="46.75662" lon="-1.70498">
        <ele>60</ele>
        <time>2018-01-14T02:57:31Z</time>
      </trkpt>
      <trkpt lat="46.7566" lon="-1.70572">
        <ele>59</ele>
        <time>2018-01-14T02:58:31Z</time>
      </trkpt>
      <trkpt lat="46.75656" lon="-1.70671">
        <ele>59</ele>
        <time>2018-01-14T02:59:31Z</time>
      </trkpt>
      <trkpt lat="46.75655" lon="-1.70726">
        <ele>60</ele>
        <time>2018-01-14T03:00:31Z</time>
      </trkpt>
      <trkpt lat="46.75654" lon="-1.70751">
        <ele>61</ele>
        <time>2018-01-14T03:01:31Z</time>
      </trkpt>
      <trkpt lat="46.75654" lon="-1.70772">
        <ele>61</ele>
        <time>2018-01-14T03:02:31Z</time>
      </trkpt>
      <trkpt lat="46.75654" lon="-1.7079">
        <ele>61</ele>
        <time>2018-01-14T03:03:31Z</time>
      </trkpt>
      <trkpt lat="46.75655" lon="-1.70806">
        <ele>62</ele>
        <time>2018-01-14T03:04:31Z</time>
      </trkpt>
      <trkpt lat="46.75655" lon="-1.70823">
        <ele>62</ele>
        <time>2018-01-14T03:05:31Z</time>
      </trkpt>
      <trkpt lat="46.75657" lon="-1.70877">
        <ele>61</ele>
        <time>2018-01-14T03:06:31Z</time>
      </trkpt>
      <trkpt lat="46.7566" lon="-1.70953">
        <ele>60</ele>
        <time>2018-01-14T03:07:31Z</time>
      </trkpt>
      <trkpt lat="46.7566" lon="-1.7096">
        <ele>60</ele>
        <time>2018-01-14T03:08:31Z</time>
      </trkpt>
      <trkpt lat="46.75661" lon="-1.71002">
        <ele>59</ele>
        <time>2018-01-14T03:09:31Z</time>
      </trkpt>
      <trkpt lat="46.75662" lon="-1.71047">
        <ele>59</ele>
        <time>2018-01-14T03:10:31Z</time>
      </trkpt>
      <trkpt lat="46.75662" lon="-1.71091">
        <ele>59</ele>
        <time>2018-01-14T03:11:31Z</time>
      </trkpt>
      <trkpt lat="46.75662" lon="-1.71111">
        <ele>59</ele>
        <time>2018-01-14T03:12:31Z</time>
      </trkpt>
      <trkpt lat="46.75662" lon="-1.71132">
        <ele>60</ele>
        <time>2018-01-14T03:13:31Z</time>
      </trkpt>
      <trkpt lat="46.75662" lon="-1.71157">
        <ele>60</ele>
        <time>2018-01-14T03:14:31Z</time>
      </trkpt>
      <trkpt lat="46.75661" lon="-1.7118">
        <ele>60</ele>
        <time>2018-01-14T03:15:31Z</time>
      </trkpt>
      <trkpt lat="46.7566" lon="-1.71199">
        <ele>60</ele>
        <time>2018-01-14T03:16:31Z</time>
      </trkpt>
      <trkpt lat="46.7566" lon="-1.71217">
        <ele>60</ele>
        <time>2018-01-14T03:17:31Z</time>
      </trkpt>
      <trkpt lat="46.75659" lon="-1.71235">
        <ele>60</ele>
        <time>2018-01-14T03:18:31Z</time>
      </trkpt>
      <trkpt lat="46.75659" lon="-1.7126">
        <ele>60</ele>
        <time>2018-01-14T03:19:31Z</time>
      </trkpt>
      <trkpt lat="46.75658" lon="-1.71296">
        <ele>60</ele>
        <time>2018-01-14T03:20:31Z</time>
      </trkpt>
      <trkpt lat="46.75656" lon="-1.71346">
        <ele>60</ele>
        <time>2018-01-14T03:21:31Z</time>
      </trkpt>
      <trkpt lat="46.75649" lon="-1.71449">
        <ele>59</ele>
        <time>2018-01-14T03:22:31Z</time>
      </trkpt>
      <trkpt lat="46.75645" lon="-1.71503">
        <ele>58</ele>
        <time>2018-01-14T03:23:31Z</time>
      </trkpt>
      <trkpt lat="46.75645" lon="-1.71506">
        <ele>58</ele>
        <time>2018-01-14T03:24:31Z</time>
      </trkpt>
      <trkpt lat="46.75639" lon="-1.71584">
        <ele>57</ele>
        <time>2018-01-14T03:25:31Z</time>
      </trkpt>
      <trkpt lat="46.75637" lon="-1.71635">
        <ele>57</ele>
        <time>2018-01-14T03:26:31Z</time>
      </trkpt>
      <trkpt lat="46.75635" lon="-1.71651">
        <ele>57</ele>
        <time>2018-01-14T03:27:31Z</time>
      </trkpt>
      <trkpt lat="46.75634" lon="-1.7168">
        <ele>57</ele>
        <time>2018-01-14T03:28:31Z</time>
      </trkpt>
      <trkpt lat="46.75633" lon="-1.71695">
        <ele>57</ele>
        <time>2018-01-14T03:29:31Z</time>
      </trkpt>
      <trkpt lat="46.75633" lon="-1.71706">
        <ele>57</ele>
        <time>2018-01-14T03:30:31Z</time>
      </trkpt>
      <trkpt lat="46.75632" lon="-1.71721">
        <ele>57</ele>
        <time>2018-01-14T03:31:31Z</time>
      </trkpt>
      <trkpt lat="46.75632" lon="-1.71736">
        <ele>57</ele>
        <time>2018-01-14T03:32:31Z</time>
      </trkpt>
      <trkpt lat="46.75632" lon="-1.71751">
        <ele>57</ele>
        <time>2018-01-14T03:33:31Z</time>
      </trkpt>
      <trkpt lat="46.75631" lon="-1.71767">
        <ele>57</ele>
        <time>2018-01-14T03:34:31Z</time>
      </trkpt>
      <trkpt lat="46.75631" lon="-1.7178">
        <ele>57</ele>
        <time>2018-01-14T03:35:31Z</time>
      </trkpt>
      <trkpt lat="46.75631" lon="-1.71789">
        <ele>57</ele>
        <time>2018-01-14T03:36:31Z</time>
      </trkpt>
      <trkpt lat="46.75631" lon="-1.71802">
        <ele>56</ele>
        <time>2018-01-14T03:37:31Z</time>
      </trkpt>
      <trkpt lat="46.75631" lon="-1.71831">
        <ele>56</ele>
        <time>2018-01-14T03:38:31Z</time>
      </trkpt>
      <trkpt lat="46.75632" lon="-1.71858">
        <ele>56</ele>
        <time>2018-01-14T03:39:31Z</time>
      </trkpt>
      <trkpt lat="46.75632" lon="-1.71874">
        <ele>56</ele>
        <time>2018-01-14T03:40:31Z</time>
      </trkpt>
      <trkpt lat="46.75633" lon="-1.71883">
        <ele>56</ele>
        <time>2018-01-14T03:41:31Z</time>
      </trkpt>
      <trkpt lat="46.75633" lon="-1.71906">
        <ele>56</ele>
        <time>2018-01-14T03:42:31Z</time>
      </trkpt>
      <trkpt lat="46.75646" lon="-1.72036">
        <ele>57</ele>
        <time>2018-01-14T03:43:31Z</time>
      </trkpt>
      <trkpt lat="46.75648" lon="-1.72039">
        <ele>57</ele>
        <time>2018-01-14T03:44:31Z</time>
      </trkpt>
      <trkpt lat="46.75656" lon="-1.72125">
        <ele>58</ele>
        <time>2018-01-14T03:45:31Z</time>
      </trkpt>
      <trkpt lat="46.7566" lon="-1.72169">
        <ele>58</ele>
        <time>2018-01-14T03:46:31Z</time>
      </trkpt>
      <trkpt lat="46.75665" lon="-1.72246">
        <ele>56</ele>
        <time>2018-01-14T03:47:31Z</time>
      </trkpt>
      <trkpt lat="46.75667" lon="-1.7227">
        <ele>56</ele>
        <time>2018-01-14T03:48:31Z</time>
      </trkpt>
      <trkpt lat="46.75667" lon="-1.72335">
        <ele>56</ele>
        <time>2018-01-14T03:49:31Z</time>
      </trkpt>
      <trkpt lat="46.75665" lon="-1.72417">
        <ele>56</ele>
        <time>2018-01-14T03:50:31Z</time>
      </trkpt>
      <trkpt lat="46.75662" lon="-1.72434">
        <ele>56</ele>
        <time>2018-01-14T03:51:31Z</time>
      </trkpt>
      <trkpt lat="46.75657" lon="-1.72476">
        <ele>56</ele>
        <time>2018-01-14T03:52:31Z</time>
      </trkpt>
      <trkpt lat="46.75656" lon="-1.72493">
        <ele>56</ele>
        <time>2018-01-14T03:53:31Z</time>
      </trkpt>
      <trkpt lat="46.7565" lon="-1.72542">
        <ele>56</ele>
        <time>2018-01-14T03:54:31Z</time>
      </trkpt>
      <trkpt lat="46.75643" lon="-1.72615">
        <ele>56</ele>
        <time>2018-01-14T03:55:31Z</time>
      </trkpt>
      <trkpt lat="46.75638" lon="-1.72663">
        <ele>57</ele>
        <time>2018-01-14T03:56:31Z</time>
      </trkpt>
      <trkpt lat="46.75633" lon="-1.72721">
        <ele>58</ele>
        <time>2018-01-14T03:57:31Z</time>
      </trkpt>
      <trkpt lat="46.75628" lon="-1.72787">
        <ele>57</ele>
        <time>2018-01-14T03:58:31Z</time>
      </trkpt>
      <trkpt lat="46.75627" lon="-1.72797">
        <ele>57</ele>
        <time>2018-01-14T03:59:31Z</time>
      </trkpt>
      <trkpt lat="46.75626" lon="-1.72809">
        <ele>57</ele>
        <time>2018-01-14T04:00:31Z</time>
      </trkpt>
      <trkpt lat="46.75626" lon="-1.7282">
        <ele>57</ele>
        <time>2018-01-14T04:01:31Z</time>
      </trkpt>
      <trkpt lat="46.75625" lon="-1.72834">
        <ele>56</ele>
        <time>2018-01-14T04:02:31Z</time>
      </trkpt>
      <trkpt lat="46.75624" lon="-1.72845">
        <ele>56</ele>
        <time>2018-01-14T04:03:31Z</time>
      </trkpt>
      <trkpt lat="46.75624" lon="-1.7287">
        <ele>56</ele>
        <time>2018-01-14T04:04:31Z</time>
      </trkpt>
      <trkpt lat="46.75623" lon="-1.72887">
        <ele>55</ele>
        <time>2018-01-14T04:05:31Z</time>
      </trkpt>
      <trkpt lat="46.75623" lon="-1.72916">
        <ele>55</ele>
        <time>2018-01-14T04:06:31Z</time>
      </trkpt>
      <trkpt lat="46.75623" lon="-1.72992">
        <ele>55</ele>
        <time>2018-01-14T04:07:31Z</time>
      </trkpt>
      <trkpt lat="46.75623" lon="-1.73038">
        <ele>54</ele>
        <time>2018-01-14T04:08:31Z</time>
      </trkpt>
      <trkpt lat="46.75625" lon="-1.73049">
        <ele>54</ele>
        <time>2018-01-14T04:09:31Z</time>
      </trkpt>
      <trkpt lat="46.75625" lon="-1.73065">
        <ele>54</ele>
        <time>2018-01-14T04:10:31Z</time>
      </trkpt>
      <trkpt lat="46.75626" lon="-1.73066">
        <ele>54</ele>
        <time>2018-01-14T04:11:31Z</time>
      </trkpt>
      <trkpt lat="46.75627" lon="-1.73066">
        <ele>54</ele>
        <time>2018-01-14T04:12:31Z</time>
      </trkpt>
      <trkpt lat="46.75628" lon="-1.73067">
        <ele>54</ele>
        <time>2018-01-14T04:13:31Z</time>
      </trkpt>
      <trkpt lat="46.75629" lon="-1.73068">
        <ele>54</ele>
        <time>2018-01-14T04:14:31Z</time>
      </trkpt>
      <trkpt lat="46.75629" lon="-1.73069">
        <ele>54</ele>
        <time>2018-01-14T04:15:31Z</time>
      </trkpt>
      <trkpt lat="46.7563" lon="-1.7307">
        <ele>54</ele>
        <time>2018-01-14T04:16:31Z</time>
      </trkpt>
      <trkpt lat="46.7563" lon="-1.73071">
        <ele>54</ele>
        <time>2018-01-14T04:17:31Z</time>
      </trkpt>
      <trkpt lat="46.75631" lon="-1.73071">
        <ele>54</ele>
        <time>2018-01-14T04:18:31Z</time>
      </trkpt>
      <trkpt lat="46.75631" lon="-1.73072">
        <ele>54</ele>
        <time>2018-01-14T04:19:31Z</time>
      </trkpt>
      <trkpt lat="46.75631" lon="-1.73073">
        <ele>54</ele>
        <time>2018-01-14T04:20:31Z</time>
      </trkpt>
      <trkpt lat="46.75631" lon="-1.73074">
        <ele>54</ele>
        <time>2018-01-14T04:21:31Z</time>
      </trkpt>
      <trkpt lat="46.75631" lon="-1.73075">
        <ele>54</ele>
        <time>2018-01-14T04:22:31Z</time>
      </trkpt>
      <trkpt lat="46.75631" lon="-1.73076">
        <ele>54</ele>
        <time>2018-01-14T04:23:31Z</time>
      </trkpt>
      <trkpt lat="46.75631" lon="-1.73077">
        <ele>54</ele>
        <time>2018-01-14T04:24:31Z</time>
      </trkpt>
      <trkpt lat="46.75631" lon="-1.73078">
        <ele>54</ele>
        <time>2018-01-14T04:25:31Z</time>
      </trkpt>
      <trkpt lat="46.75631" lon="-1.73079">
        <ele>54</ele>
        <time>2018-01-14T04:26:31Z</time>
      </trkpt>
      <trkpt lat="46.75631" lon="-1.7308">
        <ele>54</ele>
        <time>2018-01-14T04:27:31Z</time>
      </trkpt>
      <trkpt lat="46.75631" lon="-1.73081">
        <ele>54</ele>
        <time>2018-01-14T04:28:31Z</time>
      </trkpt>
      <trkpt lat="46.75631" lon="-1.73082">
        <ele>54</ele>
        <time>2018-01-14T04:29:31Z</time>
      </trkpt>
      <trkpt lat="46.7563" lon="-1.73082">
        <ele>54</ele>
        <time>2018-01-14T04:30:31Z</time>
      </trkpt>
      <trkpt lat="46.7563" lon="-1.73083">
        <ele>54</ele>
        <time>2018-01-14T04:31:31Z</time>
      </trkpt>
      <trkpt lat="46.7563" lon="-1.73084">
        <ele>54</ele>
        <time>2018-01-14T04:32:31Z</time>
      </trkpt>
      <trkpt lat="46.75629" lon="-1.73085">
        <ele>54</ele>
        <time>2018-01-14T04:33:31Z</time>
      </trkpt>
      <trkpt lat="46.75629" lon="-1.73086">
        <ele>54</ele>
        <time>2018-01-14T04:34:31Z</time>
      </trkpt>
      <trkpt lat="46.75628" lon="-1.73086">
        <ele>54</ele>
        <time>2018-01-14T04:35:31Z</time>
      </trkpt>
      <trkpt lat="46.75628" lon="-1.73087">
        <ele>54</ele>
        <time>2018-01-14T04:36:31Z</time>
      </trkpt>
      <trkpt lat="46.75627" lon="-1.73088">
        <ele>54</ele>
        <time>2018-01-14T04:37:31Z</time>
      </trkpt>
      <trkpt lat="46.75626" lon="-1.73088">
        <ele>54</ele>
        <time>2018-01-14T04:38:31Z</time>
      </trkpt>
      <trkpt lat="46.75626" lon="-1.73089">
        <ele>54</ele>
        <time>2018-01-14T04:39:31Z</time>
      </trkpt>
      <trkpt lat="46.75625" lon="-1.73089">
        <ele>54</ele>
        <time>2018-01-14T04:40:31Z</time>
      </trkpt>
      <trkpt lat="46.75621" lon="-1.7312">
        <ele>54</ele>
        <time>2018-01-14T04:41:31Z</time>
      </trkpt>
      <trkpt lat="46.75617" lon="-1.73128">
        <ele>54</ele>
        <time>2018-01-14T04:42:31Z</time>
      </trkpt>
      <trkpt lat="46.75612" lon="-1.73156">
        <ele>54</ele>
        <time>2018-01-14T04:43:31Z</time>
      </trkpt>
      <trkpt lat="46.75608" lon="-1.73181">
        <ele>54</ele>
        <time>2018-01-14T04:44:31Z</time>
      </trkpt>
      <trkpt lat="46.75598" lon="-1.73226">
        <ele>55</ele>
        <time>2018-01-14T04:45:31Z</time>
      </trkpt>
      <trkpt lat="46.75589" lon="-1.73274">
        <ele>56</ele>
        <time>2018-01-14T04:46:31Z</time>
      </trkpt>
      <trkpt lat="46.75575" lon="-1.73341">
        <ele>57</ele>
        <time>2018-01-14T04:47:31Z</time>
      </trkpt>
      <trkpt lat="46.75567" lon="-1.73377">
        <ele>56</ele>
        <time>2018-01-14T04:48:31Z</time>
      </trkpt>
      <trkpt lat="46.75564" lon="-1.7339">
        <ele>56</ele>
        <time>2018-01-14T04:49:31Z</time>
      </trkpt>
      <trkpt lat="46.7556" lon="-1.73403">
        <ele>56</ele>
        <time>2018-01-14T04:50:31Z</time>
      </trkpt>
      <trkpt lat="46.75557" lon="-1.73412">
        <ele>56</ele>
        <time>2018-01-14T04:51:31Z</time>
      </trkpt>
      <trkpt lat="46.75555" lon="-1.73418">
        <ele>56</ele>
        <time>2018-01-14T04:52:31Z</time>
      </trkpt>
      <trkpt lat="46.75553" lon="-1.73423">
        <ele>56</ele>
        <time>2018-01-14T04:53:31Z</time>
      </trkpt>
      <trkpt lat="46.75544" lon="-1.73439">
        <ele>56</ele>
        <time>2018-01-14T04:54:31Z</time>
      </trkpt>
      <trkpt lat="46.75541" lon="-1.73445">
        <ele>56</ele>
        <time>2018-01-14T04:55:31Z</time>
      </trkpt>
      <trkpt lat="46.75538" lon="-1.73448">
        <ele>56</ele>
        <time>2018-01-14T04:56:31Z</time>
      </trkpt>
      <trkpt lat="46.75534" lon="-1.73455">
        <ele>56</ele>
        <time>2018-01-14T04:57:31Z</time>
      </trkpt>
      <trkpt lat="46.75529" lon="-1.73461">
        <ele>56</ele>
        <time>2018-01-14T04:58:31Z</time>
      </trkpt>
      <trkpt lat="46.75524" lon="-1.73468">
        <ele>56</ele>
        <time>2018-01-14T04:59:31Z</time>
      </trkpt>
      <trkpt lat="46.75518" lon="-1.73476">
        <ele>56</ele>
        <time>2018-01-14T05:00:31Z</time>
      </trkpt>
      <trkpt lat="46.75511" lon="-1.73485">
        <ele>56</ele>
        <time>2018-01-14T05:01:31Z</time>
      </trkpt>
      <trkpt lat="46.75488" lon="-1.73511">
        <ele>56</ele>
        <time>2018-01-14T05:02:31Z</time>
      </trkpt>
      <trkpt lat="46.75452" lon="-1.7355">
        <ele>54</ele>
        <time>2018-01-14T05:03:31Z</time>
      </trkpt>
      <trkpt lat="46.75442" lon="-1.73561">
        <ele>54</ele>
        <time>2018-01-14T05:04:31Z</time>
      </trkpt>
      <trkpt lat="46.7541" lon="-1.73592">
        <ele>53</ele>
        <time>2018-01-14T05:05:31Z</time>
      </trkpt>
      <trkpt lat="46.7539" lon="-1.73612">
        <ele>53</ele>
        <time>2018-01-14T05:06:31Z</time>
      </trkpt>
      <trkpt lat="46.75344" lon="-1.73658">
        <ele>52</ele>
        <time>2018-01-14T05:07:31Z</time>
      </trkpt>
      <trkpt lat="46.75329" lon="-1.73675">
        <ele>52</ele>
        <time>2018-01-14T05:08:31Z</time>
      </trkpt>
      <trkpt lat="46.75319" lon="-1.73686">
        <ele>52</ele>
        <time>2018-01-14T05:09:31Z</time>
      </trkpt>
      <trkpt lat="46.75309" lon="-1.73698">
        <ele>51</ele>
        <time>2018-01-14T05:10:31Z</time>
      </trkpt>
      <trkpt lat="46.75305" lon="-1.73703">
        <ele>51</ele>
        <time>2018-01-14T05:11:31Z</time>
      </trkpt>
      <trkpt lat="46.75301" lon="-1.73709">
        <ele>51</ele>
        <time>2018-01-14T05:12:31Z</time>
      </trkpt>
      <trkpt lat="46.75292" lon="-1.73721">
        <ele>51</ele>
        <time>2018-01-14T05:13:31Z</time>
      </trkpt>
      <trkpt lat="46.75285" lon="-1.73733">
        <ele>51</ele>
        <time>2018-01-14T05:14:31Z</time>
      </trkpt>
      <trkpt lat="46.75276" lon="-1.73746">
        <ele>50</ele>
        <time>2018-01-14T05:15:31Z</time>
      </trkpt>
      <trkpt lat="46.75271" lon="-1.73754">
        <ele>50</ele>
        <time>2018-01-14T05:16:31Z</time>
      </trkpt>
      <trkpt lat="46.75268" lon="-1.73759">
        <ele>50</ele>
        <time>2018-01-14T05:17:31Z</time>
      </trkpt>
      <trkpt lat="46.75259" lon="-1.73776">
        <ele>50</ele>
        <time>2018-01-14T05:18:31Z</time>
      </trkpt>
      <trkpt lat="46.75247" lon="-1.738">
        <ele>49</ele>
        <time>2018-01-14T05:19:31Z</time>
      </trkpt>
      <trkpt lat="46.75243" lon="-1.7381">
        <ele>48</ele>
        <time>2018-01-14T05:20:31Z</time>
      </trkpt>
      <trkpt lat="46.75226" lon="-1.73846">
        <ele>47</ele>
        <time>2018-01-14T05:21:31Z</time>
      </trkpt>
      <trkpt lat="46.75216" lon="-1.73867">
        <ele>47</ele>
        <time>2018-01-14T05:22:31Z</time>
      </trkpt>
      <trkpt lat="46.75211" lon="-1.73882">
        <ele>46</ele>
        <time>2018-01-14T05:23:31Z</time>
      </trkpt>
      <trkpt lat="46.75211" lon="-1.73882">
        <ele>46</ele>
        <time>2018-01-14T05:24:31Z</time>
      </trkpt>
      <trkpt lat="46.75201" lon="-1.73873">
        <ele>46</ele>
        <time>2018-01-14T05:25:31Z</time>
      </trkpt>
      <trkpt lat="46.75183" lon="-1.73862">
        <ele>46</ele>
        <time>2018-01-14T05:26:31Z</time>
      </trkpt>
      <trkpt lat="46.75169" lon="-1.73854">
        <ele>46</ele>
        <time>2018-01-14T05:27:31Z</time>
      </trkpt>
      <trkpt lat="46.75153" lon="-1.73848">
        <ele>45</ele>
        <time>2018-01-14T05:28:31Z</time>
      </trkpt>
      <trkpt lat="46.75133" lon="-1.73845">
        <ele>44</ele>
        <time>2018-01-14T05:29:31Z</time>
      </trkpt>
      <trkpt lat="46.75118" lon="-1.73846">
        <ele>43</ele>
        <time>2018-01-14T05:30:31Z</time>
      </trkpt>
      <trkpt lat="46.75041" lon="-1.73853">
        <ele>40</ele>
        <time>2018-01-14T05:31:31Z</time>
      </trkpt>
      <trkpt lat="46.75035" lon="-1.73853">
        <ele>39</ele>
        <time>2018-01-14T05:32:31Z</time>
      </trkpt>
      <trkpt lat="46.75026" lon="-1.73853">
        <ele>39</ele>
        <time>2018-01-14T05:33:31Z</time>
      </trkpt>
      <trkpt lat="46.75012" lon="-1.73852">
        <ele>38</ele>
        <time>2018-01-14T05:34:31Z</time>
      </trkpt>
      <trkpt lat="46.74991" lon="-1.73849">
        <ele>38</ele>
        <time>2018-01-14T05:35:31Z</time>
      </trkpt>
      <trkpt lat="46.74908" lon="-1.73846">
        <ele>33</ele>
        <time>2018-01-14T05:36:31Z</time>
      </trkpt>
      <trkpt lat="46.74883" lon="-1.73854">
        <ele>32</ele>
        <time>2018-01-14T05:37:31Z</time>
      </trkpt>
      <trkpt lat="46.74879" lon="-1.73861">
        <ele>31</ele>
        <time>2018-01-14T05:38:31Z</time>
      </trkpt>
      <trkpt lat="46.74875" lon="-1.73868">
        <ele>31</ele>
        <time>2018-01-14T05:39:31Z</time>
      </trkpt>
      <trkpt lat="46.74871" lon="-1.73872">
        <ele>30</ele>
        <time>2018-01-14T05:40:31Z</time>
      </trkpt>
      <trkpt lat="46.74871" lon="-1.73872">
        <ele>30</ele>
        <time>2018-01-14T05:41:31Z</time>
      </trkpt>
      <trkpt lat="46.74871" lon="-1.73873">
        <ele>30</ele>
        <time>2018-01-14T05:42:31Z</time>
      </trkpt>
      <trkpt lat="46.74871" lon="-1.73874">
        <ele>30</ele>
        <time>2018-01-14T05:43:31Z</time>
      </trkpt>
      <trkpt lat="46.74871" lon="-1.73875">
        <ele>30</ele>
        <time>2018-01-14T05:44:31Z</time>
      </trkpt>
      <trkpt lat="46.74871" lon="-1.73876">
        <ele>30</ele>
        <time>2018-01-14T05:45:31Z</time>
      </trkpt>
      <trkpt lat="46.7487" lon="-1.73877">
        <ele>30</ele>
        <time>2018-01-14T05:46:31Z</time>
      </trkpt>
      <trkpt lat="46.7487" lon="-1.73878">
        <ele>30</ele>
        <time>2018-01-14T05:47:31Z</time>
      </trkpt>
      <trkpt lat="46.7487" lon="-1.73879">
        <ele>30</ele>
        <time>2018-01-14T05:48:31Z</time>
      </trkpt>
      <trkpt lat="46.74869" lon="-1.7388">
        <ele>30</ele>
        <time>2018-01-14T05:49:31Z</time>
      </trkpt>
      <trkpt lat="46.74869" lon="-1.73881">
        <ele>30</ele>
        <time>2018-01-14T05:50:31Z</time>
      </trkpt>
      <trkpt lat="46.74874" lon="-1.739">
        <ele>30</ele>
        <time>2018-01-14T05:51:31Z</time>
      </trkpt>
      <trkpt lat="46.74875" lon="-1.73905">
        <ele>29</ele>
        <time>2018-01-14T05:52:31Z</time>
      </trkpt>
      <trkpt lat="46.74876" lon="-1.73908">
        <ele>29</ele>
        <time>2018-01-14T05:53:31Z</time>
      </trkpt>
      <trkpt lat="46.74882" lon="-1.7392">
        <ele>29</ele>
        <time>2018-01-14T05:54:31Z</time>
      </trkpt>
      <trkpt lat="46.74885" lon="-1.73926">
        <ele>29</ele>
        <time>2018-01-14T05:55:31Z</time>
      </trkpt>
      <trkpt lat="46.7489" lon="-1.73938">
        <ele>28</ele>
        <time>2018-01-14T05:56:31Z</time>
      </trkpt>
      <trkpt lat="46.74897" lon="-1.73949">
        <ele>28</ele>
        <time>2018-01-14T05:57:31Z</time>
      </trkpt>
      <trkpt lat="46.74904" lon="-1.73959">
        <ele>27</ele>
        <time>2018-01-14T05:58:31Z</time>
      </trkpt>
      <trkpt lat="46.74908" lon="-1.73962">
        <ele>27</ele>
        <time>2018-01-14T05:59:31Z</time>
      </trkpt>
      <trkpt lat="46.74912" lon="-1.73965">
        <ele>27</ele>
        <time>2018-01-14T06:00:31Z</time>
      </trkpt>
      <trkpt lat="46.74917" lon="-1.73966">
        <ele>27</ele>
        <time>2018-01-14T06:01:31Z</time>
      </trkpt>
      <trkpt lat="46.74921" lon="-1.73967">
        <ele>27</ele>
        <time>2018-01-14T06:02:31Z</time>
      </trkpt>
      <trkpt lat="46.74925" lon="-1.73968">
        <ele>27</ele>
        <time>2018-01-14T06:03:31Z</time>
      </trkpt>
      <trkpt lat="46.7493" lon="-1.73969">
        <ele>27</ele>
        <time>2018-01-14T06:04:31Z</time>
      </trkpt>
      <trkpt lat="46.74933" lon="-1.7397">
        <ele>28</ele>
        <time>2018-01-14T06:05:31Z</time>
      </trkpt>
      <trkpt lat="46.74937" lon="-1.73972">
        <ele>28</ele>
        <time>2018-01-14T06:06:31Z</time>
      </trkpt>
      <trkpt lat="46.74941" lon="-1.73975">
        <ele>28</ele>
        <time>2018-01-14T06:07:31Z</time>
      </trkpt>
      <trkpt lat="46.74944" lon="-1.73979">
        <ele>28</ele>
        <time>2018-01-14T06:08:31Z</time>
      </trkpt>
      <trkpt lat="46.74973" lon="-1.7402">
        <ele>27</ele>
        <time>2018-01-14T06:09:31Z</time>
      </trkpt>
      <trkpt lat="46.74973" lon="-1.7402">
        <ele>27</ele>
        <time>2018-01-14T06:10:31Z</time>
      </trkpt>
      <trkpt lat="46.74966" lon="-1.74027">
        <ele>27</ele>
        <time>2018-01-14T06:11:31Z</time>
      </trkpt>
      <trkpt lat="46.74963" lon="-1.74029">
        <ele>27</ele>
        <time>2018-01-14T06:12:31Z</time>
      </trkpt>
      <trkpt lat="46.74942" lon="-1.74045">
        <ele>25</ele>
        <time>2018-01-14T06:13:31Z</time>
      </trkpt>
      <trkpt lat="46.74938" lon="-1.74047">
        <ele>25</ele>
        <time>2018-01-14T06:14:31Z</time>
      </trkpt>
      <trkpt lat="46.74934" lon="-1.74049">
        <ele>25</ele>
        <time>2018-01-14T06:15:31Z</time>
      </trkpt>
      <trkpt lat="46.74862" lon="-1.7408">
        <ele>19</ele>
        <time>2018-01-14T06:16:31Z</time>
      </trkpt>
      <trkpt lat="46.74855" lon="-1.74083">
        <ele>19</ele>
        <time>2018-01-14T06:17:31Z</time>
      </trkpt>
      <trkpt lat="46.74851" lon="-1.74084">
        <ele>18</ele>
        <time>2018-01-14T06:18:31Z</time>
      </trkpt>
      <trkpt lat="46.74841" lon="-1.74088">
        <ele>17</ele>
        <time>2018-01-14T06:19:31Z</time>
      </trkpt>
      <trkpt lat="46.74839" lon="-1.74089">
        <ele>17</ele>
        <time>2018-01-14T06:20:31Z</time>
      </trkpt>
      <trkpt lat="46.74838" lon="-1.7409">
        <ele>17</ele>
        <time>2018-01-14T06:21:31Z</time>
      </trkpt>
      <trkpt lat="46.74816" lon="-1.741">
        <ele>15</ele>
        <time>2018-01-14T06:22:31Z</time>
      </trkpt>
      <trkpt lat="46.7481" lon="-1.74103">
        <ele>15</ele>
        <time>2018-01-14T06:23:31Z</time>
      </trkpt>
      <trkpt lat="46.74807" lon="-1.74104">
        <ele>15</ele>
        <time>2018-01-14T06:24:31Z</time>
      </trkpt>
      <trkpt lat="46.74805" lon="-1.74105">
        <ele>14</ele>
        <time>2018-01-14T06:25:31Z</time>
      </trkpt>
      <trkpt lat="46.748" lon="-1.74108">
        <ele>14</ele>
        <time>2018-01-14T06:26:31Z</time>
      </trkpt>
      <trkpt lat="46.74787" lon="-1.74117">
        <ele>13</ele>
        <time>2018-01-14T06:27:31Z</time>
      </trkpt>
      <trkpt lat="46.74778" lon="-1.74124">
        <ele>13</ele>
        <time>2018-01-14T06:28:31Z</time>
      </trkpt>
      <trkpt lat="46.7477" lon="-1.74131">
        <ele>12</ele>
        <time>2018-01-14T06:29:31Z</time>
      </trkpt>
      <trkpt lat="46.74762" lon="-1.74138">
        <ele>12</ele>
        <time>2018-01-14T06:30:31Z</time>
      </trkpt>
      <trkpt lat="46.74756" lon="-1.74143">
        <ele>11</ele>
        <time>2018-01-14T06:31:31Z</time>
      </trkpt>
      <trkpt lat="46.74736" lon="-1.74163">
        <ele>12</ele>
        <time>2018-01-14T06:32:31Z</time>
      </trkpt>
      <trkpt lat="46.74735" lon="-1.74165">
        <ele>12</ele>
        <time>2018-01-14T06:33:31Z</time>
      </trkpt>
      <trkpt lat="46.74733" lon="-1.74169">
        <ele>13</ele>
        <time>2018-01-14T06:34:31Z</time>
      </trkpt>
      <trkpt lat="46.74729" lon="-1.74181">
        <ele>13</ele>
        <time>2018-01-14T06:35:31Z</time>
      </trkpt>
      <trkpt lat="46.74732" lon="-1.74188">
        <ele>13</ele>
        <time>2018-01-14T06:36:31Z</time>
      </trkpt>
      <trkpt lat="46.74734" lon="-1.74192">
        <ele>13</ele>
        <time>2018-01-14T06:37:31Z</time>
      </trkpt>
      <trkpt lat="46.74736" lon="-1.74196">
        <ele>13</ele>
        <time>2018-01-14T06:38:31Z</time>
      </trkpt>
      <trkpt lat="46.74738" lon="-1.74205">
        <ele>13</ele>
        <time>2018-01-14T06:39:31Z</time>
      </trkpt>
      <trkpt lat="46.7474" lon="-1.74216">
        <ele>13</ele>
        <time>2018-01-14T06:40:31Z</time>
      </trkpt>
      <trkpt lat="46.74741" lon="-1.74229">
        <ele>14</ele>
        <time>2018-01-14T06:41:31Z</time>
      </trkpt>
      <trkpt lat="46.74742" lon="-1.74239">
        <ele>14</ele>
        <time>2018-01-14T06:42:31Z</time>
      </trkpt>
      <trkpt lat="46.74741" lon="-1.74282">
        <ele>14</ele>
        <time>2018-01-14T06:43:31Z</time>
      </trkpt>
      <trkpt lat="46.7474" lon="-1.743">
        <ele>14</ele>
        <time>2018-01-14T06:44:31Z</time>
      </trkpt>
      <trkpt lat="46.74739" lon="-1.74314">
        <ele>14</ele>
        <time>2018-01-14T06:45:31Z</time>
      </trkpt>
      <trkpt lat="46.74738" lon="-1.74327">
        <ele>14</ele>
        <time>2018-01-14T06:46:31Z</time>
      </trkpt>
      <trkpt lat="46.74735" lon="-1.74347">
        <ele>15</ele>
        <time>2018-01-14T06:47:31Z</time>
      </trkpt>
      <trkpt lat="46.74732" lon="-1.74359">
        <ele>16</ele>
        <time>2018-01-14T06:48:31Z</time>
      </trkpt>
      <trkpt lat="46.74729" lon="-1.74372">
        <ele>16</ele>
        <time>2018-01-14T06:49:31Z</time>
      </trkpt>
      <trkpt lat="46.74724" lon="-1.74388">
        <ele>17</ele>
        <time>2018-01-14T06:50:31Z</time>
      </trkpt>
      <trkpt lat="46.74719" lon="-1.74402">
        <ele>17</ele>
        <time>2018-01-14T06:51:31Z</time>
      </trkpt>
      <trkpt lat="46.74715" lon="-1.74412">
        <ele>17</ele>
        <time>2018-01-14T06:52:31Z</time>
      </trkpt>
      <trkpt lat="46.74707" lon="-1.74428">
        <ele>18</ele>
        <time>2018-01-14T06:53:31Z</time>
      </trkpt>
      <trkpt lat="46.74699" lon="-1.74442">
        <ele>18</ele>
        <time>2018-01-14T06:54:31Z</time>
      </trkpt>
      <trkpt lat="46.74688" lon="-1.74462">
        <ele>19</ele>
        <time>2018-01-14T06:55:31Z</time>
      </trkpt>
      <trkpt lat="46.74667" lon="-1.74493">
        <ele>20</ele>
        <time>2018-01-14T06:56:31Z</time>
      </trkpt>
      <trkpt lat="46.74631" lon="-1.74544">
        <ele>21</ele>
        <time>2018-01-14T06:57:31Z</time>
      </trkpt>
      <trkpt lat="46.74617" lon="-1.74563">
        <ele>22</ele>
        <time>2018-01-14T06:58:31Z</time>
      </trkpt>
      <trkpt lat="46.74606" lon="-1.74576">
        <ele>23</ele>
        <time>2018-01-14T06:59:31Z</time>
      </trkpt>
      <trkpt lat="46.74603" lon="-1.74581">
        <ele>24</ele>
        <time>2018-01-14T07:00:31Z</time>
      </trkpt>
      <trkpt lat="46.74597" lon="-1.74586">
        <ele>24</ele>
        <time>2018-01-14T07:01:31Z</time>
      </trkpt>
      <trkpt lat="46.74584" lon="-1.74594">
        <ele>24</ele>
        <time>2018-01-14T07:02:31Z</time>
      </trkpt>
      <trkpt lat="46.74578" lon="-1.74598">
        <ele>24</ele>
        <time>2018-01-14T07:03:31Z</time>
      </trkpt>
      <trkpt lat="46.74573" lon="-1.74601">
        <ele>25</ele>
        <time>2018-01-14T07:04:31Z</time>
      </trkpt>
      <trkpt lat="46.74567" lon="-1.74604">
        <ele>25</ele>
        <time>2018-01-14T07:05:31Z</time>
      </trkpt>
      <trkpt lat="46.74551" lon="-1.74609">
        <ele>25</ele>
        <time>2018-01-14T07:06:31Z</time>
      </trkpt>
      <trkpt lat="46.74548" lon="-1.7461">
        <ele>25</ele>
        <time>2018-01-14T07:07:31Z</time>
      </trkpt>
      <trkpt lat="46.74542" lon="-1.74612">
        <ele>25</ele>
        <time>2018-01-14T07:08:31Z</time>
      </trkpt>
      <trkpt lat="46.74533" lon="-1.74615">
        <ele>26</ele>
        <time>2018-01-14T07:09:31Z</time>
      </trkpt>
      <trkpt lat="46.74508" lon="-1.74621">
        <ele>26</ele>
        <time>2018-01-14T07:10:31Z</time>
      </trkpt>
      <trkpt lat="46.74454" lon="-1.74632">
        <ele>28</ele>
        <time>2018-01-14T07:11:31Z</time>
      </trkpt>
      <trkpt lat="46.74375" lon="-1.74651">
        <ele>30</ele>
        <time>2018-01-14T07:12:31Z</time>
      </trkpt>
      <trkpt lat="46.74322" lon="-1.74664">
        <ele>31</ele>
        <time>2018-01-14T07:13:31Z</time>
      </trkpt>
      <trkpt lat="46.74296" lon="-1.74669">
        <ele>31</ele>
        <time>2018-01-14T07:14:31Z</time>
      </trkpt>
      <trkpt lat="46.74279" lon="-1.74673">
        <ele>32</ele>
        <time>2018-01-14T07:15:31Z</time>
      </trkpt>
      <trkpt lat="46.74267" lon="-1.74673">
        <ele>32</ele>
        <time>2018-01-14T07:16:31Z</time>
      </trkpt>
      <trkpt lat="46.74256" lon="-1.74673">
        <ele>32</ele>
        <time>2018-01-14T07:17:31Z</time>
      </trkpt>
      <trkpt lat="46.74247" lon="-1.74672">
        <ele>32</ele>
        <time>2018-01-14T07:18:31Z</time>
      </trkpt>
      <trkpt lat="46.74242" lon="-1.74671">
        <ele>32</ele>
        <time>2018-01-14T07:19:31Z</time>
      </trkpt>
      <trkpt lat="46.74233" lon="-1.74669">
        <ele>33</ele>
        <time>2018-01-14T07:20:31Z</time>
      </trkpt>
      <trkpt lat="46.74217" lon="-1.74665">
        <ele>34</ele>
        <time>2018-01-14T07:21:31Z</time>
      </trkpt>
      <trkpt lat="46.742" lon="-1.7466">
        <ele>34</ele>
        <time>2018-01-14T07:22:31Z</time>
      </trkpt>
      <trkpt lat="46.74172" lon="-1.74652">
        <ele>36</ele>
        <time>2018-01-14T07:23:31Z</time>
      </trkpt>
      <trkpt lat="46.74151" lon="-1.74646">
        <ele>36</ele>
        <time>2018-01-14T07:24:31Z</time>
      </trkpt>
      <trkpt lat="46.74118" lon="-1.7464">
        <ele>36</ele>
        <time>2018-01-14T07:25:31Z</time>
      </trkpt>
      <trkpt lat="46.74113" lon="-1.7464">
        <ele>36</ele>
        <time>2018-01-14T07:26:31Z</time>
      </trkpt>
      <trkpt lat="46.74088" lon="-1.74637">
        <ele>36</ele>
        <time>2018-01-14T07:27:31Z</time>
      </trkpt>
      <trkpt lat="46.74065" lon="-1.74635">
        <ele>36</ele>
        <time>2018-01-14T07:28:31Z</time>
      </trkpt>
      <trkpt lat="46.74046" lon="-1.74636">
        <ele>36</ele>
        <time>2018-01-14T07:29:31Z</time>
      </trkpt>
      <trkpt lat="46.74032" lon="-1.74638">
        <ele>36</ele>
        <time>2018-01-14T07:30:31Z</time>
      </trkpt>
      <trkpt lat="46.73968" lon="-1.74654">
        <ele>37</ele>
        <time>2018-01-14T07:31:31Z</time>
      </trkpt>
      <trkpt lat="46.73968" lon="-1.74654">
        <ele>37</ele>
        <time>2018-01-14T07:32:31Z</time>
      </trkpt>
      <trkpt lat="46.73967" lon="-1.74657">
        <ele>37</ele>
        <time>2018-01-14T07:33:31Z</time>
      </trkpt>
      <trkpt lat="46.73967" lon="-1.74658">
        <ele>37</ele>
        <time>2018-01-14T07:34:31Z</time>
      </trkpt>
      <trkpt lat="46.73966" lon="-1.7466">
        <ele>37</ele>
        <time>2018-01-14T07:35:31Z</time>
      </trkpt>
      <trkpt lat="46.73964" lon="-1.74662">
        <ele>37</ele>
        <time>2018-01-14T07:36:31Z</time>
      </trkpt>
      <trkpt lat="46.7396" lon="-1.74663">
        <ele>37</ele>
        <time>2018-01-14T07:37:31Z</time>
      </trkpt>
      <trkpt lat="46.7395" lon="-1.74667">
        <ele>38</ele>
        <time>2018-01-14T07:38:31Z</time>
      </trkpt>
      <trkpt lat="46.73934" lon="-1.74673">
        <ele>38</ele>
        <time>2018-01-14T07:39:31Z</time>
      </trkpt>
      <trkpt lat="46.73925" lon="-1.74676">
        <ele>38</ele>
        <time>2018-01-14T07:40:31Z</time>
      </trkpt>
      <trkpt lat="46.73908" lon="-1.74678">
        <ele>38</ele>
        <time>2018-01-14T07:41:31Z</time>
      </trkpt>
      <trkpt lat="46.73876" lon="-1.7468">
        <ele>38</ele>
        <time>2018-01-14T07:42:31Z</time>
      </trkpt>
      <trkpt lat="46.73754" lon="-1.74682">
        <ele>41</ele>
        <time>2018-01-14T07:43:31Z</time>
      </trkpt>
      <trkpt lat="46.73667" lon="-1.74686">
        <ele>43</ele>
        <time>2018-01-14T07:44:31Z</time>
      </trkpt>
      <trkpt lat="46.7357" lon="-1.74688">
        <ele>43</ele>
        <time>2018-01-14T07:45:31Z</time>
      </trkpt>
      <trkpt lat="46.73514" lon="-1.74687">
        <ele>44</ele>
        <time>2018-01-14T07:46:31Z</time>
      </trkpt>
      <trkpt lat="46.73433" lon="-1.74684">
        <ele>45</ele>
        <time>2018-01-14T07:47:31Z</time>
      </trkpt>
      <trkpt lat="46.734" lon="-1.7468">
        <ele>45</ele>
        <time>2018-01-14T07:48:31Z</time>
      </trkpt>
      <trkpt lat="46.73369" lon="-1.74678">
        <ele>45</ele>
        <time>2018-01-14T07:49:31Z</time>
      </trkpt>
      <trkpt lat="46.73348" lon="-1.74675">
        <ele>45</ele>
        <time>2018-01-14T07:50:31Z</time>
      </trkpt>
      <trkpt lat="46.73323" lon="-1.7467">
        <ele>45</ele>
        <time>2018-01-14T07:51:31Z</time>
      </trkpt>
      <trkpt lat="46.73284" lon="-1.74661">
        <ele>44</ele>
        <time>2018-01-14T07:52:31Z</time>
      </trkpt>
      <trkpt lat="46.73217" lon="-1.74647">
        <ele>43</ele>
        <time>2018-01-14T07:53:31Z</time>
      </trkpt>
      <trkpt lat="46.73181" lon="-1.7464">
        <ele>42</ele>
        <time>2018-01-14T07:54:31Z</time>
      </trkpt>
      <trkpt lat="46.73136" lon="-1.74631">
        <ele>40</ele>
        <time>2018-01-14T07:55:31Z</time>
      </trkpt>
      <trkpt lat="46.73083" lon="-1.74621">
        <ele>38</ele>
        <time>2018-01-14T07:56:31Z</time>
      </trkpt>
      <trkpt lat="46.72998" lon="-1.74605">
        <ele>36</ele>
        <time>2018-01-14T07:57:31Z</time>
      </trkpt>
      <trkpt lat="46.72944" lon="-1.74595">
        <ele>36</ele>
        <time>2018-01-14T07:58:31Z</time>
      </trkpt>
      <trkpt lat="46.72857" lon="-1.74578">
        <ele>38</ele>
        <time>2018-01-14T07:59:31Z</time>
      </trkpt>
      <trkpt lat="46.72753" lon="-1.74558">
        <ele>39</ele>
        <time>2018-01-14T08:00:31Z</time>
      </trkpt>
      <trkpt lat="46.72678" lon="-1.74544">
        <ele>41</ele>
        <time>2018-01-14T08:01:31Z</time>
      </trkpt>
      <trkpt lat="46.72666" lon="-1.74542">
        <ele>41</ele>
        <time>2018-01-14T08:02:31Z</time>
      </trkpt>
      <trkpt lat="46.72652" lon="-1.7454">
        <ele>41</ele>
        <time>2018-01-14T08:03:31Z</time>
      </trkpt>
      <trkpt lat="46.72642" lon="-1.74539">
        <ele>41</ele>
        <time>2018-01-14T08:04:31Z</time>
      </trkpt>
      <trkpt lat="46.72628" lon="-1.74539">
        <ele>42</ele>
        <time>2018-01-14T08:05:31Z</time>
      </trkpt>
      <trkpt lat="46.72615" lon="-1.7454">
        <ele>42</ele>
        <time>2018-01-14T08:06:31Z</time>
      </trkpt>
      <trkpt lat="46.72599" lon="-1.74541">
        <ele>42</ele>
        <time>2018-01-14T08:07:31Z</time>
      </trkpt>
      <trkpt lat="46.72592" lon="-1.74542">
        <ele>42</ele>
        <time>2018-01-14T08:08:31Z</time>
      </trkpt>
      <trkpt lat="46.72568" lon="-1.74544">
        <ele>43</ele>
        <time>2018-01-14T08:09:31Z</time>
      </trkpt>
      <trkpt lat="46.72534" lon="-1.74549">
        <ele>43</ele>
        <time>2018-01-14T08:10:31Z</time>
      </trkpt>
      <trkpt lat="46.72514" lon="-1.74551">
        <ele>43</ele>
        <time>2018-01-14T08:11:31Z</time>
      </trkpt>
      <trkpt lat="46.72474" lon="-1.74556">
        <ele>43</ele>
        <time>2018-01-14T08:12:31Z</time>
      </trkpt>
      <trkpt lat="46.72447" lon="-1.74559">
        <ele>43</ele>
        <time>2018-01-14T08:13:31Z</time>
      </trkpt>
      <trkpt lat="46.72421" lon="-1.7456">
        <ele>43</ele>
        <time>2018-01-14T08:14:31Z</time>
      </trkpt>
      <trkpt lat="46.72383" lon="-1.74562">
        <ele>42</ele>
        <time>2018-01-14T08:15:31Z</time>
      </trkpt>
      <trkpt lat="46.72354" lon="-1.74563">
        <ele>41</ele>
        <time>2018-01-14T08:16:31Z</time>
      </trkpt>
      <trkpt lat="46.72314" lon="-1.74564">
        <ele>39</ele>
        <time>2018-01-14T08:17:31Z</time>
      </trkpt>
      <trkpt lat="46.72276" lon="-1.74564">
        <ele>38</ele>
        <time>2018-01-14T08:18:31Z</time>
      </trkpt>
      <trkpt lat="46.72249" lon="-1.74562">
        <ele>36</ele>
        <time>2018-01-14T08:19:31Z</time>
      </trkpt>
      <trkpt lat="46.72207" lon="-1.74559">
        <ele>36</ele>
        <time>2018-01-14T08:20:31Z</time>
      </trkpt>
      <trkpt lat="46.72181" lon="-1.74558">
        <ele>36</ele>
        <time>2018-01-14T08:21:31Z</time>
      </trkpt>
      <trkpt lat="46.72159" lon="-1.7456">
        <ele>35</ele>
        <time>2018-01-14T08:22:31Z</time>
      </trkpt>
      <trkpt lat="46.72142" lon="-1.74563">
        <ele>35</ele>
        <time>2018-01-14T08:23:31Z</time>
      </trkpt>
      <trkpt lat="46.72138" lon="-1.74564">
        <ele>35</ele>
        <time>2018-01-14T08:24:31Z</time>
      </trkpt>
      <trkpt lat="46.72128" lon="-1.74567">
        <ele>34</ele>
        <time>2018-01-14T08:25:31Z</time>
      </trkpt>
      <trkpt lat="46.72101" lon="-1.74576">
        <ele>34</ele>
        <time>2018-01-14T08:26:31Z</time>
      </trkpt>
      <trkpt lat="46.72056" lon="-1.74591">
        <ele>33</ele>
        <time>2018-01-14T08:27:31Z</time>
      </trkpt>
      <trkpt lat="46.72011" lon="-1.74607">
        <ele>33</ele>
        <time>2018-01-14T08:28:31Z</time>
      </trkpt>
      <trkpt lat="46.71987" lon="-1.74617">
        <ele>34</ele>
        <time>2018-01-14T08:29:31Z</time>
      </trkpt>
      <trkpt lat="46.71981" lon="-1.74619">
        <ele>34</ele>
        <time>2018-01-14T08:30:31Z</time>
      </trkpt>
      <trkpt lat="46.71978" lon="-1.7462">
        <ele>34</ele>
        <time>2018-01-14T08:31:31Z</time>
      </trkpt>
      <trkpt lat="46.7197" lon="-1.74624">
        <ele>34</ele>
        <time>2018-01-14T08:32:31Z</time>
      </trkpt>
      <trkpt lat="46.71949" lon="-1.74635">
        <ele>35</ele>
        <time>2018-01-14T08:33:31Z</time>
      </trkpt>
      <trkpt lat="46.71936" lon="-1.74645">
        <ele>36</ele>
        <time>2018-01-14T08:34:31Z</time>
      </trkpt>
      <trkpt lat="46.71898" lon="-1.74666">
        <ele>37</ele>
        <time>2018-01-14T08:35:31Z</time>
      </trkpt>
      <trkpt lat="46.71884" lon="-1.74674">
        <ele>38</ele>
        <time>2018-01-14T08:36:31Z</time>
      </trkpt>
      <trkpt lat="46.71855" lon="-1.7469">
        <ele>38</ele>
        <time>2018-01-14T08:37:31Z</time>
      </trkpt>
      <trkpt lat="46.718" lon="-1.74721">
        <ele>40</ele>
        <time>2018-01-14T08:38:31Z</time>
      </trkpt>
      <trkpt lat="46.71747" lon="-1.74749">
        <ele>42</ele>
        <time>2018-01-14T08:39:31Z</time>
      </trkpt>
      <trkpt lat="46.71732" lon="-1.74757">
        <ele>42</ele>
        <time>2018-01-14T08:40:31Z</time>
      </trkpt>
      <trkpt lat="46.71686" lon="-1.74781">
        <ele>43</ele>
        <time>2018-01-14T08:41:31Z</time>
      </trkpt>
      <trkpt lat="46.71654" lon="-1.74797">
        <ele>44</ele>
        <time>2018-01-14T08:42:31Z</time>
      </trkpt>
      <trkpt lat="46.71616" lon="-1.74817">
        <ele>44</ele>
        <time>2018-01-14T08:43:31Z</time>
      </trkpt>
      <trkpt lat="46.71578" lon="-1.74837">
        <ele>44</ele>
        <time>2018-01-14T08:44:31Z</time>
      </trkpt>
      <trkpt lat="46.71546" lon="-1.74854">
        <ele>44</ele>
        <time>2018-01-14T08:45:31Z</time>
      </trkpt>
      <trkpt lat="46.71521" lon="-1.74869">
        <ele>44</ele>
        <time>2018-01-14T08:46:31Z</time>
      </trkpt>
      <trkpt lat="46.71502" lon="-1.74882">
        <ele>44</ele>
        <time>2018-01-14T08:47:31Z</time>
      </trkpt>
      <trkpt lat="46.71486" lon="-1.74895">
        <ele>43</ele>
        <time>2018-01-14T08:48:31Z</time>
      </trkpt>
      <trkpt lat="46.71479" lon="-1.74902">
        <ele>43</ele>
        <time>2018-01-14T08:49:31Z</time>
      </trkpt>
      <trkpt lat="46.71473" lon="-1.74905">
        <ele>43</ele>
        <time>2018-01-14T08:50:31Z</time>
      </trkpt>
      <trkpt lat="46.71462" lon="-1.74913">
        <ele>43</ele>
        <time>2018-01-14T08:51:31Z</time>
      </trkpt>
      <trkpt lat="46.71447" lon="-1.74921">
        <ele>42</ele>
        <time>2018-01-14T08:52:31Z</time>
      </trkpt>
      <trkpt lat="46.71421" lon="-1.74928">
        <ele>41</ele>
        <time>2018-01-14T08:53:31Z</time>
      </trkpt>
      <trkpt lat="46.71404" lon="-1.74929">
        <ele>40</ele>
        <time>2018-01-14T08:54:31Z</time>
      </trkpt>
      <trkpt lat="46.71389" lon="-1.7493">
        <ele>40</ele>
        <time>2018-01-14T08:55:31Z</time>
      </trkpt>
      <trkpt lat="46.71379" lon="-1.74932">
        <ele>40</ele>
        <time>2018-01-14T08:56:31Z</time>
      </trkpt>
      <trkpt lat="46.71375" lon="-1.74933">
        <ele>40</ele>
        <time>2018-01-14T08:57:31Z</time>
      </trkpt>
      <trkpt lat="46.7137" lon="-1.74933">
        <ele>40</ele>
        <time>2018-01-14T08:58:31Z</time>
      </trkpt>
      <trkpt lat="46.71355" lon="-1.7494">
        <ele>40</ele>
        <time>2018-01-14T08:59:31Z</time>
      </trkpt>
      <trkpt lat="46.71338" lon="-1.74949">
        <ele>39</ele>
        <time>2018-01-14T09:00:31Z</time>
      </trkpt>
      <trkpt lat="46.71317" lon="-1.74964">
        <ele>40</ele>
        <time>2018-01-14T09:01:31Z</time>
      </trkpt>
      <trkpt lat="46.71312" lon="-1.74968">
        <ele>40</ele>
        <time>2018-01-14T09:02:31Z</time>
      </trkpt>
      <trkpt lat="46.7131" lon="-1.74972">
        <ele>40</ele>
        <time>2018-01-14T09:03:31Z</time>
      </trkpt>
      <trkpt lat="46.71298" lon="-1.74984">
        <ele>41</ele>
        <time>2018-01-14T09:04:31Z</time>
      </trkpt>
      <trkpt lat="46.71286" lon="-1.74996">
        <ele>41</ele>
        <time>2018-01-14T09:05:31Z</time>
      </trkpt>
      <trkpt lat="46.71275" lon="-1.75005">
        <ele>41</ele>
        <time>2018-01-14T09:06:31Z</time>
      </trkpt>
      <trkpt lat="46.71258" lon="-1.75015">
        <ele>42</ele>
        <time>2018-01-14T09:07:31Z</time>
      </trkpt>
      <trkpt lat="46.71247" lon="-1.7502">
        <ele>42</ele>
        <time>2018-01-14T09:08:31Z</time>
      </trkpt>
      <trkpt lat="46.71215" lon="-1.75039">
        <ele>42</ele>
        <time>2018-01-14T09:09:31Z</time>
      </trkpt>
      <trkpt lat="46.71189" lon="-1.75053">
        <ele>43</ele>
        <time>2018-01-14T09:10:31Z</time>
      </trkpt>
      <trkpt lat="46.71159" lon="-1.75069">
        <ele>43</ele>
        <time>2018-01-14T09:11:31Z</time>
      </trkpt>
      <trkpt lat="46.71132" lon="-1.75082">
        <ele>44</ele>
        <time>2018-01-14T09:12:31Z</time>
      </trkpt>
      <trkpt lat="46.71106" lon="-1.75098">
        <ele>45</ele>
        <time>2018-01-14T09:13:31Z</time>
      </trkpt>
      <trkpt lat="46.71089" lon="-1.75109">
        <ele>45</ele>
        <time>2018-01-14T09:14:31Z</time>
      </trkpt>
      <trkpt lat="46.71073" lon="-1.75125">
        <ele>46</ele>
        <time>2018-01-14T09:15:31Z</time>
      </trkpt>
      <trkpt lat="46.71058" lon="-1.75143">
        <ele>47</ele>
        <time>2018-01-14T09:16:31Z</time>
      </trkpt>
      <trkpt lat="46.71044" lon="-1.75162">
        <ele>48</ele>
        <time>2018-01-14T09:17:31Z</time>
      </trkpt>
      <trkpt lat="46.71028" lon="-1.75186">
        <ele>49</ele>
        <time>2018-01-14T09:18:31Z</time>
      </trkpt>
      <trkpt lat="46.70994" lon="-1.75227">
        <ele>50</ele>
        <time>2018-01-14T09:19:31Z</time>
      </trkpt>
      <trkpt lat="46.70953" lon="-1.75272">
        <ele>52</ele>
        <time>2018-01-14T09:20:31Z</time>
      </trkpt>
      <trkpt lat="46.70889" lon="-1.75346">
        <ele>53</ele>
        <time>2018-01-14T09:21:31Z</time>
      </trkpt>
      <trkpt lat="46.70882" lon="-1.75354">
        <ele>53</ele>
        <time>2018-01-14T09:22:31Z</time>
      </trkpt>
      <trkpt lat="46.70854" lon="-1.75392">
        <ele>54</ele>
        <time>2018-01-14T09:23:31Z</time>
      </trkpt>
      <trkpt lat="46.70817" lon="-1.75441">
        <ele>54</ele>
        <time>2018-01-14T09:24:31Z</time>
      </trkpt>
      <trkpt lat="46.70795" lon="-1.75468">
        <ele>53</ele>
        <time>2018-01-14T09:25:31Z</time>
      </trkpt>
      <trkpt lat="46.70775" lon="-1.75492">
        <ele>53</ele>
        <time>2018-01-14T09:26:31Z</time>
      </trkpt>
      <trkpt lat="46.70755" lon="-1.75509">
        <ele>53</ele>
        <time>2018-01-14T09:27:31Z</time>
      </trkpt>
      <trkpt lat="46.70728" lon="-1.75531">
        <ele>53</ele>
        <time>2018-01-14T09:28:31Z</time>
      </trkpt>
      <trkpt lat="46.7072" lon="-1.75538">
        <ele>53</ele>
        <time>2018-01-14T09:29:31Z</time>
      </trkpt>
      <trkpt lat="46.70704" lon="-1.7555">
        <ele>53</ele>
        <time>2018-01-14T09:30:31Z</time>
      </trkpt>
      <trkpt lat="46.70687" lon="-1.75564">
        <ele>53</ele>
        <time>2018-01-14T09:31:31Z</time>
      </trkpt>
      <trkpt lat="46.70658" lon="-1.75585">
        <ele>53</ele>
        <time>2018-01-14T09:32:31Z</time>
      </trkpt>
      <trkpt lat="46.70633" lon="-1.75602">
        <ele>54</ele>
        <time>2018-01-14T09:33:31Z</time>
      </trkpt>
      <trkpt lat="46.70565" lon="-1.75646">
        <ele>55</ele>
        <time>2018-01-14T09:34:31Z</time>
      </trkpt>
      <trkpt lat="46.70542" lon="-1.75663">
        <ele>55</ele>
        <time>2018-01-14T09:35:31Z</time>
      </trkpt>
      <trkpt lat="46.70514" lon="-1.75686">
        <ele>55</ele>
        <time>2018-01-14T09:36:31Z</time>
      </trkpt>
      <trkpt lat="46.70493" lon="-1.75701">
        <ele>55</ele>
        <time>2018-01-14T09:37:31Z</time>
      </trkpt>
      <trkpt lat="46.70465" lon="-1.75718">
        <ele>56</ele>
        <time>2018-01-14T09:38:31Z</time>
      </trkpt>
      <trkpt lat="46.70458" lon="-1.75723">
        <ele>56</ele>
        <time>2018-01-14T09:39:31Z</time>
      </trkpt>
      <trkpt lat="46.70444" lon="-1.75732">
        <ele>56</ele>
        <time>2018-01-14T09:40:31Z</time>
      </trkpt>
      <trkpt lat="46.70429" lon="-1.75743">
        <ele>57</ele>
        <time>2018-01-14T09:41:31Z</time>
      </trkpt>
      <trkpt lat="46.70427" lon="-1.75745">
        <ele>57</ele>
        <time>2018-01-14T09:42:31Z</time>
      </trkpt>
      <trkpt lat="46.70412" lon="-1.75757">
        <ele>57</ele>
        <time>2018-01-14T09:43:31Z</time>
      </trkpt>
      <trkpt lat="46.70395" lon="-1.75775">
        <ele>57</ele>
        <time>2018-01-14T09:44:31Z</time>
      </trkpt>
      <trkpt lat="46.7038" lon="-1.75792">
        <ele>57</ele>
        <time>2018-01-14T09:45:31Z</time>
      </trkpt>
      <trkpt lat="46.70367" lon="-1.75808">
        <ele>57</ele>
        <time>2018-01-14T09:46:31Z</time>
      </trkpt>
      <trkpt lat="46.70357" lon="-1.75821">
        <ele>56</ele>
        <time>2018-01-14T09:47:31Z</time>
      </trkpt>
      <trkpt lat="46.70329" lon="-1.75855">
        <ele>56</ele>
        <time>2018-01-14T09:48:31Z</time>
      </trkpt>
      <trkpt lat="46.70324" lon="-1.75861">
        <ele>55</ele>
        <time>2018-01-14T09:49:31Z</time>
      </trkpt>
      <trkpt lat="46.70303" lon="-1.75883">
        <ele>55</ele>
        <time>2018-01-14T09:50:31Z</time>
      </trkpt>
      <trkpt lat="46.70302" lon="-1.75884">
        <ele>55</ele>
        <time>2018-01-14T09:51:31Z</time>
      </trkpt>
      <trkpt lat="46.70278" lon="-1.75907">
        <ele>54</ele>
        <time>2018-01-14T09:52:31Z</time>
      </trkpt>
      <trkpt lat="46.70252" lon="-1.75929">
        <ele>53</ele>
        <time>2018-01-14T09:53:31Z</time>
      </trkpt>
      <trkpt lat="46.70221" lon="-1.75952">
        <ele>52</ele>
        <time>2018-01-14T09:54:31Z</time>
      </trkpt>
      <trkpt lat="46.70207" lon="-1.75963">
        <ele>52</ele>
        <time>2018-01-14T09:55:31Z</time>
      </trkpt>
      <trkpt lat="46.70203" lon="-1.75966">
        <ele>52</ele>
        <time>2018-01-14T09:56:31Z</time>
      </trkpt>
      <trkpt lat="46.70171" lon="-1.75989">
        <ele>52</ele>
        <time>2018-01-14T09:57:31Z</time>
      </trkpt>
      <trkpt lat="46.70131" lon="-1.7602">
        <ele>51</ele>
        <time>2018-01-14T09:58:31Z</time>
      </trkpt>
      <trkpt lat="46.70099" lon="-1.76044">
        <ele>50</ele>
        <time>2018-01-14T09:59:31Z</time>
      </trkpt>
      <trkpt lat="46.70079" lon="-1.76054">
        <ele>49</ele>
        <time>2018-01-14T10:00:31Z</time>
      </trkpt>
      <trkpt lat="46.70033" lon="-1.76073">
        <ele>49</ele>
        <time>2018-01-14T10:01:31Z</time>
      </trkpt>
      <trkpt lat="46.70005" lon="-1.76083">
        <ele>49</ele>
        <time>2018-01-14T10:02:31Z</time>
      </trkpt>
      <trkpt lat="46.69971" lon="-1.76096">
        <ele>49</ele>
        <time>2018-01-14T10:03:31Z</time>
      </trkpt>
      <trkpt lat="46.69958" lon="-1.76101">
        <ele>48</ele>
        <time>2018-01-14T10:04:31Z</time>
      </trkpt>
      <trkpt lat="46.6993" lon="-1.76112">
        <ele>48</ele>
        <time>2018-01-14T10:05:31Z</time>
      </trkpt>
      <trkpt lat="46.69904" lon="-1.7612">
        <ele>48</ele>
        <time>2018-01-14T10:06:31Z</time>
      </trkpt>
      <trkpt lat="46.69892" lon="-1.76123">
        <ele>48</ele>
        <time>2018-01-14T10:07:31Z</time>
      </trkpt>
      <trkpt lat="46.69877" lon="-1.76122">
        <ele>48</ele>
        <time>2018-01-14T10:08:31Z</time>
      </trkpt>
      <trkpt lat="46.69873" lon="-1.76122">
        <ele>49</ele>
        <time>2018-01-14T10:09:31Z</time>
      </trkpt>
      <trkpt lat="46.69867" lon="-1.7612">
        <ele>49</ele>
        <time>2018-01-14T10:10:31Z</time>
      </trkpt>
      <trkpt lat="46.69857" lon="-1.76118">
        <ele>49</ele>
        <time>2018-01-14T10:11:31Z</time>
      </trkpt>
      <trkpt lat="46.69842" lon="-1.76118">
        <ele>49</ele>
        <time>2018-01-14T10:12:31Z</time>
      </trkpt>
      <trkpt lat="46.69838" lon="-1.76119">
        <ele>49</ele>
        <time>2018-01-14T10:13:31Z</time>
      </trkpt>
      <trkpt lat="46.6983" lon="-1.7612">
        <ele>49</ele>
        <time>2018-01-14T10:14:31Z</time>
      </trkpt>
      <trkpt lat="46.69826" lon="-1.76121">
        <ele>49</ele>
        <time>2018-01-14T10:15:31Z</time>
      </trkpt>
      <trkpt lat="46.69817" lon="-1.76124">
        <ele>49</ele>
        <time>2018-01-14T10:16:31Z</time>
      </trkpt>
      <trkpt lat="46.69808" lon="-1.76126">
        <ele>49</ele>
        <time>2018-01-14T10:17:31Z</time>
      </trkpt>
      <trkpt lat="46.69787" lon="-1.76136">
        <ele>49</ele>
        <time>2018-01-14T10:18:31Z</time>
      </trkpt>
      <trkpt lat="46.69773" lon="-1.76141">
        <ele>49</ele>
        <time>2018-01-14T10:19:31Z</time>
      </trkpt>
      <trkpt lat="46.69758" lon="-1.76148">
        <ele>49</ele>
        <time>2018-01-14T10:20:31Z</time>
      </trkpt>
      <trkpt lat="46.69758" lon="-1.76148">
        <ele>49</ele>
        <time>2018-01-14T10:21:31Z</time>
      </trkpt>
      <trkpt lat="46.69759" lon="-1.76164">
        <ele>49</ele>
        <time>2018-01-14T10:22:31Z</time>
      </trkpt>
      <trkpt lat="46.6976" lon="-1.76174">
        <ele>49</ele>
        <time>2018-01-14T10:23:31Z</time>
      </trkpt>
      <trkpt lat="46.69761" lon="-1.76192">
        <ele>47</ele>
        <time>2018-01-14T10:24:31Z</time>
      </trkpt>
      <trkpt lat="46.69759" lon="-1.76206">
        <ele>46</ele>
        <time>2018-01-14T10:25:31Z</time>
      </trkpt>
      <trkpt lat="46.69756" lon="-1.76225">
        <ele>45</ele>
        <time>2018-01-14T10:26:31Z</time>
      </trkpt>
      <trkpt lat="46.69753" lon="-1.76235">
        <ele>44</ele>
        <time>2018-01-14T10:27:31Z</time>
      </trkpt>
      <trkpt lat="46.6975" lon="-1.76245">
        <ele>43</ele>
        <time>2018-01-14T10:28:31Z</time>
      </trkpt>
      <trkpt lat="46.69746" lon="-1.76266">
        <ele>43</ele>
        <time>2018-01-14T10:29:31Z</time>
      </trkpt>
      <trkpt lat="46.69746" lon="-1.76271">
        <ele>42</ele>
        <time>2018-01-14T10:30:31Z</time>
      </trkpt>
      <trkpt lat="46.69745" lon="-1.76282">
        <ele>42</ele>
        <time>2018-01-14T10:31:31Z</time>
      </trkpt>
      <trkpt lat="46.69743" lon="-1.76301">
        <ele>42</ele>
        <time>2018-01-14T10:32:31Z</time>
      </trkpt>
      <trkpt lat="46.69742" lon="-1.76322">
        <ele>42</ele>
        <time>2018-01-14T10:33:31Z</time>
      </trkpt>
      <trkpt lat="46.69739" lon="-1.76336">
        <ele>41</ele>
        <time>2018-01-14T10:34:31Z</time>
      </trkpt>
      <trkpt lat="46.69739" lon="-1.76336">
        <ele>41</ele>
        <time>2018-01-14T10:35:31Z</time>
      </trkpt>
      <trkpt lat="46.6974" lon="-1.76336">
        <ele>41</ele>
        <time>2018-01-14T10:36:31Z</time>
      </trkpt>
      <trkpt lat="46.69741" lon="-1.76336">
        <ele>41</ele>
        <time>2018-01-14T10:37:31Z</time>
      </trkpt>
      <trkpt lat="46.69741" lon="-1.76337">
        <ele>41</ele>
        <time>2018-01-14T10:38:31Z</time>
      </trkpt>
      <trkpt lat="46.69742" lon="-1.76337">
        <ele>41</ele>
        <time>2018-01-14T10:39:31Z</time>
      </trkpt>
      <trkpt lat="46.69742" lon="-1.76338">
        <ele>41</ele>
        <time>2018-01-14T10:40:31Z</time>
      </trkpt>
      <trkpt lat="46.69743" lon="-1.76338">
        <ele>41</ele>
        <time>2018-01-14T10:41:31Z</time>
      </trkpt>
      <trkpt lat="46.69743" lon="-1.76339">
        <ele>41</ele>
        <time>2018-01-14T10:42:31Z</time>
      </trkpt>
      <trkpt lat="46.69744" lon="-1.76339">
        <ele>42</ele>
        <time>2018-01-14T10:43:31Z</time>
      </trkpt>
      <trkpt lat="46.69744" lon="-1.7634">
        <ele>41</ele>
        <time>2018-01-14T10:44:31Z</time>
      </trkpt>
      <trkpt lat="46.69744" lon="-1.76341">
        <ele>41</ele>
        <time>2018-01-14T10:45:31Z</time>
      </trkpt>
      <trkpt lat="46.69745" lon="-1.76341">
        <ele>42</ele>
        <time>2018-01-14T10:46:31Z</time>
      </trkpt>
      <trkpt lat="46.69745" lon="-1.76342">
        <ele>42</ele>
        <time>2018-01-14T10:47:31Z</time>
      </trkpt>
      <trkpt lat="46.69745" lon="-1.76343">
        <ele>42</ele>
        <time>2018-01-14T10:48:31Z</time>
      </trkpt>
      <trkpt lat="46.69746" lon="-1.76343">
        <ele>42</ele>
        <time>2018-01-14T10:49:31Z</time>
      </trkpt>
      <trkpt lat="46.69746" lon="-1.76344">
        <ele>42</ele>
        <time>2018-01-14T10:50:31Z</time>
      </trkpt>
      <trkpt lat="46.69746" lon="-1.76345">
        <ele>42</ele>
        <time>2018-01-14T10:51:31Z</time>
      </trkpt>
      <trkpt lat="46.69746" lon="-1.76346">
        <ele>42</ele>
        <time>2018-01-14T10:52:31Z</time>
      </trkpt>
      <trkpt lat="46.69746" lon="-1.76347">
        <ele>42</ele>
        <time>2018-01-14T10:53:31Z</time>
      </trkpt>
      <trkpt lat="46.69746" lon="-1.76348">
        <ele>42</ele>
        <time>2018-01-14T10:54:31Z</time>
      </trkpt>
      <trkpt lat="46.69746" lon="-1.76349">
        <ele>42</ele>
        <time>2018-01-14T10:55:31Z</time>
      </trkpt>
      <trkpt lat="46.69746" lon="-1.7635">
        <ele>42</ele>
        <time>2018-01-14T10:56:31Z</time>
      </trkpt>
      <trkpt lat="46.69746" lon="-1.76351">
        <ele>42</ele>
        <time>2018-01-14T10:57:31Z</time>
      </trkpt>
      <trkpt lat="46.69746" lon="-1.76352">
        <ele>41</ele>
        <time>2018-01-14T10:58:31Z</time>
      </trkpt>
      <trkpt lat="46.69745" lon="-1.76353">
        <ele>41</ele>
        <time>2018-01-14T10:59:31Z</time>
      </trkpt>
      <trkpt lat="46.69745" lon="-1.76354">
        <ele>41</ele>
        <time>2018-01-14T11:00:31Z</time>
      </trkpt>
      <trkpt lat="46.69745" lon="-1.76355">
        <ele>41</ele>
        <time>2018-01-14T11:01:31Z</time>
      </trkpt>
      <trkpt lat="46.69744" lon="-1.76355">
        <ele>41</ele>
        <time>2018-01-14T11:02:31Z</time>
      </trkpt>
      <trkpt lat="46.69744" lon="-1.76356">
        <ele>41</ele>
        <time>2018-01-14T11:03:31Z</time>
      </trkpt>
      <trkpt lat="46.69744" lon="-1.76357">
        <ele>41</ele>
        <time>2018-01-14T11:04:31Z</time>
      </trkpt>
      <trkpt lat="46.69743" lon="-1.76357">
        <ele>41</ele>
        <time>2018-01-14T11:05:31Z</time>
      </trkpt>
      <trkpt lat="46.69743" lon="-1.76358">
        <ele>41</ele>
        <time>2018-01-14T11:06:31Z</time>
      </trkpt>
      <trkpt lat="46.69742" lon="-1.76358">
        <ele>41</ele>
        <time>2018-01-14T11:07:31Z</time>
      </trkpt>
      <trkpt lat="46.69742" lon="-1.76359">
        <ele>41</ele>
        <time>2018-01-14T11:08:31Z</time>
      </trkpt>
      <trkpt lat="46.69741" lon="-1.76359">
        <ele>41</ele>
        <time>2018-01-14T11:09:31Z</time>
      </trkpt>
      <trkpt lat="46.69741" lon="-1.7636">
        <ele>41</ele>
        <time>2018-01-14T11:10:31Z</time>
      </trkpt>
      <trkpt lat="46.6974" lon="-1.7636">
        <ele>41</ele>
        <time>2018-01-14T11:11:31Z</time>
      </trkpt>
      <trkpt lat="46.69739" lon="-1.7636">
        <ele>41</ele>
        <time>2018-01-14T11:12:31Z</time>
      </trkpt>
      <trkpt lat="46.69738" lon="-1.7636">
        <ele>41</ele>
        <time>2018-01-14T11:13:31Z</time>
      </trkpt>
      <trkpt lat="46.69737" lon="-1.7636">
        <ele>41</ele>
        <time>2018-01-14T11:14:31Z</time>
      </trkpt>
      <trkpt lat="46.69736" lon="-1.7636">
        <ele>41</ele>
        <time>2018-01-14T11:15:31Z</time>
      </trkpt>
      <trkpt lat="46.69735" lon="-1.7636">
        <ele>41</ele>
        <time>2018-01-14T11:16:31Z</time>
      </trkpt>
      <trkpt lat="46.69734" lon="-1.76359">
        <ele>41</ele>
        <time>2018-01-14T11:17:31Z</time>
      </trkpt>
      <trkpt lat="46.69733" lon="-1.76359">
        <ele>41</ele>
        <time>2018-01-14T11:18:31Z</time>
      </trkpt>
      <trkpt lat="46.69733" lon="-1.76358">
        <ele>41</ele>
        <time>2018-01-14T11:19:31Z</time>
      </trkpt>
      <trkpt lat="46.69732" lon="-1.76358">
        <ele>40</ele>
        <time>2018-01-14T11:20:31Z</time>
      </trkpt>
      <trkpt lat="46.69732" lon="-1.76357">
        <ele>40</ele>
        <time>2018-01-14T11:21:31Z</time>
      </trkpt>
      <trkpt lat="46.69732" lon="-1.76356">
        <ele>40</ele>
        <time>2018-01-14T11:22:31Z</time>
      </trkpt>
      <trkpt lat="46.69731" lon="-1.76356">
        <ele>40</ele>
        <time>2018-01-14T11:23:31Z</time>
      </trkpt>
      <trkpt lat="46.69731" lon="-1.76355">
        <ele>40</ele>
        <time>2018-01-14T11:24:31Z</time>
      </trkpt>
      <trkpt lat="46.6973" lon="-1.76354">
        <ele>40</ele>
        <time>2018-01-14T11:25:31Z</time>
      </trkpt>
      <trkpt lat="46.6973" lon="-1.76353">
        <ele>40</ele>
        <time>2018-01-14T11:26:31Z</time>
      </trkpt>
      <trkpt lat="46.6973" lon="-1.76352">
        <ele>40</ele>
        <time>2018-01-14T11:27:31Z</time>
      </trkpt>
      <trkpt lat="46.6973" lon="-1.76351">
        <ele>40</ele>
        <time>2018-01-14T11:28:31Z</time>
      </trkpt>
      <trkpt lat="46.69729" lon="-1.76351">
        <ele>40</ele>
        <time>2018-01-14T11:29:31Z</time>
      </trkpt>
      <trkpt lat="46.69729" lon="-1.7635">
        <ele>40</ele>
        <time>2018-01-14T11:30:31Z</time>
      </trkpt>
      <trkpt lat="46.69729" lon="-1.76349">
        <ele>40</ele>
        <time>2018-01-14T11:31:31Z</time>
      </trkpt>
      <trkpt lat="46.69729" lon="-1.76348">
        <ele>40</ele>
        <time>2018-01-14T11:32:31Z</time>
      </trkpt>
      <trkpt lat="46.69729" lon="-1.76347">
        <ele>40</ele>
        <time>2018-01-14T11:33:31Z</time>
      </trkpt>
      <trkpt lat="46.69729" lon="-1.76346">
        <ele>40</ele>
        <time>2018-01-14T11:34:31Z</time>
      </trkpt>
      <trkpt lat="46.69729" lon="-1.76345">
        <ele>40</ele>
        <time>2018-01-14T11:35:31Z</time>
      </trkpt>
      <trkpt lat="46.6973" lon="-1.76345">
        <ele>40</ele>
        <time>2018-01-14T11:36:31Z</time>
      </trkpt>
      <trkpt lat="46.69719" lon="-1.76346">
        <ele>40</ele>
        <time>2018-01-14T11:37:31Z</time>
      </trkpt>
      <trkpt lat="46.69708" lon="-1.76351">
        <ele>39</ele>
        <time>2018-01-14T11:38:31Z</time>
      </trkpt>
      <trkpt lat="46.69696" lon="-1.76359">
        <ele>38</ele>
        <time>2018-01-14T11:39:31Z</time>
      </trkpt>
      <trkpt lat="46.69681" lon="-1.76368">
        <ele>37</ele>
        <time>2018-01-14T11:40:31Z</time>
      </trkpt>
      <trkpt lat="46.69666" lon="-1.76379">
        <ele>36</ele>
        <time>2018-01-14T11:41:31Z</time>
      </trkpt>
      <trkpt lat="46.69663" lon="-1.7638">
        <ele>36</ele>
        <time>2018-01-14T11:42:31Z</time>
      </trkpt>
      <trkpt lat="46.69659" lon="-1.76384">
        <ele>36</ele>
        <time>2018-01-14T11:43:31Z</time>
      </trkpt>
      <trkpt lat="46.69652" lon="-1.76389">
        <ele>37</ele>
        <time>2018-01-14T11:44:31Z</time>
      </trkpt>
      <trkpt lat="46.69642" lon="-1.76397">
        <ele>37</ele>
        <time>2018-01-14T11:45:31Z</time>
      </trkpt>
      <trkpt lat="46.69638" lon="-1.764">
        <ele>37</ele>
        <time>2018-01-14T11:46:31Z</time>
      </trkpt>
      <trkpt lat="46.6963" lon="-1.76405">
        <ele>37</ele>
        <time>2018-01-14T11:47:31Z</time>
      </trkpt>
      <trkpt lat="46.69618" lon="-1.76414">
        <ele>38</ele>
        <time>2018-01-14T11:48:31Z</time>
      </trkpt>
      <trkpt lat="46.69605" lon="-1.76424">
        <ele>38</ele>
        <time>2018-01-14T11:49:31Z</time>
      </trkpt>
      <trkpt lat="46.69604" lon="-1.76425">
        <ele>38</ele>
        <time>2018-01-14T11:50:31Z</time>
      </trkpt>
      <trkpt lat="46.69594" lon="-1.76433">
        <ele>39</ele>
        <time>2018-01-14T11:51:31Z</time>
      </trkpt>
      <trkpt lat="46.69581" lon="-1.76444">
        <ele>40</ele>
        <time>2018-01-14T11:52:31Z</time>
      </trkpt>
      <trkpt lat="46.69579" lon="-1.76447">
        <ele>40</ele>
        <time>2018-01-14T11:53:31Z</time>
      </trkpt>
      <trkpt lat="46.69557" lon="-1.76471">
        <ele>42</ele>
        <time>2018-01-14T11:54:31Z</time>
      </trkpt>
      <trkpt lat="46.69552" lon="-1.76476">
        <ele>43</ele>
        <time>2018-01-14T11:55:31Z</time>
      </trkpt>
      <trkpt lat="46.69539" lon="-1.76488">
        <ele>44</ele>
        <time>2018-01-14T11:56:31Z</time>
      </trkpt>
      <trkpt lat="46.69524" lon="-1.76501">
        <ele>45</ele>
        <time>2018-01-14T11:57:31Z</time>
      </trkpt>
      <trkpt lat="46.69509" lon="-1.76516">
        <ele>46</ele>
        <time>2018-01-14T11:58:31Z</time>
      </trkpt>
      <trkpt lat="46.69496" lon="-1.76528">
        <ele>46</ele>
        <time>2018-01-14T11:59:31Z</time>
      </trkpt>
      <trkpt lat="46.6948" lon="-1.76543">
        <ele>47</ele>
        <time>2018-01-14T12:00:31Z</time>
      </trkpt>
      <trkpt lat="46.69464" lon="-1.76557">
        <ele>47</ele>
        <time>2018-01-14T12:01:31Z</time>
      </trkpt>
      <trkpt lat="46.69451" lon="-1.7657">
        <ele>48</ele>
        <time>2018-01-14T12:02:31Z</time>
      </trkpt>
      <trkpt lat="46.69441" lon="-1.76578">
        <ele>48</ele>
        <time>2018-01-14T12:03:31Z</time>
      </trkpt>
      <trkpt lat="46.69438" lon="-1.76581">
        <ele>48</ele>
        <time>2018-01-14T12:04:31Z</time>
      </trkpt>
      <trkpt lat="46.69436" lon="-1.76583">
        <ele>48</ele>
        <time>2018-01-14T12:05:31Z</time>
      </trkpt>
      <trkpt lat="46.69424" lon="-1.76591">
        <ele>49</ele>
        <time>2018-01-14T12:06:31Z</time>
      </trkpt>
      <trkpt lat="46.69419" lon="-1.76595">
        <ele>49</ele>
        <time>2018-01-14T12:07:31Z</time>
      </trkpt>
      <trkpt lat="46.69412" lon="-1.766">
        <ele>49</ele>
        <time>2018-01-14T12:08:31Z</time>
      </trkpt>
      <trkpt lat="46.69404" lon="-1.76606">
        <ele>49</ele>
        <time>2018-01-14T12:09:31Z</time>
      </trkpt>
      <trkpt lat="46.69385" lon="-1.76617">
        <ele>50</ele>
        <time>2018-01-14T12:10:31Z</time>
      </trkpt>
      <trkpt lat="46.6937" lon="-1.76624">
        <ele>50</ele>
        <time>2018-01-14T12:11:31Z</time>
      </trkpt>
      <trkpt lat="46.69346" lon="-1.76637">
        <ele>51</ele>
        <time>2018-01-14T12:12:31Z</time>
      </trkpt>
      <trkpt lat="46.69338" lon="-1.76641">
        <ele>51</ele>
        <time>2018-01-14T12:13:31Z</time>
      </trkpt>
      <trkpt lat="46.69319" lon="-1.76651">
        <ele>51</ele>
        <time>2018-01-14T12:14:31Z</time>
      </trkpt>
      <trkpt lat="46.69301" lon="-1.7666">
        <ele>52</ele>
        <time>2018-01-14T12:15:31Z</time>
      </trkpt>
      <trkpt lat="46.69272" lon="-1.76675">
        <ele>52</ele>
        <time>2018-01-14T12:16:31Z</time>
      </trkpt>
      <trkpt lat="46.6925" lon="-1.76686">
        <ele>53</ele>
        <time>2018-01-14T12:17:31Z</time>
      </trkpt>
      <trkpt lat="46.69228" lon="-1.76697">
        <ele>53</ele>
        <time>2018-01-14T12:18:31Z</time>
      </trkpt>
      <trkpt lat="46.69212" lon="-1.76706">
        <ele>53</ele>
        <time>2018-01-14T12:19:31Z</time>
      </trkpt>
      <trkpt lat="46.69195" lon="-1.76713">
        <ele>54</ele>
        <time>2018-01-14T12:20:31Z</time>
      </trkpt>
      <trkpt lat="46.69182" lon="-1.76719">
        <ele>54</ele>
        <time>2018-01-14T12:21:31Z</time>
      </trkpt>
      <trkpt lat="46.69178" lon="-1.7672">
        <ele>54</ele>
        <time>2018-01-14T12:22:31Z</time>
      </trkpt>
      <trkpt lat="46.69166" lon="-1.76724">
        <ele>54</ele>
        <time>2018-01-14T12:23:31Z</time>
      </trkpt>
      <trkpt lat="46.69162" lon="-1.76726">
        <ele>54</ele>
        <time>2018-01-14T12:24:31Z</time>
      </trkpt>
      <trkpt lat="46.69151" lon="-1.76728">
        <ele>54</ele>
        <time>2018-01-14T12:25:31Z</time>
      </trkpt>
      <trkpt lat="46.69143" lon="-1.7673">
        <ele>55</ele>
        <time>2018-01-14T12:26:31Z</time>
      </trkpt>
      <trkpt lat="46.69139" lon="-1.76731">
        <ele>55</ele>
        <time>2018-01-14T12:27:31Z</time>
      </trkpt>
      <trkpt lat="46.69132" lon="-1.76732">
        <ele>55</ele>
        <time>2018-01-14T12:28:31Z</time>
      </trkpt>
      <trkpt lat="46.69113" lon="-1.76734">
        <ele>55</ele>
        <time>2018-01-14T12:29:31Z</time>
      </trkpt>
      <trkpt lat="46.69097" lon="-1.76737">
        <ele>55</ele>
        <time>2018-01-14T12:30:31Z</time>
      </trkpt>
      <trkpt lat="46.69083" lon="-1.7674">
        <ele>55</ele>
        <time>2018-01-14T12:31:31Z</time>
      </trkpt>
      <trkpt lat="46.69079" lon="-1.76741">
        <ele>55</ele>
        <time>2018-01-14T12:32:31Z</time>
      </trkpt>
      <trkpt lat="46.69069" lon="-1.76744">
        <ele>55</ele>
        <time>2018-01-14T12:33:31Z</time>
      </trkpt>
      <trkpt lat="46.69064" lon="-1.76747">
        <ele>55</ele>
        <time>2018-01-14T12:34:31Z</time>
      </trkpt>
      <trkpt lat="46.6905" lon="-1.76753">
        <ele>56</ele>
        <time>2018-01-14T12:35:31Z</time>
      </trkpt>
      <trkpt lat="46.69039" lon="-1.76759">
        <ele>56</ele>
        <time>2018-01-14T12:36:31Z</time>
      </trkpt>
      <trkpt lat="46.69031" lon="-1.76763">
        <ele>56</ele>
        <time>2018-01-14T12:37:31Z</time>
      </trkpt>
      <trkpt lat="46.69024" lon="-1.76766">
        <ele>56</ele>
        <time>2018-01-14T12:38:31Z</time>
      </trkpt>
      <trkpt lat="46.68992" lon="-1.76782">
        <ele>56</ele>
        <time>2018-01-14T12:39:31Z</time>
      </trkpt>
      <trkpt lat="46.68964" lon="-1.76796">
        <ele>55</ele>
        <time>2018-01-14T12:40:31Z</time>
      </trkpt>
      <trkpt lat="46.68946" lon="-1.76813">
        <ele>54</ele>
        <time>2018-01-14T12:41:31Z</time>
      </trkpt>
      <trkpt lat="46.68913" lon="-1.76842">
        <ele>54</ele>
        <time>2018-01-14T12:42:31Z</time>
      </trkpt>
      <trkpt lat="46.68893" lon="-1.76863">
        <ele>54</ele>
        <time>2018-01-14T12:43:31Z</time>
      </trkpt>
      <trkpt lat="46.68891" lon="-1.76866">
        <ele>54</ele>
        <time>2018-01-14T12:44:31Z</time>
      </trkpt>
      <trkpt lat="46.68878" lon="-1.76879">
        <ele>54</ele>
        <time>2018-01-14T12:45:31Z</time>
      </trkpt>
      <trkpt lat="46.68878" lon="-1.7688">
        <ele>54</ele>
        <time>2018-01-14T12:46:31Z</time>
      </trkpt>
      <trkpt lat="46.68878" lon="-1.76881">
        <ele>54</ele>
        <time>2018-01-14T12:47:31Z</time>
      </trkpt>
      <trkpt lat="46.68879" lon="-1.76881">
        <ele>54</ele>
        <time>2018-01-14T12:48:31Z</time>
      </trkpt>
      <trkpt lat="46.68879" lon="-1.76882">
        <ele>54</ele>
        <time>2018-01-14T12:49:31Z</time>
      </trkpt>
      <trkpt lat="46.68879" lon="-1.76883">
        <ele>54</ele>
        <time>2018-01-14T12:50:31Z</time>
      </trkpt>
      <trkpt lat="46.68879" lon="-1.76884">
        <ele>54</ele>
        <time>2018-01-14T12:51:31Z</time>
      </trkpt>
      <trkpt lat="46.68879" lon="-1.76885">
        <ele>54</ele>
        <time>2018-01-14T12:52:31Z</time>
      </trkpt>
      <trkpt lat="46.68879" lon="-1.76886">
        <ele>54</ele>
        <time>2018-01-14T12:53:31Z</time>
      </trkpt>
      <trkpt lat="46.68879" lon="-1.76887">
        <ele>54</ele>
        <time>2018-01-14T12:54:31Z</time>
      </trkpt>
      <trkpt lat="46.68879" lon="-1.76888">
        <ele>54</ele>
        <time>2018-01-14T12:55:31Z</time>
      </trkpt>
      <trkpt lat="46.68878" lon="-1.76889">
        <ele>54</ele>
        <time>2018-01-14T12:56:31Z</time>
      </trkpt>
      <trkpt lat="46.68878" lon="-1.7689">
        <ele>54</ele>
        <time>2018-01-14T12:57:31Z</time>
      </trkpt>
      <trkpt lat="46.68878" lon="-1.76891">
        <ele>54</ele>
        <time>2018-01-14T12:58:31Z</time>
      </trkpt>
      <trkpt lat="46.68877" lon="-1.76891">
        <ele>54</ele>
        <time>2018-01-14T12:59:31Z</time>
      </trkpt>
      <trkpt lat="46.68877" lon="-1.76892">
        <ele>54</ele>
        <time>2018-01-14T13:00:31Z</time>
      </trkpt>
      <trkpt lat="46.68877" lon="-1.76893">
        <ele>54</ele>
        <time>2018-01-14T13:01:31Z</time>
      </trkpt>
      <trkpt lat="46.68876" lon="-1.76893">
        <ele>54</ele>
        <time>2018-01-14T13:02:31Z</time>
      </trkpt>
      <trkpt lat="46.68876" lon="-1.76894">
        <ele>54</ele>
        <time>2018-01-14T13:03:31Z</time>
      </trkpt>
      <trkpt lat="46.68875" lon="-1.76894">
        <ele>54</ele>
        <time>2018-01-14T13:04:31Z</time>
      </trkpt>
      <trkpt lat="46.68875" lon="-1.76895">
        <ele>54</ele>
        <time>2018-01-14T13:05:31Z</time>
      </trkpt>
      <trkpt lat="46.68874" lon="-1.76895">
        <ele>54</ele>
        <time>2018-01-14T13:06:31Z</time>
      </trkpt>
      <trkpt lat="46.68874" lon="-1.76896">
        <ele>54</ele>
        <time>2018-01-14T13:07:31Z</time>
      </trkpt>
      <trkpt lat="46.68873" lon="-1.76896">
        <ele>54</ele>
        <time>2018-01-14T13:08:31Z</time>
      </trkpt>
      <trkpt lat="46.68872" lon="-1.76896">
        <ele>54</ele>
        <time>2018-01-14T13:09:31Z</time>
      </trkpt>
      <trkpt lat="46.68871" lon="-1.76896">
        <ele>54</ele>
        <time>2018-01-14T13:10:31Z</time>
      </trkpt>
      <trkpt lat="46.68871" lon="-1.76897">
        <ele>54</ele>
        <time>2018-01-14T13:11:31Z</time>
      </trkpt>
      <trkpt lat="46.6887" lon="-1.76897">
        <ele>54</ele>
        <time>2018-01-14T13:12:31Z</time>
      </trkpt>
      <trkpt lat="46.6887" lon="-1.76896">
        <ele>54</ele>
        <time>2018-01-14T13:13:31Z</time>
      </trkpt>
      <trkpt lat="46.68869" lon="-1.76896">
        <ele>54</ele>
        <time>2018-01-14T13:14:31Z</time>
      </trkpt>
      <trkpt lat="46.68868" lon="-1.76896">
        <ele>54</ele>
        <time>2018-01-14T13:15:31Z</time>
      </trkpt>
      <trkpt lat="46.68867" lon="-1.76896">
        <ele>54</ele>
        <time>2018-01-14T13:16:31Z</time>
      </trkpt>
      <trkpt lat="46.68867" lon="-1.76895">
        <ele>54</ele>
        <time>2018-01-14T13:17:31Z</time>
      </trkpt>
      <trkpt lat="46.68866" lon="-1.76895">
        <ele>54</ele>
        <time>2018-01-14T13:18:31Z</time>
      </trkpt>
      <trkpt lat="46.68866" lon="-1.76894">
        <ele>54</ele>
        <time>2018-01-14T13:19:31Z</time>
      </trkpt>
      <trkpt lat="46.68865" lon="-1.76894">
        <ele>54</ele>
        <time>2018-01-14T13:20:31Z</time>
      </trkpt>
      <trkpt lat="46.68865" lon="-1.76893">
        <ele>54</ele>
        <time>2018-01-14T13:21:31Z</time>
      </trkpt>
      <trkpt lat="46.68865" lon="-1.76892">
        <ele>54</ele>
        <time>2018-01-14T13:22:31Z</time>
      </trkpt>
      <trkpt lat="46.68864" lon="-1.76892">
        <ele>54</ele>
        <time>2018-01-14T13:23:31Z</time>
      </trkpt>
      <trkpt lat="46.68864" lon="-1.76891">
        <ele>54</ele>
        <time>2018-01-14T13:24:31Z</time>
      </trkpt>
      <trkpt lat="46.68813" lon="-1.76932">
        <ele>54</ele>
        <time>2018-01-14T13:25:31Z</time>
      </trkpt>
      <trkpt lat="46.68813" lon="-1.76933">
        <ele>54</ele>
        <time>2018-01-14T13:26:31Z</time>
      </trkpt>
      <trkpt lat="46.68813" lon="-1.76934">
        <ele>54</ele>
        <time>2018-01-14T13:27:31Z</time>
      </trkpt>
      <trkpt lat="46.68813" lon="-1.76935">
        <ele>54</ele>
        <time>2018-01-14T13:28:31Z</time>
      </trkpt>
      <trkpt lat="46.68813" lon="-1.76936">
        <ele>54</ele>
        <time>2018-01-14T13:29:31Z</time>
      </trkpt>
      <trkpt lat="46.68813" lon="-1.76937">
        <ele>54</ele>
        <time>2018-01-14T13:30:31Z</time>
      </trkpt>
      <trkpt lat="46.68813" lon="-1.76938">
        <ele>54</ele>
        <time>2018-01-14T13:31:31Z</time>
      </trkpt>
      <trkpt lat="46.68813" lon="-1.76939">
        <ele>54</ele>
        <time>2018-01-14T13:32:31Z</time>
      </trkpt>
      <trkpt lat="46.68813" lon="-1.7694">
        <ele>54</ele>
        <time>2018-01-14T13:33:31Z</time>
      </trkpt>
      <trkpt lat="46.68813" lon="-1.76941">
        <ele>54</ele>
        <time>2018-01-14T13:34:31Z</time>
      </trkpt>
      <trkpt lat="46.68813" lon="-1.76942">
        <ele>54</ele>
        <time>2018-01-14T13:35:31Z</time>
      </trkpt>
      <trkpt lat="46.68812" lon="-1.76943">
        <ele>54</ele>
        <time>2018-01-14T13:36:31Z</time>
      </trkpt>
      <trkpt lat="46.68812" lon="-1.76944">
        <ele>54</ele>
        <time>2018-01-14T13:37:31Z</time>
      </trkpt>
      <trkpt lat="46.68811" lon="-1.76945">
        <ele>54</ele>
        <time>2018-01-14T13:38:31Z</time>
      </trkpt>
      <trkpt lat="46.68811" lon="-1.76946">
        <ele>54</ele>
        <time>2018-01-14T13:39:31Z</time>
      </trkpt>
      <trkpt lat="46.6881" lon="-1.76946">
        <ele>54</ele>
        <time>2018-01-14T13:40:31Z</time>
      </trkpt>
      <trkpt lat="46.6881" lon="-1.76947">
        <ele>54</ele>
        <time>2018-01-14T13:41:31Z</time>
      </trkpt>
      <trkpt lat="46.68809" lon="-1.76947">
        <ele>54</ele>
        <time>2018-01-14T13:42:31Z</time>
      </trkpt>
      <trkpt lat="46.68808" lon="-1.76948">
        <ele>54</ele>
        <time>2018-01-14T13:43:31Z</time>
      </trkpt>
      <trkpt lat="46.68807" lon="-1.76948">
        <ele>54</ele>
        <time>2018-01-14T13:44:31Z</time>
      </trkpt>
      <trkpt lat="46.68806" lon="-1.76948">
        <ele>54</ele>
        <time>2018-01-14T13:45:31Z</time>
      </trkpt>
      <trkpt lat="46.68805" lon="-1.76948">
        <ele>54</ele>
        <time>2018-01-14T13:46:31Z</time>
      </trkpt>
      <trkpt lat="46.68804" lon="-1.76948">
        <ele>54</ele>
        <time>2018-01-14T13:47:31Z</time>
      </trkpt>
      <trkpt lat="46.68803" lon="-1.76948">
        <ele>54</ele>
        <time>2018-01-14T13:48:31Z</time>
      </trkpt>
      <trkpt lat="46.68803" lon="-1.76947">
        <ele>54</ele>
        <time>2018-01-14T13:49:31Z</time>
      </trkpt>
      <trkpt lat="46.68802" lon="-1.76947">
        <ele>54</ele>
        <time>2018-01-14T13:50:31Z</time>
      </trkpt>
      <trkpt lat="46.68802" lon="-1.76946">
        <ele>54</ele>
        <time>2018-01-14T13:51:31Z</time>
      </trkpt>
      <trkpt lat="46.68801" lon="-1.76946">
        <ele>54</ele>
        <time>2018-01-14T13:52:31Z</time>
      </trkpt>
      <trkpt lat="46.68801" lon="-1.76945">
        <ele>54</ele>
        <time>2018-01-14T13:53:31Z</time>
      </trkpt>
      <trkpt lat="46.688" lon="-1.76945">
        <ele>54</ele>
        <time>2018-01-14T13:54:31Z</time>
      </trkpt>
      <trkpt lat="46.688" lon="-1.76944">
        <ele>54</ele>
        <time>2018-01-14T13:55:31Z</time>
      </trkpt>
      <trkpt lat="46.68715" lon="-1.77046">
        <ele>56</ele>
        <time>2018-01-14T13:56:31Z</time>
      </trkpt>
      <trkpt lat="46.68597" lon="-1.77181">
        <ele>57</ele>
        <time>2018-01-14T13:57:31Z</time>
      </trkpt>
      <trkpt lat="46.68572" lon="-1.7721">
        <ele>57</ele>
        <time>2018-01-14T13:58:31Z</time>
      </trkpt>
      <trkpt lat="46.68544" lon="-1.77245">
        <ele>57</ele>
        <time>2018-01-14T13:59:31Z</time>
      </trkpt>
      <trkpt lat="46.68511" lon="-1.77283">
        <ele>56</ele>
        <time>2018-01-14T14:00:31Z</time>
      </trkpt>
      <trkpt lat="46.68486" lon="-1.77314">
        <ele>55</ele>
        <time>2018-01-14T14:01:31Z</time>
      </trkpt>
      <trkpt lat="46.6846" lon="-1.77344">
        <ele>54</ele>
        <time>2018-01-14T14:02:31Z</time>
      </trkpt>
      <trkpt lat="46.68442" lon="-1.77365">
        <ele>54</ele>
        <time>2018-01-14T14:03:31Z</time>
      </trkpt>
      <trkpt lat="46.68424" lon="-1.77386">
        <ele>53</ele>
        <time>2018-01-14T14:04:31Z</time>
      </trkpt>
      <trkpt lat="46.68404" lon="-1.77409">
        <ele>52</ele>
        <time>2018-01-14T14:05:31Z</time>
      </trkpt>
      <trkpt lat="46.68389" lon="-1.77423">
        <ele>52</ele>
        <time>2018-01-14T14:06:31Z</time>
      </trkpt>
      <trkpt lat="46.68372" lon="-1.77439">
        <ele>52</ele>
        <time>2018-01-14T14:07:31Z</time>
      </trkpt>
      <trkpt lat="46.68357" lon="-1.77453">
        <ele>52</ele>
        <time>2018-01-14T14:08:31Z</time>
      </trkpt>
      <trkpt lat="46.68335" lon="-1.77471">
        <ele>52</ele>
        <time>2018-01-14T14:09:31Z</time>
      </trkpt>
      <trkpt lat="46.68317" lon="-1.77486">
        <ele>51</ele>
        <time>2018-01-14T14:10:31Z</time>
      </trkpt>
      <trkpt lat="46.68299" lon="-1.775">
        <ele>51</ele>
        <time>2018-01-14T14:11:31Z</time>
      </trkpt>
      <trkpt lat="46.68269" lon="-1.77524">
        <ele>51</ele>
        <time>2018-01-14T14:12:31Z</time>
      </trkpt>
      <trkpt lat="46.68229" lon="-1.77556">
        <ele>51</ele>
        <time>2018-01-14T14:13:31Z</time>
      </trkpt>
      <trkpt lat="46.68193" lon="-1.77584">
        <ele>50</ele>
        <time>2018-01-14T14:14:31Z</time>
      </trkpt>
      <trkpt lat="46.68155" lon="-1.77615">
        <ele>50</ele>
        <time>2018-01-14T14:15:31Z</time>
      </trkpt>
      <trkpt lat="46.6814" lon="-1.77627">
        <ele>50</ele>
        <time>2018-01-14T14:16:31Z</time>
      </trkpt>
      <trkpt lat="46.68125" lon="-1.77641">
        <ele>50</ele>
        <time>2018-01-14T14:17:31Z</time>
      </trkpt>
      <trkpt lat="46.68112" lon="-1.77655">
        <ele>50</ele>
        <time>2018-01-14T14:18:31Z</time>
      </trkpt>
      <trkpt lat="46.68098" lon="-1.77671">
        <ele>50</ele>
        <time>2018-01-14T14:19:31Z</time>
      </trkpt>
      <trkpt lat="46.68081" lon="-1.77694">
        <ele>49</ele>
        <time>2018-01-14T14:20:31Z</time>
      </trkpt>
      <trkpt lat="46.68063" lon="-1.77717">
        <ele>49</ele>
        <time>2018-01-14T14:21:31Z</time>
      </trkpt>
      <trkpt lat="46.68046" lon="-1.77739">
        <ele>49</ele>
        <time>2018-01-14T14:22:31Z</time>
      </trkpt>
      <trkpt lat="46.68012" lon="-1.77785">
        <ele>49</ele>
        <time>2018-01-14T14:23:31Z</time>
      </trkpt>
      <trkpt lat="46.67988" lon="-1.77817">
        <ele>49</ele>
        <time>2018-01-14T14:24:31Z</time>
      </trkpt>
      <trkpt lat="46.67964" lon="-1.77851">
        <ele>48</ele>
        <time>2018-01-14T14:25:31Z</time>
      </trkpt>
      <trkpt lat="46.67939" lon="-1.77884">
        <ele>47</ele>
        <time>2018-01-14T14:26:31Z</time>
      </trkpt>
      <trkpt lat="46.67917" lon="-1.77914">
        <ele>47</ele>
        <time>2018-01-14T14:27:31Z</time>
      </trkpt>
      <trkpt lat="46.67895" lon="-1.77943">
        <ele>46</ele>
        <time>2018-01-14T14:28:31Z</time>
      </trkpt>
      <trkpt lat="46.67874" lon="-1.77973">
        <ele>46</ele>
        <time>2018-01-14T14:29:31Z</time>
      </trkpt>
      <trkpt lat="46.67852" lon="-1.78001">
        <ele>45</ele>
        <time>2018-01-14T14:30:31Z</time>
      </trkpt>
      <trkpt lat="46.67845" lon="-1.78011">
        <ele>45</ele>
        <time>2018-01-14T14:31:31Z</time>
      </trkpt>
      <trkpt lat="46.67821" lon="-1.78044">
        <ele>45</ele>
        <time>2018-01-14T14:32:31Z</time>
      </trkpt>
      <trkpt lat="46.67796" lon="-1.7808">
        <ele>44</ele>
        <time>2018-01-14T14:33:31Z</time>
      </trkpt>
      <trkpt lat="46.67773" lon="-1.78109">
        <ele>44</ele>
        <time>2018-01-14T14:34:31Z</time>
      </trkpt>
      <trkpt lat="46.67753" lon="-1.78138">
        <ele>44</ele>
        <time>2018-01-14T14:35:31Z</time>
      </trkpt>
      <trkpt lat="46.67728" lon="-1.78173">
        <ele>43</ele>
        <time>2018-01-14T14:36:31Z</time>
      </trkpt>
      <trkpt lat="46.67715" lon="-1.7819">
        <ele>43</ele>
        <time>2018-01-14T14:37:31Z</time>
      </trkpt>
      <trkpt lat="46.67694" lon="-1.78218">
        <ele>42</ele>
        <time>2018-01-14T14:38:31Z</time>
      </trkpt>
      <trkpt lat="46.67664" lon="-1.78259">
        <ele>42</ele>
        <time>2018-01-14T14:39:31Z</time>
      </trkpt>
      <trkpt lat="46.6762" lon="-1.78317">
        <ele>41</ele>
        <time>2018-01-14T14:40:31Z</time>
      </trkpt>
      <trkpt lat="46.67586" lon="-1.78364">
        <ele>40</ele>
        <time>2018-01-14T14:41:31Z</time>
      </trkpt>
      <trkpt lat="46.67553" lon="-1.78408">
        <ele>39</ele>
        <time>2018-01-14T14:42:31Z</time>
      </trkpt>
      <trkpt lat="46.67526" lon="-1.78446">
        <ele>38</ele>
        <time>2018-01-14T14:43:31Z</time>
      </trkpt>
      <trkpt lat="46.67492" lon="-1.78492">
        <ele>36</ele>
        <time>2018-01-14T14:44:31Z</time>
      </trkpt>
      <trkpt lat="46.67466" lon="-1.78526">
        <ele>36</ele>
        <time>2018-01-14T14:45:31Z</time>
      </trkpt>
      <trkpt lat="46.67451" lon="-1.78547">
        <ele>36</ele>
        <time>2018-01-14T14:46:31Z</time>
      </trkpt>
      <trkpt lat="46.67445" lon="-1.78554">
        <ele>36</ele>
        <time>2018-01-14T14:47:31Z</time>
      </trkpt>
      <trkpt lat="46.67442" lon="-1.78559">
        <ele>36</ele>
        <time>2018-01-14T14:48:31Z</time>
      </trkpt>
      <trkpt lat="46.6742" lon="-1.7859">
        <ele>36</ele>
        <time>2018-01-14T14:49:31Z</time>
      </trkpt>
      <trkpt lat="46.6739" lon="-1.78629">
        <ele>35</ele>
        <time>2018-01-14T14:50:31Z</time>
      </trkpt>
      <trkpt lat="46.67355" lon="-1.78678">
        <ele>35</ele>
        <time>2018-01-14T14:51:31Z</time>
      </trkpt>
      <trkpt lat="46.67332" lon="-1.78709">
        <ele>34</ele>
        <time>2018-01-14T14:52:31Z</time>
      </trkpt>
      <trkpt lat="46.6731" lon="-1.78739">
        <ele>33</ele>
        <time>2018-01-14T14:53:31Z</time>
      </trkpt>
      <trkpt lat="46.67292" lon="-1.78763">
        <ele>33</ele>
        <time>2018-01-14T14:54:31Z</time>
      </trkpt>
      <trkpt lat="46.67272" lon="-1.7879">
        <ele>34</ele>
        <time>2018-01-14T14:55:31Z</time>
      </trkpt>
      <trkpt lat="46.67257" lon="-1.7881">
        <ele>34</ele>
        <time>2018-01-14T14:56:31Z</time>
      </trkpt>
      <trkpt lat="46.67234" lon="-1.7884">
        <ele>34</ele>
        <time>2018-01-14T14:57:31Z</time>
      </trkpt>
      <trkpt lat="46.67191" lon="-1.78901">
        <ele>33</ele>
        <time>2018-01-14T14:58:31Z</time>
      </trkpt>
      <trkpt lat="46.67152" lon="-1.78953">
        <ele>32</ele>
        <time>2018-01-14T14:59:31Z</time>
      </trkpt>
      <trkpt lat="46.67142" lon="-1.78968">
        <ele>33</ele>
        <time>2018-01-14T15:00:31Z</time>
      </trkpt>
      <trkpt lat="46.67124" lon="-1.78995">
        <ele>33</ele>
        <time>2018-01-14T15:01:31Z</time>
      </trkpt>
      <trkpt lat="46.67085" lon="-1.79047">
        <ele>34</ele>
        <time>2018-01-14T15:02:31Z</time>
      </trkpt>
      <trkpt lat="46.67045" lon="-1.79101">
        <ele>35</ele>
        <time>2018-01-14T15:03:31Z</time>
      </trkpt>
      <trkpt lat="46.67009" lon="-1.79151">
        <ele>35</ele>
        <time>2018-01-14T15:04:31Z</time>
      </trkpt>
      <trkpt lat="46.66963" lon="-1.79214">
        <ele>37</ele>
        <time>2018-01-14T15:05:31Z</time>
      </trkpt>
      <trkpt lat="46.66934" lon="-1.79253">
        <ele>38</ele>
        <time>2018-01-14T15:06:31Z</time>
      </trkpt>
      <trkpt lat="46.66906" lon="-1.79295">
        <ele>38</ele>
        <time>2018-01-14T15:07:31Z</time>
      </trkpt>
      <trkpt lat="46.6688" lon="-1.79336">
        <ele>38</ele>
        <time>2018-01-14T15:08:31Z</time>
      </trkpt>
      <trkpt lat="46.6686" lon="-1.79365">
        <ele>39</ele>
        <time>2018-01-14T15:09:31Z</time>
      </trkpt>
      <trkpt lat="46.66851" lon="-1.7938">
        <ele>40</ele>
        <time>2018-01-14T15:10:31Z</time>
      </trkpt>
      <trkpt lat="46.6683" lon="-1.79413">
        <ele>41</ele>
        <time>2018-01-14T15:11:31Z</time>
      </trkpt>
      <trkpt lat="46.66813" lon="-1.79439">
        <ele>41</ele>
        <time>2018-01-14T15:12:31Z</time>
      </trkpt>
      <trkpt lat="46.66796" lon="-1.7947">
        <ele>41</ele>
        <time>2018-01-14T15:13:31Z</time>
      </trkpt>
      <trkpt lat="46.66782" lon="-1.795">
        <ele>41</ele>
        <time>2018-01-14T15:14:31Z</time>
      </trkpt>
      <trkpt lat="46.66773" lon="-1.7952">
        <ele>40</ele>
        <time>2018-01-14T15:15:31Z</time>
      </trkpt>
      <trkpt lat="46.66769" lon="-1.79531">
        <ele>40</ele>
        <time>2018-01-14T15:16:31Z</time>
      </trkpt>
      <trkpt lat="46.66766" lon="-1.79541">
        <ele>40</ele>
        <time>2018-01-14T15:17:31Z</time>
      </trkpt>
      <trkpt lat="46.66757" lon="-1.79571">
        <ele>40</ele>
        <time>2018-01-14T15:18:31Z</time>
      </trkpt>
      <trkpt lat="46.66746" lon="-1.79613">
        <ele>40</ele>
        <time>2018-01-14T15:19:31Z</time>
      </trkpt>
      <trkpt lat="46.66733" lon="-1.79661">
        <ele>39</ele>
        <time>2018-01-14T15:20:31Z</time>
      </trkpt>
      <trkpt lat="46.66725" lon="-1.79698">
        <ele>40</ele>
        <time>2018-01-14T15:21:31Z</time>
      </trkpt>
      <trkpt lat="46.66715" lon="-1.79735">
        <ele>41</ele>
        <time>2018-01-14T15:22:31Z</time>
      </trkpt>
      <trkpt lat="46.66694" lon="-1.79817">
        <ele>41</ele>
        <time>2018-01-14T15:23:31Z</time>
      </trkpt>
      <trkpt lat="46.6668" lon="-1.79875">
        <ele>40</ele>
        <time>2018-01-14T15:24:31Z</time>
      </trkpt>
      <trkpt lat="46.66667" lon="-1.79927">
        <ele>40</ele>
        <time>2018-01-14T15:25:31Z</time>
      </trkpt>
      <trkpt lat="46.66652" lon="-1.79982">
        <ele>40</ele>
        <time>2018-01-14T15:26:31Z</time>
      </trkpt>
      <trkpt lat="46.66644" lon="-1.80009">
        <ele>40</ele>
        <time>2018-01-14T15:27:31Z</time>
      </trkpt>
      <trkpt lat="46.66632" lon="-1.80041">
        <ele>39</ele>
        <time>2018-01-14T15:28:31Z</time>
      </trkpt>
      <trkpt lat="46.66618" lon="-1.80087">
        <ele>39</ele>
        <time>2018-01-14T15:29:31Z</time>
      </trkpt>
      <trkpt lat="46.66599" lon="-1.80141">
        <ele>39</ele>
        <time>2018-01-14T15:30:31Z</time>
      </trkpt>
      <trkpt lat="46.66584" lon="-1.80188">
        <ele>39</ele>
        <time>2018-01-14T15:31:31Z</time>
      </trkpt>
      <trkpt lat="46.66567" lon="-1.80237">
        <ele>39</ele>
        <time>2018-01-14T15:32:31Z</time>
      </trkpt>
      <trkpt lat="46.66553" lon="-1.80279">
        <ele>38</ele>
        <time>2018-01-14T15:33:31Z</time>
      </trkpt>
      <trkpt lat="46.66541" lon="-1.80309">
        <ele>38</ele>
        <time>2018-01-14T15:34:31Z</time>
      </trkpt>
      <trkpt lat="46.6653" lon="-1.80332">
        <ele>38</ele>
        <time>2018-01-14T15:35:31Z</time>
      </trkpt>
      <trkpt lat="46.66519" lon="-1.8035">
        <ele>38</ele>
        <time>2018-01-14T15:36:31Z</time>
      </trkpt>
      <trkpt lat="46.66512" lon="-1.80361">
        <ele>38</ele>
        <time>2018-01-14T15:37:31Z</time>
      </trkpt>
      <trkpt lat="46.66505" lon="-1.8037">
        <ele>38</ele>
        <time>2018-01-14T15:38:31Z</time>
      </trkpt>
      <trkpt lat="46.66489" lon="-1.80389">
        <ele>37</ele>
        <time>2018-01-14T15:39:31Z</time>
      </trkpt>
      <trkpt lat="46.66452" lon="-1.8043">
        <ele>36</ele>
        <time>2018-01-14T15:40:31Z</time>
      </trkpt>
      <trkpt lat="46.66413" lon="-1.80473">
        <ele>36</ele>
        <time>2018-01-14T15:41:31Z</time>
      </trkpt>
      <trkpt lat="46.66375" lon="-1.80515">
        <ele>36</ele>
        <time>2018-01-14T15:42:31Z</time>
      </trkpt>
      <trkpt lat="46.66332" lon="-1.80562">
        <ele>35</ele>
        <time>2018-01-14T15:43:31Z</time>
      </trkpt>
      <trkpt lat="46.66296" lon="-1.80602">
        <ele>34</ele>
        <time>2018-01-14T15:44:31Z</time>
      </trkpt>
      <trkpt lat="46.66255" lon="-1.80646">
        <ele>33</ele>
        <time>2018-01-14T15:45:31Z</time>
      </trkpt>
      <trkpt lat="46.6621" lon="-1.80697">
        <ele>32</ele>
        <time>2018-01-14T15:46:31Z</time>
      </trkpt>
      <trkpt lat="46.66171" lon="-1.80741">
        <ele>30</ele>
        <time>2018-01-14T15:47:31Z</time>
      </trkpt>
      <trkpt lat="46.66138" lon="-1.80775">
        <ele>28</ele>
        <time>2018-01-14T15:48:31Z</time>
      </trkpt>
      <trkpt lat="46.66105" lon="-1.80803">
        <ele>26</ele>
        <time>2018-01-14T15:49:31Z</time>
      </trkpt>
      <trkpt lat="46.66079" lon="-1.80825">
        <ele>25</ele>
        <time>2018-01-14T15:50:31Z</time>
      </trkpt>
      <trkpt lat="46.66057" lon="-1.80838">
        <ele>23</ele>
        <time>2018-01-14T15:51:31Z</time>
      </trkpt>
      <trkpt lat="46.66033" lon="-1.80858">
        <ele>21</ele>
        <time>2018-01-14T15:52:31Z</time>
      </trkpt>
      <trkpt lat="46.66007" lon="-1.80876">
        <ele>20</ele>
        <time>2018-01-14T15:53:31Z</time>
      </trkpt>
      <trkpt lat="46.65988" lon="-1.80888">
        <ele>19</ele>
        <time>2018-01-14T15:54:31Z</time>
      </trkpt>
      <trkpt lat="46.65981" lon="-1.80893">
        <ele>19</ele>
        <time>2018-01-14T15:55:31Z</time>
      </trkpt>
      <trkpt lat="46.65967" lon="-1.80899">
        <ele>18</ele>
        <time>2018-01-14T15:56:31Z</time>
      </trkpt>
      <trkpt lat="46.65942" lon="-1.80911">
        <ele>17</ele>
        <time>2018-01-14T15:57:31Z</time>
      </trkpt>
      <trkpt lat="46.65935" lon="-1.80913">
        <ele>17</ele>
        <time>2018-01-14T15:58:31Z</time>
      </trkpt>
      <trkpt lat="46.65914" lon="-1.80922">
        <ele>16</ele>
        <time>2018-01-14T15:59:31Z</time>
      </trkpt>
      <trkpt lat="46.65887" lon="-1.80931">
        <ele>18</ele>
        <time>2018-01-14T16:00:31Z</time>
      </trkpt>
      <trkpt lat="46.65849" lon="-1.80944">
        <ele>19</ele>
        <time>2018-01-14T16:01:31Z</time>
      </trkpt>
      <trkpt lat="46.65802" lon="-1.80961">
        <ele>21</ele>
        <time>2018-01-14T16:02:31Z</time>
      </trkpt>
      <trkpt lat="46.65763" lon="-1.80975">
        <ele>22</ele>
        <time>2018-01-14T16:03:31Z</time>
      </trkpt>
      <trkpt lat="46.65718" lon="-1.80992">
        <ele>23</ele>
        <time>2018-01-14T16:04:31Z</time>
      </trkpt>
      <trkpt lat="46.6569" lon="-1.81001">
        <ele>22</ele>
        <time>2018-01-14T16:05:31Z</time>
      </trkpt>
      <trkpt lat="46.65677" lon="-1.81006">
        <ele>22</ele>
        <time>2018-01-14T16:06:31Z</time>
      </trkpt>
      <trkpt lat="46.65648" lon="-1.81017">
        <ele>21</ele>
        <time>2018-01-14T16:07:31Z</time>
      </trkpt>
      <trkpt lat="46.65628" lon="-1.81025">
        <ele>21</ele>
        <time>2018-01-14T16:08:31Z</time>
      </trkpt>
      <trkpt lat="46.65619" lon="-1.8103">
        <ele>20</ele>
        <time>2018-01-14T16:09:31Z</time>
      </trkpt>
      <trkpt lat="46.65592" lon="-1.81042">
        <ele>19</ele>
        <time>2018-01-14T16:10:31Z</time>
      </trkpt>
      <trkpt lat="46.65578" lon="-1.81051">
        <ele>18</ele>
        <time>2018-01-14T16:11:31Z</time>
      </trkpt>
      <trkpt lat="46.65565" lon="-1.8106">
        <ele>18</ele>
        <time>2018-01-14T16:12:31Z</time>
      </trkpt>
      <trkpt lat="46.6556" lon="-1.81064">
        <ele>17</ele>
        <time>2018-01-14T16:13:31Z</time>
      </trkpt>
      <trkpt lat="46.65534" lon="-1.81085">
        <ele>16</ele>
        <time>2018-01-14T16:14:31Z</time>
      </trkpt>
      <trkpt lat="46.65511" lon="-1.81105">
        <ele>14</ele>
        <time>2018-01-14T16:15:31Z</time>
      </trkpt>
      <trkpt lat="46.65494" lon="-1.81119">
        <ele>13</ele>
        <time>2018-01-14T16:16:31Z</time>
      </trkpt>
      <trkpt lat="46.6547" lon="-1.81139">
        <ele>11</ele>
        <time>2018-01-14T16:17:31Z</time>
      </trkpt>
      <trkpt lat="46.65469" lon="-1.8114">
        <ele>11</ele>
        <time>2018-01-14T16:18:31Z</time>
      </trkpt>
      <trkpt lat="46.65452" lon="-1.81156">
        <ele>9</ele>
        <time>2018-01-14T16:19:31Z</time>
      </trkpt>
      <trkpt lat="46.65444" lon="-1.81163">
        <ele>9</ele>
        <time>2018-01-14T16:20:31Z</time>
      </trkpt>
      <trkpt lat="46.6543" lon="-1.81177">
        <ele>8</ele>
        <time>2018-01-14T16:21:31Z</time>
      </trkpt>
      <trkpt lat="46.65415" lon="-1.81193">
        <ele>7</ele>
        <time>2018-01-14T16:22:31Z</time>
      </trkpt>
      <trkpt lat="46.65397" lon="-1.81213">
        <ele>6</ele>
        <time>2018-01-14T16:23:31Z</time>
      </trkpt>
      <trkpt lat="46.65388" lon="-1.81228">
        <ele>6</ele>
        <time>2018-01-14T16:24:31Z</time>
      </trkpt>
      <trkpt lat="46.65378" lon="-1.81243">
        <ele>6</ele>
        <time>2018-01-14T16:25:31Z</time>
      </trkpt>
      <trkpt lat="46.65373" lon="-1.81251">
        <ele>5</ele>
        <time>2018-01-14T16:26:31Z</time>
      </trkpt>
      <trkpt lat="46.6536" lon="-1.81269">
        <ele>5</ele>
        <time>2018-01-14T16:27:31Z</time>
      </trkpt>
      <trkpt lat="46.65349" lon="-1.81287">
        <ele>5</ele>
        <time>2018-01-14T16:28:31Z</time>
      </trkpt>
      <trkpt lat="46.65346" lon="-1.81298">
        <ele>5</ele>
        <time>2018-01-14T16:29:31Z</time>
      </trkpt>
      <trkpt lat="46.65345" lon="-1.81313">
        <ele>5</ele>
        <time>2018-01-14T16:30:31Z</time>
      </trkpt>
      <trkpt lat="46.65345" lon="-1.81313">
        <ele>5</ele>
        <time>2018-01-14T16:31:31Z</time>
      </trkpt>
      <trkpt lat="46.65333" lon="-1.81312">
        <ele>5</ele>
        <time>2018-01-14T16:32:31Z</time>
      </trkpt>
      <trkpt lat="46.65328" lon="-1.81312">
        <ele>5</ele>
        <time>2018-01-14T16:33:31Z</time>
      </trkpt>
      <trkpt lat="46.65311" lon="-1.81317">
        <ele>6</ele>
        <time>2018-01-14T16:34:31Z</time>
      </trkpt>
      <trkpt lat="46.65302" lon="-1.81319">
        <ele>6</ele>
        <time>2018-01-14T16:35:31Z</time>
      </trkpt>
      <trkpt lat="46.65291" lon="-1.81322">
        <ele>6</ele>
        <time>2018-01-14T16:36:31Z</time>
      </trkpt>
      <trkpt lat="46.6527" lon="-1.8133">
        <ele>7</ele>
        <time>2018-01-14T16:37:31Z</time>
      </trkpt>
      <trkpt lat="46.65259" lon="-1.81334">
        <ele>8</ele>
        <time>2018-01-14T16:38:31Z</time>
      </trkpt>
      <trkpt lat="46.65243" lon="-1.81339">
        <ele>8</ele>
        <time>2018-01-14T16:39:31Z</time>
      </trkpt>
      <trkpt lat="46.65216" lon="-1.81349">
        <ele>9</ele>
        <time>2018-01-14T16:40:31Z</time>
      </trkpt>
      <trkpt lat="46.65199" lon="-1.81355">
        <ele>10</ele>
        <time>2018-01-14T16:41:31Z</time>
      </trkpt>
      <trkpt lat="46.65167" lon="-1.81367">
        <ele>11</ele>
        <time>2018-01-14T16:42:31Z</time>
      </trkpt>
      <trkpt lat="46.6516" lon="-1.81369">
        <ele>11</ele>
        <time>2018-01-14T16:43:31Z</time>
      </trkpt>
      <trkpt lat="46.6514" lon="-1.81377">
        <ele>13</ele>
        <time>2018-01-14T16:44:31Z</time>
      </trkpt>
      <trkpt lat="46.65132" lon="-1.8138">
        <ele>13</ele>
        <time>2018-01-14T16:45:31Z</time>
      </trkpt>
      <trkpt lat="46.6511" lon="-1.81388">
        <ele>14</ele>
        <time>2018-01-14T16:46:31Z</time>
      </trkpt>
      <trkpt lat="46.65102" lon="-1.81391">
        <ele>15</ele>
        <time>2018-01-14T16:47:31Z</time>
      </trkpt>
      <trkpt lat="46.65097" lon="-1.81393">
        <ele>15</ele>
        <time>2018-01-14T16:48:31Z</time>
      </trkpt>
      <trkpt lat="46.65081" lon="-1.81398">
        <ele>16</ele>
        <time>2018-01-14T16:49:31Z</time>
      </trkpt>
      <trkpt lat="46.65062" lon="-1.81402">
        <ele>18</ele>
        <time>2018-01-14T16:50:31Z</time>
      </trkpt>
      <trkpt lat="46.65056" lon="-1.81403">
        <ele>18</ele>
        <time>2018-01-14T16:51:31Z</time>
      </trkpt>
      <trkpt lat="46.6505" lon="-1.81402">
        <ele>19</ele>
        <time>2018-01-14T16:52:31Z</time>
      </trkpt>
      <trkpt lat="46.65041" lon="-1.81402">
        <ele>20</ele>
        <time>2018-01-14T16:53:31Z</time>
      </trkpt>
      <trkpt lat="46.65032" lon="-1.81399">
        <ele>21</ele>
        <time>2018-01-14T16:54:31Z</time>
      </trkpt>
      <trkpt lat="46.65023" lon="-1.81396">
        <ele>22</ele>
        <time>2018-01-14T16:55:31Z</time>
      </trkpt>
      <trkpt lat="46.65014" lon="-1.8139">
        <ele>23</ele>
        <time>2018-01-14T16:56:31Z</time>
      </trkpt>
      <trkpt lat="46.65006" lon="-1.81385">
        <ele>24</ele>
        <time>2018-01-14T16:57:31Z</time>
      </trkpt>
      <trkpt lat="46.64993" lon="-1.81374">
        <ele>25</ele>
        <time>2018-01-14T16:58:31Z</time>
      </trkpt>
      <trkpt lat="46.64981" lon="-1.8136">
        <ele>26</ele>
        <time>2018-01-14T16:59:31Z</time>
      </trkpt>
      <trkpt lat="46.64972" lon="-1.81347">
        <ele>27</ele>
        <time>2018-01-14T17:00:31Z</time>
      </trkpt>
      <trkpt lat="46.64956" lon="-1.81325">
        <ele>28</ele>
        <time>2018-01-14T17:01:31Z</time>
      </trkpt>
      <trkpt lat="46.6494" lon="-1.81303">
        <ele>29</ele>
        <time>2018-01-14T17:02:31Z</time>
      </trkpt>
      <trkpt lat="46.6492" lon="-1.81274">
        <ele>31</ele>
        <time>2018-01-14T17:03:31Z</time>
      </trkpt>
      <trkpt lat="46.64898" lon="-1.81244">
        <ele>33</ele>
        <time>2018-01-14T17:04:31Z</time>
      </trkpt>
      <trkpt lat="46.64884" lon="-1.81224">
        <ele>33</ele>
        <time>2018-01-14T17:05:31Z</time>
      </trkpt>
      <trkpt lat="46.64867" lon="-1.81202">
        <ele>33</ele>
        <time>2018-01-14T17:06:31Z</time>
      </trkpt>
      <trkpt lat="46.64852" lon="-1.81183">
        <ele>33</ele>
        <time>2018-01-14T17:07:31Z</time>
      </trkpt>
      <trkpt lat="46.64838" lon="-1.81167">
        <ele>32</ele>
        <time>2018-01-14T17:08:31Z</time>
      </trkpt>
      <trkpt lat="46.64833" lon="-1.81167">
        <ele>32</ele>
        <time>2018-01-14T17:09:31Z</time>
      </trkpt>
      <trkpt lat="46.64828" lon="-1.81166">
        <ele>32</ele>
        <time>2018-01-14T17:10:31Z</time>
      </trkpt>
      <trkpt lat="46.64818" lon="-1.81164">
        <ele>33</ele>
        <time>2018-01-14T17:11:31Z</time>
      </trkpt>
      <trkpt lat="46.64818" lon="-1.81164">
        <ele>33</ele>
        <time>2018-01-14T17:12:31Z</time>
      </trkpt>
      <trkpt lat="46.64817" lon="-1.81165">
        <ele>33</ele>
        <time>2018-01-14T17:13:31Z</time>
      </trkpt>
      <trkpt lat="46.64816" lon="-1.81166">
        <ele>33</ele>
        <time>2018-01-14T17:14:31Z</time>
      </trkpt>
      <trkpt lat="46.64815" lon="-1.81167">
        <ele>33</ele>
        <time>2018-01-14T17:15:31Z</time>
      </trkpt>
      <trkpt lat="46.64814" lon="-1.81167">
        <ele>33</ele>
        <time>2018-01-14T17:16:31Z</time>
      </trkpt>
      <trkpt lat="46.64813" lon="-1.81177">
        <ele>33</ele>
        <time>2018-01-14T17:17:31Z</time>
      </trkpt>
      <trkpt lat="46.64812" lon="-1.81183">
        <ele>33</ele>
        <time>2018-01-14T17:18:31Z</time>
      </trkpt>
      <trkpt lat="46.64811" lon="-1.81188">
        <ele>33</ele>
        <time>2018-01-14T17:19:31Z</time>
      </trkpt>
      <trkpt lat="46.6481" lon="-1.81196">
        <ele>34</ele>
        <time>2018-01-14T17:20:31Z</time>
      </trkpt>
      <trkpt lat="46.64808" lon="-1.81201">
        <ele>34</ele>
        <time>2018-01-14T17:21:31Z</time>
      </trkpt>
      <trkpt lat="46.64805" lon="-1.81216">
        <ele>34</ele>
        <time>2018-01-14T17:22:31Z</time>
      </trkpt>
      <trkpt lat="46.648" lon="-1.81271">
        <ele>35</ele>
        <time>2018-01-14T17:23:31Z</time>
      </trkpt>
      <trkpt lat="46.64797" lon="-1.81295">
        <ele>35</ele>
        <time>2018-01-14T17:24:31Z</time>
      </trkpt>
      <trkpt lat="46.64797" lon="-1.81307">
        <ele>34</ele>
        <time>2018-01-14T17:25:31Z</time>
      </trkpt>
      <trkpt lat="46.64796" lon="-1.81325">
        <ele>34</ele>
        <time>2018-01-14T17:26:31Z</time>
      </trkpt>
      <trkpt lat="46.64796" lon="-1.81342">
        <ele>34</ele>
        <time>2018-01-14T17:27:31Z</time>
      </trkpt>
      <trkpt lat="46.64795" lon="-1.81357">
        <ele>34</ele>
        <time>2018-01-14T17:28:31Z</time>
      </trkpt>
      <trkpt lat="46.64795" lon="-1.81372">
        <ele>34</ele>
        <time>2018-01-14T17:29:31Z</time>
      </trkpt>
      <trkpt lat="46.64793" lon="-1.81392">
        <ele>34</ele>
        <time>2018-01-14T17:30:31Z</time>
      </trkpt>
      <trkpt lat="46.64793" lon="-1.81409">
        <ele>34</ele>
        <time>2018-01-14T17:31:31Z</time>
      </trkpt>
      <trkpt lat="46.64793" lon="-1.81422">
        <ele>34</ele>
        <time>2018-01-14T17:32:31Z</time>
      </trkpt>
      <trkpt lat="46.64793" lon="-1.81429">
        <ele>34</ele>
        <time>2018-01-14T17:33:31Z</time>
      </trkpt>
      <trkpt lat="46.64794" lon="-1.81439">
        <ele>34</ele>
        <time>2018-01-14T17:34:31Z</time>
      </trkpt>
      <trkpt lat="46.64797" lon="-1.81453">
        <ele>34</ele>
        <time>2018-01-14T17:35:31Z</time>
      </trkpt>
      <trkpt lat="46.64801" lon="-1.8147">
        <ele>34</ele>
        <time>2018-01-14T17:36:31Z</time>
      </trkpt>
      <trkpt lat="46.64807" lon="-1.8149">
        <ele>34</ele>
        <time>2018-01-14T17:37:31Z</time>
      </trkpt>
      <trkpt lat="46.64816" lon="-1.81518">
        <ele>33</ele>
        <time>2018-01-14T17:38:31Z</time>
      </trkpt>
      <trkpt lat="46.64818" lon="-1.81529">
        <ele>33</ele>
        <time>2018-01-14T17:39:31Z</time>
      </trkpt>
      <trkpt lat="46.64821" lon="-1.8154">
        <ele>33</ele>
        <time>2018-01-14T17:40:31Z</time>
      </trkpt>
      <trkpt lat="46.64824" lon="-1.81552">
        <ele>33</ele>
        <time>2018-01-14T17:41:31Z</time>
      </trkpt>
      <trkpt lat="46.64824" lon="-1.81558">
        <ele>33</ele>
        <time>2018-01-14T17:42:31Z</time>
      </trkpt>
      <trkpt lat="46.64824" lon="-1.81567">
        <ele>33</ele>
        <time>2018-01-14T17:43:31Z</time>
      </trkpt>
      <trkpt lat="46.6482" lon="-1.81583">
        <ele>33</ele>
        <time>2018-01-14T17:44:31Z</time>
      </trkpt>
      <trkpt lat="46.64818" lon="-1.81589">
        <ele>33</ele>
        <time>2018-01-14T17:45:31Z</time>
      </trkpt>
      <trkpt lat="46.64811" lon="-1.81613">
        <ele>32</ele>
        <time>2018-01-14T17:46:31Z</time>
      </trkpt>
      <trkpt lat="46.64804" lon="-1.81636">
        <ele>32</ele>
        <time>2018-01-14T17:47:31Z</time>
      </trkpt>
      <trkpt lat="46.64803" lon="-1.8164">
        <ele>32</ele>
        <time>2018-01-14T17:48:31Z</time>
      </trkpt>
      <trkpt lat="46.64796" lon="-1.81661">
        <ele>32</ele>
        <time>2018-01-14T17:49:31Z</time>
      </trkpt>
      <trkpt lat="46.64794" lon="-1.81666">
        <ele>32</ele>
        <time>2018-01-14T17:50:31Z</time>
      </trkpt>
      <trkpt lat="46.64792" lon="-1.81673">
        <ele>32</ele>
        <time>2018-01-14T17:51:31Z</time>
      </trkpt>
      <trkpt lat="46.6479" lon="-1.81687">
        <ele>32</ele>
        <time>2018-01-14T17:52:31Z</time>
      </trkpt>
      <trkpt lat="46.64785" lon="-1.81711">
        <ele>32</ele>
        <time>2018-01-14T17:53:31Z</time>
      </trkpt>
      <trkpt lat="46.64783" lon="-1.81725">
        <ele>32</ele>
        <time>2018-01-14T17:54:31Z</time>
      </trkpt>
      <trkpt lat="46.64783" lon="-1.81739">
        <ele>32</ele>
        <time>2018-01-14T17:55:31Z</time>
      </trkpt>
      <trkpt lat="46.64782" lon="-1.81745">
        <ele>32</ele>
        <time>2018-01-14T17:56:31Z</time>
      </trkpt>
      <trkpt lat="46.64782" lon="-1.81769">
        <ele>32</ele>
        <time>2018-01-14T17:57:31Z</time>
      </trkpt>
      <trkpt lat="46.64782" lon="-1.81775">
        <ele>32</ele>
        <time>2018-01-14T17:58:31Z</time>
      </trkpt>
      <trkpt lat="46.64779" lon="-1.81891">
        <ele>32</ele>
        <time>2018-01-14T17:59:31Z</time>
      </trkpt>
      <trkpt lat="46.6478" lon="-1.81892">
        <ele>32</ele>
        <time>2018-01-14T18:00:31Z</time>
      </trkpt>
      <trkpt lat="46.6478" lon="-1.81893">
        <ele>32</ele>
        <time>2018-01-14T18:01:31Z</time>
      </trkpt>
      <trkpt lat="46.6478" lon="-1.81894">
        <ele>32</ele>
        <time>2018-01-14T18:02:31Z</time>
      </trkpt>
      <trkpt lat="46.6478" lon="-1.81895">
        <ele>32</ele>
        <time>2018-01-14T18:03:31Z</time>
      </trkpt>
      <trkpt lat="46.6478" lon="-1.81896">
        <ele>32</ele>
        <time>2018-01-14T18:04:31Z</time>
      </trkpt>
      <trkpt lat="46.64781" lon="-1.81897">
        <ele>32</ele>
        <time>2018-01-14T18:05:31Z</time>
      </trkpt>
      <trkpt lat="46.64781" lon="-1.81898">
        <ele>32</ele>
        <time>2018-01-14T18:06:31Z</time>
      </trkpt>
      <trkpt lat="46.64781" lon="-1.81899">
        <ele>32</ele>
        <time>2018-01-14T18:07:31Z</time>
      </trkpt>
      <trkpt lat="46.64768" lon="-1.81932">
        <ele>32</ele>
        <time>2018-01-14T18:08:31Z</time>
      </trkpt>
      <trkpt lat="46.64768" lon="-1.81932">
        <ele>32</ele>
        <time>2018-01-14T18:09:31Z</time>
      </trkpt>
      <trkpt lat="46.64768" lon="-1.81933">
        <ele>32</ele>
        <time>2018-01-14T18:10:31Z</time>
      </trkpt>
      <trkpt lat="46.64768" lon="-1.81934">
        <ele>32</ele>
        <time>2018-01-14T18:11:31Z</time>
      </trkpt>
      <trkpt lat="46.64769" lon="-1.81935">
        <ele>32</ele>
        <time>2018-01-14T18:12:31Z</time>
      </trkpt>
      <trkpt lat="46.64769" lon="-1.81936">
        <ele>32</ele>
        <time>2018-01-14T18:13:31Z</time>
      </trkpt>
      <trkpt lat="46.64768" lon="-1.81936">
        <ele>32</ele>
        <time>2018-01-14T18:14:31Z</time>
      </trkpt>
      <trkpt lat="46.64768" lon="-1.81937">
        <ele>32</ele>
        <time>2018-01-14T18:15:31Z</time>
      </trkpt>
      <trkpt lat="46.64768" lon="-1.81938">
        <ele>32</ele>
        <time>2018-01-14T18:16:31Z</time>
      </trkpt>
      <trkpt lat="46.64768" lon="-1.81939">
        <ele>32</ele>
        <time>2018-01-14T18:17:31Z</time>
      </trkpt>
      <trkpt lat="46.64768" lon="-1.8194">
        <ele>32</ele>
        <time>2018-01-14T18:18:31Z</time>
      </trkpt>
      <trkpt lat="46.64767" lon="-1.8194">
        <ele>32</ele>
        <time>2018-01-14T18:19:31Z</time>
      </trkpt>
      <trkpt lat="46.64767" lon="-1.81941">
        <ele>32</ele>
        <time>2018-01-14T18:20:31Z</time>
      </trkpt>
      <trkpt lat="46.64767" lon="-1.81942">
        <ele>32</ele>
        <time>2018-01-14T18:21:31Z</time>
      </trkpt>
      <trkpt lat="46.64766" lon="-1.81942">
        <ele>32</ele>
        <time>2018-01-14T18:22:31Z</time>
      </trkpt>
      <trkpt lat="46.64766" lon="-1.81943">
        <ele>32</ele>
        <time>2018-01-14T18:23:31Z</time>
      </trkpt>
      <trkpt lat="46.64765" lon="-1.81943">
        <ele>32</ele>
        <time>2018-01-14T18:24:31Z</time>
      </trkpt>
      <trkpt lat="46.64764" lon="-1.81943">
        <ele>32</ele>
        <time>2018-01-14T18:25:31Z</time>
      </trkpt>
      <trkpt lat="46.64763" lon="-1.81944">
        <ele>32</ele>
        <time>2018-01-14T18:26:31Z</time>
      </trkpt>
      <trkpt lat="46.64762" lon="-1.81944">
        <ele>32</ele>
        <time>2018-01-14T18:27:31Z</time>
      </trkpt>
      <trkpt lat="46.64762" lon="-1.81943">
        <ele>32</ele>
        <time>2018-01-14T18:28:31Z</time>
      </trkpt>
      <trkpt lat="46.64761" lon="-1.81943">
        <ele>32</ele>
        <time>2018-01-14T18:29:31Z</time>
      </trkpt>
      <trkpt lat="46.6476" lon="-1.81943">
        <ele>32</ele>
        <time>2018-01-14T18:30:31Z</time>
      </trkpt>
      <trkpt lat="46.6476" lon="-1.81942">
        <ele>32</ele>
        <time>2018-01-14T18:31:31Z</time>
      </trkpt>
      <trkpt lat="46.64759" lon="-1.81942">
        <ele>33</ele>
        <time>2018-01-14T18:32:31Z</time>
      </trkpt>
      <trkpt lat="46.64759" lon="-1.81941">
        <ele>33</ele>
        <time>2018-01-14T18:33:31Z</time>
      </trkpt>
      <trkpt lat="46.64755" lon="-1.81942">
        <ele>33</ele>
        <time>2018-01-14T18:34:31Z</time>
      </trkpt>
      <trkpt lat="46.64753" lon="-1.81942">
        <ele>33</ele>
        <time>2018-01-14T18:35:31Z</time>
      </trkpt>
      <trkpt lat="46.6475" lon="-1.81941">
        <ele>33</ele>
        <time>2018-01-14T18:36:31Z</time>
      </trkpt>
      <trkpt lat="46.64748" lon="-1.81942">
        <ele>33</ele>
        <time>2018-01-14T18:37:31Z</time>
      </trkpt>
      <trkpt lat="46.64745" lon="-1.81944">
        <ele>33</ele>
        <time>2018-01-14T18:38:31Z</time>
      </trkpt>
      <trkpt lat="46.64741" lon="-1.81946">
        <ele>33</ele>
        <time>2018-01-14T18:39:31Z</time>
      </trkpt>
      <trkpt lat="46.64737" lon="-1.81948">
        <ele>33</ele>
        <time>2018-01-14T18:40:31Z</time>
      </trkpt>
      <trkpt lat="46.64732" lon="-1.8195">
        <ele>33</ele>
        <time>2018-01-14T18:41:31Z</time>
      </trkpt>
      <trkpt lat="46.64727" lon="-1.81952">
        <ele>34</ele>
        <time>2018-01-14T18:42:31Z</time>
      </trkpt>
      <trkpt lat="46.64722" lon="-1.81954">
        <ele>34</ele>
        <time>2018-01-14T18:43:31Z</time>
      </trkpt>
      <trkpt lat="46.64717" lon="-1.81955">
        <ele>34</ele>
        <time>2018-01-14T18:44:31Z</time>
      </trkpt>
      <trkpt lat="46.64712" lon="-1.81957">
        <ele>34</ele>
        <time>2018-01-14T18:45:31Z</time>
      </trkpt>
      <trkpt lat="46.64707" lon="-1.81958">
        <ele>34</ele>
        <time>2018-01-14T18:46:31Z</time>
      </trkpt>
      <trkpt lat="46.64702" lon="-1.81959">
        <ele>34</ele>
        <time>2018-01-14T18:47:31Z</time>
      </trkpt>
      <trkpt lat="46.64697" lon="-1.81961">
        <ele>34</ele>
        <time>2018-01-14T18:48:31Z</time>
      </trkpt>
      <trkpt lat="46.64692" lon="-1.81962">
        <ele>34</ele>
        <time>2018-01-14T18:49:31Z</time>
      </trkpt>
      <trkpt lat="46.64687" lon="-1.81963">
        <ele>35</ele>
        <time>2018-01-14T18:50:31Z</time>
      </trkpt>
      <trkpt lat="46.64679" lon="-1.81965">
        <ele>35</ele>
        <time>2018-01-14T18:51:31Z</time>
      </trkpt>
      <trkpt lat="46.64673" lon="-1.81966">
        <ele>35</ele>
        <time>2018-01-14T18:52:31Z</time>
      </trkpt>
      <trkpt lat="46.64668" lon="-1.81967">
        <ele>35</ele>
        <time>2018-01-14T18:53:31Z</time>
      </trkpt>
      <trkpt lat="46.64663" lon="-1.81968">
        <ele>35</ele>
        <time>2018-01-14T18:54:31Z</time>
      </trkpt>
      <trkpt lat="46.64659" lon="-1.81969">
        <ele>35</ele>
        <time>2018-01-14T18:55:31Z</time>
      </trkpt>
      <trkpt lat="46.64654" lon="-1.81969">
        <ele>35</ele>
        <time>2018-01-14T18:56:31Z</time>
      </trkpt>
      <trkpt lat="46.64649" lon="-1.8197">
        <ele>35</ele>
        <time>2018-01-14T18:57:31Z</time>
      </trkpt>
      <trkpt lat="46.64644" lon="-1.81971">
        <ele>35</ele>
        <time>2018-01-14T18:58:31Z</time>
      </trkpt>
      <trkpt lat="46.64639" lon="-1.81971">
        <ele>35</ele>
        <time>2018-01-14T18:59:31Z</time>
      </trkpt>
      <trkpt lat="46.64634" lon="-1.81971">
        <ele>35</ele>
        <time>2018-01-14T19:00:31Z</time>
      </trkpt>
      <trkpt lat="46.64629" lon="-1.81971">
        <ele>35</ele>
        <time>2018-01-14T19:01:31Z</time>
      </trkpt>
      <trkpt lat="46.64624" lon="-1.81971">
        <ele>36</ele>
        <time>2018-01-14T19:02:31Z</time>
      </trkpt>
      <trkpt lat="46.6462" lon="-1.81971">
        <ele>36</ele>
        <time>2018-01-14T19:03:31Z</time>
      </trkpt>
      <trkpt lat="46.64614" lon="-1.81971">
        <ele>36</ele>
        <time>2018-01-14T19:04:31Z</time>
      </trkpt>
      <trkpt lat="46.64591" lon="-1.81971">
        <ele>36</ele>
        <time>2018-01-14T19:05:31Z</time>
      </trkpt>
      <trkpt lat="46.64584" lon="-1.81972">
        <ele>36</ele>
        <time>2018-01-14T19:06:31Z</time>
      </trkpt>
      <trkpt lat="46.64579" lon="-1.81973">
        <ele>36</ele>
        <time>2018-01-14T19:07:31Z</time>
      </trkpt>
      <trkpt lat="46.64559" lon="-1.8197">
        <ele>36</ele>
        <time>2018-01-14T19:08:31Z</time>
      </trkpt>
      <trkpt lat="46.64546" lon="-1.81968">
        <ele>36</ele>
        <time>2018-01-14T19:09:31Z</time>
      </trkpt>
      <trkpt lat="46.64539" lon="-1.81967">
        <ele>36</ele>
        <time>2018-01-14T19:10:31Z</time>
      </trkpt>
      <trkpt lat="46.64535" lon="-1.81964">
        <ele>36</ele>
        <time>2018-01-14T19:11:31Z</time>
      </trkpt>
      <trkpt lat="46.64525" lon="-1.81963">
        <ele>36</ele>
        <time>2018-01-14T19:12:31Z</time>
      </trkpt>
      <trkpt lat="46.6451" lon="-1.81961">
        <ele>36</ele>
        <time>2018-01-14T19:13:31Z</time>
      </trkpt>
      <trkpt lat="46.64501" lon="-1.8196">
        <ele>36</ele>
        <time>2018-01-14T19:14:31Z</time>
      </trkpt>
      <trkpt lat="46.64497" lon="-1.8196">
        <ele>36</ele>
        <time>2018-01-14T19:15:31Z</time>
      </trkpt>
      <trkpt lat="46.64491" lon="-1.8196">
        <ele>36</ele>
        <time>2018-01-14T19:16:31Z</time>
      </trkpt>
      <trkpt lat="46.64484" lon="-1.81959">
        <ele>36</ele>
        <time>2018-01-14T19:17:31Z</time>
      </trkpt>
      <trkpt lat="46.64478" lon="-1.81959">
        <ele>36</ele>
        <time>2018-01-14T19:18:31Z</time>
      </trkpt>
      <trkpt lat="46.64473" lon="-1.81959">
        <ele>36</ele>
        <time>2018-01-14T19:19:31Z</time>
      </trkpt>
      <trkpt lat="46.64467" lon="-1.81959">
        <ele>36</ele>
        <time>2018-01-14T19:20:31Z</time>
      </trkpt>
      <trkpt lat="46.64462" lon="-1.81959">
        <ele>36</ele>
        <time>2018-01-14T19:21:31Z</time>
      </trkpt>
      <trkpt lat="46.64457" lon="-1.81959">
        <ele>35</ele>
        <time>2018-01-14T19:22:31Z</time>
      </trkpt>
      <trkpt lat="46.6445" lon="-1.81959">
        <ele>35</ele>
        <time>2018-01-14T19:23:31Z</time>
      </trkpt>
      <trkpt lat="46.64445" lon="-1.81962">
        <ele>35</ele>
        <time>2018-01-14T19:24:31Z</time>
      </trkpt>
      <trkpt lat="46.64425" lon="-1.81965">
        <ele>35</ele>
        <time>2018-01-14T19:25:31Z</time>
      </trkpt>
      <trkpt lat="46.64402" lon="-1.81966">
        <ele>34</ele>
        <time>2018-01-14T19:26:31Z</time>
      </trkpt>
      <trkpt lat="46.64395" lon="-1.81964">
        <ele>34</ele>
        <time>2018-01-14T19:27:31Z</time>
      </trkpt>
      <trkpt lat="46.64391" lon="-1.81964">
        <ele>34</ele>
        <time>2018-01-14T19:28:31Z</time>
      </trkpt>
      <trkpt lat="46.64379" lon="-1.81966">
        <ele>33</ele>
        <time>2018-01-14T19:29:31Z</time>
      </trkpt>
      <trkpt lat="46.64365" lon="-1.81968">
        <ele>33</ele>
        <time>2018-01-14T19:30:31Z</time>
      </trkpt>
      <trkpt lat="46.64358" lon="-1.8197">
        <ele>33</ele>
        <time>2018-01-14T19:31:31Z</time>
      </trkpt>
      <trkpt lat="46.64314" lon="-1.81977">
        <ele>31</ele>
        <time>2018-01-14T19:32:31Z</time>
      </trkpt>
      <trkpt lat="46.64303" lon="-1.81978">
        <ele>31</ele>
        <time>2018-01-14T19:33:31Z</time>
      </trkpt>
      <trkpt lat="46.64285" lon="-1.81981">
        <ele>31</ele>
        <time>2018-01-14T19:34:31Z</time>
      </trkpt>
      <trkpt lat="46.64275" lon="-1.81984">
        <ele>31</ele>
        <time>2018-01-14T19:35:31Z</time>
      </trkpt>
      <trkpt lat="46.64259" lon="-1.81986">
        <ele>30</ele>
        <time>2018-01-14T19:36:31Z</time>
      </trkpt>
      <trkpt lat="46.64248" lon="-1.81987">
        <ele>30</ele>
        <time>2018-01-14T19:37:31Z</time>
      </trkpt>
      <trkpt lat="46.64237" lon="-1.81989">
        <ele>30</ele>
        <time>2018-01-14T19:38:31Z</time>
      </trkpt>
      <trkpt lat="46.64226" lon="-1.81991">
        <ele>30</ele>
        <time>2018-01-14T19:39:31Z</time>
      </trkpt>
      <trkpt lat="46.64201" lon="-1.81996">
        <ele>31</ele>
        <time>2018-01-14T19:40:31Z</time>
      </trkpt>
      <trkpt lat="46.64193" lon="-1.82001">
        <ele>31</ele>
        <time>2018-01-14T19:41:31Z</time>
      </trkpt>
      <trkpt lat="46.64154" lon="-1.82006">
        <ele>31</ele>
        <time>2018-01-14T19:42:31Z</time>
      </trkpt>
      <trkpt lat="46.64132" lon="-1.82008">
        <ele>30</ele>
        <time>2018-01-14T19:43:31Z</time>
      </trkpt>
      <trkpt lat="46.64125" lon="-1.82009">
        <ele>30</ele>
        <time>2018-01-14T19:44:31Z</time>
      </trkpt>
      <trkpt lat="46.64122" lon="-1.8201">
        <ele>30</ele>
        <time>2018-01-14T19:45:31Z</time>
      </trkpt>
      <trkpt lat="46.64068" lon="-1.8202">
        <ele>29</ele>
        <time>2018-01-14T19:46:31Z</time>
      </trkpt>
      <trkpt lat="46.64062" lon="-1.8202">
        <ele>29</ele>
        <time>2018-01-14T19:47:31Z</time>
      </trkpt>
      <trkpt lat="46.64056" lon="-1.82019">
        <ele>30</ele>
        <time>2018-01-14T19:48:31Z</time>
      </trkpt>
      <trkpt lat="46.64052" lon="-1.82019">
        <ele>30</ele>
        <time>2018-01-14T19:49:31Z</time>
      </trkpt>
      <trkpt lat="46.64046" lon="-1.8202">
        <ele>30</ele>
        <time>2018-01-14T19:50:31Z</time>
      </trkpt>
      <trkpt lat="46.6403" lon="-1.82021">
        <ele>30</ele>
        <time>2018-01-14T19:51:31Z</time>
      </trkpt>
      <trkpt lat="46.6402" lon="-1.82023">
        <ele>30</ele>
        <time>2018-01-14T19:52:31Z</time>
      </trkpt>
      <trkpt lat="46.6401" lon="-1.82024">
        <ele>30</ele>
        <time>2018-01-14T19:53:31Z</time>
      </trkpt>
      <trkpt lat="46.64001" lon="-1.82026">
        <ele>30</ele>
        <time>2018-01-14T19:54:31Z</time>
      </trkpt>
      <trkpt lat="46.63983" lon="-1.8203">
        <ele>31</ele>
        <time>2018-01-14T19:55:31Z</time>
      </trkpt>
      <trkpt lat="46.63972" lon="-1.82033">
        <ele>31</ele>
        <time>2018-01-14T19:56:31Z</time>
      </trkpt>
      <trkpt lat="46.63964" lon="-1.82036">
        <ele>31</ele>
        <time>2018-01-14T19:57:31Z</time>
      </trkpt>
      <trkpt lat="46.63949" lon="-1.82042">
        <ele>31</ele>
        <time>2018-01-14T19:58:31Z</time>
      </trkpt>
      <trkpt lat="46.63922" lon="-1.82054">
        <ele>32</ele>
        <time>2018-01-14T19:59:31Z</time>
      </trkpt>
      <trkpt lat="46.63898" lon="-1.82067">
        <ele>33</ele>
        <time>2018-01-14T20:00:31Z</time>
      </trkpt>
      <trkpt lat="46.63875" lon="-1.8208">
        <ele>33</ele>
        <time>2018-01-14T20:01:31Z</time>
      </trkpt>
      <trkpt lat="46.63862" lon="-1.82089">
        <ele>34</ele>
        <time>2018-01-14T20:02:31Z</time>
      </trkpt>
      <trkpt lat="46.63847" lon="-1.82099">
        <ele>34</ele>
        <time>2018-01-14T20:03:31Z</time>
      </trkpt>
      <trkpt lat="46.63818" lon="-1.8213">
        <ele>35</ele>
        <time>2018-01-14T20:04:31Z</time>
      </trkpt>
      <trkpt lat="46.63818" lon="-1.8213">
        <ele>35</ele>
        <time>2018-01-14T20:05:31Z</time>
      </trkpt>
      <trkpt lat="46.63818" lon="-1.82132">
        <ele>35</ele>
        <time>2018-01-14T20:06:31Z</time>
      </trkpt>
      <trkpt lat="46.63818" lon="-1.82134">
        <ele>35</ele>
        <time>2018-01-14T20:07:31Z</time>
      </trkpt>
      <trkpt lat="46.63818" lon="-1.82135">
        <ele>35</ele>
        <time>2018-01-14T20:08:31Z</time>
      </trkpt>
      <trkpt lat="46.63818" lon="-1.82137">
        <ele>35</ele>
        <time>2018-01-14T20:09:31Z</time>
      </trkpt>
      <trkpt lat="46.63818" lon="-1.82139">
        <ele>35</ele>
        <time>2018-01-14T20:10:31Z</time>
      </trkpt>
      <trkpt lat="46.63817" lon="-1.8214">
        <ele>35</ele>
        <time>2018-01-14T20:11:31Z</time>
      </trkpt>
      <trkpt lat="46.63817" lon="-1.82142">
        <ele>35</ele>
        <time>2018-01-14T20:12:31Z</time>
      </trkpt>
      <trkpt lat="46.63816" lon="-1.82144">
        <ele>35</ele>
        <time>2018-01-14T20:13:31Z</time>
      </trkpt>
      <trkpt lat="46.63815" lon="-1.82145">
        <ele>35</ele>
        <time>2018-01-14T20:14:31Z</time>
      </trkpt>
      <trkpt lat="46.63815" lon="-1.82146">
        <ele>35</ele>
        <time>2018-01-14T20:15:31Z</time>
      </trkpt>
      <trkpt lat="46.63814" lon="-1.82148">
        <ele>35</ele>
        <time>2018-01-14T20:16:31Z</time>
      </trkpt>
      <trkpt lat="46.63813" lon="-1.82149">
        <ele>35</ele>
        <time>2018-01-14T20:17:31Z</time>
      </trkpt>
      <trkpt lat="46.63812" lon="-1.8215">
        <ele>35</ele>
        <time>2018-01-14T20:18:31Z</time>
      </trkpt>
      <trkpt lat="46.63811" lon="-1.82151">
        <ele>35</ele>
        <time>2018-01-14T20:19:31Z</time>
      </trkpt>
      <trkpt lat="46.6381" lon="-1.82152">
        <ele>35</ele>
        <time>2018-01-14T20:20:31Z</time>
      </trkpt>
      <trkpt lat="46.63809" lon="-1.82153">
        <ele>35</ele>
        <time>2018-01-14T20:21:31Z</time>
      </trkpt>
      <trkpt lat="46.63808" lon="-1.82154">
        <ele>35</ele>
        <time>2018-01-14T20:22:31Z</time>
      </trkpt>
      <trkpt lat="46.63807" lon="-1.82154">
        <ele>35</ele>
        <time>2018-01-14T20:23:31Z</time>
      </trkpt>
      <trkpt lat="46.63805" lon="-1.82155">
        <ele>35</ele>
        <time>2018-01-14T20:24:31Z</time>
      </trkpt>
      <trkpt lat="46.63796" lon="-1.82201">
        <ele>35</ele>
        <time>2018-01-14T20:25:31Z</time>
      </trkpt>
      <trkpt lat="46.63792" lon="-1.82213">
        <ele>34</ele>
        <time>2018-01-14T20:26:31Z</time>
      </trkpt>
      <trkpt lat="46.6379" lon="-1.82226">
        <ele>34</ele>
        <time>2018-01-14T20:27:31Z</time>
      </trkpt>
      <trkpt lat="46.63786" lon="-1.82242">
        <ele>34</ele>
        <time>2018-01-14T20:28:31Z</time>
      </trkpt>
      <trkpt lat="46.63777" lon="-1.82267">
        <ele>34</ele>
        <time>2018-01-14T20:29:31Z</time>
      </trkpt>
      <trkpt lat="46.6376" lon="-1.82306">
        <ele>34</ele>
        <time>2018-01-14T20:30:31Z</time>
      </trkpt>
      <trkpt lat="46.63723" lon="-1.82389">
        <ele>34</ele>
        <time>2018-01-14T20:31:31Z</time>
      </trkpt>
      <trkpt lat="46.63718" lon="-1.82401">
        <ele>34</ele>
        <time>2018-01-14T20:32:31Z</time>
      </trkpt>
      <trkpt lat="46.6371" lon="-1.8242">
        <ele>35</ele>
        <time>2018-01-14T20:33:31Z</time>
      </trkpt>
      <trkpt lat="46.63696" lon="-1.82455">
        <ele>35</ele>
        <time>2018-01-14T20:34:31Z</time>
      </trkpt>
      <trkpt lat="46.63682" lon="-1.82488">
        <ele>35</ele>
        <time>2018-01-14T20:35:31Z</time>
      </trkpt>
      <trkpt lat="46.63676" lon="-1.82502">
        <ele>35</ele>
        <time>2018-01-14T20:36:31Z</time>
      </trkpt>
      <trkpt lat="46.6367" lon="-1.82515">
        <ele>35</ele>
        <time>2018-01-14T20:37:31Z</time>
      </trkpt>
      <trkpt lat="46.63652" lon="-1.82562">
        <ele>33</ele>
        <time>2018-01-14T20:38:31Z</time>
      </trkpt>
      <trkpt lat="46.63642" lon="-1.82588">
        <ele>32</ele>
        <time>2018-01-14T20:39:31Z</time>
      </trkpt>
      <trkpt lat="46.63632" lon="-1.82615">
        <ele>32</ele>
        <time>2018-01-14T20:40:31Z</time>
      </trkpt>
      <trkpt lat="46.63627" lon="-1.82627">
        <ele>32</ele>
        <time>2018-01-14T20:41:31Z</time>
      </trkpt>
      <trkpt lat="46.63623" lon="-1.8264">
        <ele>32</ele>
        <time>2018-01-14T20:42:31Z</time>
      </trkpt>
      <trkpt lat="46.63619" lon="-1.82652">
        <ele>32</ele>
        <time>2018-01-14T20:43:31Z</time>
      </trkpt>
      <trkpt lat="46.63614" lon="-1.82666">
        <ele>32</ele>
        <time>2018-01-14T20:44:31Z</time>
      </trkpt>
      <trkpt lat="46.63611" lon="-1.82679">
        <ele>32</ele>
        <time>2018-01-14T20:45:31Z</time>
      </trkpt>
      <trkpt lat="46.63607" lon="-1.82692">
        <ele>32</ele>
        <time>2018-01-14T20:46:31Z</time>
      </trkpt>
      <trkpt lat="46.63604" lon="-1.82705">
        <ele>32</ele>
        <time>2018-01-14T20:47:31Z</time>
      </trkpt>
      <trkpt lat="46.636" lon="-1.82719">
        <ele>31</ele>
        <time>2018-01-14T20:48:31Z</time>
      </trkpt>
      <trkpt lat="46.63597" lon="-1.82732">
        <ele>31</ele>
        <time>2018-01-14T20:49:31Z</time>
      </trkpt>
      <trkpt lat="46.63594" lon="-1.82746">
        <ele>31</ele>
        <time>2018-01-14T20:50:31Z</time>
      </trkpt>
      <trkpt lat="46.63591" lon="-1.82759">
        <ele>31</ele>
        <time>2018-01-14T20:51:31Z</time>
      </trkpt>
      <trkpt lat="46.63588" lon="-1.82772">
        <ele>31</ele>
        <time>2018-01-14T20:52:31Z</time>
      </trkpt>
      <trkpt lat="46.63586" lon="-1.82785">
        <ele>31</ele>
        <time>2018-01-14T20:53:31Z</time>
      </trkpt>
      <trkpt lat="46.63583" lon="-1.82799">
        <ele>31</ele>
        <time>2018-01-14T20:54:31Z</time>
      </trkpt>
      <trkpt lat="46.63578" lon="-1.82825">
        <ele>31</ele>
        <time>2018-01-14T20:55:31Z</time>
      </trkpt>
      <trkpt lat="46.63567" lon="-1.82885">
        <ele>31</ele>
        <time>2018-01-14T20:56:31Z</time>
      </trkpt>
      <trkpt lat="46.63567" lon="-1.8289">
        <ele>31</ele>
        <time>2018-01-14T20:57:31Z</time>
      </trkpt>
      <trkpt lat="46.63557" lon="-1.82947">
        <ele>30</ele>
        <time>2018-01-14T20:58:31Z</time>
      </trkpt>
      <trkpt lat="46.63549" lon="-1.82993">
        <ele>30</ele>
        <time>2018-01-14T20:59:31Z</time>
      </trkpt>
      <trkpt lat="46.63537" lon="-1.8306">
        <ele>30</ele>
        <time>2018-01-14T21:00:31Z</time>
      </trkpt>
      <trkpt lat="46.63527" lon="-1.83114">
        <ele>30</ele>
        <time>2018-01-14T21:01:31Z</time>
      </trkpt>
      <trkpt lat="46.63518" lon="-1.83167">
        <ele>30</ele>
        <time>2018-01-14T21:02:31Z</time>
      </trkpt>
      <trkpt lat="46.6351" lon="-1.83207">
        <ele>30</ele>
        <time>2018-01-14T21:03:31Z</time>
      </trkpt>
      <trkpt lat="46.63503" lon="-1.83247">
        <ele>29</ele>
        <time>2018-01-14T21:04:31Z</time>
      </trkpt>
      <trkpt lat="46.63494" lon="-1.83299">
        <ele>29</ele>
        <time>2018-01-14T21:05:31Z</time>
      </trkpt>
      <trkpt lat="46.6349" lon="-1.83324">
        <ele>29</ele>
        <time>2018-01-14T21:06:31Z</time>
      </trkpt>
      <trkpt lat="46.63487" lon="-1.83337">
        <ele>29</ele>
        <time>2018-01-14T21:07:31Z</time>
      </trkpt>
      <trkpt lat="46.63484" lon="-1.83351">
        <ele>29</ele>
        <time>2018-01-14T21:08:31Z</time>
      </trkpt>
      <trkpt lat="46.63477" lon="-1.83383">
        <ele>29</ele>
        <time>2018-01-14T21:09:31Z</time>
      </trkpt>
      <trkpt lat="46.63472" lon="-1.83404">
        <ele>29</ele>
        <time>2018-01-14T21:10:31Z</time>
      </trkpt>
      <trkpt lat="46.63466" lon="-1.83426">
        <ele>29</ele>
        <time>2018-01-14T21:11:31Z</time>
      </trkpt>
      <trkpt lat="46.63462" lon="-1.83444">
        <ele>29</ele>
        <time>2018-01-14T21:12:31Z</time>
      </trkpt>
      <trkpt lat="46.63461" lon="-1.83459">
        <ele>29</ele>
        <time>2018-01-14T21:13:31Z</time>
      </trkpt>
      <trkpt lat="46.63457" lon="-1.83476">
        <ele>29</ele>
        <time>2018-01-14T21:14:31Z</time>
      </trkpt>
      <trkpt lat="46.63446" lon="-1.83514">
        <ele>29</ele>
        <time>2018-01-14T21:15:31Z</time>
      </trkpt>
      <trkpt lat="46.63431" lon="-1.83573">
        <ele>28</ele>
        <time>2018-01-14T21:16:31Z</time>
      </trkpt>
      <trkpt lat="46.63422" lon="-1.83607">
        <ele>28</ele>
        <time>2018-01-14T21:17:31Z</time>
      </trkpt>
      <trkpt lat="46.63419" lon="-1.83622">
        <ele>28</ele>
        <time>2018-01-14T21:18:31Z</time>
      </trkpt>
      <trkpt lat="46.63416" lon="-1.83632">
        <ele>27</ele>
        <time>2018-01-14T21:19:31Z</time>
      </trkpt>
      <trkpt lat="46.63413" lon="-1.83645">
        <ele>27</ele>
        <time>2018-01-14T21:20:31Z</time>
      </trkpt>
      <trkpt lat="46.63405" lon="-1.83675">
        <ele>27</ele>
        <time>2018-01-14T21:21:31Z</time>
      </trkpt>
      <trkpt lat="46.63398" lon="-1.83698">
        <ele>26</ele>
        <time>2018-01-14T21:22:31Z</time>
      </trkpt>
      <trkpt lat="46.63389" lon="-1.83721">
        <ele>25</ele>
        <time>2018-01-14T21:23:31Z</time>
      </trkpt>
      <trkpt lat="46.63374" lon="-1.83758">
        <ele>24</ele>
        <time>2018-01-14T21:24:31Z</time>
      </trkpt>
      <trkpt lat="46.63372" lon="-1.8376">
        <ele>24</ele>
        <time>2018-01-14T21:25:31Z</time>
      </trkpt>
      <trkpt lat="46.63364" lon="-1.83778">
        <ele>24</ele>
        <time>2018-01-14T21:26:31Z</time>
      </trkpt>
      <trkpt lat="46.63358" lon="-1.83789">
        <ele>24</ele>
        <time>2018-01-14T21:27:31Z</time>
      </trkpt>
      <trkpt lat="46.63352" lon="-1.83798">
        <ele>24</ele>
        <time>2018-01-14T21:28:31Z</time>
      </trkpt>
      <trkpt lat="46.63343" lon="-1.83811">
        <ele>23</ele>
        <time>2018-01-14T21:29:31Z</time>
      </trkpt>
      <trkpt lat="46.63321" lon="-1.8384">
        <ele>23</ele>
        <time>2018-01-14T21:30:31Z</time>
      </trkpt>
      <trkpt lat="46.63304" lon="-1.83852">
        <ele>22</ele>
        <time>2018-01-14T21:31:31Z</time>
      </trkpt>
      <trkpt lat="46.63298" lon="-1.83859">
        <ele>22</ele>
        <time>2018-01-14T21:32:31Z</time>
      </trkpt>
      <trkpt lat="46.63291" lon="-1.83865">
        <ele>22</ele>
        <time>2018-01-14T21:33:31Z</time>
      </trkpt>
      <trkpt lat="46.63277" lon="-1.8388">
        <ele>22</ele>
        <time>2018-01-14T21:34:31Z</time>
      </trkpt>
      <trkpt lat="46.63268" lon="-1.83889">
        <ele>21</ele>
        <time>2018-01-14T21:35:31Z</time>
      </trkpt>
      <trkpt lat="46.63259" lon="-1.83898">
        <ele>21</ele>
        <time>2018-01-14T21:36:31Z</time>
      </trkpt>
      <trkpt lat="46.63245" lon="-1.83915">
        <ele>21</ele>
        <time>2018-01-14T21:37:31Z</time>
      </trkpt>
      <trkpt lat="46.63234" lon="-1.83928">
        <ele>21</ele>
        <time>2018-01-14T21:38:31Z</time>
      </trkpt>
      <trkpt lat="46.63226" lon="-1.83939">
        <ele>21</ele>
        <time>2018-01-14T21:39:31Z</time>
      </trkpt>
      <trkpt lat="46.63209" lon="-1.83967">
        <ele>22</ele>
        <time>2018-01-14T21:40:31Z</time>
      </trkpt>
      <trkpt lat="46.63196" lon="-1.83991">
        <ele>22</ele>
        <time>2018-01-14T21:41:31Z</time>
      </trkpt>
      <trkpt lat="46.63188" lon="-1.84006">
        <ele>22</ele>
        <time>2018-01-14T21:42:31Z</time>
      </trkpt>
      <trkpt lat="46.63178" lon="-1.8403">
        <ele>22</ele>
        <time>2018-01-14T21:43:31Z</time>
      </trkpt>
      <trkpt lat="46.6317" lon="-1.84054">
        <ele>21</ele>
        <time>2018-01-14T21:44:31Z</time>
      </trkpt>
      <trkpt lat="46.63162" lon="-1.84078">
        <ele>21</ele>
        <time>2018-01-14T21:45:31Z</time>
      </trkpt>
      <trkpt lat="46.6316" lon="-1.84085">
        <ele>21</ele>
        <time>2018-01-14T21:46:31Z</time>
      </trkpt>
      <trkpt lat="46.63158" lon="-1.84092">
        <ele>21</ele>
        <time>2018-01-14T21:47:31Z</time>
      </trkpt>
      <trkpt lat="46.63155" lon="-1.84105">
        <ele>21</ele>
        <time>2018-01-14T21:48:31Z</time>
      </trkpt>
      <trkpt lat="46.6315" lon="-1.84131">
        <ele>21</ele>
        <time>2018-01-14T21:49:31Z</time>
      </trkpt>
      <trkpt lat="46.63148" lon="-1.84147">
        <ele>21</ele>
        <time>2018-01-14T21:50:31Z</time>
      </trkpt>
      <trkpt lat="46.63139" lon="-1.84181">
        <ele>21</ele>
        <time>2018-01-14T21:51:31Z</time>
      </trkpt>
      <trkpt lat="46.63137" lon="-1.84191">
        <ele>21</ele>
        <time>2018-01-14T21:52:31Z</time>
      </trkpt>
      <trkpt lat="46.6313" lon="-1.8422">
        <ele>21</ele>
        <time>2018-01-14T21:53:31Z</time>
      </trkpt>
      <trkpt lat="46.6312" lon="-1.84264">
        <ele>21</ele>
        <time>2018-01-14T21:54:31Z</time>
      </trkpt>
      <trkpt lat="46.63108" lon="-1.84309">
        <ele>21</ele>
        <time>2018-01-14T21:55:31Z</time>
      </trkpt>
      <trkpt lat="46.63099" lon="-1.84346">
        <ele>21</ele>
        <time>2018-01-14T21:56:31Z</time>
      </trkpt>
      <trkpt lat="46.63092" lon="-1.84381">
        <ele>20</ele>
        <time>2018-01-14T21:57:31Z</time>
      </trkpt>
      <trkpt lat="46.63088" lon="-1.84397">
        <ele>20</ele>
        <time>2018-01-14T21:58:31Z</time>
      </trkpt>
      <trkpt lat="46.63087" lon="-1.84405">
        <ele>19</ele>
        <time>2018-01-14T21:59:31Z</time>
      </trkpt>
      <trkpt lat="46.63084" lon="-1.84427">
        <ele>19</ele>
        <time>2018-01-14T22:00:31Z</time>
      </trkpt>
      <trkpt lat="46.6308" lon="-1.84454">
        <ele>19</ele>
        <time>2018-01-14T22:01:31Z</time>
      </trkpt>
      <trkpt lat="46.63079" lon="-1.84466">
        <ele>18</ele>
        <time>2018-01-14T22:02:31Z</time>
      </trkpt>
      <trkpt lat="46.63078" lon="-1.84473">
        <ele>18</ele>
        <time>2018-01-14T22:03:31Z</time>
      </trkpt>
      <trkpt lat="46.63075" lon="-1.84495">
        <ele>18</ele>
        <time>2018-01-14T22:04:31Z</time>
      </trkpt>
      <trkpt lat="46.63073" lon="-1.8452">
        <ele>18</ele>
        <time>2018-01-14T22:05:31Z</time>
      </trkpt>
      <trkpt lat="46.63072" lon="-1.84532">
        <ele>18</ele>
        <time>2018-01-14T22:06:31Z</time>
      </trkpt>
      <trkpt lat="46.63071" lon="-1.84541">
        <ele>18</ele>
        <time>2018-01-14T22:07:31Z</time>
      </trkpt>
      <trkpt lat="46.63067" lon="-1.84583">
        <ele>19</ele>
        <time>2018-01-14T22:08:31Z</time>
      </trkpt>
      <trkpt lat="46.63066" lon="-1.84589">
        <ele>19</ele>
        <time>2018-01-14T22:09:31Z</time>
      </trkpt>
      <trkpt lat="46.63064" lon="-1.84608">
        <ele>19</ele>
        <time>2018-01-14T22:10:31Z</time>
      </trkpt>
      <trkpt lat="46.63063" lon="-1.84616">
        <ele>19</ele>
        <time>2018-01-14T22:11:31Z</time>
      </trkpt>
      <trkpt lat="46.6306" lon="-1.84624">
        <ele>19</ele>
        <time>2018-01-14T22:12:31Z</time>
      </trkpt>
      <trkpt lat="46.63057" lon="-1.8464">
        <ele>19</ele>
        <time>2018-01-14T22:13:31Z</time>
      </trkpt>
      <trkpt lat="46.63055" lon="-1.84658">
        <ele>18</ele>
        <time>2018-01-14T22:14:31Z</time>
      </trkpt>
      <trkpt lat="46.63055" lon="-1.84668">
        <ele>18</ele>
        <time>2018-01-14T22:15:31Z</time>
      </trkpt>
      <trkpt lat="46.63054" lon="-1.84686">
        <ele>19</ele>
        <time>2018-01-14T22:16:31Z</time>
      </trkpt>
      <trkpt lat="46.63053" lon="-1.84703">
        <ele>19</ele>
        <time>2018-01-14T22:17:31Z</time>
      </trkpt>
      <trkpt lat="46.63053" lon="-1.84719">
        <ele>19</ele>
        <time>2018-01-14T22:18:31Z</time>
      </trkpt>
      <trkpt lat="46.63052" lon="-1.84748">
        <ele>19</ele>
        <time>2018-01-14T22:19:31Z</time>
      </trkpt>
      <trkpt lat="46.63052" lon="-1.84784">
        <ele>19</ele>
        <time>2018-01-14T22:20:31Z</time>
      </trkpt>
      <trkpt lat="46.63051" lon="-1.84792">
        <ele>20</ele>
        <time>2018-01-14T22:21:31Z</time>
      </trkpt>
      <trkpt lat="46.63051" lon="-1.84801">
        <ele>20</ele>
        <time>2018-01-14T22:22:31Z</time>
      </trkpt>
      <trkpt lat="46.6305" lon="-1.8481">
        <ele>20</ele>
        <time>2018-01-14T22:23:31Z</time>
      </trkpt>
      <trkpt lat="46.63049" lon="-1.84818">
        <ele>20</ele>
        <time>2018-01-14T22:24:31Z</time>
      </trkpt>
      <trkpt lat="46.63047" lon="-1.84827">
        <ele>20</ele>
        <time>2018-01-14T22:25:31Z</time>
      </trkpt>
      <trkpt lat="46.63046" lon="-1.84836">
        <ele>20</ele>
        <time>2018-01-14T22:26:31Z</time>
      </trkpt>
      <trkpt lat="46.63043" lon="-1.84851">
        <ele>20</ele>
        <time>2018-01-14T22:27:31Z</time>
      </trkpt>
      <trkpt lat="46.63039" lon="-1.84869">
        <ele>20</ele>
        <time>2018-01-14T22:28:31Z</time>
      </trkpt>
      <trkpt lat="46.63035" lon="-1.84882">
        <ele>19</ele>
        <time>2018-01-14T22:29:31Z</time>
      </trkpt>
      <trkpt lat="46.6303" lon="-1.84904">
        <ele>19</ele>
        <time>2018-01-14T22:30:31Z</time>
      </trkpt>
      <trkpt lat="46.63022" lon="-1.84936">
        <ele>19</ele>
        <time>2018-01-14T22:31:31Z</time>
      </trkpt>
      <trkpt lat="46.63015" lon="-1.84964">
        <ele>19</ele>
        <time>2018-01-14T22:32:31Z</time>
      </trkpt>
      <trkpt lat="46.63006" lon="-1.85001">
        <ele>19</ele>
        <time>2018-01-14T22:33:31Z</time>
      </trkpt>
      <trkpt lat="46.63007" lon="-1.85002">
        <ele>19</ele>
        <time>2018-01-14T22:34:31Z</time>
      </trkpt>
      <trkpt lat="46.63008" lon="-1.85004">
        <ele>19</ele>
        <time>2018-01-14T22:35:31Z</time>
      </trkpt>
      <trkpt lat="46.63008" lon="-1.85006">
        <ele>19</ele>
        <time>2018-01-14T22:36:31Z</time>
      </trkpt>
      <trkpt lat="46.63008" lon="-1.85007">
        <ele>19</ele>
        <time>2018-01-14T22:37:31Z</time>
      </trkpt>
      <trkpt lat="46.63008" lon="-1.85008">
        <ele>19</ele>
        <time>2018-01-14T22:38:31Z</time>
      </trkpt>
      <trkpt lat="46.63007" lon="-1.85009">
        <ele>19</ele>
        <time>2018-01-14T22:39:31Z</time>
      </trkpt>
      <trkpt lat="46.63007" lon="-1.85011">
        <ele>19</ele>
        <time>2018-01-14T22:40:31Z</time>
      </trkpt>
      <trkpt lat="46.63006" lon="-1.85011">
        <ele>19</ele>
        <time>2018-01-14T22:41:31Z</time>
      </trkpt>
      <trkpt lat="46.63005" lon="-1.85012">
        <ele>19</ele>
        <time>2018-01-14T22:42:31Z</time>
      </trkpt>
      <trkpt lat="46.63004" lon="-1.85012">
        <ele>19</ele>
        <time>2018-01-14T22:43:31Z</time>
      </trkpt>
      <trkpt lat="46.63003" lon="-1.85012">
        <ele>19</ele>
        <time>2018-01-14T22:44:31Z</time>
      </trkpt>
      <trkpt lat="46.63002" lon="-1.85011">
        <ele>19</ele>
        <time>2018-01-14T22:45:31Z</time>
      </trkpt>
      <trkpt lat="46.63001" lon="-1.8501">
        <ele>19</ele>
        <time>2018-01-14T22:46:31Z</time>
      </trkpt>
      <trkpt lat="46.63001" lon="-1.85009">
        <ele>19</ele>
        <time>2018-01-14T22:47:31Z</time>
      </trkpt>
      <trkpt lat="46.62996" lon="-1.85019">
        <ele>19</ele>
        <time>2018-01-14T22:48:31Z</time>
      </trkpt>
      <trkpt lat="46.62995" lon="-1.85022">
        <ele>19</ele>
        <time>2018-01-14T22:49:31Z</time>
      </trkpt>
      <trkpt lat="46.62993" lon="-1.85026">
        <ele>19</ele>
        <time>2018-01-14T22:50:31Z</time>
      </trkpt>
      <trkpt lat="46.62991" lon="-1.85031">
        <ele>19</ele>
        <time>2018-01-14T22:51:31Z</time>
      </trkpt>
      <trkpt lat="46.62989" lon="-1.85036">
        <ele>19</ele>
        <time>2018-01-14T22:52:31Z</time>
      </trkpt>
      <trkpt lat="46.62986" lon="-1.85041">
        <ele>19</ele>
        <time>2018-01-14T22:53:31Z</time>
      </trkpt>
      <trkpt lat="46.62983" lon="-1.85047">
        <ele>19</ele>
        <time>2018-01-14T22:54:31Z</time>
      </trkpt>
      <trkpt lat="46.6298" lon="-1.85052">
        <ele>19</ele>
        <time>2018-01-14T22:55:31Z</time>
      </trkpt>
      <trkpt lat="46.62976" lon="-1.85058">
        <ele>19</ele>
        <time>2018-01-14T22:56:31Z</time>
      </trkpt>
      <trkpt lat="46.62971" lon="-1.85064">
        <ele>19</ele>
        <time>2018-01-14T22:57:31Z</time>
      </trkpt>
      <trkpt lat="46.62967" lon="-1.85069">
        <ele>19</ele>
        <time>2018-01-14T22:58:31Z</time>
      </trkpt>
      <trkpt lat="46.62961" lon="-1.85074">
        <ele>19</ele>
        <time>2018-01-14T22:59:31Z</time>
      </trkpt>
      <trkpt lat="46.62956" lon="-1.85079">
        <ele>19</ele>
        <time>2018-01-14T23:00:31Z</time>
      </trkpt>
      <trkpt lat="46.6295" lon="-1.85083">
        <ele>19</ele>
        <time>2018-01-14T23:01:31Z</time>
      </trkpt>
      <trkpt lat="46.62948" lon="-1.85085">
        <ele>19</ele>
        <time>2018-01-14T23:02:31Z</time>
      </trkpt>
      <trkpt lat="46.62928" lon="-1.85097">
        <ele>19</ele>
        <time>2018-01-14T23:03:31Z</time>
      </trkpt>
      <trkpt lat="46.62914" lon="-1.85103">
        <ele>19</ele>
        <time>2018-01-14T23:04:31Z</time>
      </trkpt>
      <trkpt lat="46.629" lon="-1.85107">
        <ele>18</ele>
        <time>2018-01-14T23:05:31Z</time>
      </trkpt>
      <trkpt lat="46.6289" lon="-1.8511">
        <ele>18</ele>
        <time>2018-01-14T23:06:31Z</time>
      </trkpt>
      <trkpt lat="46.62881" lon="-1.85112">
        <ele>18</ele>
        <time>2018-01-14T23:07:31Z</time>
      </trkpt>
      <trkpt lat="46.62874" lon="-1.85114">
        <ele>17</ele>
        <time>2018-01-14T23:08:31Z</time>
      </trkpt>
      <trkpt lat="46.62868" lon="-1.85116">
        <ele>17</ele>
        <time>2018-01-14T23:09:31Z</time>
      </trkpt>
      <trkpt lat="46.62861" lon="-1.85118">
        <ele>17</ele>
        <time>2018-01-14T23:10:31Z</time>
      </trkpt>
      <trkpt lat="46.62854" lon="-1.8512">
        <ele>17</ele>
        <time>2018-01-14T23:11:31Z</time>
      </trkpt>
      <trkpt lat="46.62848" lon="-1.85123">
        <ele>17</ele>
        <time>2018-01-14T23:12:31Z</time>
      </trkpt>
      <trkpt lat="46.62842" lon="-1.85125">
        <ele>16</ele>
        <time>2018-01-14T23:13:31Z</time>
      </trkpt>
      <trkpt lat="46.62836" lon="-1.85126">
        <ele>16</ele>
        <time>2018-01-14T23:14:31Z</time>
      </trkpt>
      <trkpt lat="46.6283" lon="-1.85128">
        <ele>16</ele>
        <time>2018-01-14T23:15:31Z</time>
      </trkpt>
      <trkpt lat="46.62824" lon="-1.8513">
        <ele>16</ele>
        <time>2018-01-14T23:16:31Z</time>
      </trkpt>
      <trkpt lat="46.62818" lon="-1.85132">
        <ele>16</ele>
        <time>2018-01-14T23:17:31Z</time>
      </trkpt>
      <trkpt lat="46.62813" lon="-1.85134">
        <ele>15</ele>
        <time>2018-01-14T23:18:31Z</time>
      </trkpt>
      <trkpt lat="46.62808" lon="-1.85136">
        <ele>15</ele>
        <time>2018-01-14T23:19:31Z</time>
      </trkpt>
      <trkpt lat="46.62804" lon="-1.8514">
        <ele>15</ele>
        <time>2018-01-14T23:20:31Z</time>
      </trkpt>
      <trkpt lat="46.62799" lon="-1.85144">
        <ele>15</ele>
        <time>2018-01-14T23:21:31Z</time>
      </trkpt>
      <trkpt lat="46.62794" lon="-1.85151">
        <ele>15</ele>
        <time>2018-01-14T23:22:31Z</time>
      </trkpt>
      <trkpt lat="46.62789" lon="-1.85159">
        <ele>14</ele>
        <time>2018-01-14T23:23:31Z</time>
      </trkpt>
      <trkpt lat="46.62786" lon="-1.85165">
        <ele>14</ele>
        <time>2018-01-14T23:24:31Z</time>
      </trkpt>
      <trkpt lat="46.62784" lon="-1.85171">
        <ele>14</ele>
        <time>2018-01-14T23:25:31Z</time>
      </trkpt>
      <trkpt lat="46.62783" lon="-1.85177">
        <ele>14</ele>
        <time>2018-01-14T23:26:31Z</time>
      </trkpt>
      <trkpt lat="46.62781" lon="-1.85183">
        <ele>14</ele>
        <time>2018-01-14T23:27:31Z</time>
      </trkpt>
      <trkpt lat="46.6278" lon="-1.85189">
        <ele>14</ele>
        <time>2018-01-14T23:28:31Z</time>
      </trkpt>
      <trkpt lat="46.62779" lon="-1.85196">
        <ele>14</ele>
        <time>2018-01-14T23:29:31Z</time>
      </trkpt>
      <trkpt lat="46.62779" lon="-1.85203">
        <ele>14</ele>
        <time>2018-01-14T23:30:31Z</time>
      </trkpt>
      <trkpt lat="46.62778" lon="-1.8521">
        <ele>14</ele>
        <time>2018-01-14T23:31:31Z</time>
      </trkpt>
      <trkpt lat="46.62778" lon="-1.85218">
        <ele>14</ele>
        <time>2018-01-14T23:32:31Z</time>
      </trkpt>
      <trkpt lat="46.62778" lon="-1.85225">
        <ele>14</ele>
        <time>2018-01-14T23:33:31Z</time>
      </trkpt>
      <trkpt lat="46.62777" lon="-1.85232">
        <ele>14</ele>
        <time>2018-01-14T23:34:31Z</time>
      </trkpt>
      <trkpt lat="46.62777" lon="-1.85239">
        <ele>14</ele>
        <time>2018-01-14T23:35:31Z</time>
      </trkpt>
      <trkpt lat="46.62777" lon="-1.85246">
        <ele>14</ele>
        <time>2018-01-14T23:36:31Z</time>
      </trkpt>
      <trkpt lat="46.62776" lon="-1.85254">
        <ele>14</ele>
        <time>2018-01-14T23:37:31Z</time>
      </trkpt>
      <trkpt lat="46.62776" lon="-1.85283">
        <ele>14</ele>
        <time>2018-01-14T23:38:31Z</time>
      </trkpt>
      <trkpt lat="46.62775" lon="-1.85296">
        <ele>14</ele>
        <time>2018-01-14T23:39:31Z</time>
      </trkpt>
      <trkpt lat="46.62774" lon="-1.85309">
        <ele>15</ele>
        <time>2018-01-14T23:40:31Z</time>
      </trkpt>
      <trkpt lat="46.62773" lon="-1.85321">
        <ele>15</ele>
        <time>2018-01-14T23:41:31Z</time>
      </trkpt>
      <trkpt lat="46.62773" lon="-1.85327">
        <ele>15</ele>
        <time>2018-01-14T23:42:31Z</time>
      </trkpt>
      <trkpt lat="46.62772" lon="-1.85332">
        <ele>15</ele>
        <time>2018-01-14T23:43:31Z</time>
      </trkpt>
      <trkpt lat="46.62772" lon="-1.85337">
        <ele>15</ele>
        <time>2018-01-14T23:44:31Z</time>
      </trkpt>
      <trkpt lat="46.62771" lon="-1.85342">
        <ele>15</ele>
        <time>2018-01-14T23:45:31Z</time>
      </trkpt>
      <trkpt lat="46.62771" lon="-1.85347">
        <ele>15</ele>
        <time>2018-01-14T23:46:31Z</time>
      </trkpt>
      <trkpt lat="46.6277" lon="-1.85351">
        <ele>15</ele>
        <time>2018-01-14T23:47:31Z</time>
      </trkpt>
      <trkpt lat="46.62769" lon="-1.85355">
        <ele>15</ele>
        <time>2018-01-14T23:48:31Z</time>
      </trkpt>
      <trkpt lat="46.62767" lon="-1.85359">
        <ele>15</ele>
        <time>2018-01-14T23:49:31Z</time>
      </trkpt>
      <trkpt lat="46.62765" lon="-1.85362">
        <ele>14</ele>
        <time>2018-01-14T23:50:31Z</time>
      </trkpt>
      <trkpt lat="46.62763" lon="-1.85365">
        <ele>14</ele>
        <time>2018-01-14T23:51:31Z</time>
      </trkpt>
      <trkpt lat="46.6276" lon="-1.85368">
        <ele>14</ele>
        <time>2018-01-14T23:52:31Z</time>
      </trkpt>
      <trkpt lat="46.62757" lon="-1.8537">
        <ele>14</ele>
        <time>2018-01-14T23:53:31Z</time>
      </trkpt>
      <trkpt lat="46.62754" lon="-1.85372">
        <ele>14</ele>
        <time>2018-01-14T23:54:31Z</time>
      </trkpt>
      <trkpt lat="46.62751" lon="-1.85373">
        <ele>14</ele>
        <time>2018-01-14T23:55:31Z</time>
      </trkpt>
      <trkpt lat="46.62739" lon="-1.85378">
        <ele>14</ele>
        <time>2018-01-14T23:56:31Z</time>
      </trkpt>
      <trkpt lat="46.62725" lon="-1.85382">
        <ele>13</ele>
        <time>2018-01-14T23:57:31Z</time>
      </trkpt>
      <trkpt lat="46.62718" lon="-1.85384">
        <ele>13</ele>
        <time>2018-01-14T23:58:31Z</time>
      </trkpt>
      <trkpt lat="46.62711" lon="-1.85386">
        <ele>13</ele>
        <time>2018-01-14T23:59:31Z</time>
      </trkpt>
      <trkpt lat="46.62701" lon="-1.85388">
        <ele>13</ele>
        <time>2018-01-15T00:00:31Z</time>
      </trkpt>
      <trkpt lat="46.6269" lon="-1.85389">
        <ele>12</ele>
        <time>2018-01-15T00:01:31Z</time>
      </trkpt>
      <trkpt lat="46.62681" lon="-1.8539">
        <ele>12</ele>
        <time>2018-01-15T00:02:31Z</time>
      </trkpt>
      <trkpt lat="46.62671" lon="-1.85389">
        <ele>12</ele>
        <time>2018-01-15T00:03:31Z</time>
      </trkpt>
      <trkpt lat="46.62662" lon="-1.85388">
        <ele>12</ele>
        <time>2018-01-15T00:04:31Z</time>
      </trkpt>
      <trkpt lat="46.62651" lon="-1.85386">
        <ele>12</ele>
        <time>2018-01-15T00:05:31Z</time>
      </trkpt>
      <trkpt lat="46.62635" lon="-1.85383">
        <ele>12</ele>
        <time>2018-01-15T00:06:31Z</time>
      </trkpt>
      <trkpt lat="46.62613" lon="-1.85377">
        <ele>12</ele>
        <time>2018-01-15T00:07:31Z</time>
      </trkpt>
      <trkpt lat="46.62579" lon="-1.85367">
        <ele>13</ele>
        <time>2018-01-15T00:08:31Z</time>
      </trkpt>
      <trkpt lat="46.62559" lon="-1.85361">
        <ele>13</ele>
        <time>2018-01-15T00:09:31Z</time>
      </trkpt>
      <trkpt lat="46.62547" lon="-1.85357">
        <ele>14</ele>
        <time>2018-01-15T00:10:31Z</time>
      </trkpt>
      <trkpt lat="46.62531" lon="-1.85353">
        <ele>14</ele>
        <time>2018-01-15T00:11:31Z</time>
      </trkpt>
      <trkpt lat="46.62522" lon="-1.8535">
        <ele>14</ele>
        <time>2018-01-15T00:12:31Z</time>
      </trkpt>
      <trkpt lat="46.62498" lon="-1.85343">
        <ele>15</ele>
        <time>2018-01-15T00:13:31Z</time>
      </trkpt>
      <trkpt lat="46.62483" lon="-1.85343">
        <ele>15</ele>
        <time>2018-01-15T00:14:31Z</time>
      </trkpt>
      <trkpt lat="46.62483" lon="-1.85343">
        <ele>15</ele>
        <time>2018-01-15T00:15:31Z</time>
      </trkpt>
      <trkpt lat="46.62483" lon="-1.85344">
        <ele>15</ele>
        <time>2018-01-15T00:16:31Z</time>
      </trkpt>
      <trkpt lat="46.62484" lon="-1.85344">
        <ele>15</ele>
        <time>2018-01-15T00:17:31Z</time>
      </trkpt>
      <trkpt lat="46.62484" lon="-1.85345">
        <ele>15</ele>
        <time>2018-01-15T00:18:31Z</time>
      </trkpt>
      <trkpt lat="46.62484" lon="-1.85346">
        <ele>15</ele>
        <time>2018-01-15T00:19:31Z</time>
      </trkpt>
      <trkpt lat="46.62485" lon="-1.85346">
        <ele>15</ele>
        <time>2018-01-15T00:20:31Z</time>
      </trkpt>
      <trkpt lat="46.62485" lon="-1.85347">
        <ele>15</ele>
        <time>2018-01-15T00:21:31Z</time>
      </trkpt>
      <trkpt lat="46.62485" lon="-1.85348">
        <ele>15</ele>
        <time>2018-01-15T00:22:31Z</time>
      </trkpt>
      <trkpt lat="46.62485" lon="-1.85349">
        <ele>15</ele>
        <time>2018-01-15T00:23:31Z</time>
      </trkpt>
      <trkpt lat="46.62485" lon="-1.8535">
        <ele>15</ele>
        <time>2018-01-15T00:24:31Z</time>
      </trkpt>
      <trkpt lat="46.62485" lon="-1.85351">
        <ele>15</ele>
        <time>2018-01-15T00:25:31Z</time>
      </trkpt>
      <trkpt lat="46.62485" lon="-1.85352">
        <ele>15</ele>
        <time>2018-01-15T00:26:31Z</time>
      </trkpt>
      <trkpt lat="46.62485" lon="-1.85353">
        <ele>15</ele>
        <time>2018-01-15T00:27:31Z</time>
      </trkpt>
      <trkpt lat="46.62485" lon="-1.85354">
        <ele>15</ele>
        <time>2018-01-15T00:28:31Z</time>
      </trkpt>
      <trkpt lat="46.62485" lon="-1.85355">
        <ele>15</ele>
        <time>2018-01-15T00:29:31Z</time>
      </trkpt>
      <trkpt lat="46.62485" lon="-1.85356">
        <ele>15</ele>
        <time>2018-01-15T00:30:31Z</time>
      </trkpt>
      <trkpt lat="46.62484" lon="-1.85356">
        <ele>15</ele>
        <time>2018-01-15T00:31:31Z</time>
      </trkpt>
      <trkpt lat="46.62484" lon="-1.85357">
        <ele>15</ele>
        <time>2018-01-15T00:32:31Z</time>
      </trkpt>
      <trkpt lat="46.62483" lon="-1.85358">
        <ele>15</ele>
        <time>2018-01-15T00:33:31Z</time>
      </trkpt>
      <trkpt lat="46.62483" lon="-1.85359">
        <ele>15</ele>
        <time>2018-01-15T00:34:31Z</time>
      </trkpt>
      <trkpt lat="46.62482" lon="-1.85359">
        <ele>15</ele>
        <time>2018-01-15T00:35:31Z</time>
      </trkpt>
      <trkpt lat="46.62481" lon="-1.8536">
        <ele>15</ele>
        <time>2018-01-15T00:36:31Z</time>
      </trkpt>
      <trkpt lat="46.6248" lon="-1.8536">
        <ele>15</ele>
        <time>2018-01-15T00:37:31Z</time>
      </trkpt>
      <trkpt lat="46.62479" lon="-1.8536">
        <ele>15</ele>
        <time>2018-01-15T00:38:31Z</time>
      </trkpt>
      <trkpt lat="46.62478" lon="-1.8536">
        <ele>15</ele>
        <time>2018-01-15T00:39:31Z</time>
      </trkpt>
      <trkpt lat="46.62477" lon="-1.8536">
        <ele>15</ele>
        <time>2018-01-15T00:40:31Z</time>
      </trkpt>
      <trkpt lat="46.62477" lon="-1.85359">
        <ele>15</ele>
        <time>2018-01-15T00:41:31Z</time>
      </trkpt>
      <trkpt lat="46.62476" lon="-1.85359">
        <ele>15</ele>
        <time>2018-01-15T00:42:31Z</time>
      </trkpt>
      <trkpt lat="46.62475" lon="-1.85359">
        <ele>15</ele>
        <time>2018-01-15T00:43:31Z</time>
      </trkpt>
      <trkpt lat="46.62475" lon="-1.85358">
        <ele>16</ele>
        <time>2018-01-15T00:44:31Z</time>
      </trkpt>
      <trkpt lat="46.62475" lon="-1.85357">
        <ele>16</ele>
        <time>2018-01-15T00:45:31Z</time>
      </trkpt>
      <trkpt lat="46.62474" lon="-1.85357">
        <ele>16</ele>
        <time>2018-01-15T00:46:31Z</time>
      </trkpt>
      <trkpt lat="46.62474" lon="-1.85356">
        <ele>16</ele>
        <time>2018-01-15T00:47:31Z</time>
      </trkpt>
      <trkpt lat="46.62473" lon="-1.85355">
        <ele>16</ele>
        <time>2018-01-15T00:48:31Z</time>
      </trkpt>
      <trkpt lat="46.62473" lon="-1.85354">
        <ele>16</ele>
        <time>2018-01-15T00:49:31Z</time>
      </trkpt>
      <trkpt lat="46.62473" lon="-1.85353">
        <ele>16</ele>
        <time>2018-01-15T00:50:31Z</time>
      </trkpt>
      <trkpt lat="46.62473" lon="-1.85352">
        <ele>16</ele>
        <time>2018-01-15T00:51:31Z</time>
      </trkpt>
      <trkpt lat="46.62473" lon="-1.85351">
        <ele>16</ele>
        <time>2018-01-15T00:52:31Z</time>
      </trkpt>
      <trkpt lat="46.62473" lon="-1.8535">
        <ele>16</ele>
        <time>2018-01-15T00:53:31Z</time>
      </trkpt>
      <trkpt lat="46.62473" lon="-1.85349">
        <ele>16</ele>
        <time>2018-01-15T00:54:31Z</time>
      </trkpt>
      <trkpt lat="46.62473" lon="-1.85348">
        <ele>16</ele>
        <time>2018-01-15T00:55:31Z</time>
      </trkpt>
      <trkpt lat="46.62473" lon="-1.85347">
        <ele>16</ele>
        <time>2018-01-15T00:56:31Z</time>
      </trkpt>
      <trkpt lat="46.62473" lon="-1.85346">
        <ele>16</ele>
        <time>2018-01-15T00:57:31Z</time>
      </trkpt>
      <trkpt lat="46.62403" lon="-1.8528">
        <ele>18</ele>
        <time>2018-01-15T00:58:31Z</time>
      </trkpt>
      <trkpt lat="46.62373" lon="-1.8525">
        <ele>19</ele>
        <time>2018-01-15T00:59:31Z</time>
      </trkpt>
      <trkpt lat="46.62363" lon="-1.85241">
        <ele>19</ele>
        <time>2018-01-15T01:00:31Z</time>
      </trkpt>
      <trkpt lat="46.62347" lon="-1.85225">
        <ele>20</ele>
        <time>2018-01-15T01:01:31Z</time>
      </trkpt>
      <trkpt lat="46.62341" lon="-1.85219">
        <ele>20</ele>
        <time>2018-01-15T01:02:31Z</time>
      </trkpt>
      <trkpt lat="46.6233" lon="-1.85208">
        <ele>20</ele>
        <time>2018-01-15T01:03:31Z</time>
      </trkpt>
      <trkpt lat="46.62317" lon="-1.85199">
        <ele>20</ele>
        <time>2018-01-15T01:04:31Z</time>
      </trkpt>
      <trkpt lat="46.62314" lon="-1.85196">
        <ele>20</ele>
        <time>2018-01-15T01:05:31Z</time>
      </trkpt>
      <trkpt lat="46.62304" lon="-1.85187">
        <ele>19</ele>
        <time>2018-01-15T01:06:31Z</time>
      </trkpt>
      <trkpt lat="46.62294" lon="-1.8518">
        <ele>19</ele>
        <time>2018-01-15T01:07:31Z</time>
      </trkpt>
      <trkpt lat="46.62294" lon="-1.8518">
        <ele>19</ele>
        <time>2018-01-15T01:08:31Z</time>
      </trkpt>
      <trkpt lat="46.62294" lon="-1.85181">
        <ele>19</ele>
        <time>2018-01-15T01:09:31Z</time>
      </trkpt>
      <trkpt lat="46.62293" lon="-1.85181">
        <ele>19</ele>
        <time>2018-01-15T01:10:31Z</time>
      </trkpt>
      <trkpt lat="46.62292" lon="-1.85181">
        <ele>19</ele>
        <time>2018-01-15T01:11:31Z</time>
      </trkpt>
      <trkpt lat="46.62292" lon="-1.85182">
        <ele>19</ele>
        <time>2018-01-15T01:12:31Z</time>
      </trkpt>
      <trkpt lat="46.62291" lon="-1.85182">
        <ele>19</ele>
        <time>2018-01-15T01:13:31Z</time>
      </trkpt>
      <trkpt lat="46.6229" lon="-1.85182">
        <ele>19</ele>
        <time>2018-01-15T01:14:31Z</time>
      </trkpt>
      <trkpt lat="46.62289" lon="-1.85182">
        <ele>19</ele>
        <time>2018-01-15T01:15:31Z</time>
      </trkpt>
      <trkpt lat="46.62288" lon="-1.85182">
        <ele>19</ele>
        <time>2018-01-15T01:16:31Z</time>
      </trkpt>
      <trkpt lat="46.62282" lon="-1.8519">
        <ele>19</ele>
        <time>2018-01-15T01:17:31Z</time>
      </trkpt>
      <trkpt lat="46.62277" lon="-1.85198">
        <ele>19</ele>
        <time>2018-01-15T01:18:31Z</time>
      </trkpt>
      <trkpt lat="46.62274" lon="-1.85204">
        <ele>19</ele>
        <time>2018-01-15T01:19:31Z</time>
      </trkpt>
      <trkpt lat="46.62273" lon="-1.85206">
        <ele>19</ele>
        <time>2018-01-15T01:20:31Z</time>
      </trkpt>
      <trkpt lat="46.62272" lon="-1.85213">
        <ele>19</ele>
        <time>2018-01-15T01:21:31Z</time>
      </trkpt>
      <trkpt lat="46.62271" lon="-1.85231">
        <ele>19</ele>
        <time>2018-01-15T01:22:31Z</time>
      </trkpt>
      <trkpt lat="46.6227" lon="-1.85246">
        <ele>19</ele>
        <time>2018-01-15T01:23:31Z</time>
      </trkpt>
      <trkpt lat="46.62271" lon="-1.8527">
        <ele>19</ele>
        <time>2018-01-15T01:24:31Z</time>
      </trkpt>
      <trkpt lat="46.62271" lon="-1.85277">
        <ele>19</ele>
        <time>2018-01-15T01:25:31Z</time>
      </trkpt>
      <trkpt lat="46.62271" lon="-1.8529">
        <ele>18</ele>
        <time>2018-01-15T01:26:31Z</time>
      </trkpt>
      <trkpt lat="46.62271" lon="-1.85304">
        <ele>18</ele>
        <time>2018-01-15T01:27:31Z</time>
      </trkpt>
      <trkpt lat="46.62271" lon="-1.85321">
        <ele>18</ele>
        <time>2018-01-15T01:28:31Z</time>
      </trkpt>
      <trkpt lat="46.62271" lon="-1.8534">
        <ele>17</ele>
        <time>2018-01-15T01:29:31Z</time>
      </trkpt>
      <trkpt lat="46.62272" lon="-1.85356">
        <ele>17</ele>
        <time>2018-01-15T01:30:31Z</time>
      </trkpt>
      <trkpt lat="46.62272" lon="-1.85364">
        <ele>16</ele>
        <time>2018-01-15T01:31:31Z</time>
      </trkpt>
      <trkpt lat="46.62272" lon="-1.85371">
        <ele>16</ele>
        <time>2018-01-15T01:32:31Z</time>
      </trkpt>
      <trkpt lat="46.62272" lon="-1.85378">
        <ele>16</ele>
        <time>2018-01-15T01:33:31Z</time>
      </trkpt>
      <trkpt lat="46.62272" lon="-1.85385">
        <ele>16</ele>
        <time>2018-01-15T01:34:31Z</time>
      </trkpt>
      <trkpt lat="46.62272" lon="-1.85393">
        <ele>16</ele>
        <time>2018-01-15T01:35:31Z</time>
      </trkpt>
      <trkpt lat="46.62272" lon="-1.85401">
        <ele>15</ele>
        <time>2018-01-15T01:36:31Z</time>
      </trkpt>
      <trkpt lat="46.62273" lon="-1.85411">
        <ele>15</ele>
        <time>2018-01-15T01:37:31Z</time>
      </trkpt>
      <trkpt lat="46.62272" lon="-1.8542">
        <ele>15</ele>
        <time>2018-01-15T01:38:31Z</time>
      </trkpt>
      <trkpt lat="46.62273" lon="-1.85429">
        <ele>15</ele>
        <time>2018-01-15T01:39:31Z</time>
      </trkpt>
      <trkpt lat="46.62273" lon="-1.85437">
        <ele>15</ele>
        <time>2018-01-15T01:40:31Z</time>
      </trkpt>
      <trkpt lat="46.62273" lon="-1.85445">
        <ele>15</ele>
        <time>2018-01-15T01:41:31Z</time>
      </trkpt>
      <trkpt lat="46.62273" lon="-1.85453">
        <ele>14</ele>
        <time>2018-01-15T01:42:31Z</time>
      </trkpt>
      <trkpt lat="46.62273" lon="-1.8546">
        <ele>14</ele>
        <time>2018-01-15T01:43:31Z</time>
      </trkpt>
      <trkpt lat="46.62273" lon="-1.85468">
        <ele>14</ele>
        <time>2018-01-15T01:44:31Z</time>
      </trkpt>
      <trkpt lat="46.62273" lon="-1.85476">
        <ele>14</ele>
        <time>2018-01-15T01:45:31Z</time>
      </trkpt>
      <trkpt lat="46.62273" lon="-1.85485">
        <ele>14</ele>
        <time>2018-01-15T01:46:31Z</time>
      </trkpt>
      <trkpt lat="46.62274" lon="-1.85493">
        <ele>14</ele>
        <time>2018-01-15T01:47:31Z</time>
      </trkpt>
      <trkpt lat="46.62273" lon="-1.85501">
        <ele>14</ele>
        <time>2018-01-15T01:48:31Z</time>
      </trkpt>
      <trkpt lat="46.62273" lon="-1.85509">
        <ele>14</ele>
        <time>2018-01-15T01:49:31Z</time>
      </trkpt>
      <trkpt lat="46.62274" lon="-1.85518">
        <ele>14</ele>
        <time>2018-01-15T01:50:31Z</time>
      </trkpt>
      <trkpt lat="46.62274" lon="-1.85526">
        <ele>13</ele>
        <time>2018-01-15T01:51:31Z</time>
      </trkpt>
      <trkpt lat="46.62274" lon="-1.85534">
        <ele>13</ele>
        <time>2018-01-15T01:52:31Z</time>
      </trkpt>
      <trkpt lat="46.62274" lon="-1.85543">
        <ele>13</ele>
        <time>2018-01-15T01:53:31Z</time>
      </trkpt>
      <trkpt lat="46.62274" lon="-1.85551">
        <ele>13</ele>
        <time>2018-01-15T01:54:31Z</time>
      </trkpt>
      <trkpt lat="46.62275" lon="-1.85568">
        <ele>13</ele>
        <time>2018-01-15T01:55:31Z</time>
      </trkpt>
      <trkpt lat="46.62275" lon="-1.85587">
        <ele>12</ele>
        <time>2018-01-15T01:56:31Z</time>
      </trkpt>
      <trkpt lat="46.62275" lon="-1.85605">
        <ele>12</ele>
        <time>2018-01-15T01:57:31Z</time>
      </trkpt>
      <trkpt lat="46.62276" lon="-1.85625">
        <ele>11</ele>
        <time>2018-01-15T01:58:31Z</time>
      </trkpt>
      <trkpt lat="46.62276" lon="-1.85647">
        <ele>11</ele>
        <time>2018-01-15T01:59:31Z</time>
      </trkpt>
      <trkpt lat="46.62276" lon="-1.85668">
        <ele>11</ele>
        <time>2018-01-15T02:00:31Z</time>
      </trkpt>
      <trkpt lat="46.62276" lon="-1.8569">
        <ele>10</ele>
        <time>2018-01-15T02:01:31Z</time>
      </trkpt>
      <trkpt lat="46.62277" lon="-1.85711">
        <ele>10</ele>
        <time>2018-01-15T02:02:31Z</time>
      </trkpt>
      <trkpt lat="46.62277" lon="-1.8573">
        <ele>9</ele>
        <time>2018-01-15T02:03:31Z</time>
      </trkpt>
      <trkpt lat="46.62279" lon="-1.85744">
        <ele>9</ele>
        <time>2018-01-15T02:04:31Z</time>
      </trkpt>
      <trkpt lat="46.6228" lon="-1.8575">
        <ele>9</ele>
        <time>2018-01-15T02:05:31Z</time>
      </trkpt>
      <trkpt lat="46.62281" lon="-1.85755">
        <ele>9</ele>
        <time>2018-01-15T02:06:31Z</time>
      </trkpt>
      <trkpt lat="46.62285" lon="-1.85771">
        <ele>9</ele>
        <time>2018-01-15T02:07:31Z</time>
      </trkpt>
      <trkpt lat="46.6229" lon="-1.85782">
        <ele>9</ele>
        <time>2018-01-15T02:08:31Z</time>
      </trkpt>
      <trkpt lat="46.62294" lon="-1.8579">
        <ele>9</ele>
        <time>2018-01-15T02:09:31Z</time>
      </trkpt>
      <trkpt lat="46.62294" lon="-1.8579">
        <ele>9</ele>
        <time>2018-01-15T02:10:31Z</time>
      </trkpt>
      <trkpt lat="46.62294" lon="-1.85797">
        <ele>9</ele>
        <time>2018-01-15T02:11:31Z</time>
      </trkpt>
      <trkpt lat="46.62294" lon="-1.85805">
        <ele>9</ele>
        <time>2018-01-15T02:12:31Z</time>
      </trkpt>
      <trkpt lat="46.62296" lon="-1.85817">
        <ele>9</ele>
        <time>2018-01-15T02:13:31Z</time>
      </trkpt>
      <trkpt lat="46.62298" lon="-1.85826">
        <ele>9</ele>
        <time>2018-01-15T02:14:31Z</time>
      </trkpt>
      <trkpt lat="46.62318" lon="-1.85897">
        <ele>12</ele>
        <time>2018-01-15T02:15:31Z</time>
      </trkpt>
      <trkpt lat="46.62319" lon="-1.85896">
        <ele>12</ele>
        <time>2018-01-15T02:16:31Z</time>
      </trkpt>
      <trkpt lat="46.62321" lon="-1.85895">
        <ele>12</ele>
        <time>2018-01-15T02:17:31Z</time>
      </trkpt>
      <trkpt lat="46.62322" lon="-1.85895">
        <ele>12</ele>
        <time>2018-01-15T02:18:31Z</time>
      </trkpt>
      <trkpt lat="46.62323" lon="-1.85895">
        <ele>12</ele>
        <time>2018-01-15T02:19:31Z</time>
      </trkpt>
      <trkpt lat="46.62325" lon="-1.85896">
        <ele>12</ele>
        <time>2018-01-15T02:20:31Z</time>
      </trkpt>
      <trkpt lat="46.62326" lon="-1.85896">
        <ele>12</ele>
        <time>2018-01-15T02:21:31Z</time>
      </trkpt>
      <trkpt lat="46.62327" lon="-1.85897">
        <ele>12</ele>
        <time>2018-01-15T02:22:31Z</time>
      </trkpt>
      <trkpt lat="46.62328" lon="-1.85899">
        <ele>12</ele>
        <time>2018-01-15T02:23:31Z</time>
      </trkpt>
      <trkpt lat="46.62328" lon="-1.85899">
        <ele>12</ele>
        <time>2018-01-15T02:24:31Z</time>
      </trkpt>
      <trkpt lat="46.62329" lon="-1.85901">
        <ele>12</ele>
        <time>2018-01-15T02:25:31Z</time>
      </trkpt>
      <trkpt lat="46.62329" lon="-1.85903">
        <ele>12</ele>
        <time>2018-01-15T02:26:31Z</time>
      </trkpt>
      <trkpt lat="46.62329" lon="-1.85905">
        <ele>12</ele>
        <time>2018-01-15T02:27:31Z</time>
      </trkpt>
      <trkpt lat="46.62329" lon="-1.85907">
        <ele>12</ele>
        <time>2018-01-15T02:28:31Z</time>
      </trkpt>
      <trkpt lat="46.62328" lon="-1.85909">
        <ele>12</ele>
        <time>2018-01-15T02:29:31Z</time>
      </trkpt>
      <trkpt lat="46.62327" lon="-1.8591">
        <ele>12</ele>
        <time>2018-01-15T02:30:31Z</time>
      </trkpt>
      <trkpt lat="46.62327" lon="-1.8591">
        <ele>12</ele>
        <time>2018-01-15T02:31:31Z</time>
      </trkpt>
      <trkpt lat="46.62325" lon="-1.85911">
        <ele>12</ele>
        <time>2018-01-15T02:32:31Z</time>
      </trkpt>
      <trkpt lat="46.62324" lon="-1.85911">
        <ele>12</ele>
        <time>2018-01-15T02:33:31Z</time>
      </trkpt>
      <trkpt lat="46.62323" lon="-1.85911">
        <ele>12</ele>
        <time>2018-01-15T02:34:31Z</time>
      </trkpt>
      <trkpt lat="46.62322" lon="-1.85911">
        <ele>12</ele>
        <time>2018-01-15T02:35:31Z</time>
      </trkpt>
      <trkpt lat="46.6232" lon="-1.85911">
        <ele>12</ele>
        <time>2018-01-15T02:36:31Z</time>
      </trkpt>
      <trkpt lat="46.62319" lon="-1.8591">
        <ele>12</ele>
        <time>2018-01-15T02:37:31Z</time>
      </trkpt>
      <trkpt lat="46.62318" lon="-1.85909">
        <ele>12</ele>
        <time>2018-01-15T02:38:31Z</time>
      </trkpt>
      <trkpt lat="46.62318" lon="-1.85909">
        <ele>12</ele>
        <time>2018-01-15T02:39:31Z</time>
      </trkpt>
      <trkpt lat="46.62313" lon="-1.85914">
        <ele>12</ele>
        <time>2018-01-15T02:40:31Z</time>
      </trkpt>
      <trkpt lat="46.62293" lon="-1.85932">
        <ele>12</ele>
        <time>2018-01-15T02:41:31Z</time>
      </trkpt>
      <trkpt lat="46.62271" lon="-1.85951">
        <ele>11</ele>
        <time>2018-01-15T02:42:31Z</time>
      </trkpt>
      <trkpt lat="46.62252" lon="-1.85966">
        <ele>11</ele>
        <time>2018-01-15T02:43:31Z</time>
      </trkpt>
      <trkpt lat="46.62238" lon="-1.85977">
        <ele>10</ele>
        <time>2018-01-15T02:44:31Z</time>
      </trkpt>
      <trkpt lat="46.6223" lon="-1.85987">
        <ele>10</ele>
        <time>2018-01-15T02:45:31Z</time>
      </trkpt>
      <trkpt lat="46.62224" lon="-1.85998">
        <ele>10</ele>
        <time>2018-01-15T02:46:31Z</time>
      </trkpt>
      <trkpt lat="46.62218" lon="-1.86015">
        <ele>9</ele>
        <time>2018-01-15T02:47:31Z</time>
      </trkpt>
      <trkpt lat="46.62209" lon="-1.86035">
        <ele>9</ele>
        <time>2018-01-15T02:48:31Z</time>
      </trkpt>
      <trkpt lat="46.62205" lon="-1.86044">
        <ele>9</ele>
        <time>2018-01-15T02:49:31Z</time>
      </trkpt>
      <trkpt lat="46.62199" lon="-1.86052">
        <ele>9</ele>
        <time>2018-01-15T02:50:31Z</time>
      </trkpt>
      <trkpt lat="46.62185" lon="-1.86073">
        <ele>8</ele>
        <time>2018-01-15T02:51:31Z</time>
      </trkpt>
      <trkpt lat="46.62164" lon="-1.86103">
        <ele>8</ele>
        <time>2018-01-15T02:52:31Z</time>
      </trkpt>
      <trkpt lat="46.62149" lon="-1.86121">
        <ele>9</ele>
        <time>2018-01-15T02:53:31Z</time>
      </trkpt>
      <trkpt lat="46.62141" lon="-1.86128">
        <ele>9</ele>
        <time>2018-01-15T02:54:31Z</time>
      </trkpt>
      <trkpt lat="46.62134" lon="-1.86134">
        <ele>9</ele>
        <time>2018-01-15T02:55:31Z</time>
      </trkpt>
      <trkpt lat="46.62119" lon="-1.86147">
        <ele>8</ele>
        <time>2018-01-15T02:56:31Z</time>
      </trkpt>
      <trkpt lat="46.62111" lon="-1.86155">
        <ele>8</ele>
        <time>2018-01-15T02:57:31Z</time>
      </trkpt>
      <trkpt lat="46.62098" lon="-1.86172">
        <ele>7</ele>
        <time>2018-01-15T02:58:31Z</time>
      </trkpt>
      <trkpt lat="46.62082" lon="-1.86194">
        <ele>7</ele>
        <time>2018-01-15T02:59:31Z</time>
      </trkpt>
      <trkpt lat="46.62071" lon="-1.86206">
        <ele>7</ele>
        <time>2018-01-15T03:00:31Z</time>
      </trkpt>
      <trkpt lat="46.62049" lon="-1.86226">
        <ele>7</ele>
        <time>2018-01-15T03:01:31Z</time>
      </trkpt>
      <trkpt lat="46.62023" lon="-1.86245">
        <ele>7</ele>
        <time>2018-01-15T03:02:31Z</time>
      </trkpt>
      <trkpt lat="46.62004" lon="-1.86259">
        <ele>8</ele>
        <time>2018-01-15T03:03:31Z</time>
      </trkpt>
      <trkpt lat="46.61991" lon="-1.86268">
        <ele>8</ele>
        <time>2018-01-15T03:04:31Z</time>
      </trkpt>
      <trkpt lat="46.61971" lon="-1.86281">
        <ele>7</ele>
        <time>2018-01-15T03:05:31Z</time>
      </trkpt>
      <trkpt lat="46.61957" lon="-1.8629">
        <ele>7</ele>
        <time>2018-01-15T03:06:31Z</time>
      </trkpt>
      <trkpt lat="46.61956" lon="-1.8629">
        <ele>7</ele>
        <time>2018-01-15T03:07:31Z</time>
      </trkpt>
      <trkpt lat="46.61925" lon="-1.86308">
        <ele>7</ele>
        <time>2018-01-15T03:08:31Z</time>
      </trkpt>
      <trkpt lat="46.61883" lon="-1.86327">
        <ele>7</ele>
        <time>2018-01-15T03:09:31Z</time>
      </trkpt>
      <trkpt lat="46.61848" lon="-1.86343">
        <ele>8</ele>
        <time>2018-01-15T03:10:31Z</time>
      </trkpt>
      <trkpt lat="46.61818" lon="-1.86357">
        <ele>8</ele>
        <time>2018-01-15T03:11:31Z</time>
      </trkpt>
      <trkpt lat="46.618" lon="-1.86363">
        <ele>8</ele>
        <time>2018-01-15T03:12:31Z</time>
      </trkpt>
      <trkpt lat="46.61792" lon="-1.86365">
        <ele>8</ele>
        <time>2018-01-15T03:13:31Z</time>
      </trkpt>
      <trkpt lat="46.6179" lon="-1.86365">
        <ele>8</ele>
        <time>2018-01-15T03:14:31Z</time>
      </trkpt>
      <trkpt lat="46.61788" lon="-1.86365">
        <ele>8</ele>
        <time>2018-01-15T03:15:31Z</time>
      </trkpt>
      <trkpt lat="46.61785" lon="-1.86365">
        <ele>8</ele>
        <time>2018-01-15T03:16:31Z</time>
      </trkpt>
      <trkpt lat="46.61778" lon="-1.86363">
        <ele>8</ele>
        <time>2018-01-15T03:17:31Z</time>
      </trkpt>
      <trkpt lat="46.61764" lon="-1.86361">
        <ele>8</ele>
        <time>2018-01-15T03:18:31Z</time>
      </trkpt>
      <trkpt lat="46.61754" lon="-1.86353">
        <ele>8</ele>
        <time>2018-01-15T03:19:31Z</time>
      </trkpt>
      <trkpt lat="46.61747" lon="-1.86358">
        <ele>8</ele>
        <time>2018-01-15T03:20:31Z</time>
      </trkpt>
      <trkpt lat="46.61739" lon="-1.86363">
        <ele>8</ele>
        <time>2018-01-15T03:21:31Z</time>
      </trkpt>
      <trkpt lat="46.61725" lon="-1.86373">
        <ele>8</ele>
        <time>2018-01-15T03:22:31Z</time>
      </trkpt>
      <trkpt lat="46.61723" lon="-1.86374">
        <ele>8</ele>
        <time>2018-01-15T03:23:31Z</time>
      </trkpt>
      <trkpt lat="46.61703" lon="-1.86388">
        <ele>9</ele>
        <time>2018-01-15T03:24:31Z</time>
      </trkpt>
      <trkpt lat="46.61691" lon="-1.86396">
        <ele>9</ele>
        <time>2018-01-15T03:25:31Z</time>
      </trkpt>
      <trkpt lat="46.61677" lon="-1.86407">
        <ele>9</ele>
        <time>2018-01-15T03:26:31Z</time>
      </trkpt>
      <trkpt lat="46.61677" lon="-1.86407">
        <ele>9</ele>
        <time>2018-01-15T03:27:31Z</time>
      </trkpt>
      <trkpt lat="46.61664" lon="-1.86415">
        <ele>9</ele>
        <time>2018-01-15T03:28:31Z</time>
      </trkpt>
      <trkpt lat="46.61653" lon="-1.86424">
        <ele>8</ele>
        <time>2018-01-15T03:29:31Z</time>
      </trkpt>
      <trkpt lat="46.61646" lon="-1.86434">
        <ele>8</ele>
        <time>2018-01-15T03:30:31Z</time>
      </trkpt>
      <trkpt lat="46.61641" lon="-1.86444">
        <ele>8</ele>
        <time>2018-01-15T03:31:31Z</time>
      </trkpt>
      <trkpt lat="46.6164" lon="-1.86447">
        <ele>7</ele>
        <time>2018-01-15T03:32:31Z</time>
      </trkpt>
      <trkpt lat="46.61638" lon="-1.86452">
        <ele>7</ele>
        <time>2018-01-15T03:33:31Z</time>
      </trkpt>
      <trkpt lat="46.61638" lon="-1.86454">
        <ele>7</ele>
        <time>2018-01-15T03:34:31Z</time>
      </trkpt>
      <trkpt lat="46.61637" lon="-1.86463">
        <ele>7</ele>
        <time>2018-01-15T03:35:31Z</time>
      </trkpt>
      <trkpt lat="46.61635" lon="-1.86494">
        <ele>7</ele>
        <time>2018-01-15T03:36:31Z</time>
      </trkpt>
      <trkpt lat="46.61632" lon="-1.86529">
        <ele>6</ele>
        <time>2018-01-15T03:37:31Z</time>
      </trkpt>
      <trkpt lat="46.61632" lon="-1.86541">
        <ele>6</ele>
        <time>2018-01-15T03:38:31Z</time>
      </trkpt>
      <trkpt lat="46.61632" lon="-1.86547">
        <ele>6</ele>
        <time>2018-01-15T03:39:31Z</time>
      </trkpt>
      <trkpt lat="46.61631" lon="-1.86562">
        <ele>6</ele>
        <time>2018-01-15T03:40:31Z</time>
      </trkpt>
      <trkpt lat="46.6163" lon="-1.86577">
        <ele>5</ele>
        <time>2018-01-15T03:41:31Z</time>
      </trkpt>
      <trkpt lat="46.61626" lon="-1.8662">
        <ele>4</ele>
        <time>2018-01-15T03:42:31Z</time>
      </trkpt>
      <trkpt lat="46.61625" lon="-1.86643">
        <ele>4</ele>
        <time>2018-01-15T03:43:31Z</time>
      </trkpt>
      <trkpt lat="46.61625" lon="-1.86645">
        <ele>4</ele>
        <time>2018-01-15T03:44:31Z</time>
      </trkpt>
      <trkpt lat="46.61624" lon="-1.86662">
        <ele>4</ele>
        <time>2018-01-15T03:45:31Z</time>
      </trkpt>
      <trkpt lat="46.61625" lon="-1.86671">
        <ele>3</ele>
        <time>2018-01-15T03:46:31Z</time>
      </trkpt>
      <trkpt lat="46.61627" lon="-1.86689">
        <ele>4</ele>
        <time>2018-01-15T03:47:31Z</time>
      </trkpt>
      <trkpt lat="46.6163" lon="-1.8671">
        <ele>4</ele>
        <time>2018-01-15T03:48:31Z</time>
      </trkpt>
      <trkpt lat="46.61636" lon="-1.86737">
        <ele>4</ele>
        <time>2018-01-15T03:49:31Z</time>
      </trkpt>
      <trkpt lat="46.61641" lon="-1.86767">
        <ele>4</ele>
        <time>2018-01-15T03:50:31Z</time>
      </trkpt>
      <trkpt lat="46.61647" lon="-1.86798">
        <ele>4</ele>
        <time>2018-01-15T03:51:31Z</time>
      </trkpt>
      <trkpt lat="46.61654" lon="-1.86833">
        <ele>4</ele>
        <time>2018-01-15T03:52:31Z</time>
      </trkpt>
      <trkpt lat="46.61662" lon="-1.86867">
        <ele>3</ele>
        <time>2018-01-15T03:53:31Z</time>
      </trkpt>
      <trkpt lat="46.61669" lon="-1.86889">
        <ele>4</ele>
        <time>2018-01-15T03:54:31Z</time>
      </trkpt>
      <trkpt lat="46.61677" lon="-1.8691">
        <ele>5</ele>
        <time>2018-01-15T03:55:31Z</time>
      </trkpt>
      <trkpt lat="46.61688" lon="-1.86935">
        <ele>5</ele>
        <time>2018-01-15T03:56:31Z</time>
      </trkpt>
      <trkpt lat="46.61696" lon="-1.86948">
        <ele>5</ele>
        <time>2018-01-15T03:57:31Z</time>
      </trkpt>
      <trkpt lat="46.61729" lon="-1.86988">
        <ele>6</ele>
        <time>2018-01-15T03:58:31Z</time>
      </trkpt>
      <trkpt lat="46.61736" lon="-1.86996">
        <ele>7</ele>
        <time>2018-01-15T03:59:31Z</time>
      </trkpt>
      <trkpt lat="46.61745" lon="-1.87005">
        <ele>4</ele>
        <time>2018-01-15T04:00:31Z</time>
      </trkpt>
      <trkpt lat="46.61759" lon="-1.87018">
        <ele>7</ele>
        <time>2018-01-15T04:01:31Z</time>
      </trkpt>
      <trkpt lat="46.61766" lon="-1.87024">
        <ele>7</ele>
        <time>2018-01-15T04:02:31Z</time>
      </trkpt>
      <trkpt lat="46.61785" lon="-1.87042">
        <ele>7</ele>
        <time>2018-01-15T04:03:31Z</time>
      </trkpt>
      <trkpt lat="46.61805" lon="-1.87061">
        <ele>7</ele>
        <time>2018-01-15T04:04:31Z</time>
      </trkpt>
      <trkpt lat="46.61819" lon="-1.87074">
        <ele>7</ele>
        <time>2018-01-15T04:05:31Z</time>
      </trkpt>
      <trkpt lat="46.6183" lon="-1.87085">
        <ele>7</ele>
        <time>2018-01-15T04:06:31Z</time>
      </trkpt>
      <trkpt lat="46.61833" lon="-1.87088">
        <ele>7</ele>
        <time>2018-01-15T04:07:31Z</time>
      </trkpt>
      <trkpt lat="46.61842" lon="-1.87096">
        <ele>7</ele>
        <time>2018-01-15T04:08:31Z</time>
      </trkpt>
      <trkpt lat="46.61861" lon="-1.87113">
        <ele>6</ele>
        <time>2018-01-15T04:09:31Z</time>
      </trkpt>
      <trkpt lat="46.619" lon="-1.87149">
        <ele>7</ele>
        <time>2018-01-15T04:10:31Z</time>
      </trkpt>
      <trkpt lat="46.619" lon="-1.87148">
        <ele>7</ele>
        <time>2018-01-15T04:11:31Z</time>
      </trkpt>
      <trkpt lat="46.61901" lon="-1.87147">
        <ele>7</ele>
        <time>2018-01-15T04:12:31Z</time>
      </trkpt>
      <trkpt lat="46.61901" lon="-1.87146">
        <ele>7</ele>
        <time>2018-01-15T04:13:31Z</time>
      </trkpt>
      <trkpt lat="46.61901" lon="-1.87145">
        <ele>7</ele>
        <time>2018-01-15T04:14:31Z</time>
      </trkpt>
      <trkpt lat="46.61901" lon="-1.87144">
        <ele>7</ele>
        <time>2018-01-15T04:15:31Z</time>
      </trkpt>
      <trkpt lat="46.61902" lon="-1.87143">
        <ele>7</ele>
        <time>2018-01-15T04:16:31Z</time>
      </trkpt>
      <trkpt lat="46.61902" lon="-1.87142">
        <ele>7</ele>
        <time>2018-01-15T04:17:31Z</time>
      </trkpt>
      <trkpt lat="46.61903" lon="-1.87141">
        <ele>7</ele>
        <time>2018-01-15T04:18:31Z</time>
      </trkpt>
      <trkpt lat="46.61903" lon="-1.8714">
        <ele>7</ele>
        <time>2018-01-15T04:19:31Z</time>
      </trkpt>
      <trkpt lat="46.61904" lon="-1.8714">
        <ele>7</ele>
        <time>2018-01-15T04:20:31Z</time>
      </trkpt>
      <trkpt lat="46.61904" lon="-1.87139">
        <ele>7</ele>
        <time>2018-01-15T04:21:31Z</time>
      </trkpt>
      <trkpt lat="46.61905" lon="-1.87138">
        <ele>7</ele>
        <time>2018-01-15T04:22:31Z</time>
      </trkpt>
      <trkpt lat="46.61906" lon="-1.87138">
        <ele>7</ele>
        <time>2018-01-15T04:23:31Z</time>
      </trkpt>
      <trkpt lat="46.61906" lon="-1.87137">
        <ele>7</ele>
        <time>2018-01-15T04:24:31Z</time>
      </trkpt>
      <trkpt lat="46.61907" lon="-1.87137">
        <ele>7</ele>
        <time>2018-01-15T04:25:31Z</time>
      </trkpt>
      <trkpt lat="46.61908" lon="-1.87137">
        <ele>7</ele>
        <time>2018-01-15T04:26:31Z</time>
      </trkpt>
      <trkpt lat="46.61909" lon="-1.87137">
        <ele>7</ele>
        <time>2018-01-15T04:27:31Z</time>
      </trkpt>
      <trkpt lat="46.61909" lon="-1.87136">
        <ele>7</ele>
        <time>2018-01-15T04:28:31Z</time>
      </trkpt>
      <trkpt lat="46.6191" lon="-1.87136">
        <ele>7</ele>
        <time>2018-01-15T04:29:31Z</time>
      </trkpt>
      <trkpt lat="46.6191" lon="-1.87137">
        <ele>7</ele>
        <time>2018-01-15T04:30:31Z</time>
      </trkpt>
      <trkpt lat="46.61911" lon="-1.87137">
        <ele>7</ele>
        <time>2018-01-15T04:31:31Z</time>
      </trkpt>
      <trkpt lat="46.61912" lon="-1.87137">
        <ele>7</ele>
        <time>2018-01-15T04:32:31Z</time>
      </trkpt>
      <trkpt lat="46.61913" lon="-1.87137">
        <ele>7</ele>
        <time>2018-01-15T04:33:31Z</time>
      </trkpt>
      <trkpt lat="46.61913" lon="-1.87138">
        <ele>7</ele>
        <time>2018-01-15T04:34:31Z</time>
      </trkpt>
      <trkpt lat="46.61914" lon="-1.87138">
        <ele>7</ele>
        <time>2018-01-15T04:35:31Z</time>
      </trkpt>
      <trkpt lat="46.61914" lon="-1.87139">
        <ele>7</ele>
        <time>2018-01-15T04:36:31Z</time>
      </trkpt>
      <trkpt lat="46.61915" lon="-1.87139">
        <ele>7</ele>
        <time>2018-01-15T04:37:31Z</time>
      </trkpt>
      <trkpt lat="46.61915" lon="-1.8714">
        <ele>7</ele>
        <time>2018-01-15T04:38:31Z</time>
      </trkpt>
      <trkpt lat="46.61916" lon="-1.8714">
        <ele>7</ele>
        <time>2018-01-15T04:39:31Z</time>
      </trkpt>
      <trkpt lat="46.61916" lon="-1.87141">
        <ele>7</ele>
        <time>2018-01-15T04:40:31Z</time>
      </trkpt>
      <trkpt lat="46.61917" lon="-1.87142">
        <ele>7</ele>
        <time>2018-01-15T04:41:31Z</time>
      </trkpt>
      <trkpt lat="46.61917" lon="-1.87143">
        <ele>7</ele>
        <time>2018-01-15T04:42:31Z</time>
      </trkpt>
      <trkpt lat="46.61918" lon="-1.87144">
        <ele>7</ele>
        <time>2018-01-15T04:43:31Z</time>
      </trkpt>
      <trkpt lat="46.61918" lon="-1.87145">
        <ele>7</ele>
        <time>2018-01-15T04:44:31Z</time>
      </trkpt>
      <trkpt lat="46.61918" lon="-1.87146">
        <ele>7</ele>
        <time>2018-01-15T04:45:31Z</time>
      </trkpt>
      <trkpt lat="46.61918" lon="-1.87147">
        <ele>7</ele>
        <time>2018-01-15T04:46:31Z</time>
      </trkpt>
      <trkpt lat="46.61918" lon="-1.87148">
        <ele>7</ele>
        <time>2018-01-15T04:47:31Z</time>
      </trkpt>
      <trkpt lat="46.61918" lon="-1.87149">
        <ele>7</ele>
        <time>2018-01-15T04:48:31Z</time>
      </trkpt>
      <trkpt lat="46.61918" lon="-1.8715">
        <ele>7</ele>
        <time>2018-01-15T04:49:31Z</time>
      </trkpt>
      <trkpt lat="46.61918" lon="-1.87151">
        <ele>7</ele>
        <time>2018-01-15T04:50:31Z</time>
      </trkpt>
      <trkpt lat="46.61918" lon="-1.87152">
        <ele>7</ele>
        <time>2018-01-15T04:51:31Z</time>
      </trkpt>
      <trkpt lat="46.61918" lon="-1.87153">
        <ele>7</ele>
        <time>2018-01-15T04:52:31Z</time>
      </trkpt>
      <trkpt lat="46.61918" lon="-1.87154">
        <ele>7</ele>
        <time>2018-01-15T04:53:31Z</time>
      </trkpt>
      <trkpt lat="46.61918" lon="-1.87155">
        <ele>7</ele>
        <time>2018-01-15T04:54:31Z</time>
      </trkpt>
      <trkpt lat="46.61917" lon="-1.87156">
        <ele>7</ele>
        <time>2018-01-15T04:55:31Z</time>
      </trkpt>
      <trkpt lat="46.6192" lon="-1.87165">
        <ele>7</ele>
        <time>2018-01-15T04:56:31Z</time>
      </trkpt>
      <trkpt lat="46.61923" lon="-1.8717">
        <ele>7</ele>
        <time>2018-01-15T04:57:31Z</time>
      </trkpt>
      <trkpt lat="46.61923" lon="-1.8717">
        <ele>7</ele>
        <time>2018-01-15T04:58:31Z</time>
      </trkpt>
      <trkpt lat="46.61925" lon="-1.87172">
        <ele>7</ele>
        <time>2018-01-15T04:59:31Z</time>
      </trkpt>
      <trkpt lat="46.61936" lon="-1.87179">
        <ele>7</ele>
        <time>2018-01-15T05:00:31Z</time>
      </trkpt>
      <trkpt lat="46.61957" lon="-1.87192">
        <ele>6</ele>
        <time>2018-01-15T05:01:31Z</time>
      </trkpt>
      <trkpt lat="46.61973" lon="-1.87201">
        <ele>6</ele>
        <time>2018-01-15T05:02:31Z</time>
      </trkpt>
      <trkpt lat="46.61985" lon="-1.87208">
        <ele>6</ele>
        <time>2018-01-15T05:03:31Z</time>
      </trkpt>
      <trkpt lat="46.6201" lon="-1.87223">
        <ele>6</ele>
        <time>2018-01-15T05:04:31Z</time>
      </trkpt>
      <trkpt lat="46.62022" lon="-1.8723">
        <ele>6</ele>
        <time>2018-01-15T05:05:31Z</time>
      </trkpt>
      <trkpt lat="46.62032" lon="-1.87236">
        <ele>6</ele>
        <time>2018-01-15T05:06:31Z</time>
      </trkpt>
      <trkpt lat="46.62043" lon="-1.87238">
        <ele>6</ele>
        <time>2018-01-15T05:07:31Z</time>
      </trkpt>
      <trkpt lat="46.62053" lon="-1.87238">
        <ele>6</ele>
        <time>2018-01-15T05:08:31Z</time>
      </trkpt>
      <trkpt lat="46.62061" lon="-1.87235">
        <ele>6</ele>
        <time>2018-01-15T05:09:31Z</time>
      </trkpt>
      <trkpt lat="46.6207" lon="-1.87232">
        <ele>6</ele>
        <time>2018-01-15T05:10:31Z</time>
      </trkpt>
      <trkpt lat="46.62087" lon="-1.87223">
        <ele>6</ele>
        <time>2018-01-15T05:11:31Z</time>
      </trkpt>
      <trkpt lat="46.62091" lon="-1.8722">
        <ele>7</ele>
        <time>2018-01-15T05:12:31Z</time>
      </trkpt>
      <trkpt lat="46.62098" lon="-1.87217">
        <ele>7</ele>
        <time>2018-01-15T05:13:31Z</time>
      </trkpt>
      <trkpt lat="46.62111" lon="-1.87211">
        <ele>7</ele>
        <time>2018-01-15T05:14:31Z</time>
      </trkpt>
      <trkpt lat="46.62126" lon="-1.87206">
        <ele>8</ele>
        <time>2018-01-15T05:15:31Z</time>
      </trkpt>
      <trkpt lat="46.62133" lon="-1.87206">
        <ele>8</ele>
        <time>2018-01-15T05:16:31Z</time>
      </trkpt>
      <trkpt lat="46.62144" lon="-1.87208">
        <ele>8</ele>
        <time>2018-01-15T05:17:31Z</time>
      </trkpt>
      <trkpt lat="46.62156" lon="-1.87213">
        <ele>8</ele>
        <time>2018-01-15T05:18:31Z</time>
      </trkpt>
      <trkpt lat="46.62171" lon="-1.87222">
        <ele>8</ele>
        <time>2018-01-15T05:19:31Z</time>
      </trkpt>
      <trkpt lat="46.62178" lon="-1.87228">
        <ele>8</ele>
        <time>2018-01-15T05:20:31Z</time>
      </trkpt>
      <trkpt lat="46.62178" lon="-1.87228">
        <ele>8</ele>
        <time>2018-01-15T05:21:31Z</time>
      </trkpt>
      <trkpt lat="46.62191" lon="-1.87236">
        <ele>8</ele>
        <time>2018-01-15T05:22:31Z</time>
      </trkpt>
      <trkpt lat="46.62209" lon="-1.87249">
        <ele>8</ele>
        <time>2018-01-15T05:23:31Z</time>
      </trkpt>
      <trkpt lat="46.62237" lon="-1.87268">
        <ele>6</ele>
        <time>2018-01-15T05:24:31Z</time>
      </trkpt>
      <trkpt lat="46.62267" lon="-1.8729">
        <ele>5</ele>
        <time>2018-01-15T05:25:31Z</time>
      </trkpt>
      <trkpt lat="46.62279" lon="-1.87297">
        <ele>5</ele>
        <time>2018-01-15T05:26:31Z</time>
      </trkpt>
      <trkpt lat="46.62295" lon="-1.87309">
        <ele>6</ele>
        <time>2018-01-15T05:27:31Z</time>
      </trkpt>
      <trkpt lat="46.62309" lon="-1.87316">
        <ele>6</ele>
        <time>2018-01-15T05:28:31Z</time>
      </trkpt>
      <trkpt lat="46.62329" lon="-1.87324">
        <ele>8</ele>
        <time>2018-01-15T05:29:31Z</time>
      </trkpt>
      <trkpt lat="46.62375" lon="-1.87344">
        <ele>7</ele>
        <time>2018-01-15T05:30:31Z</time>
      </trkpt>
      <trkpt lat="46.62379" lon="-1.87345">
        <ele>7</ele>
        <time>2018-01-15T05:31:31Z</time>
      </trkpt>
      <trkpt lat="46.62391" lon="-1.8735">
        <ele>7</ele>
        <time>2018-01-15T05:32:31Z</time>
      </trkpt>
      <trkpt lat="46.62397" lon="-1.87352">
        <ele>7</ele>
        <time>2018-01-15T05:33:31Z</time>
      </trkpt>
      <trkpt lat="46.62398" lon="-1.87352">
        <ele>7</ele>
        <time>2018-01-15T05:34:31Z</time>
      </trkpt>
      <trkpt lat="46.624" lon="-1.87352">
        <ele>7</ele>
        <time>2018-01-15T05:35:31Z</time>
      </trkpt>
      <trkpt lat="46.62404" lon="-1.87351">
        <ele>7</ele>
        <time>2018-01-15T05:36:31Z</time>
      </trkpt>
      <trkpt lat="46.62406" lon="-1.87352">
        <ele>7</ele>
        <time>2018-01-15T05:37:31Z</time>
      </trkpt>
      <trkpt lat="46.62411" lon="-1.87353">
        <ele>7</ele>
        <time>2018-01-15T05:38:31Z</time>
      </trkpt>
      <trkpt lat="46.62416" lon="-1.87355">
        <ele>7</ele>
        <time>2018-01-15T05:39:31Z</time>
      </trkpt>
      <trkpt lat="46.62422" lon="-1.87356">
        <ele>7</ele>
        <time>2018-01-15T05:40:31Z</time>
      </trkpt>
      <trkpt lat="46.62428" lon="-1.87358">
        <ele>7</ele>
        <time>2018-01-15T05:41:31Z</time>
      </trkpt>
      <trkpt lat="46.62443" lon="-1.87362">
        <ele>7</ele>
        <time>2018-01-15T05:42:31Z</time>
      </trkpt>
      <trkpt lat="46.62451" lon="-1.87362">
        <ele>7</ele>
        <time>2018-01-15T05:43:31Z</time>
      </trkpt>
      <trkpt lat="46.6246" lon="-1.87361">
        <ele>7</ele>
        <time>2018-01-15T05:44:31Z</time>
      </trkpt>
      <trkpt lat="46.6247" lon="-1.87361">
        <ele>7</ele>
        <time>2018-01-15T05:45:31Z</time>
      </trkpt>
      <trkpt lat="46.62483" lon="-1.87359">
        <ele>7</ele>
        <time>2018-01-15T05:46:31Z</time>
      </trkpt>
      <trkpt lat="46.62506" lon="-1.87357">
        <ele>7</ele>
        <time>2018-01-15T05:47:31Z</time>
      </trkpt>
      <trkpt lat="46.62515" lon="-1.87359">
        <ele>7</ele>
        <time>2018-01-15T05:48:31Z</time>
      </trkpt>
      <trkpt lat="46.62533" lon="-1.87363">
        <ele>7</ele>
        <time>2018-01-15T05:49:31Z</time>
      </trkpt>
      <trkpt lat="46.62552" lon="-1.87366">
        <ele>7</ele>
        <time>2018-01-15T05:50:31Z</time>
      </trkpt>
      <trkpt lat="46.62568" lon="-1.87368">
        <ele>7</ele>
        <time>2018-01-15T05:51:31Z</time>
      </trkpt>
      <trkpt lat="46.62579" lon="-1.87365">
        <ele>8</ele>
        <time>2018-01-15T05:52:31Z</time>
      </trkpt>
      <trkpt lat="46.62586" lon="-1.87364">
        <ele>8</ele>
        <time>2018-01-15T05:53:31Z</time>
      </trkpt>
      <trkpt lat="46.62599" lon="-1.87362">
        <ele>7</ele>
        <time>2018-01-15T05:54:31Z</time>
      </trkpt>
      <trkpt lat="46.62606" lon="-1.87359">
        <ele>7</ele>
        <time>2018-01-15T05:55:31Z</time>
      </trkpt>
      <trkpt lat="46.62618" lon="-1.87353">
        <ele>7</ele>
        <time>2018-01-15T05:56:31Z</time>
      </trkpt>
      <trkpt lat="46.62618" lon="-1.87353">
        <ele>7</ele>
        <time>2018-01-15T05:57:31Z</time>
      </trkpt>
      <trkpt lat="46.62617" lon="-1.87352">
        <ele>7</ele>
        <time>2018-01-15T05:58:31Z</time>
      </trkpt>
      <trkpt lat="46.62617" lon="-1.87351">
        <ele>7</ele>
        <time>2018-01-15T05:59:31Z</time>
      </trkpt>
      <trkpt lat="46.62617" lon="-1.8735">
        <ele>7</ele>
        <time>2018-01-15T06:00:31Z</time>
      </trkpt>
      <trkpt lat="46.62617" lon="-1.87349">
        <ele>7</ele>
        <time>2018-01-15T06:01:31Z</time>
      </trkpt>
      <trkpt lat="46.62617" lon="-1.87348">
        <ele>7</ele>
        <time>2018-01-15T06:02:31Z</time>
      </trkpt>
      <trkpt lat="46.62617" lon="-1.87347">
        <ele>7</ele>
        <time>2018-01-15T06:03:31Z</time>
      </trkpt>
      <trkpt lat="46.62618" lon="-1.87347">
        <ele>7</ele>
        <time>2018-01-15T06:04:31Z</time>
      </trkpt>
      <trkpt lat="46.62618" lon="-1.87346">
        <ele>7</ele>
        <time>2018-01-15T06:05:31Z</time>
      </trkpt>
      <trkpt lat="46.62618" lon="-1.87345">
        <ele>7</ele>
        <time>2018-01-15T06:06:31Z</time>
      </trkpt>
      <trkpt lat="46.62619" lon="-1.87345">
        <ele>7</ele>
        <time>2018-01-15T06:07:31Z</time>
      </trkpt>
      <trkpt lat="46.62619" lon="-1.87344">
        <ele>7</ele>
        <time>2018-01-15T06:08:31Z</time>
      </trkpt>
      <trkpt lat="46.6262" lon="-1.87344">
        <ele>7</ele>
        <time>2018-01-15T06:09:31Z</time>
      </trkpt>
      <trkpt lat="46.6262" lon="-1.87343">
        <ele>7</ele>
        <time>2018-01-15T06:10:31Z</time>
      </trkpt>
      <trkpt lat="46.62621" lon="-1.87343">
        <ele>7</ele>
        <time>2018-01-15T06:11:31Z</time>
      </trkpt>
      <trkpt lat="46.62622" lon="-1.87343">
        <ele>7</ele>
        <time>2018-01-15T06:12:31Z</time>
      </trkpt>
      <trkpt lat="46.62623" lon="-1.87343">
        <ele>7</ele>
        <time>2018-01-15T06:13:31Z</time>
      </trkpt>
      <trkpt lat="46.62624" lon="-1.87343">
        <ele>7</ele>
        <time>2018-01-15T06:14:31Z</time>
      </trkpt>
      <trkpt lat="46.62625" lon="-1.87343">
        <ele>7</ele>
        <time>2018-01-15T06:15:31Z</time>
      </trkpt>
      <trkpt lat="46.62625" lon="-1.87344">
        <ele>7</ele>
        <time>2018-01-15T06:16:31Z</time>
      </trkpt>
      <trkpt lat="46.62626" lon="-1.87344">
        <ele>7</ele>
        <time>2018-01-15T06:17:31Z</time>
      </trkpt>
      <trkpt lat="46.62626" lon="-1.87345">
        <ele>7</ele>
        <time>2018-01-15T06:18:31Z</time>
      </trkpt>
      <trkpt lat="46.62626" lon="-1.87346">
        <ele>7</ele>
        <time>2018-01-15T06:19:31Z</time>
      </trkpt>
      <trkpt lat="46.62627" lon="-1.87346">
        <ele>7</ele>
        <time>2018-01-15T06:20:31Z</time>
      </trkpt>
      <trkpt lat="46.62627" lon="-1.87347">
        <ele>7</ele>
        <time>2018-01-15T06:21:31Z</time>
      </trkpt>
      <trkpt lat="46.62627" lon="-1.87348">
        <ele>7</ele>
        <time>2018-01-15T06:22:31Z</time>
      </trkpt>
      <trkpt lat="46.62627" lon="-1.87349">
        <ele>7</ele>
        <time>2018-01-15T06:23:31Z</time>
      </trkpt>
      <trkpt lat="46.62627" lon="-1.8735">
        <ele>7</ele>
        <time>2018-01-15T06:24:31Z</time>
      </trkpt>
      <trkpt lat="46.62627" lon="-1.87351">
        <ele>7</ele>
        <time>2018-01-15T06:25:31Z</time>
      </trkpt>
      <trkpt lat="46.62627" lon="-1.87352">
        <ele>7</ele>
        <time>2018-01-15T06:26:31Z</time>
      </trkpt>
      <trkpt lat="46.62627" lon="-1.87353">
        <ele>7</ele>
        <time>2018-01-15T06:27:31Z</time>
      </trkpt>
      <trkpt lat="46.62626" lon="-1.87354">
        <ele>7</ele>
        <time>2018-01-15T06:28:31Z</time>
      </trkpt>
      <trkpt lat="46.62635" lon="-1.87358">
        <ele>7</ele>
        <time>2018-01-15T06:29:31Z</time>
      </trkpt>
      <trkpt lat="46.62646" lon="-1.87362">
        <ele>7</ele>
        <time>2018-01-15T06:30:31Z</time>
      </trkpt>
      <trkpt lat="46.62646" lon="-1.87362">
        <ele>7</ele>
        <time>2018-01-15T06:31:31Z</time>
      </trkpt>
      <trkpt lat="46.62658" lon="-1.87364">
        <ele>6</ele>
        <time>2018-01-15T06:32:31Z</time>
      </trkpt>
      <trkpt lat="46.62665" lon="-1.87367">
        <ele>6</ele>
        <time>2018-01-15T06:33:31Z</time>
      </trkpt>
      <trkpt lat="46.62668" lon="-1.87368">
        <ele>6</ele>
        <time>2018-01-15T06:34:31Z</time>
      </trkpt>
      <trkpt lat="46.62679" lon="-1.87374">
        <ele>7</ele>
        <time>2018-01-15T06:35:31Z</time>
      </trkpt>
      <trkpt lat="46.62691" lon="-1.87387">
        <ele>7</ele>
        <time>2018-01-15T06:36:31Z</time>
      </trkpt>
      <trkpt lat="46.62711" lon="-1.87416">
        <ele>8</ele>
        <time>2018-01-15T06:37:31Z</time>
      </trkpt>
      <trkpt lat="46.62713" lon="-1.87419">
        <ele>8</ele>
        <time>2018-01-15T06:38:31Z</time>
      </trkpt>
      <trkpt lat="46.62725" lon="-1.87429">
        <ele>8</ele>
        <time>2018-01-15T06:39:31Z</time>
      </trkpt>
      <trkpt lat="46.62744" lon="-1.87442">
        <ele>9</ele>
        <time>2018-01-15T06:40:31Z</time>
      </trkpt>
      <trkpt lat="46.62763" lon="-1.87455">
        <ele>9</ele>
        <time>2018-01-15T06:41:31Z</time>
      </trkpt>
      <trkpt lat="46.62783" lon="-1.87467">
        <ele>9</ele>
        <time>2018-01-15T06:42:31Z</time>
      </trkpt>
      <trkpt lat="46.62802" lon="-1.87477">
        <ele>9</ele>
        <time>2018-01-15T06:43:31Z</time>
      </trkpt>
      <trkpt lat="46.62821" lon="-1.87488">
        <ele>9</ele>
        <time>2018-01-15T06:44:31Z</time>
      </trkpt>
      <trkpt lat="46.62837" lon="-1.87501">
        <ele>9</ele>
        <time>2018-01-15T06:45:31Z</time>
      </trkpt>
      <trkpt lat="46.62846" lon="-1.87513">
        <ele>9</ele>
        <time>2018-01-15T06:46:31Z</time>
      </trkpt>
      <trkpt lat="46.62856" lon="-1.87526">
        <ele>8</ele>
        <time>2018-01-15T06:47:31Z</time>
      </trkpt>
      <trkpt lat="46.62872" lon="-1.87553">
        <ele>8</ele>
        <time>2018-01-15T06:48:31Z</time>
      </trkpt>
      <trkpt lat="46.62875" lon="-1.87559">
        <ele>8</ele>
        <time>2018-01-15T06:49:31Z</time>
      </trkpt>
      <trkpt lat="46.62886" lon="-1.87578">
        <ele>8</ele>
        <time>2018-01-15T06:50:31Z</time>
      </trkpt>
      <trkpt lat="46.62897" lon="-1.87596">
        <ele>8</ele>
        <time>2018-01-15T06:51:31Z</time>
      </trkpt>
      <trkpt lat="46.62898" lon="-1.87599">
        <ele>8</ele>
        <time>2018-01-15T06:52:31Z</time>
      </trkpt>
      <trkpt lat="46.62903" lon="-1.87611">
        <ele>8</ele>
        <time>2018-01-15T06:53:31Z</time>
      </trkpt>
      <trkpt lat="46.62955" lon="-1.87701">
        <ele>9</ele>
        <time>2018-01-15T06:54:31Z</time>
      </trkpt>
      <trkpt lat="46.62969" lon="-1.87725">
        <ele>9</ele>
        <time>2018-01-15T06:55:31Z</time>
      </trkpt>
      <trkpt lat="46.62975" lon="-1.87736">
        <ele>9</ele>
        <time>2018-01-15T06:56:31Z</time>
      </trkpt>
      <trkpt lat="46.62984" lon="-1.87753">
        <ele>9</ele>
        <time>2018-01-15T06:57:31Z</time>
      </trkpt>
      <trkpt lat="46.62988" lon="-1.87761">
        <ele>10</ele>
        <time>2018-01-15T06:58:31Z</time>
      </trkpt>
      <trkpt lat="46.62989" lon="-1.87763">
        <ele>10</ele>
        <time>2018-01-15T06:59:31Z</time>
      </trkpt>
      <trkpt lat="46.62994" lon="-1.87775">
        <ele>10</ele>
        <time>2018-01-15T07:00:31Z</time>
      </trkpt>
      <trkpt lat="46.63001" lon="-1.87801">
        <ele>10</ele>
        <time>2018-01-15T07:01:31Z</time>
      </trkpt>
      <trkpt lat="46.63013" lon="-1.87838">
        <ele>10</ele>
        <time>2018-01-15T07:02:31Z</time>
      </trkpt>
      <trkpt lat="46.63022" lon="-1.87869">
        <ele>10</ele>
        <time>2018-01-15T07:03:31Z</time>
      </trkpt>
      <trkpt lat="46.63022" lon="-1.87871">
        <ele>10</ele>
        <time>2018-01-15T07:04:31Z</time>
      </trkpt>
      <trkpt lat="46.63032" lon="-1.87907">
        <ele>10</ele>
        <time>2018-01-15T07:05:31Z</time>
      </trkpt>
      <trkpt lat="46.63043" lon="-1.87942">
        <ele>10</ele>
        <time>2018-01-15T07:06:31Z</time>
      </trkpt>
      <trkpt lat="46.6305" lon="-1.87961">
        <ele>10</ele>
        <time>2018-01-15T07:07:31Z</time>
      </trkpt>
      <trkpt lat="46.63059" lon="-1.8798">
        <ele>11</ele>
        <time>2018-01-15T07:08:31Z</time>
      </trkpt>
      <trkpt lat="46.63066" lon="-1.87991">
        <ele>11</ele>
        <time>2018-01-15T07:09:31Z</time>
      </trkpt>
      <trkpt lat="46.63075" lon="-1.88003">
        <ele>12</ele>
        <time>2018-01-15T07:10:31Z</time>
      </trkpt>
      <trkpt lat="46.63085" lon="-1.88018">
        <ele>12</ele>
        <time>2018-01-15T07:11:31Z</time>
      </trkpt>
      <trkpt lat="46.63104" lon="-1.88049">
        <ele>10</ele>
        <time>2018-01-15T07:12:31Z</time>
      </trkpt>
      <trkpt lat="46.63118" lon="-1.88071">
        <ele>9</ele>
        <time>2018-01-15T07:13:31Z</time>
      </trkpt>
      <trkpt lat="46.63126" lon="-1.88085">
        <ele>9</ele>
        <time>2018-01-15T07:14:31Z</time>
      </trkpt>
      <trkpt lat="46.63139" lon="-1.8811">
        <ele>9</ele>
        <time>2018-01-15T07:15:31Z</time>
      </trkpt>
      <trkpt lat="46.63146" lon="-1.88123">
        <ele>9</ele>
        <time>2018-01-15T07:16:31Z</time>
      </trkpt>
      <trkpt lat="46.63146" lon="-1.88123">
        <ele>9</ele>
        <time>2018-01-15T07:17:31Z</time>
      </trkpt>
      <trkpt lat="46.63151" lon="-1.88138">
        <ele>9</ele>
        <time>2018-01-15T07:18:31Z</time>
      </trkpt>
      <trkpt lat="46.63154" lon="-1.88152">
        <ele>9</ele>
        <time>2018-01-15T07:19:31Z</time>
      </trkpt>
      <trkpt lat="46.63157" lon="-1.8817">
        <ele>6</ele>
        <time>2018-01-15T07:20:31Z</time>
      </trkpt>
      <trkpt lat="46.63161" lon="-1.88202">
        <ele>6</ele>
        <time>2018-01-15T07:21:31Z</time>
      </trkpt>
      <trkpt lat="46.63164" lon="-1.8822">
        <ele>6</ele>
        <time>2018-01-15T07:22:31Z</time>
      </trkpt>
      <trkpt lat="46.63168" lon="-1.88249">
        <ele>7</ele>
        <time>2018-01-15T07:23:31Z</time>
      </trkpt>
      <trkpt lat="46.63173" lon="-1.88287">
        <ele>6</ele>
        <time>2018-01-15T07:24:31Z</time>
      </trkpt>
      <trkpt lat="46.63176" lon="-1.88306">
        <ele>6</ele>
        <time>2018-01-15T07:25:31Z</time>
      </trkpt>
      <trkpt lat="46.63183" lon="-1.88351">
        <ele>6</ele>
        <time>2018-01-15T07:26:31Z</time>
      </trkpt>
      <trkpt lat="46.6319" lon="-1.88402">
        <ele>6</ele>
        <time>2018-01-15T07:27:31Z</time>
      </trkpt>
      <trkpt lat="46.63195" lon="-1.88434">
        <ele>6</ele>
        <time>2018-01-15T07:28:31Z</time>
      </trkpt>
      <trkpt lat="46.632" lon="-1.88448">
        <ele>5</ele>
        <time>2018-01-15T07:29:31Z</time>
      </trkpt>
      <trkpt lat="46.63208" lon="-1.88464">
        <ele>5</ele>
        <time>2018-01-15T07:30:31Z</time>
      </trkpt>
      <trkpt lat="46.6322" lon="-1.88488">
        <ele>6</ele>
        <time>2018-01-15T07:31:31Z</time>
      </trkpt>
      <trkpt lat="46.63234" lon="-1.88515">
        <ele>6</ele>
        <time>2018-01-15T07:32:31Z</time>
      </trkpt>
      <trkpt lat="46.63252" lon="-1.88548">
        <ele>6</ele>
        <time>2018-01-15T07:33:31Z</time>
      </trkpt>
      <trkpt lat="46.63263" lon="-1.88567">
        <ele>6</ele>
        <time>2018-01-15T07:34:31Z</time>
      </trkpt>
      <trkpt lat="46.63268" lon="-1.88575">
        <ele>6</ele>
        <time>2018-01-15T07:35:31Z</time>
      </trkpt>
      <trkpt lat="46.63273" lon="-1.88585">
        <ele>6</ele>
        <time>2018-01-15T07:36:31Z</time>
      </trkpt>
      <trkpt lat="46.6328" lon="-1.88599">
        <ele>6</ele>
        <time>2018-01-15T07:37:31Z</time>
      </trkpt>
      <trkpt lat="46.63289" lon="-1.88618">
        <ele>6</ele>
        <time>2018-01-15T07:38:31Z</time>
      </trkpt>
      <trkpt lat="46.63292" lon="-1.88623">
        <ele>6</ele>
        <time>2018-01-15T07:39:31Z</time>
      </trkpt>
      <trkpt lat="46.63303" lon="-1.88642">
        <ele>6</ele>
        <time>2018-01-15T07:40:31Z</time>
      </trkpt>
      <trkpt lat="46.63312" lon="-1.88658">
        <ele>6</ele>
        <time>2018-01-15T07:41:31Z</time>
      </trkpt>
      <trkpt lat="46.63322" lon="-1.8867">
        <ele>7</ele>
        <time>2018-01-15T07:42:31Z</time>
      </trkpt>
      <trkpt lat="46.63344" lon="-1.88693">
        <ele>7</ele>
        <time>2018-01-15T07:43:31Z</time>
      </trkpt>
      <trkpt lat="46.63368" lon="-1.88714">
        <ele>7</ele>
        <time>2018-01-15T07:44:31Z</time>
      </trkpt>
      <trkpt lat="46.63385" lon="-1.8873">
        <ele>7</ele>
        <time>2018-01-15T07:45:31Z</time>
      </trkpt>
      <trkpt lat="46.63396" lon="-1.88741">
        <ele>7</ele>
        <time>2018-01-15T07:46:31Z</time>
      </trkpt>
      <trkpt lat="46.63406" lon="-1.88754">
        <ele>7</ele>
        <time>2018-01-15T07:47:31Z</time>
      </trkpt>
      <trkpt lat="46.63413" lon="-1.88765">
        <ele>7</ele>
        <time>2018-01-15T07:48:31Z</time>
      </trkpt>
      <trkpt lat="46.6342" lon="-1.88781">
        <ele>7</ele>
        <time>2018-01-15T07:49:31Z</time>
      </trkpt>
      <trkpt lat="46.63423" lon="-1.88789">
        <ele>7</ele>
        <time>2018-01-15T07:50:31Z</time>
      </trkpt>
      <trkpt lat="46.63433" lon="-1.88811">
        <ele>7</ele>
        <time>2018-01-15T07:51:31Z</time>
      </trkpt>
      <trkpt lat="46.63442" lon="-1.88833">
        <ele>8</ele>
        <time>2018-01-15T07:52:31Z</time>
      </trkpt>
      <trkpt lat="46.63453" lon="-1.88859">
        <ele>8</ele>
        <time>2018-01-15T07:53:31Z</time>
      </trkpt>
      <trkpt lat="46.63465" lon="-1.88888">
        <ele>8</ele>
        <time>2018-01-15T07:54:31Z</time>
      </trkpt>
      <trkpt lat="46.63479" lon="-1.88922">
        <ele>8</ele>
        <time>2018-01-15T07:55:31Z</time>
      </trkpt>
      <trkpt lat="46.63494" lon="-1.88958">
        <ele>8</ele>
        <time>2018-01-15T07:56:31Z</time>
      </trkpt>
      <trkpt lat="46.63504" lon="-1.88984">
        <ele>7</ele>
        <time>2018-01-15T07:57:31Z</time>
      </trkpt>
      <trkpt lat="46.63518" lon="-1.89017">
        <ele>6</ele>
        <time>2018-01-15T07:58:31Z</time>
      </trkpt>
      <trkpt lat="46.6352" lon="-1.89022">
        <ele>6</ele>
        <time>2018-01-15T07:59:31Z</time>
      </trkpt>
      <trkpt lat="46.63524" lon="-1.89032">
        <ele>6</ele>
        <time>2018-01-15T08:00:31Z</time>
      </trkpt>
      <trkpt lat="46.6353" lon="-1.89043">
        <ele>6</ele>
        <time>2018-01-15T08:01:31Z</time>
      </trkpt>
      <trkpt lat="46.63534" lon="-1.89049">
        <ele>6</ele>
        <time>2018-01-15T08:02:31Z</time>
      </trkpt>
      <trkpt lat="46.63536" lon="-1.89053">
        <ele>6</ele>
        <time>2018-01-15T08:03:31Z</time>
      </trkpt>
      <trkpt lat="46.63543" lon="-1.89061">
        <ele>6</ele>
        <time>2018-01-15T08:04:31Z</time>
      </trkpt>
      <trkpt lat="46.63619" lon="-1.89114">
        <ele>8</ele>
        <time>2018-01-15T08:05:31Z</time>
      </trkpt>
      <trkpt lat="46.63629" lon="-1.89121">
        <ele>8</ele>
        <time>2018-01-15T08:06:31Z</time>
      </trkpt>
      <trkpt lat="46.6363" lon="-1.89123">
        <ele>8</ele>
        <time>2018-01-15T08:07:31Z</time>
      </trkpt>
      <trkpt lat="46.63632" lon="-1.89124">
        <ele>8</ele>
        <time>2018-01-15T08:08:31Z</time>
      </trkpt>
      <trkpt lat="46.63657" lon="-1.89143">
        <ele>9</ele>
        <time>2018-01-15T08:09:31Z</time>
      </trkpt>
      <trkpt lat="46.63686" lon="-1.89162">
        <ele>9</ele>
        <time>2018-01-15T08:10:31Z</time>
      </trkpt>
      <trkpt lat="46.63712" lon="-1.89179">
        <ele>9</ele>
        <time>2018-01-15T08:11:31Z</time>
      </trkpt>
      <trkpt lat="46.63718" lon="-1.89185">
        <ele>8</ele>
        <time>2018-01-15T08:12:31Z</time>
      </trkpt>
      <trkpt lat="46.6374" lon="-1.892">
        <ele>9</ele>
        <time>2018-01-15T08:13:31Z</time>
      </trkpt>
      <trkpt lat="46.63789" lon="-1.89237">
        <ele>8</ele>
        <time>2018-01-15T08:14:31Z</time>
      </trkpt>
      <trkpt lat="46.63802" lon="-1.89252">
        <ele>8</ele>
        <time>2018-01-15T08:15:31Z</time>
      </trkpt>
      <trkpt lat="46.63807" lon="-1.89261">
        <ele>7</ele>
        <time>2018-01-15T08:16:31Z</time>
      </trkpt>
      <trkpt lat="46.63817" lon="-1.89276">
        <ele>7</ele>
        <time>2018-01-15T08:17:31Z</time>
      </trkpt>
      <trkpt lat="46.63831" lon="-1.89294">
        <ele>7</ele>
        <time>2018-01-15T08:18:31Z</time>
      </trkpt>
      <trkpt lat="46.63847" lon="-1.89315">
        <ele>7</ele>
        <time>2018-01-15T08:19:31Z</time>
      </trkpt>
      <trkpt lat="46.63852" lon="-1.89324">
        <ele>7</ele>
        <time>2018-01-15T08:20:31Z</time>
      </trkpt>
      <trkpt lat="46.63865" lon="-1.89341">
        <ele>7</ele>
        <time>2018-01-15T08:21:31Z</time>
      </trkpt>
      <trkpt lat="46.63884" lon="-1.89368">
        <ele>6</ele>
        <time>2018-01-15T08:22:31Z</time>
      </trkpt>
      <trkpt lat="46.63888" lon="-1.89374">
        <ele>6</ele>
        <time>2018-01-15T08:23:31Z</time>
      </trkpt>
      <trkpt lat="46.6391" lon="-1.89405">
        <ele>5</ele>
        <time>2018-01-15T08:24:31Z</time>
      </trkpt>
      <trkpt lat="46.63915" lon="-1.89412">
        <ele>5</ele>
        <time>2018-01-15T08:25:31Z</time>
      </trkpt>
      <trkpt lat="46.63919" lon="-1.89416">
        <ele>5</ele>
        <time>2018-01-15T08:26:31Z</time>
      </trkpt>
      <trkpt lat="46.63925" lon="-1.89422">
        <ele>5</ele>
        <time>2018-01-15T08:27:31Z</time>
      </trkpt>
      <trkpt lat="46.63935" lon="-1.89424">
        <ele>5</ele>
        <time>2018-01-15T08:28:31Z</time>
      </trkpt>
      <trkpt lat="46.6395" lon="-1.89424">
        <ele>6</ele>
        <time>2018-01-15T08:29:31Z</time>
      </trkpt>
      <trkpt lat="46.63967" lon="-1.89421">
        <ele>6</ele>
        <time>2018-01-15T08:30:31Z</time>
      </trkpt>
      <trkpt lat="46.6398" lon="-1.89421">
        <ele>6</ele>
        <time>2018-01-15T08:31:31Z</time>
      </trkpt>
      <trkpt lat="46.63993" lon="-1.8942">
        <ele>7</ele>
        <time>2018-01-15T08:32:31Z</time>
      </trkpt>
      <trkpt lat="46.64001" lon="-1.89419">
        <ele>7</ele>
        <time>2018-01-15T08:33:31Z</time>
      </trkpt>
      <trkpt lat="46.64014" lon="-1.89408">
        <ele>8</ele>
        <time>2018-01-15T08:34:31Z</time>
      </trkpt>
      <trkpt lat="46.64014" lon="-1.89408">
        <ele>8</ele>
        <time>2018-01-15T08:35:31Z</time>
      </trkpt>
      <trkpt lat="46.64032" lon="-1.89371">
        <ele>9</ele>
        <time>2018-01-15T08:36:31Z</time>
      </trkpt>
      <trkpt lat="46.64043" lon="-1.89336">
        <ele>10</ele>
        <time>2018-01-15T08:37:31Z</time>
      </trkpt>
      <trkpt lat="46.64056" lon="-1.89296">
        <ele>10</ele>
        <time>2018-01-15T08:38:31Z</time>
      </trkpt>
      <trkpt lat="46.64061" lon="-1.89283">
        <ele>11</ele>
        <time>2018-01-15T08:39:31Z</time>
      </trkpt>
      <trkpt lat="46.64078" lon="-1.89253">
        <ele>11</ele>
        <time>2018-01-15T08:40:31Z</time>
      </trkpt>
      <trkpt lat="46.64107" lon="-1.892">
        <ele>12</ele>
        <time>2018-01-15T08:41:31Z</time>
      </trkpt>
      <trkpt lat="46.64121" lon="-1.8917">
        <ele>12</ele>
        <time>2018-01-15T08:42:31Z</time>
      </trkpt>
      <trkpt lat="46.64126" lon="-1.8916">
        <ele>13</ele>
        <time>2018-01-15T08:43:31Z</time>
      </trkpt>
      <trkpt lat="46.64133" lon="-1.89149">
        <ele>13</ele>
        <time>2018-01-15T08:44:31Z</time>
      </trkpt>
      <trkpt lat="46.64135" lon="-1.89148">
        <ele>13</ele>
        <time>2018-01-15T08:45:31Z</time>
      </trkpt>
      <trkpt lat="46.64147" lon="-1.89136">
        <ele>13</ele>
        <time>2018-01-15T08:46:31Z</time>
      </trkpt>
      <trkpt lat="46.64161" lon="-1.89123">
        <ele>13</ele>
        <time>2018-01-15T08:47:31Z</time>
      </trkpt>
      <trkpt lat="46.64175" lon="-1.8911">
        <ele>13</ele>
        <time>2018-01-15T08:48:31Z</time>
      </trkpt>
      <trkpt lat="46.64187" lon="-1.89101">
        <ele>13</ele>
        <time>2018-01-15T08:49:31Z</time>
      </trkpt>
      <trkpt lat="46.64188" lon="-1.89101">
        <ele>14</ele>
        <time>2018-01-15T08:50:31Z</time>
      </trkpt>
      <trkpt lat="46.64193" lon="-1.89095">
        <ele>14</ele>
        <time>2018-01-15T08:51:31Z</time>
      </trkpt>
      <trkpt lat="46.64198" lon="-1.89091">
        <ele>14</ele>
        <time>2018-01-15T08:52:31Z</time>
      </trkpt>
      <trkpt lat="46.64204" lon="-1.89084">
        <ele>14</ele>
        <time>2018-01-15T08:53:31Z</time>
      </trkpt>
      <trkpt lat="46.6421" lon="-1.89074">
        <ele>14</ele>
        <time>2018-01-15T08:54:31Z</time>
      </trkpt>
      <trkpt lat="46.64214" lon="-1.89064">
        <ele>14</ele>
        <time>2018-01-15T08:55:31Z</time>
      </trkpt>
      <trkpt lat="46.64217" lon="-1.8905">
        <ele>14</ele>
        <time>2018-01-15T08:56:31Z</time>
      </trkpt>
      <trkpt lat="46.6422" lon="-1.89043">
        <ele>14</ele>
        <time>2018-01-15T08:57:31Z</time>
      </trkpt>
      <trkpt lat="46.6422" lon="-1.89043">
        <ele>14</ele>
        <time>2018-01-15T08:58:31Z</time>
      </trkpt>
      <trkpt lat="46.64223" lon="-1.89041">
        <ele>15</ele>
        <time>2018-01-15T08:59:31Z</time>
      </trkpt>
      <trkpt lat="46.64228" lon="-1.89041">
        <ele>15</ele>
        <time>2018-01-15T09:00:31Z</time>
      </trkpt>
      <trkpt lat="46.64233" lon="-1.89042">
        <ele>15</ele>
        <time>2018-01-15T09:01:31Z</time>
      </trkpt>
      <trkpt lat="46.64238" lon="-1.89043">
        <ele>15</ele>
        <time>2018-01-15T09:02:31Z</time>
      </trkpt>
      <trkpt lat="46.64241" lon="-1.89043">
        <ele>15</ele>
        <time>2018-01-15T09:03:31Z</time>
      </trkpt>
      <trkpt lat="46.64254" lon="-1.89044">
        <ele>15</ele>
        <time>2018-01-15T09:04:31Z</time>
      </trkpt>
      <trkpt lat="46.64266" lon="-1.89045">
        <ele>15</ele>
        <time>2018-01-15T09:05:31Z</time>
      </trkpt>
      <trkpt lat="46.64272" lon="-1.89045">
        <ele>15</ele>
        <time>2018-01-15T09:06:31Z</time>
      </trkpt>
      <trkpt lat="46.64288" lon="-1.89044">
        <ele>15</ele>
        <time>2018-01-15T09:07:31Z</time>
      </trkpt>
      <trkpt lat="46.64302" lon="-1.89042">
        <ele>15</ele>
        <time>2018-01-15T09:08:31Z</time>
      </trkpt>
      <trkpt lat="46.64322" lon="-1.89039">
        <ele>15</ele>
        <time>2018-01-15T09:09:31Z</time>
      </trkpt>
      <trkpt lat="46.64346" lon="-1.89036">
        <ele>15</ele>
        <time>2018-01-15T09:10:31Z</time>
      </trkpt>
      <trkpt lat="46.64363" lon="-1.89032">
        <ele>15</ele>
        <time>2018-01-15T09:11:31Z</time>
      </trkpt>
      <trkpt lat="46.64389" lon="-1.89028">
        <ele>16</ele>
        <time>2018-01-15T09:12:31Z</time>
      </trkpt>
      <trkpt lat="46.64411" lon="-1.89025">
        <ele>16</ele>
        <time>2018-01-15T09:13:31Z</time>
      </trkpt>
      <trkpt lat="46.6442" lon="-1.89024">
        <ele>16</ele>
        <time>2018-01-15T09:14:31Z</time>
      </trkpt>
      <trkpt lat="46.64431" lon="-1.89023">
        <ele>16</ele>
        <time>2018-01-15T09:15:31Z</time>
      </trkpt>
      <trkpt lat="46.64446" lon="-1.89023">
        <ele>16</ele>
        <time>2018-01-15T09:16:31Z</time>
      </trkpt>
      <trkpt lat="46.64463" lon="-1.89023">
        <ele>16</ele>
        <time>2018-01-15T09:17:31Z</time>
      </trkpt>
      <trkpt lat="46.64476" lon="-1.89024">
        <ele>16</ele>
        <time>2018-01-15T09:18:31Z</time>
      </trkpt>
      <trkpt lat="46.64478" lon="-1.89024">
        <ele>16</ele>
        <time>2018-01-15T09:19:31Z</time>
      </trkpt>
      <trkpt lat="46.64492" lon="-1.89026">
        <ele>16</ele>
        <time>2018-01-15T09:20:31Z</time>
      </trkpt>
      <trkpt lat="46.64508" lon="-1.8903">
        <ele>16</ele>
        <time>2018-01-15T09:21:31Z</time>
      </trkpt>
      <trkpt lat="46.64521" lon="-1.89032">
        <ele>16</ele>
        <time>2018-01-15T09:22:31Z</time>
      </trkpt>
      <trkpt lat="46.64531" lon="-1.89032">
        <ele>16</ele>
        <time>2018-01-15T09:23:31Z</time>
      </trkpt>
      <trkpt lat="46.64538" lon="-1.89032">
        <ele>16</ele>
        <time>2018-01-15T09:24:31Z</time>
      </trkpt>
      <trkpt lat="46.6455" lon="-1.8903">
        <ele>16</ele>
        <time>2018-01-15T09:25:31Z</time>
      </trkpt>
      <trkpt lat="46.64567" lon="-1.89029">
        <ele>16</ele>
        <time>2018-01-15T09:26:31Z</time>
      </trkpt>
      <trkpt lat="46.64572" lon="-1.89028">
        <ele>16</ele>
        <time>2018-01-15T09:27:31Z</time>
      </trkpt>
      <trkpt lat="46.64578" lon="-1.89025">
        <ele>16</ele>
        <time>2018-01-15T09:28:31Z</time>
      </trkpt>
      <trkpt lat="46.64592" lon="-1.89011">
        <ele>15</ele>
        <time>2018-01-15T09:29:31Z</time>
      </trkpt>
      <trkpt lat="46.64592" lon="-1.89011">
        <ele>15</ele>
        <time>2018-01-15T09:30:31Z</time>
      </trkpt>
      <trkpt lat="46.64592" lon="-1.8901">
        <ele>15</ele>
        <time>2018-01-15T09:31:31Z</time>
      </trkpt>
      <trkpt lat="46.64592" lon="-1.89009">
        <ele>15</ele>
        <time>2018-01-15T09:32:31Z</time>
      </trkpt>
      <trkpt lat="46.64592" lon="-1.89008">
        <ele>15</ele>
        <time>2018-01-15T09:33:31Z</time>
      </trkpt>
      <trkpt lat="46.64592" lon="-1.89007">
        <ele>15</ele>
        <time>2018-01-15T09:34:31Z</time>
      </trkpt>
      <trkpt lat="46.64592" lon="-1.89006">
        <ele>15</ele>
        <time>2018-01-15T09:35:31Z</time>
      </trkpt>
      <trkpt lat="46.64592" lon="-1.89005">
        <ele>15</ele>
        <time>2018-01-15T09:36:31Z</time>
      </trkpt>
      <trkpt lat="46.64592" lon="-1.89004">
        <ele>15</ele>
        <time>2018-01-15T09:37:31Z</time>
      </trkpt>
      <trkpt lat="46.64593" lon="-1.89003">
        <ele>15</ele>
        <time>2018-01-15T09:38:31Z</time>
      </trkpt>
      <trkpt lat="46.64593" lon="-1.89002">
        <ele>15</ele>
        <time>2018-01-15T09:39:31Z</time>
      </trkpt>
      <trkpt lat="46.64593" lon="-1.89001">
        <ele>15</ele>
        <time>2018-01-15T09:40:31Z</time>
      </trkpt>
      <trkpt lat="46.64594" lon="-1.89001">
        <ele>15</ele>
        <time>2018-01-15T09:41:31Z</time>
      </trkpt>
      <trkpt lat="46.64594" lon="-1.89">
        <ele>15</ele>
        <time>2018-01-15T09:42:31Z</time>
      </trkpt>
      <trkpt lat="46.64595" lon="-1.88999">
        <ele>15</ele>
        <time>2018-01-15T09:43:31Z</time>
      </trkpt>
      <trkpt lat="46.64596" lon="-1.88998">
        <ele>15</ele>
        <time>2018-01-15T09:44:31Z</time>
      </trkpt>
      <trkpt lat="46.64597" lon="-1.88997">
        <ele>15</ele>
        <time>2018-01-15T09:45:31Z</time>
      </trkpt>
      <trkpt lat="46.64598" lon="-1.88997">
        <ele>15</ele>
        <time>2018-01-15T09:46:31Z</time>
      </trkpt>
      <trkpt lat="46.64599" lon="-1.88997">
        <ele>15</ele>
        <time>2018-01-15T09:47:31Z</time>
      </trkpt>
      <trkpt lat="46.64599" lon="-1.88996">
        <ele>15</ele>
        <time>2018-01-15T09:48:31Z</time>
      </trkpt>
      <trkpt lat="46.646" lon="-1.88996">
        <ele>15</ele>
        <time>2018-01-15T09:49:31Z</time>
      </trkpt>
      <trkpt lat="46.64601" lon="-1.88996">
        <ele>15</ele>
        <time>2018-01-15T09:50:31Z</time>
      </trkpt>
      <trkpt lat="46.64601" lon="-1.88997">
        <ele>15</ele>
        <time>2018-01-15T09:51:31Z</time>
      </trkpt>
      <trkpt lat="46.64602" lon="-1.88997">
        <ele>15</ele>
        <time>2018-01-15T09:52:31Z</time>
      </trkpt>
      <trkpt lat="46.64603" lon="-1.88997">
        <ele>15</ele>
        <time>2018-01-15T09:53:31Z</time>
      </trkpt>
      <trkpt lat="46.64604" lon="-1.88997">
        <ele>15</ele>
        <time>2018-01-15T09:54:31Z</time>
      </trkpt>
      <trkpt lat="46.64604" lon="-1.88998">
        <ele>15</ele>
        <time>2018-01-15T09:55:31Z</time>
      </trkpt>
      <trkpt lat="46.64605" lon="-1.88998">
        <ele>15</ele>
        <time>2018-01-15T09:56:31Z</time>
      </trkpt>
      <trkpt lat="46.64605" lon="-1.88999">
        <ele>15</ele>
        <time>2018-01-15T09:57:31Z</time>
      </trkpt>
      <trkpt lat="46.64606" lon="-1.88999">
        <ele>15</ele>
        <time>2018-01-15T09:58:31Z</time>
      </trkpt>
      <trkpt lat="46.64606" lon="-1.89">
        <ele>15</ele>
        <time>2018-01-15T09:59:31Z</time>
      </trkpt>
      <trkpt lat="46.64607" lon="-1.89001">
        <ele>15</ele>
        <time>2018-01-15T10:00:31Z</time>
      </trkpt>
      <trkpt lat="46.64607" lon="-1.89002">
        <ele>15</ele>
        <time>2018-01-15T10:01:31Z</time>
      </trkpt>
      <trkpt lat="46.64608" lon="-1.89003">
        <ele>15</ele>
        <time>2018-01-15T10:02:31Z</time>
      </trkpt>
      <trkpt lat="46.64608" lon="-1.89004">
        <ele>15</ele>
        <time>2018-01-15T10:03:31Z</time>
      </trkpt>
      <trkpt lat="46.64608" lon="-1.89005">
        <ele>15</ele>
        <time>2018-01-15T10:04:31Z</time>
      </trkpt>
      <trkpt lat="46.64608" lon="-1.89006">
        <ele>15</ele>
        <time>2018-01-15T10:05:31Z</time>
      </trkpt>
      <trkpt lat="46.64609" lon="-1.89007">
        <ele>15</ele>
        <time>2018-01-15T10:06:31Z</time>
      </trkpt>
      <trkpt lat="46.64611" lon="-1.89011">
        <ele>16</ele>
        <time>2018-01-15T10:07:31Z</time>
      </trkpt>
      <trkpt lat="46.64613" lon="-1.89013">
        <ele>16</ele>
        <time>2018-01-15T10:08:31Z</time>
      </trkpt>
      <trkpt lat="46.64616" lon="-1.89017">
        <ele>16</ele>
        <time>2018-01-15T10:09:31Z</time>
      </trkpt>
      <trkpt lat="46.64618" lon="-1.89018">
        <ele>16</ele>
        <time>2018-01-15T10:10:31Z</time>
      </trkpt>
      <trkpt lat="46.64619" lon="-1.8902">
        <ele>16</ele>
        <time>2018-01-15T10:11:31Z</time>
      </trkpt>
      <trkpt lat="46.64626" lon="-1.89025">
        <ele>16</ele>
        <time>2018-01-15T10:12:31Z</time>
      </trkpt>
      <trkpt lat="46.64633" lon="-1.89029">
        <ele>16</ele>
        <time>2018-01-15T10:13:31Z</time>
      </trkpt>
      <trkpt lat="46.6464" lon="-1.89033">
        <ele>16</ele>
        <time>2018-01-15T10:14:31Z</time>
      </trkpt>
      <trkpt lat="46.64641" lon="-1.89034">
        <ele>16</ele>
        <time>2018-01-15T10:15:31Z</time>
      </trkpt>
      <trkpt lat="46.64649" lon="-1.89039">
        <ele>16</ele>
        <time>2018-01-15T10:16:31Z</time>
      </trkpt>
      <trkpt lat="46.64649" lon="-1.89039">
        <ele>16</ele>
        <time>2018-01-15T10:17:31Z</time>
      </trkpt>
      <trkpt lat="46.64656" lon="-1.89043">
        <ele>16</ele>
        <time>2018-01-15T10:18:31Z</time>
      </trkpt>
      <trkpt lat="46.64658" lon="-1.89044">
        <ele>16</ele>
        <time>2018-01-15T10:19:31Z</time>
      </trkpt>
      <trkpt lat="46.64666" lon="-1.89048">
        <ele>17</ele>
        <time>2018-01-15T10:20:31Z</time>
      </trkpt>
      <trkpt lat="46.64673" lon="-1.89055">
        <ele>17</ele>
        <time>2018-01-15T10:21:31Z</time>
      </trkpt>
      <trkpt lat="46.64692" lon="-1.89065">
        <ele>17</ele>
        <time>2018-01-15T10:22:31Z</time>
      </trkpt>
      <trkpt lat="46.64722" lon="-1.8908">
        <ele>18</ele>
        <time>2018-01-15T10:23:31Z</time>
      </trkpt>
      <trkpt lat="46.64754" lon="-1.89098">
        <ele>18</ele>
        <time>2018-01-15T10:24:31Z</time>
      </trkpt>
      <trkpt lat="46.64788" lon="-1.89116">
        <ele>18</ele>
        <time>2018-01-15T10:25:31Z</time>
      </trkpt>
      <trkpt lat="46.64822" lon="-1.89134">
        <ele>17</ele>
        <time>2018-01-15T10:26:31Z</time>
      </trkpt>
      <trkpt lat="46.6486" lon="-1.89155">
        <ele>17</ele>
        <time>2018-01-15T10:27:31Z</time>
      </trkpt>
      <trkpt lat="46.6489" lon="-1.89171">
        <ele>16</ele>
        <time>2018-01-15T10:28:31Z</time>
      </trkpt>
      <trkpt lat="46.6496" lon="-1.89207">
        <ele>15</ele>
        <time>2018-01-15T10:29:31Z</time>
      </trkpt>
      <trkpt lat="46.65005" lon="-1.89232">
        <ele>14</ele>
        <time>2018-01-15T10:30:31Z</time>
      </trkpt>
      <trkpt lat="46.65045" lon="-1.89253">
        <ele>13</ele>
        <time>2018-01-15T10:31:31Z</time>
      </trkpt>
      <trkpt lat="46.65124" lon="-1.89296">
        <ele>12</ele>
        <time>2018-01-15T10:32:31Z</time>
      </trkpt>
      <trkpt lat="46.65156" lon="-1.89313">
        <ele>11</ele>
        <time>2018-01-15T10:33:31Z</time>
      </trkpt>
      <trkpt lat="46.65193" lon="-1.89334">
        <ele>9</ele>
        <time>2018-01-15T10:34:31Z</time>
      </trkpt>
      <trkpt lat="46.65215" lon="-1.89348">
        <ele>8</ele>
        <time>2018-01-15T10:35:31Z</time>
      </trkpt>
      <trkpt lat="46.65231" lon="-1.89359">
        <ele>7</ele>
        <time>2018-01-15T10:36:31Z</time>
      </trkpt>
      <trkpt lat="46.6525" lon="-1.89376">
        <ele>6</ele>
        <time>2018-01-15T10:37:31Z</time>
      </trkpt>
      <trkpt lat="46.65265" lon="-1.89391">
        <ele>6</ele>
        <time>2018-01-15T10:38:31Z</time>
      </trkpt>
      <trkpt lat="46.65293" lon="-1.8942">
        <ele>6</ele>
        <time>2018-01-15T10:39:31Z</time>
      </trkpt>
      <trkpt lat="46.65301" lon="-1.89425">
        <ele>5</ele>
        <time>2018-01-15T10:40:31Z</time>
      </trkpt>
      <trkpt lat="46.65345" lon="-1.89471">
        <ele>6</ele>
        <time>2018-01-15T10:41:31Z</time>
      </trkpt>
      <trkpt lat="46.65361" lon="-1.89488">
        <ele>6</ele>
        <time>2018-01-15T10:42:31Z</time>
      </trkpt>
      <trkpt lat="46.65369" lon="-1.89496">
        <ele>6</ele>
        <time>2018-01-15T10:43:31Z</time>
      </trkpt>
      <trkpt lat="46.65414" lon="-1.89536">
        <ele>7</ele>
        <time>2018-01-15T10:44:31Z</time>
      </trkpt>
      <trkpt lat="46.65449" lon="-1.89567">
        <ele>7</ele>
        <time>2018-01-15T10:45:31Z</time>
      </trkpt>
      <trkpt lat="46.65489" lon="-1.89598">
        <ele>8</ele>
        <time>2018-01-15T10:46:31Z</time>
      </trkpt>
      <trkpt lat="46.65541" lon="-1.89637">
        <ele>7</ele>
        <time>2018-01-15T10:47:31Z</time>
      </trkpt>
      <trkpt lat="46.65546" lon="-1.89643">
        <ele>7</ele>
        <time>2018-01-15T10:48:31Z</time>
      </trkpt>
      <trkpt lat="46.65631" lon="-1.89698">
        <ele>8</ele>
        <time>2018-01-15T10:49:31Z</time>
      </trkpt>
      <trkpt lat="46.65759" lon="-1.89784">
        <ele>8</ele>
        <time>2018-01-15T10:50:31Z</time>
      </trkpt>
      <trkpt lat="46.65878" lon="-1.8986">
        <ele>7</ele>
        <time>2018-01-15T10:51:31Z</time>
      </trkpt>
      <trkpt lat="46.65944" lon="-1.89901">
        <ele>7</ele>
        <time>2018-01-15T10:52:31Z</time>
      </trkpt>
      <trkpt lat="46.65958" lon="-1.89911">
        <ele>6</ele>
        <time>2018-01-15T10:53:31Z</time>
      </trkpt>
      <trkpt lat="46.65975" lon="-1.89922">
        <ele>7</ele>
        <time>2018-01-15T10:54:31Z</time>
      </trkpt>
      <trkpt lat="46.66028" lon="-1.89956">
        <ele>8</ele>
        <time>2018-01-15T10:55:31Z</time>
      </trkpt>
      <trkpt lat="46.66074" lon="-1.89986">
        <ele>7</ele>
        <time>2018-01-15T10:56:31Z</time>
      </trkpt>
      <trkpt lat="46.6609" lon="-1.89996">
        <ele>7</ele>
        <time>2018-01-15T10:57:31Z</time>
      </trkpt>
      <trkpt lat="46.66116" lon="-1.90011">
        <ele>6</ele>
        <time>2018-01-15T10:58:31Z</time>
      </trkpt>
      <trkpt lat="46.6615" lon="-1.90033">
        <ele>5</ele>
        <time>2018-01-15T10:59:31Z</time>
      </trkpt>
      <trkpt lat="46.66183" lon="-1.90053">
        <ele>4</ele>
        <time>2018-01-15T11:00:31Z</time>
      </trkpt>
      <trkpt lat="46.66205" lon="-1.90067">
        <ele>3</ele>
        <time>2018-01-15T11:01:31Z</time>
      </trkpt>
      <trkpt lat="46.66216" lon="-1.90073">
        <ele>3</ele>
        <time>2018-01-15T11:02:31Z</time>
      </trkpt>
      <trkpt lat="46.66223" lon="-1.90077">
        <ele>3</ele>
        <time>2018-01-15T11:03:31Z</time>
      </trkpt>
      <trkpt lat="46.66229" lon="-1.9008">
        <ele>3</ele>
        <time>2018-01-15T11:04:31Z</time>
      </trkpt>
      <trkpt lat="46.66237" lon="-1.90084">
        <ele>2</ele>
        <time>2018-01-15T11:05:31Z</time>
      </trkpt>
      <trkpt lat="46.66244" lon="-1.90087">
        <ele>2</ele>
        <time>2018-01-15T11:06:31Z</time>
      </trkpt>
      <trkpt lat="46.66251" lon="-1.90089">
        <ele>2</ele>
        <time>2018-01-15T11:07:31Z</time>
      </trkpt>
      <trkpt lat="46.66254" lon="-1.90091">
        <ele>2</ele>
        <time>2018-01-15T11:08:31Z</time>
      </trkpt>
      <trkpt lat="46.66258" lon="-1.90092">
        <ele>2</ele>
        <time>2018-01-15T11:09:31Z</time>
      </trkpt>
      <trkpt lat="46.66265" lon="-1.90094">
        <ele>2</ele>
        <time>2018-01-15T11:10:31Z</time>
      </trkpt>
      <trkpt lat="46.66278" lon="-1.90097">
        <ele>2</ele>
        <time>2018-01-15T11:11:31Z</time>
      </trkpt>
      <trkpt lat="46.66301" lon="-1.90103">
        <ele>1</ele>
        <time>2018-01-15T11:12:31Z</time>
      </trkpt>
      <trkpt lat="46.66328" lon="-1.90109">
        <ele>1</ele>
        <time>2018-01-15T11:13:31Z</time>
      </trkpt>
      <trkpt lat="46.66335" lon="-1.90111">
        <ele>1</ele>
        <time>2018-01-15T11:14:31Z</time>
      </trkpt>
      <trkpt lat="46.66342" lon="-1.90113">
        <ele>1</ele>
        <time>2018-01-15T11:15:31Z</time>
      </trkpt>
      <trkpt lat="46.66354" lon="-1.90116">
        <ele>1</ele>
        <time>2018-01-15T11:16:31Z</time>
      </trkpt>
      <trkpt lat="46.6636" lon="-1.90117">
        <ele>1</ele>
        <time>2018-01-15T11:17:31Z</time>
      </trkpt>
      <trkpt lat="46.66365" lon="-1.90118">
        <ele>1</ele>
        <time>2018-01-15T11:18:31Z</time>
      </trkpt>
      <trkpt lat="46.66457" lon="-1.90141">
        <ele>3</ele>
        <time>2018-01-15T11:19:31Z</time>
      </trkpt>
      <trkpt lat="46.66556" lon="-1.90164">
        <ele>3</ele>
        <time>2018-01-15T11:20:31Z</time>
      </trkpt>
      <trkpt lat="46.66598" lon="-1.90175">
        <ele>4</ele>
        <time>2018-01-15T11:21:31Z</time>
      </trkpt>
      <trkpt lat="46.66644" lon="-1.90186">
        <ele>5</ele>
        <time>2018-01-15T11:22:31Z</time>
      </trkpt>
      <trkpt lat="46.66651" lon="-1.90186">
        <ele>5</ele>
        <time>2018-01-15T11:23:31Z</time>
      </trkpt>
      <trkpt lat="46.66727" lon="-1.90202">
        <ele>6</ele>
        <time>2018-01-15T11:24:31Z</time>
      </trkpt>
      <trkpt lat="46.66748" lon="-1.90207">
        <ele>6</ele>
        <time>2018-01-15T11:25:31Z</time>
      </trkpt>
      <trkpt lat="46.66755" lon="-1.90209">
        <ele>5</ele>
        <time>2018-01-15T11:26:31Z</time>
      </trkpt>
      <trkpt lat="46.66772" lon="-1.90213">
        <ele>5</ele>
        <time>2018-01-15T11:27:31Z</time>
      </trkpt>
      <trkpt lat="46.66799" lon="-1.90219">
        <ele>5</ele>
        <time>2018-01-15T11:28:31Z</time>
      </trkpt>
      <trkpt lat="46.66818" lon="-1.90224">
        <ele>5</ele>
        <time>2018-01-15T11:29:31Z</time>
      </trkpt>
      <trkpt lat="46.66831" lon="-1.90229">
        <ele>5</ele>
        <time>2018-01-15T11:30:31Z</time>
      </trkpt>
      <trkpt lat="46.66842" lon="-1.90233">
        <ele>5</ele>
        <time>2018-01-15T11:31:31Z</time>
      </trkpt>
      <trkpt lat="46.66848" lon="-1.90237">
        <ele>5</ele>
        <time>2018-01-15T11:32:31Z</time>
      </trkpt>
      <trkpt lat="46.66863" lon="-1.90243">
        <ele>5</ele>
        <time>2018-01-15T11:33:31Z</time>
      </trkpt>
      <trkpt lat="46.66868" lon="-1.90245">
        <ele>5</ele>
        <time>2018-01-15T11:34:31Z</time>
      </trkpt>
      <trkpt lat="46.66874" lon="-1.90248">
        <ele>5</ele>
        <time>2018-01-15T11:35:31Z</time>
      </trkpt>
      <trkpt lat="46.66878" lon="-1.90251">
        <ele>5</ele>
        <time>2018-01-15T11:36:31Z</time>
      </trkpt>
      <trkpt lat="46.66883" lon="-1.90253">
        <ele>5</ele>
        <time>2018-01-15T11:37:31Z</time>
      </trkpt>
      <trkpt lat="46.66887" lon="-1.90256">
        <ele>5</ele>
        <time>2018-01-15T11:38:31Z</time>
      </trkpt>
      <trkpt lat="46.66891" lon="-1.90258">
        <ele>5</ele>
        <time>2018-01-15T11:39:31Z</time>
      </trkpt>
      <trkpt lat="46.66895" lon="-1.90261">
        <ele>5</ele>
        <time>2018-01-15T11:40:31Z</time>
      </trkpt>
      <trkpt lat="46.66902" lon="-1.90265">
        <ele>5</ele>
        <time>2018-01-15T11:41:31Z</time>
      </trkpt>
      <trkpt lat="46.66908" lon="-1.90269">
        <ele>5</ele>
        <time>2018-01-15T11:42:31Z</time>
      </trkpt>
      <trkpt lat="46.66913" lon="-1.90272">
        <ele>5</ele>
        <time>2018-01-15T11:43:31Z</time>
      </trkpt>
      <trkpt lat="46.66917" lon="-1.90275">
        <ele>5</ele>
        <time>2018-01-15T11:44:31Z</time>
      </trkpt>
      <trkpt lat="46.66922" lon="-1.90279">
        <ele>5</ele>
        <time>2018-01-15T11:45:31Z</time>
      </trkpt>
      <trkpt lat="46.66926" lon="-1.90283">
        <ele>5</ele>
        <time>2018-01-15T11:46:31Z</time>
      </trkpt>
      <trkpt lat="46.66936" lon="-1.90291">
        <ele>5</ele>
        <time>2018-01-15T11:47:31Z</time>
      </trkpt>
      <trkpt lat="46.66953" lon="-1.90302">
        <ele>5</ele>
        <time>2018-01-15T11:48:31Z</time>
      </trkpt>
      <trkpt lat="46.66954" lon="-1.90303">
        <ele>5</ele>
        <time>2018-01-15T11:49:31Z</time>
      </trkpt>
      <trkpt lat="46.66956" lon="-1.90304">
        <ele>5</ele>
        <time>2018-01-15T11:50:31Z</time>
      </trkpt>
      <trkpt lat="46.66957" lon="-1.90304">
        <ele>5</ele>
        <time>2018-01-15T11:51:31Z</time>
      </trkpt>
      <trkpt lat="46.66957" lon="-1.90305">
        <ele>5</ele>
        <time>2018-01-15T11:52:31Z</time>
      </trkpt>
      <trkpt lat="46.66958" lon="-1.90305">
        <ele>5</ele>
        <time>2018-01-15T11:53:31Z</time>
      </trkpt>
      <trkpt lat="46.66959" lon="-1.90305">
        <ele>5</ele>
        <time>2018-01-15T11:54:31Z</time>
      </trkpt>
      <trkpt lat="46.66962" lon="-1.90306">
        <ele>5</ele>
        <time>2018-01-15T11:55:31Z</time>
      </trkpt>
      <trkpt lat="46.66976" lon="-1.9031">
        <ele>6</ele>
        <time>2018-01-15T11:56:31Z</time>
      </trkpt>
      <trkpt lat="46.66976" lon="-1.9031">
        <ele>6</ele>
        <time>2018-01-15T11:57:31Z</time>
      </trkpt>
      <trkpt lat="46.66976" lon="-1.90309">
        <ele>6</ele>
        <time>2018-01-15T11:58:31Z</time>
      </trkpt>
      <trkpt lat="46.66977" lon="-1.90309">
        <ele>6</ele>
        <time>2018-01-15T11:59:31Z</time>
      </trkpt>
      <trkpt lat="46.66978" lon="-1.90309">
        <ele>6</ele>
        <time>2018-01-15T12:00:31Z</time>
      </trkpt>
      <trkpt lat="46.66978" lon="-1.90308">
        <ele>6</ele>
        <time>2018-01-15T12:01:31Z</time>
      </trkpt>
      <trkpt lat="46.6698" lon="-1.90308">
        <ele>6</ele>
        <time>2018-01-15T12:02:31Z</time>
      </trkpt>
      <trkpt lat="46.66981" lon="-1.90307">
        <ele>6</ele>
        <time>2018-01-15T12:03:31Z</time>
      </trkpt>
      <trkpt lat="46.66982" lon="-1.90307">
        <ele>6</ele>
        <time>2018-01-15T12:04:31Z</time>
      </trkpt>
      <trkpt lat="46.66983" lon="-1.90306">
        <ele>6</ele>
        <time>2018-01-15T12:05:31Z</time>
      </trkpt>
      <trkpt lat="46.66984" lon="-1.90306">
        <ele>6</ele>
        <time>2018-01-15T12:06:31Z</time>
      </trkpt>
      <trkpt lat="46.66986" lon="-1.90306">
        <ele>6</ele>
        <time>2018-01-15T12:07:31Z</time>
      </trkpt>
      <trkpt lat="46.66987" lon="-1.90306">
        <ele>6</ele>
        <time>2018-01-15T12:08:31Z</time>
      </trkpt>
      <trkpt lat="46.66988" lon="-1.90307">
        <ele>6</ele>
        <time>2018-01-15T12:09:31Z</time>
      </trkpt>
      <trkpt lat="46.66989" lon="-1.90307">
        <ele>6</ele>
        <time>2018-01-15T12:10:31Z</time>
      </trkpt>
      <trkpt lat="46.66991" lon="-1.90308">
        <ele>6</ele>
        <time>2018-01-15T12:11:31Z</time>
      </trkpt>
      <trkpt lat="46.66992" lon="-1.90308">
        <ele>6</ele>
        <time>2018-01-15T12:12:31Z</time>
      </trkpt>
      <trkpt lat="46.66993" lon="-1.90309">
        <ele>6</ele>
        <time>2018-01-15T12:13:31Z</time>
      </trkpt>
      <trkpt lat="46.66995" lon="-1.90311">
        <ele>6</ele>
        <time>2018-01-15T12:14:31Z</time>
      </trkpt>
      <trkpt lat="46.66996" lon="-1.90311">
        <ele>6</ele>
        <time>2018-01-15T12:15:31Z</time>
      </trkpt>
      <trkpt lat="46.66996" lon="-1.90312">
        <ele>6</ele>
        <time>2018-01-15T12:16:31Z</time>
      </trkpt>
      <trkpt lat="46.66997" lon="-1.90313">
        <ele>6</ele>
        <time>2018-01-15T12:17:31Z</time>
      </trkpt>
      <trkpt lat="46.66997" lon="-1.90314">
        <ele>6</ele>
        <time>2018-01-15T12:18:31Z</time>
      </trkpt>
      <trkpt lat="46.66998" lon="-1.90315">
        <ele>6</ele>
        <time>2018-01-15T12:19:31Z</time>
      </trkpt>
      <trkpt lat="46.66998" lon="-1.90316">
        <ele>6</ele>
        <time>2018-01-15T12:20:31Z</time>
      </trkpt>
      <trkpt lat="46.66999" lon="-1.90317">
        <ele>6</ele>
        <time>2018-01-15T12:21:31Z</time>
      </trkpt>
      <trkpt lat="46.66999" lon="-1.90318">
        <ele>6</ele>
        <time>2018-01-15T12:22:31Z</time>
      </trkpt>
      <trkpt lat="46.67" lon="-1.90319">
        <ele>6</ele>
        <time>2018-01-15T12:23:31Z</time>
      </trkpt>
      <trkpt lat="46.67001" lon="-1.90321">
        <ele>6</ele>
        <time>2018-01-15T12:24:31Z</time>
      </trkpt>
      <trkpt lat="46.67001" lon="-1.90322">
        <ele>6</ele>
        <time>2018-01-15T12:25:31Z</time>
      </trkpt>
      <trkpt lat="46.67001" lon="-1.90324">
        <ele>6</ele>
        <time>2018-01-15T12:26:31Z</time>
      </trkpt>
      <trkpt lat="46.67002" lon="-1.90326">
        <ele>6</ele>
        <time>2018-01-15T12:27:31Z</time>
      </trkpt>
      <trkpt lat="46.67002" lon="-1.90328">
        <ele>6</ele>
        <time>2018-01-15T12:28:31Z</time>
      </trkpt>
      <trkpt lat="46.67002" lon="-1.9033">
        <ele>6</ele>
        <time>2018-01-15T12:29:31Z</time>
      </trkpt>
      <trkpt lat="46.67002" lon="-1.90332">
        <ele>6</ele>
        <time>2018-01-15T12:30:31Z</time>
      </trkpt>
      <trkpt lat="46.67002" lon="-1.90333">
        <ele>6</ele>
        <time>2018-01-15T12:31:31Z</time>
      </trkpt>
      <trkpt lat="46.67002" lon="-1.90335">
        <ele>6</ele>
        <time>2018-01-15T12:32:31Z</time>
      </trkpt>
      <trkpt lat="46.67001" lon="-1.90337">
        <ele>6</ele>
        <time>2018-01-15T12:33:31Z</time>
      </trkpt>
      <trkpt lat="46.67001" lon="-1.90339">
        <ele>6</ele>
        <time>2018-01-15T12:34:31Z</time>
      </trkpt>
      <trkpt lat="46.67001" lon="-1.9034">
        <ele>6</ele>
        <time>2018-01-15T12:35:31Z</time>
      </trkpt>
      <trkpt lat="46.67001" lon="-1.90341">
        <ele>6</ele>
        <time>2018-01-15T12:36:31Z</time>
      </trkpt>
      <trkpt lat="46.67" lon="-1.90342">
        <ele>6</ele>
        <time>2018-01-15T12:37:31Z</time>
      </trkpt>
      <trkpt lat="46.67" lon="-1.90343">
        <ele>6</ele>
        <time>2018-01-15T12:38:31Z</time>
      </trkpt>
      <trkpt lat="46.67" lon="-1.90344">
        <ele>6</ele>
        <time>2018-01-15T12:39:31Z</time>
      </trkpt>
      <trkpt lat="46.67" lon="-1.90345">
        <ele>6</ele>
        <time>2018-01-15T12:40:31Z</time>
      </trkpt>
      <trkpt lat="46.67" lon="-1.90351">
        <ele>6</ele>
        <time>2018-01-15T12:41:31Z</time>
      </trkpt>
      <trkpt lat="46.67001" lon="-1.90365">
        <ele>6</ele>
        <time>2018-01-15T12:42:31Z</time>
      </trkpt>
      <trkpt lat="46.67001" lon="-1.90368">
        <ele>6</ele>
        <time>2018-01-15T12:43:31Z</time>
      </trkpt>
      <trkpt lat="46.67002" lon="-1.9037">
        <ele>6</ele>
        <time>2018-01-15T12:44:31Z</time>
      </trkpt>
      <trkpt lat="46.67002" lon="-1.90373">
        <ele>6</ele>
        <time>2018-01-15T12:45:31Z</time>
      </trkpt>
      <trkpt lat="46.67003" lon="-1.90375">
        <ele>6</ele>
        <time>2018-01-15T12:46:31Z</time>
      </trkpt>
      <trkpt lat="46.67004" lon="-1.90378">
        <ele>6</ele>
        <time>2018-01-15T12:47:31Z</time>
      </trkpt>
      <trkpt lat="46.67006" lon="-1.9038">
        <ele>6</ele>
        <time>2018-01-15T12:48:31Z</time>
      </trkpt>
      <trkpt lat="46.67007" lon="-1.90383">
        <ele>5</ele>
        <time>2018-01-15T12:49:31Z</time>
      </trkpt>
      <trkpt lat="46.67009" lon="-1.90386">
        <ele>5</ele>
        <time>2018-01-15T12:50:31Z</time>
      </trkpt>
      <trkpt lat="46.67012" lon="-1.9039">
        <ele>5</ele>
        <time>2018-01-15T12:51:31Z</time>
      </trkpt>
      <trkpt lat="46.67021" lon="-1.90401">
        <ele>5</ele>
        <time>2018-01-15T12:52:31Z</time>
      </trkpt>
      <trkpt lat="46.67034" lon="-1.90417">
        <ele>5</ele>
        <time>2018-01-15T12:53:31Z</time>
      </trkpt>
      <trkpt lat="46.67059" lon="-1.90451">
        <ele>5</ele>
        <time>2018-01-15T12:54:31Z</time>
      </trkpt>
      <trkpt lat="46.671" lon="-1.90508">
        <ele>5</ele>
        <time>2018-01-15T12:55:31Z</time>
      </trkpt>
      <trkpt lat="46.67105" lon="-1.90518">
        <ele>5</ele>
        <time>2018-01-15T12:56:31Z</time>
      </trkpt>
      <trkpt lat="46.67166" lon="-1.90604">
        <ele>5</ele>
        <time>2018-01-15T12:57:31Z</time>
      </trkpt>
      <trkpt lat="46.67205" lon="-1.90658">
        <ele>4</ele>
        <time>2018-01-15T12:58:31Z</time>
      </trkpt>
      <trkpt lat="46.67226" lon="-1.90688">
        <ele>4</ele>
        <time>2018-01-15T12:59:31Z</time>
      </trkpt>
      <trkpt lat="46.67255" lon="-1.90729">
        <ele>3</ele>
        <time>2018-01-15T13:00:31Z</time>
      </trkpt>
      <trkpt lat="46.67282" lon="-1.90767">
        <ele>3</ele>
        <time>2018-01-15T13:01:31Z</time>
      </trkpt>
      <trkpt lat="46.67301" lon="-1.90794">
        <ele>2</ele>
        <time>2018-01-15T13:02:31Z</time>
      </trkpt>
      <trkpt lat="46.67313" lon="-1.9081">
        <ele>2</ele>
        <time>2018-01-15T13:03:31Z</time>
      </trkpt>
      <trkpt lat="46.6732" lon="-1.90819">
        <ele>2</ele>
        <time>2018-01-15T13:04:31Z</time>
      </trkpt>
      <trkpt lat="46.67323" lon="-1.90824">
        <ele>2</ele>
        <time>2018-01-15T13:05:31Z</time>
      </trkpt>
      <trkpt lat="46.67327" lon="-1.90829">
        <ele>2</ele>
        <time>2018-01-15T13:06:31Z</time>
      </trkpt>
      <trkpt lat="46.6733" lon="-1.90833">
        <ele>2</ele>
        <time>2018-01-15T13:07:31Z</time>
      </trkpt>
      <trkpt lat="46.67333" lon="-1.90837">
        <ele>2</ele>
        <time>2018-01-15T13:08:31Z</time>
      </trkpt>
      <trkpt lat="46.67336" lon="-1.9084">
        <ele>2</ele>
        <time>2018-01-15T13:09:31Z</time>
      </trkpt>
      <trkpt lat="46.67339" lon="-1.90844">
        <ele>2</ele>
        <time>2018-01-15T13:10:31Z</time>
      </trkpt>
      <trkpt lat="46.67347" lon="-1.90849">
        <ele>2</ele>
        <time>2018-01-15T13:11:31Z</time>
      </trkpt>
      <trkpt lat="46.67361" lon="-1.90864">
        <ele>2</ele>
        <time>2018-01-15T13:12:31Z</time>
      </trkpt>
      <trkpt lat="46.67381" lon="-1.90883">
        <ele>3</ele>
        <time>2018-01-15T13:13:31Z</time>
      </trkpt>
      <trkpt lat="46.67397" lon="-1.90898">
        <ele>3</ele>
        <time>2018-01-15T13:14:31Z</time>
      </trkpt>
      <trkpt lat="46.674" lon="-1.90901">
        <ele>3</ele>
        <time>2018-01-15T13:15:31Z</time>
      </trkpt>
      <trkpt lat="46.67404" lon="-1.90904">
        <ele>3</ele>
        <time>2018-01-15T13:16:31Z</time>
      </trkpt>
      <trkpt lat="46.67406" lon="-1.90905">
        <ele>3</ele>
        <time>2018-01-15T13:17:31Z</time>
      </trkpt>
      <trkpt lat="46.67409" lon="-1.90906">
        <ele>3</ele>
        <time>2018-01-15T13:18:31Z</time>
      </trkpt>
      <trkpt lat="46.67412" lon="-1.90907">
        <ele>3</ele>
        <time>2018-01-15T13:19:31Z</time>
      </trkpt>
      <trkpt lat="46.67414" lon="-1.90908">
        <ele>3</ele>
        <time>2018-01-15T13:20:31Z</time>
      </trkpt>
      <trkpt lat="46.67417" lon="-1.90909">
        <ele>3</ele>
        <time>2018-01-15T13:21:31Z</time>
      </trkpt>
      <trkpt lat="46.67436" lon="-1.90914">
        <ele>3</ele>
        <time>2018-01-15T13:22:31Z</time>
      </trkpt>
      <trkpt lat="46.67436" lon="-1.90914">
        <ele>3</ele>
        <time>2018-01-15T13:23:31Z</time>
      </trkpt>
      <trkpt lat="46.67438" lon="-1.90914">
        <ele>3</ele>
        <time>2018-01-15T13:24:31Z</time>
      </trkpt>
      <trkpt lat="46.6744" lon="-1.90914">
        <ele>3</ele>
        <time>2018-01-15T13:25:31Z</time>
      </trkpt>
      <trkpt lat="46.67441" lon="-1.90914">
        <ele>3</ele>
        <time>2018-01-15T13:26:31Z</time>
      </trkpt>
      <trkpt lat="46.67443" lon="-1.90915">
        <ele>3</ele>
        <time>2018-01-15T13:27:31Z</time>
      </trkpt>
      <trkpt lat="46.67445" lon="-1.90915">
        <ele>3</ele>
        <time>2018-01-15T13:28:31Z</time>
      </trkpt>
      <trkpt lat="46.67446" lon="-1.90916">
        <ele>3</ele>
        <time>2018-01-15T13:29:31Z</time>
      </trkpt>
      <trkpt lat="46.67448" lon="-1.90917">
        <ele>3</ele>
        <time>2018-01-15T13:30:31Z</time>
      </trkpt>
      <trkpt lat="46.6745" lon="-1.90918">
        <ele>3</ele>
        <time>2018-01-15T13:31:31Z</time>
      </trkpt>
      <trkpt lat="46.67451" lon="-1.9092">
        <ele>3</ele>
        <time>2018-01-15T13:32:31Z</time>
      </trkpt>
      <trkpt lat="46.67452" lon="-1.90922">
        <ele>3</ele>
        <time>2018-01-15T13:33:31Z</time>
      </trkpt>
      <trkpt lat="46.67454" lon="-1.90923">
        <ele>3</ele>
        <time>2018-01-15T13:34:31Z</time>
      </trkpt>
      <trkpt lat="46.67455" lon="-1.90925">
        <ele>4</ele>
        <time>2018-01-15T13:35:31Z</time>
      </trkpt>
      <trkpt lat="46.67456" lon="-1.90927">
        <ele>4</ele>
        <time>2018-01-15T13:36:31Z</time>
      </trkpt>
      <trkpt lat="46.67457" lon="-1.9093">
        <ele>4</ele>
        <time>2018-01-15T13:37:31Z</time>
      </trkpt>
      <trkpt lat="46.67458" lon="-1.90933">
        <ele>4</ele>
        <time>2018-01-15T13:38:31Z</time>
      </trkpt>
      <trkpt lat="46.67458" lon="-1.90936">
        <ele>4</ele>
        <time>2018-01-15T13:39:31Z</time>
      </trkpt>
      <trkpt lat="46.67459" lon="-1.90938">
        <ele>4</ele>
        <time>2018-01-15T13:40:31Z</time>
      </trkpt>
      <trkpt lat="46.67459" lon="-1.90941">
        <ele>4</ele>
        <time>2018-01-15T13:41:31Z</time>
      </trkpt>
      <trkpt lat="46.67459" lon="-1.90943">
        <ele>4</ele>
        <time>2018-01-15T13:42:31Z</time>
      </trkpt>
      <trkpt lat="46.67459" lon="-1.90946">
        <ele>4</ele>
        <time>2018-01-15T13:43:31Z</time>
      </trkpt>
      <trkpt lat="46.67459" lon="-1.90948">
        <ele>4</ele>
        <time>2018-01-15T13:44:31Z</time>
      </trkpt>
      <trkpt lat="46.67458" lon="-1.9095">
        <ele>4</ele>
        <time>2018-01-15T13:45:31Z</time>
      </trkpt>
      <trkpt lat="46.67458" lon="-1.90953">
        <ele>4</ele>
        <time>2018-01-15T13:46:31Z</time>
      </trkpt>
      <trkpt lat="46.67457" lon="-1.90955">
        <ele>4</ele>
        <time>2018-01-15T13:47:31Z</time>
      </trkpt>
      <trkpt lat="46.67456" lon="-1.90957">
        <ele>4</ele>
        <time>2018-01-15T13:48:31Z</time>
      </trkpt>
      <trkpt lat="46.67455" lon="-1.9096">
        <ele>4</ele>
        <time>2018-01-15T13:49:31Z</time>
      </trkpt>
      <trkpt lat="46.67455" lon="-1.90961">
        <ele>4</ele>
        <time>2018-01-15T13:50:31Z</time>
      </trkpt>
      <trkpt lat="46.67454" lon="-1.90962">
        <ele>4</ele>
        <time>2018-01-15T13:51:31Z</time>
      </trkpt>
      <trkpt lat="46.67453" lon="-1.90963">
        <ele>4</ele>
        <time>2018-01-15T13:52:31Z</time>
      </trkpt>
      <trkpt lat="46.67453" lon="-1.90964">
        <ele>4</ele>
        <time>2018-01-15T13:53:31Z</time>
      </trkpt>
      <trkpt lat="46.67452" lon="-1.90965">
        <ele>4</ele>
        <time>2018-01-15T13:54:31Z</time>
      </trkpt>
      <trkpt lat="46.67451" lon="-1.90965">
        <ele>4</ele>
        <time>2018-01-15T13:55:31Z</time>
      </trkpt>
      <trkpt lat="46.67451" lon="-1.90966">
        <ele>4</ele>
        <time>2018-01-15T13:56:31Z</time>
      </trkpt>
      <trkpt lat="46.6745" lon="-1.90967">
        <ele>4</ele>
        <time>2018-01-15T13:57:31Z</time>
      </trkpt>
      <trkpt lat="46.6745" lon="-1.90984">
        <ele>4</ele>
        <time>2018-01-15T13:58:31Z</time>
      </trkpt>
      <trkpt lat="46.67451" lon="-1.90994">
        <ele>4</ele>
        <time>2018-01-15T13:59:31Z</time>
      </trkpt>
      <trkpt lat="46.67454" lon="-1.91004">
        <ele>4</ele>
        <time>2018-01-15T14:00:31Z</time>
      </trkpt>
      <trkpt lat="46.67456" lon="-1.9101">
        <ele>4</ele>
        <time>2018-01-15T14:01:31Z</time>
      </trkpt>
      <trkpt lat="46.67469" lon="-1.9103">
        <ele>4</ele>
        <time>2018-01-15T14:02:31Z</time>
      </trkpt>
      <trkpt lat="46.6749" lon="-1.9106">
        <ele>5</ele>
        <time>2018-01-15T14:03:31Z</time>
      </trkpt>
      <trkpt lat="46.67518" lon="-1.91097">
        <ele>5</ele>
        <time>2018-01-15T14:04:31Z</time>
      </trkpt>
      <trkpt lat="46.67546" lon="-1.91137">
        <ele>5</ele>
        <time>2018-01-15T14:05:31Z</time>
      </trkpt>
      <trkpt lat="46.67578" lon="-1.91181">
        <ele>6</ele>
        <time>2018-01-15T14:06:31Z</time>
      </trkpt>
      <trkpt lat="46.67587" lon="-1.91194">
        <ele>6</ele>
        <time>2018-01-15T14:07:31Z</time>
      </trkpt>
      <trkpt lat="46.67612" lon="-1.91228">
        <ele>5</ele>
        <time>2018-01-15T14:08:31Z</time>
      </trkpt>
      <trkpt lat="46.67634" lon="-1.91261">
        <ele>5</ele>
        <time>2018-01-15T14:09:31Z</time>
      </trkpt>
      <trkpt lat="46.67662" lon="-1.91298">
        <ele>5</ele>
        <time>2018-01-15T14:10:31Z</time>
      </trkpt>
      <trkpt lat="46.67704" lon="-1.91358">
        <ele>5</ele>
        <time>2018-01-15T14:11:31Z</time>
      </trkpt>
      <trkpt lat="46.67743" lon="-1.91414">
        <ele>6</ele>
        <time>2018-01-15T14:12:31Z</time>
      </trkpt>
      <trkpt lat="46.67747" lon="-1.9142">
        <ele>6</ele>
        <time>2018-01-15T14:13:31Z</time>
      </trkpt>
      <trkpt lat="46.67783" lon="-1.91471">
        <ele>6</ele>
        <time>2018-01-15T14:14:31Z</time>
      </trkpt>
      <trkpt lat="46.67831" lon="-1.91538">
        <ele>6</ele>
        <time>2018-01-15T14:15:31Z</time>
      </trkpt>
      <trkpt lat="46.6784" lon="-1.91552">
        <ele>6</ele>
        <time>2018-01-15T14:16:31Z</time>
      </trkpt>
      <trkpt lat="46.67864" lon="-1.91583">
        <ele>6</ele>
        <time>2018-01-15T14:17:31Z</time>
      </trkpt>
      <trkpt lat="46.67883" lon="-1.91611">
        <ele>6</ele>
        <time>2018-01-15T14:18:31Z</time>
      </trkpt>
      <trkpt lat="46.67898" lon="-1.91633">
        <ele>7</ele>
        <time>2018-01-15T14:19:31Z</time>
      </trkpt>
      <trkpt lat="46.67928" lon="-1.91675">
        <ele>7</ele>
        <time>2018-01-15T14:20:31Z</time>
      </trkpt>
      <trkpt lat="46.67947" lon="-1.91703">
        <ele>7</ele>
        <time>2018-01-15T14:21:31Z</time>
      </trkpt>
      <trkpt lat="46.67972" lon="-1.91737">
        <ele>7</ele>
        <time>2018-01-15T14:22:31Z</time>
      </trkpt>
      <trkpt lat="46.68" lon="-1.91776">
        <ele>8</ele>
        <time>2018-01-15T14:23:31Z</time>
      </trkpt>
      <trkpt lat="46.68022" lon="-1.91808">
        <ele>8</ele>
        <time>2018-01-15T14:24:31Z</time>
      </trkpt>
      <trkpt lat="46.68033" lon="-1.91825">
        <ele>8</ele>
        <time>2018-01-15T14:25:31Z</time>
      </trkpt>
      <trkpt lat="46.68041" lon="-1.91836">
        <ele>8</ele>
        <time>2018-01-15T14:26:31Z</time>
      </trkpt>
      <trkpt lat="46.68057" lon="-1.91858">
        <ele>8</ele>
        <time>2018-01-15T14:27:31Z</time>
      </trkpt>
      <trkpt lat="46.68083" lon="-1.91897">
        <ele>8</ele>
        <time>2018-01-15T14:28:31Z</time>
      </trkpt>
      <trkpt lat="46.68115" lon="-1.91941">
        <ele>8</ele>
        <time>2018-01-15T14:29:31Z</time>
      </trkpt>
      <trkpt lat="46.68158" lon="-1.92003">
        <ele>8</ele>
        <time>2018-01-15T14:30:31Z</time>
      </trkpt>
      <trkpt lat="46.68174" lon="-1.92025">
        <ele>8</ele>
        <time>2018-01-15T14:31:31Z</time>
      </trkpt>
      <trkpt lat="46.68198" lon="-1.92057">
        <ele>7</ele>
        <time>2018-01-15T14:32:31Z</time>
      </trkpt>
      <trkpt lat="46.68208" lon="-1.92073">
        <ele>7</ele>
        <time>2018-01-15T14:33:31Z</time>
      </trkpt>
      <trkpt lat="46.6822" lon="-1.92091">
        <ele>7</ele>
        <time>2018-01-15T14:34:31Z</time>
      </trkpt>
      <trkpt lat="46.68224" lon="-1.92097">
        <ele>7</ele>
        <time>2018-01-15T14:35:31Z</time>
      </trkpt>
      <trkpt lat="46.68224" lon="-1.92098">
        <ele>7</ele>
        <time>2018-01-15T14:36:31Z</time>
      </trkpt>
      <trkpt lat="46.68227" lon="-1.92103">
        <ele>7</ele>
        <time>2018-01-15T14:37:31Z</time>
      </trkpt>
      <trkpt lat="46.6823" lon="-1.92107">
        <ele>7</ele>
        <time>2018-01-15T14:38:31Z</time>
      </trkpt>
      <trkpt lat="46.68255" lon="-1.9214">
        <ele>7</ele>
        <time>2018-01-15T14:39:31Z</time>
      </trkpt>
      <trkpt lat="46.68267" lon="-1.92157">
        <ele>7</ele>
        <time>2018-01-15T14:40:31Z</time>
      </trkpt>
      <trkpt lat="46.68277" lon="-1.92172">
        <ele>8</ele>
        <time>2018-01-15T14:41:31Z</time>
      </trkpt>
      <trkpt lat="46.68286" lon="-1.92186">
        <ele>8</ele>
        <time>2018-01-15T14:42:31Z</time>
      </trkpt>
      <trkpt lat="46.68291" lon="-1.92193">
        <ele>8</ele>
        <time>2018-01-15T14:43:31Z</time>
      </trkpt>
      <trkpt lat="46.68306" lon="-1.92219">
        <ele>9</ele>
        <time>2018-01-15T14:44:31Z</time>
      </trkpt>
      <trkpt lat="46.6832" lon="-1.92245">
        <ele>9</ele>
        <time>2018-01-15T14:45:31Z</time>
      </trkpt>
      <trkpt lat="46.6833" lon="-1.92261">
        <ele>9</ele>
        <time>2018-01-15T14:46:31Z</time>
      </trkpt>
      <trkpt lat="46.68355" lon="-1.92305">
        <ele>10</ele>
        <time>2018-01-15T14:47:31Z</time>
      </trkpt>
      <trkpt lat="46.6837" lon="-1.92334">
        <ele>10</ele>
        <time>2018-01-15T14:48:31Z</time>
      </trkpt>
      <trkpt lat="46.68377" lon="-1.92346">
        <ele>10</ele>
        <time>2018-01-15T14:49:31Z</time>
      </trkpt>
      <trkpt lat="46.6838" lon="-1.92351">
        <ele>10</ele>
        <time>2018-01-15T14:50:31Z</time>
      </trkpt>
      <trkpt lat="46.68389" lon="-1.92363">
        <ele>10</ele>
        <time>2018-01-15T14:51:31Z</time>
      </trkpt>
      <trkpt lat="46.68403" lon="-1.9238">
        <ele>10</ele>
        <time>2018-01-15T14:52:31Z</time>
      </trkpt>
      <trkpt lat="46.68413" lon="-1.92388">
        <ele>10</ele>
        <time>2018-01-15T14:53:31Z</time>
      </trkpt>
      <trkpt lat="46.68426" lon="-1.92396">
        <ele>10</ele>
        <time>2018-01-15T14:54:31Z</time>
      </trkpt>
      <trkpt lat="46.68435" lon="-1.924">
        <ele>10</ele>
        <time>2018-01-15T14:55:31Z</time>
      </trkpt>
      <trkpt lat="46.68447" lon="-1.92403">
        <ele>10</ele>
        <time>2018-01-15T14:56:31Z</time>
      </trkpt>
      <trkpt lat="46.68454" lon="-1.92404">
        <ele>10</ele>
        <time>2018-01-15T14:57:31Z</time>
      </trkpt>
      <trkpt lat="46.68463" lon="-1.92406">
        <ele>10</ele>
        <time>2018-01-15T14:58:31Z</time>
      </trkpt>
      <trkpt lat="46.68472" lon="-1.92408">
        <ele>10</ele>
        <time>2018-01-15T14:59:31Z</time>
      </trkpt>
      <trkpt lat="46.68481" lon="-1.92411">
        <ele>10</ele>
        <time>2018-01-15T15:00:31Z</time>
      </trkpt>
      <trkpt lat="46.68487" lon="-1.92415">
        <ele>10</ele>
        <time>2018-01-15T15:01:31Z</time>
      </trkpt>
      <trkpt lat="46.68495" lon="-1.9242">
        <ele>10</ele>
        <time>2018-01-15T15:02:31Z</time>
      </trkpt>
      <trkpt lat="46.68505" lon="-1.92428">
        <ele>10</ele>
        <time>2018-01-15T15:03:31Z</time>
      </trkpt>
      <trkpt lat="46.68514" lon="-1.92436">
        <ele>10</ele>
        <time>2018-01-15T15:04:31Z</time>
      </trkpt>
      <trkpt lat="46.68528" lon="-1.9245">
        <ele>10</ele>
        <time>2018-01-15T15:05:31Z</time>
      </trkpt>
      <trkpt lat="46.68532" lon="-1.92456">
        <ele>10</ele>
        <time>2018-01-15T15:06:31Z</time>
      </trkpt>
      <trkpt lat="46.68538" lon="-1.92464">
        <ele>10</ele>
        <time>2018-01-15T15:07:31Z</time>
      </trkpt>
      <trkpt lat="46.68549" lon="-1.92476">
        <ele>10</ele>
        <time>2018-01-15T15:08:31Z</time>
      </trkpt>
      <trkpt lat="46.68567" lon="-1.925">
        <ele>10</ele>
        <time>2018-01-15T15:09:31Z</time>
      </trkpt>
      <trkpt lat="46.68589" lon="-1.92528">
        <ele>10</ele>
        <time>2018-01-15T15:10:31Z</time>
      </trkpt>
      <trkpt lat="46.68594" lon="-1.92534">
        <ele>10</ele>
        <time>2018-01-15T15:11:31Z</time>
      </trkpt>
      <trkpt lat="46.68605" lon="-1.92548">
        <ele>10</ele>
        <time>2018-01-15T15:12:31Z</time>
      </trkpt>
      <trkpt lat="46.68616" lon="-1.92563">
        <ele>10</ele>
        <time>2018-01-15T15:13:31Z</time>
      </trkpt>
      <trkpt lat="46.68625" lon="-1.92575">
        <ele>10</ele>
        <time>2018-01-15T15:14:31Z</time>
      </trkpt>
      <trkpt lat="46.68629" lon="-1.9258">
        <ele>10</ele>
        <time>2018-01-15T15:15:31Z</time>
      </trkpt>
      <trkpt lat="46.68634" lon="-1.92586">
        <ele>10</ele>
        <time>2018-01-15T15:16:31Z</time>
      </trkpt>
      <trkpt lat="46.68635" lon="-1.92588">
        <ele>10</ele>
        <time>2018-01-15T15:17:31Z</time>
      </trkpt>
      <trkpt lat="46.68644" lon="-1.92596">
        <ele>10</ele>
        <time>2018-01-15T15:18:31Z</time>
      </trkpt>
      <trkpt lat="46.68651" lon="-1.92602">
        <ele>10</ele>
        <time>2018-01-15T15:19:31Z</time>
      </trkpt>
      <trkpt lat="46.68669" lon="-1.92615">
        <ele>10</ele>
        <time>2018-01-15T15:20:31Z</time>
      </trkpt>
      <trkpt lat="46.68707" lon="-1.92638">
        <ele>9</ele>
        <time>2018-01-15T15:21:31Z</time>
      </trkpt>
      <trkpt lat="46.68732" lon="-1.92654">
        <ele>8</ele>
        <time>2018-01-15T15:22:31Z</time>
      </trkpt>
      <trkpt lat="46.68733" lon="-1.92654">
        <ele>8</ele>
        <time>2018-01-15T15:23:31Z</time>
      </trkpt>
      <trkpt lat="46.68759" lon="-1.92668">
        <ele>8</ele>
        <time>2018-01-15T15:24:31Z</time>
      </trkpt>
      <trkpt lat="46.6876" lon="-1.92669">
        <ele>8</ele>
        <time>2018-01-15T15:25:31Z</time>
      </trkpt>
      <trkpt lat="46.68776" lon="-1.92676">
        <ele>8</ele>
        <time>2018-01-15T15:26:31Z</time>
      </trkpt>
      <trkpt lat="46.68787" lon="-1.9268">
        <ele>8</ele>
        <time>2018-01-15T15:27:31Z</time>
      </trkpt>
      <trkpt lat="46.68804" lon="-1.92685">
        <ele>7</ele>
        <time>2018-01-15T15:28:31Z</time>
      </trkpt>
      <trkpt lat="46.68817" lon="-1.9269">
        <ele>7</ele>
        <time>2018-01-15T15:29:31Z</time>
      </trkpt>
      <trkpt lat="46.68817" lon="-1.92689">
        <ele>7</ele>
        <time>2018-01-15T15:30:31Z</time>
      </trkpt>
      <trkpt lat="46.68818" lon="-1.92689">
        <ele>7</ele>
        <time>2018-01-15T15:31:31Z</time>
      </trkpt>
      <trkpt lat="46.68818" lon="-1.92688">
        <ele>7</ele>
        <time>2018-01-15T15:32:31Z</time>
      </trkpt>
      <trkpt lat="46.68818" lon="-1.92687">
        <ele>7</ele>
        <time>2018-01-15T15:33:31Z</time>
      </trkpt>
      <trkpt lat="46.68819" lon="-1.92687">
        <ele>7</ele>
        <time>2018-01-15T15:34:31Z</time>
      </trkpt>
      <trkpt lat="46.68819" lon="-1.92686">
        <ele>7</ele>
        <time>2018-01-15T15:35:31Z</time>
      </trkpt>
      <trkpt lat="46.6882" lon="-1.92686">
        <ele>7</ele>
        <time>2018-01-15T15:36:31Z</time>
      </trkpt>
      <trkpt lat="46.6882" lon="-1.92685">
        <ele>7</ele>
        <time>2018-01-15T15:37:31Z</time>
      </trkpt>
      <trkpt lat="46.68821" lon="-1.92685">
        <ele>7</ele>
        <time>2018-01-15T15:38:31Z</time>
      </trkpt>
      <trkpt lat="46.68822" lon="-1.92685">
        <ele>7</ele>
        <time>2018-01-15T15:39:31Z</time>
      </trkpt>
      <trkpt lat="46.68823" lon="-1.92685">
        <ele>7</ele>
        <time>2018-01-15T15:40:31Z</time>
      </trkpt>
      <trkpt lat="46.68824" lon="-1.92685">
        <ele>7</ele>
        <time>2018-01-15T15:41:31Z</time>
      </trkpt>
      <trkpt lat="46.68825" lon="-1.92685">
        <ele>7</ele>
        <time>2018-01-15T15:42:31Z</time>
      </trkpt>
      <trkpt lat="46.68826" lon="-1.92686">
        <ele>7</ele>
        <time>2018-01-15T15:43:31Z</time>
      </trkpt>
      <trkpt lat="46.68827" lon="-1.92686">
        <ele>7</ele>
        <time>2018-01-15T15:44:31Z</time>
      </trkpt>
      <trkpt lat="46.68827" lon="-1.92687">
        <ele>7</ele>
        <time>2018-01-15T15:45:31Z</time>
      </trkpt>
      <trkpt lat="46.68827" lon="-1.92688">
        <ele>7</ele>
        <time>2018-01-15T15:46:31Z</time>
      </trkpt>
      <trkpt lat="46.68828" lon="-1.92688">
        <ele>7</ele>
        <time>2018-01-15T15:47:31Z</time>
      </trkpt>
      <trkpt lat="46.68841" lon="-1.92685">
        <ele>7</ele>
        <time>2018-01-15T15:48:31Z</time>
      </trkpt>
      <trkpt lat="46.68841" lon="-1.92685">
        <ele>7</ele>
        <time>2018-01-15T15:49:31Z</time>
      </trkpt>
      <trkpt lat="46.68841" lon="-1.92684">
        <ele>7</ele>
        <time>2018-01-15T15:50:31Z</time>
      </trkpt>
      <trkpt lat="46.68842" lon="-1.92684">
        <ele>7</ele>
        <time>2018-01-15T15:51:31Z</time>
      </trkpt>
      <trkpt lat="46.68842" lon="-1.92683">
        <ele>7</ele>
        <time>2018-01-15T15:52:31Z</time>
      </trkpt>
      <trkpt lat="46.68843" lon="-1.92682">
        <ele>7</ele>
        <time>2018-01-15T15:53:31Z</time>
      </trkpt>
      <trkpt lat="46.68844" lon="-1.92682">
        <ele>7</ele>
        <time>2018-01-15T15:54:31Z</time>
      </trkpt>
      <trkpt lat="46.68844" lon="-1.92681">
        <ele>7</ele>
        <time>2018-01-15T15:55:31Z</time>
      </trkpt>
      <trkpt lat="46.68845" lon="-1.92681">
        <ele>6</ele>
        <time>2018-01-15T15:56:31Z</time>
      </trkpt>
      <trkpt lat="46.68846" lon="-1.92681">
        <ele>6</ele>
        <time>2018-01-15T15:57:31Z</time>
      </trkpt>
      <trkpt lat="46.68847" lon="-1.92681">
        <ele>6</ele>
        <time>2018-01-15T15:58:31Z</time>
      </trkpt>
      <trkpt lat="46.68848" lon="-1.92681">
        <ele>6</ele>
        <time>2018-01-15T15:59:31Z</time>
      </trkpt>
      <trkpt lat="46.68849" lon="-1.92681">
        <ele>6</ele>
        <time>2018-01-15T16:00:31Z</time>
      </trkpt>
      <trkpt lat="46.68849" lon="-1.92682">
        <ele>6</ele>
        <time>2018-01-15T16:01:31Z</time>
      </trkpt>
      <trkpt lat="46.6885" lon="-1.92682">
        <ele>6</ele>
        <time>2018-01-15T16:02:31Z</time>
      </trkpt>
      <trkpt lat="46.6885" lon="-1.92683">
        <ele>6</ele>
        <time>2018-01-15T16:03:31Z</time>
      </trkpt>
      <trkpt lat="46.68851" lon="-1.92683">
        <ele>6</ele>
        <time>2018-01-15T16:04:31Z</time>
      </trkpt>
      <trkpt lat="46.68851" lon="-1.92684">
        <ele>6</ele>
        <time>2018-01-15T16:05:31Z</time>
      </trkpt>
      <trkpt lat="46.68852" lon="-1.92684">
        <ele>6</ele>
        <time>2018-01-15T16:06:31Z</time>
      </trkpt>
      <trkpt lat="46.68852" lon="-1.92685">
        <ele>6</ele>
        <time>2018-01-15T16:07:31Z</time>
      </trkpt>
      <trkpt lat="46.68852" lon="-1.92686">
        <ele>6</ele>
        <time>2018-01-15T16:08:31Z</time>
      </trkpt>
      <trkpt lat="46.68853" lon="-1.92687">
        <ele>6</ele>
        <time>2018-01-15T16:09:31Z</time>
      </trkpt>
      <trkpt lat="46.68853" lon="-1.92688">
        <ele>6</ele>
        <time>2018-01-15T16:10:31Z</time>
      </trkpt>
      <trkpt lat="46.68853" lon="-1.92689">
        <ele>6</ele>
        <time>2018-01-15T16:11:31Z</time>
      </trkpt>
      <trkpt lat="46.68853" lon="-1.9269">
        <ele>6</ele>
        <time>2018-01-15T16:12:31Z</time>
      </trkpt>
      <trkpt lat="46.68853" lon="-1.92691">
        <ele>6</ele>
        <time>2018-01-15T16:13:31Z</time>
      </trkpt>
      <trkpt lat="46.68853" lon="-1.92692">
        <ele>6</ele>
        <time>2018-01-15T16:14:31Z</time>
      </trkpt>
      <trkpt lat="46.68853" lon="-1.92693">
        <ele>6</ele>
        <time>2018-01-15T16:15:31Z</time>
      </trkpt>
      <trkpt lat="46.68853" lon="-1.92694">
        <ele>6</ele>
        <time>2018-01-15T16:16:31Z</time>
      </trkpt>
      <trkpt lat="46.68853" lon="-1.92695">
        <ele>6</ele>
        <time>2018-01-15T16:17:31Z</time>
      </trkpt>
      <trkpt lat="46.68852" lon="-1.92695">
        <ele>6</ele>
        <time>2018-01-15T16:18:31Z</time>
      </trkpt>
      <trkpt lat="46.68852" lon="-1.92696">
        <ele>6</ele>
        <time>2018-01-15T16:19:31Z</time>
      </trkpt>
      <trkpt lat="46.68852" lon="-1.92697">
        <ele>6</ele>
        <time>2018-01-15T16:20:31Z</time>
      </trkpt>
      <trkpt lat="46.68851" lon="-1.92697">
        <ele>6</ele>
        <time>2018-01-15T16:21:31Z</time>
      </trkpt>
      <trkpt lat="46.68851" lon="-1.92698">
        <ele>6</ele>
        <time>2018-01-15T16:22:31Z</time>
      </trkpt>
      <trkpt lat="46.68859" lon="-1.92704">
        <ele>6</ele>
        <time>2018-01-15T16:23:31Z</time>
      </trkpt>
      <trkpt lat="46.6886" lon="-1.92704">
        <ele>6</ele>
        <time>2018-01-15T16:24:31Z</time>
      </trkpt>
      <trkpt lat="46.68869" lon="-1.92706">
        <ele>5</ele>
        <time>2018-01-15T16:25:31Z</time>
      </trkpt>
      <trkpt lat="46.68881" lon="-1.92711">
        <ele>5</ele>
        <time>2018-01-15T16:26:31Z</time>
      </trkpt>
      <trkpt lat="46.68897" lon="-1.92716">
        <ele>4</ele>
        <time>2018-01-15T16:27:31Z</time>
      </trkpt>
      <trkpt lat="46.68913" lon="-1.92723">
        <ele>4</ele>
        <time>2018-01-15T16:28:31Z</time>
      </trkpt>
      <trkpt lat="46.68926" lon="-1.9273">
        <ele>4</ele>
        <time>2018-01-15T16:29:31Z</time>
      </trkpt>
      <trkpt lat="46.68936" lon="-1.92737">
        <ele>4</ele>
        <time>2018-01-15T16:30:31Z</time>
      </trkpt>
      <trkpt lat="46.68947" lon="-1.92747">
        <ele>4</ele>
        <time>2018-01-15T16:31:31Z</time>
      </trkpt>
      <trkpt lat="46.68955" lon="-1.92755">
        <ele>4</ele>
        <time>2018-01-15T16:32:31Z</time>
      </trkpt>
      <trkpt lat="46.68965" lon="-1.92769">
        <ele>4</ele>
        <time>2018-01-15T16:33:31Z</time>
      </trkpt>
      <trkpt lat="46.68969" lon="-1.92774">
        <ele>4</ele>
        <time>2018-01-15T16:34:31Z</time>
      </trkpt>
      <trkpt lat="46.68977" lon="-1.92784">
        <ele>4</ele>
        <time>2018-01-15T16:35:31Z</time>
      </trkpt>
      <trkpt lat="46.68992" lon="-1.92805">
        <ele>4</ele>
        <time>2018-01-15T16:36:31Z</time>
      </trkpt>
      <trkpt lat="46.68993" lon="-1.92806">
        <ele>4</ele>
        <time>2018-01-15T16:37:31Z</time>
      </trkpt>
      <trkpt lat="46.69014" lon="-1.92836">
        <ele>4</ele>
        <time>2018-01-15T16:38:31Z</time>
      </trkpt>
      <trkpt lat="46.69038" lon="-1.92867">
        <ele>4</ele>
        <time>2018-01-15T16:39:31Z</time>
      </trkpt>
      <trkpt lat="46.69055" lon="-1.9289">
        <ele>4</ele>
        <time>2018-01-15T16:40:31Z</time>
      </trkpt>
      <trkpt lat="46.69068" lon="-1.92907">
        <ele>4</ele>
        <time>2018-01-15T16:41:31Z</time>
      </trkpt>
      <trkpt lat="46.69095" lon="-1.92938">
        <ele>4</ele>
        <time>2018-01-15T16:42:31Z</time>
      </trkpt>
      <trkpt lat="46.69107" lon="-1.92948">
        <ele>4</ele>
        <time>2018-01-15T16:43:31Z</time>
      </trkpt>
      <trkpt lat="46.69133" lon="-1.92971">
        <ele>4</ele>
        <time>2018-01-15T16:44:31Z</time>
      </trkpt>
      <trkpt lat="46.69154" lon="-1.92991">
        <ele>4</ele>
        <time>2018-01-15T16:45:31Z</time>
      </trkpt>
      <trkpt lat="46.6917" lon="-1.93005">
        <ele>4</ele>
        <time>2018-01-15T16:46:31Z</time>
      </trkpt>
      <trkpt lat="46.69175" lon="-1.93009">
        <ele>4</ele>
        <time>2018-01-15T16:47:31Z</time>
      </trkpt>
      <trkpt lat="46.69194" lon="-1.93026">
        <ele>5</ele>
        <time>2018-01-15T16:48:31Z</time>
      </trkpt>
      <trkpt lat="46.69217" lon="-1.93046">
        <ele>5</ele>
        <time>2018-01-15T16:49:31Z</time>
      </trkpt>
      <trkpt lat="46.69224" lon="-1.93053">
        <ele>5</ele>
        <time>2018-01-15T16:50:31Z</time>
      </trkpt>
      <trkpt lat="46.69245" lon="-1.93071">
        <ele>5</ele>
        <time>2018-01-15T16:51:31Z</time>
      </trkpt>
      <trkpt lat="46.69255" lon="-1.9308">
        <ele>5</ele>
        <time>2018-01-15T16:52:31Z</time>
      </trkpt>
      <trkpt lat="46.69269" lon="-1.93094">
        <ele>5</ele>
        <time>2018-01-15T16:53:31Z</time>
      </trkpt>
      <trkpt lat="46.69287" lon="-1.9311">
        <ele>5</ele>
        <time>2018-01-15T16:54:31Z</time>
      </trkpt>
      <trkpt lat="46.69303" lon="-1.93127">
        <ele>5</ele>
        <time>2018-01-15T16:55:31Z</time>
      </trkpt>
      <trkpt lat="46.69314" lon="-1.93136">
        <ele>5</ele>
        <time>2018-01-15T16:56:31Z</time>
      </trkpt>
      <trkpt lat="46.69324" lon="-1.93151">
        <ele>5</ele>
        <time>2018-01-15T16:57:31Z</time>
      </trkpt>
      <trkpt lat="46.69333" lon="-1.93166">
        <ele>5</ele>
        <time>2018-01-15T16:58:31Z</time>
      </trkpt>
      <trkpt lat="46.69341" lon="-1.93186">
        <ele>5</ele>
        <time>2018-01-15T16:59:31Z</time>
      </trkpt>
      <trkpt lat="46.69348" lon="-1.93201">
        <ele>5</ele>
        <time>2018-01-15T17:00:31Z</time>
      </trkpt>
      <trkpt lat="46.69351" lon="-1.93212">
        <ele>5</ele>
        <time>2018-01-15T17:01:31Z</time>
      </trkpt>
      <trkpt lat="46.69355" lon="-1.93224">
        <ele>4</ele>
        <time>2018-01-15T17:02:31Z</time>
      </trkpt>
      <trkpt lat="46.6936" lon="-1.93244">
        <ele>4</ele>
        <time>2018-01-15T17:03:31Z</time>
      </trkpt>
      <trkpt lat="46.69365" lon="-1.93261">
        <ele>4</ele>
        <time>2018-01-15T17:04:31Z</time>
      </trkpt>
      <trkpt lat="46.69368" lon="-1.93273">
        <ele>4</ele>
        <time>2018-01-15T17:05:31Z</time>
      </trkpt>
      <trkpt lat="46.69372" lon="-1.93291">
        <ele>4</ele>
        <time>2018-01-15T17:06:31Z</time>
      </trkpt>
      <trkpt lat="46.69374" lon="-1.93299">
        <ele>4</ele>
        <time>2018-01-15T17:07:31Z</time>
      </trkpt>
      <trkpt lat="46.69376" lon="-1.93304">
        <ele>4</ele>
        <time>2018-01-15T17:08:31Z</time>
      </trkpt>
      <trkpt lat="46.69378" lon="-1.93307">
        <ele>4</ele>
        <time>2018-01-15T17:09:31Z</time>
      </trkpt>
      <trkpt lat="46.69379" lon="-1.93309">
        <ele>4</ele>
        <time>2018-01-15T17:10:31Z</time>
      </trkpt>
      <trkpt lat="46.69384" lon="-1.93312">
        <ele>4</ele>
        <time>2018-01-15T17:11:31Z</time>
      </trkpt>
      <trkpt lat="46.69385" lon="-1.93312">
        <ele>4</ele>
        <time>2018-01-15T17:12:31Z</time>
      </trkpt>
      <trkpt lat="46.69386" lon="-1.93311">
        <ele>4</ele>
        <time>2018-01-15T17:13:31Z</time>
      </trkpt>
      <trkpt lat="46.69387" lon="-1.93311">
        <ele>4</ele>
        <time>2018-01-15T17:14:31Z</time>
      </trkpt>
      <trkpt lat="46.69388" lon="-1.93311">
        <ele>4</ele>
        <time>2018-01-15T17:15:31Z</time>
      </trkpt>
      <trkpt lat="46.69389" lon="-1.93311">
        <ele>4</ele>
        <time>2018-01-15T17:16:31Z</time>
      </trkpt>
      <trkpt lat="46.69389" lon="-1.93312">
        <ele>4</ele>
        <time>2018-01-15T17:17:31Z</time>
      </trkpt>
      <trkpt lat="46.6939" lon="-1.93312">
        <ele>4</ele>
        <time>2018-01-15T17:18:31Z</time>
      </trkpt>
      <trkpt lat="46.69391" lon="-1.93312">
        <ele>4</ele>
        <time>2018-01-15T17:19:31Z</time>
      </trkpt>
      <trkpt lat="46.69391" lon="-1.93313">
        <ele>4</ele>
        <time>2018-01-15T17:20:31Z</time>
      </trkpt>
      <trkpt lat="46.69392" lon="-1.93313">
        <ele>4</ele>
        <time>2018-01-15T17:21:31Z</time>
      </trkpt>
      <trkpt lat="46.69393" lon="-1.93314">
        <ele>4</ele>
        <time>2018-01-15T17:22:31Z</time>
      </trkpt>
      <trkpt lat="46.69393" lon="-1.93315">
        <ele>4</ele>
        <time>2018-01-15T17:23:31Z</time>
      </trkpt>
      <trkpt lat="46.69394" lon="-1.93315">
        <ele>4</ele>
        <time>2018-01-15T17:24:31Z</time>
      </trkpt>
      <trkpt lat="46.69394" lon="-1.93316">
        <ele>4</ele>
        <time>2018-01-15T17:25:31Z</time>
      </trkpt>
      <trkpt lat="46.69395" lon="-1.93317">
        <ele>4</ele>
        <time>2018-01-15T17:26:31Z</time>
      </trkpt>
      <trkpt lat="46.69395" lon="-1.93318">
        <ele>4</ele>
        <time>2018-01-15T17:27:31Z</time>
      </trkpt>
      <trkpt lat="46.69396" lon="-1.93319">
        <ele>4</ele>
        <time>2018-01-15T17:28:31Z</time>
      </trkpt>
      <trkpt lat="46.69396" lon="-1.9332">
        <ele>4</ele>
        <time>2018-01-15T17:29:31Z</time>
      </trkpt>
      <trkpt lat="46.69396" lon="-1.93321">
        <ele>4</ele>
        <time>2018-01-15T17:30:31Z</time>
      </trkpt>
      <trkpt lat="46.69406" lon="-1.93325">
        <ele>4</ele>
        <time>2018-01-15T17:31:31Z</time>
      </trkpt>
      <trkpt lat="46.69416" lon="-1.93331">
        <ele>4</ele>
        <time>2018-01-15T17:32:31Z</time>
      </trkpt>
      <trkpt lat="46.69421" lon="-1.93333">
        <ele>4</ele>
        <time>2018-01-15T17:33:31Z</time>
      </trkpt>
      <trkpt lat="46.69426" lon="-1.93334">
        <ele>4</ele>
        <time>2018-01-15T17:34:31Z</time>
      </trkpt>
      <trkpt lat="46.69431" lon="-1.93336">
        <ele>4</ele>
        <time>2018-01-15T17:35:31Z</time>
      </trkpt>
      <trkpt lat="46.6946" lon="-1.93349">
        <ele>4</ele>
        <time>2018-01-15T17:36:31Z</time>
      </trkpt>
      <trkpt lat="46.69498" lon="-1.93366">
        <ele>4</ele>
        <time>2018-01-15T17:37:31Z</time>
      </trkpt>
      <trkpt lat="46.69503" lon="-1.93368">
        <ele>4</ele>
        <time>2018-01-15T17:38:31Z</time>
      </trkpt>
      <trkpt lat="46.69507" lon="-1.9337">
        <ele>4</ele>
        <time>2018-01-15T17:39:31Z</time>
      </trkpt>
      <trkpt lat="46.69518" lon="-1.93374">
        <ele>4</ele>
        <time>2018-01-15T17:40:31Z</time>
      </trkpt>
      <trkpt lat="46.69551" lon="-1.93388">
        <ele>4</ele>
        <time>2018-01-15T17:41:31Z</time>
      </trkpt>
      <trkpt lat="46.69587" lon="-1.93404">
        <ele>4</ele>
        <time>2018-01-15T17:42:31Z</time>
      </trkpt>
      <trkpt lat="46.69607" lon="-1.93416">
        <ele>4</ele>
        <time>2018-01-15T17:43:31Z</time>
      </trkpt>
      <trkpt lat="46.69617" lon="-1.9342">
        <ele>4</ele>
        <time>2018-01-15T17:44:31Z</time>
      </trkpt>
      <trkpt lat="46.69617" lon="-1.9342">
        <ele>4</ele>
        <time>2018-01-15T17:45:31Z</time>
      </trkpt>
      <trkpt lat="46.69617" lon="-1.93419">
        <ele>4</ele>
        <time>2018-01-15T17:46:31Z</time>
      </trkpt>
      <trkpt lat="46.69617" lon="-1.93418">
        <ele>4</ele>
        <time>2018-01-15T17:47:31Z</time>
      </trkpt>
      <trkpt lat="46.69618" lon="-1.93418">
        <ele>4</ele>
        <time>2018-01-15T17:48:31Z</time>
      </trkpt>
      <trkpt lat="46.69618" lon="-1.93417">
        <ele>4</ele>
        <time>2018-01-15T17:49:31Z</time>
      </trkpt>
      <trkpt lat="46.69618" lon="-1.93416">
        <ele>4</ele>
        <time>2018-01-15T17:50:31Z</time>
      </trkpt>
      <trkpt lat="46.69619" lon="-1.93416">
        <ele>4</ele>
        <time>2018-01-15T17:51:31Z</time>
      </trkpt>
      <trkpt lat="46.69619" lon="-1.93415">
        <ele>4</ele>
        <time>2018-01-15T17:52:31Z</time>
      </trkpt>
      <trkpt lat="46.6962" lon="-1.93415">
        <ele>4</ele>
        <time>2018-01-15T17:53:31Z</time>
      </trkpt>
      <trkpt lat="46.6962" lon="-1.93414">
        <ele>5</ele>
        <time>2018-01-15T17:54:31Z</time>
      </trkpt>
      <trkpt lat="46.69621" lon="-1.93414">
        <ele>5</ele>
        <time>2018-01-15T17:55:31Z</time>
      </trkpt>
      <trkpt lat="46.69621" lon="-1.93413">
        <ele>5</ele>
        <time>2018-01-15T17:56:31Z</time>
      </trkpt>
      <trkpt lat="46.69622" lon="-1.93413">
        <ele>5</ele>
        <time>2018-01-15T17:57:31Z</time>
      </trkpt>
      <trkpt lat="46.69623" lon="-1.93412">
        <ele>5</ele>
        <time>2018-01-15T17:58:31Z</time>
      </trkpt>
      <trkpt lat="46.69624" lon="-1.93412">
        <ele>5</ele>
        <time>2018-01-15T17:59:31Z</time>
      </trkpt>
      <trkpt lat="46.69625" lon="-1.93412">
        <ele>5</ele>
        <time>2018-01-15T18:00:31Z</time>
      </trkpt>
      <trkpt lat="46.69626" lon="-1.93412">
        <ele>5</ele>
        <time>2018-01-15T18:01:31Z</time>
      </trkpt>
      <trkpt lat="46.69627" lon="-1.93412">
        <ele>5</ele>
        <time>2018-01-15T18:02:31Z</time>
      </trkpt>
      <trkpt lat="46.69627" lon="-1.93413">
        <ele>5</ele>
        <time>2018-01-15T18:03:31Z</time>
      </trkpt>
      <trkpt lat="46.69628" lon="-1.93413">
        <ele>5</ele>
        <time>2018-01-15T18:04:31Z</time>
      </trkpt>
      <trkpt lat="46.69629" lon="-1.93413">
        <ele>5</ele>
        <time>2018-01-15T18:05:31Z</time>
      </trkpt>
      <trkpt lat="46.69629" lon="-1.93414">
        <ele>5</ele>
        <time>2018-01-15T18:06:31Z</time>
      </trkpt>
      <trkpt lat="46.6963" lon="-1.93414">
        <ele>5</ele>
        <time>2018-01-15T18:07:31Z</time>
      </trkpt>
      <trkpt lat="46.6963" lon="-1.93415">
        <ele>5</ele>
        <time>2018-01-15T18:08:31Z</time>
      </trkpt>
      <trkpt lat="46.69631" lon="-1.93416">
        <ele>5</ele>
        <time>2018-01-15T18:09:31Z</time>
      </trkpt>
      <trkpt lat="46.69631" lon="-1.93417">
        <ele>5</ele>
        <time>2018-01-15T18:10:31Z</time>
      </trkpt>
      <trkpt lat="46.69632" lon="-1.93417">
        <ele>5</ele>
        <time>2018-01-15T18:11:31Z</time>
      </trkpt>
      <trkpt lat="46.69632" lon="-1.93418">
        <ele>5</ele>
        <time>2018-01-15T18:12:31Z</time>
      </trkpt>
      <trkpt lat="46.69632" lon="-1.93419">
        <ele>5</ele>
        <time>2018-01-15T18:13:31Z</time>
      </trkpt>
      <trkpt lat="46.69633" lon="-1.93419">
        <ele>5</ele>
        <time>2018-01-15T18:14:31Z</time>
      </trkpt>
      <trkpt lat="46.69633" lon="-1.9342">
        <ele>5</ele>
        <time>2018-01-15T18:15:31Z</time>
      </trkpt>
      <trkpt lat="46.69633" lon="-1.93421">
        <ele>5</ele>
        <time>2018-01-15T18:16:31Z</time>
      </trkpt>
      <trkpt lat="46.69633" lon="-1.93422">
        <ele>5</ele>
        <time>2018-01-15T18:17:31Z</time>
      </trkpt>
      <trkpt lat="46.69633" lon="-1.93423">
        <ele>5</ele>
        <time>2018-01-15T18:18:31Z</time>
      </trkpt>
      <trkpt lat="46.69685" lon="-1.93435">
        <ele>5</ele>
        <time>2018-01-15T18:19:31Z</time>
      </trkpt>
      <trkpt lat="46.69697" lon="-1.93436">
        <ele>5</ele>
        <time>2018-01-15T18:20:31Z</time>
      </trkpt>
      <trkpt lat="46.69714" lon="-1.93435">
        <ele>5</ele>
        <time>2018-01-15T18:21:31Z</time>
      </trkpt>
      <trkpt lat="46.69721" lon="-1.93434">
        <ele>5</ele>
        <time>2018-01-15T18:22:31Z</time>
      </trkpt>
      <trkpt lat="46.69759" lon="-1.93424">
        <ele>5</ele>
        <time>2018-01-15T18:23:31Z</time>
      </trkpt>
      <trkpt lat="46.69762" lon="-1.93423">
        <ele>5</ele>
        <time>2018-01-15T18:24:31Z</time>
      </trkpt>
      <trkpt lat="46.69772" lon="-1.9342">
        <ele>5</ele>
        <time>2018-01-15T18:25:31Z</time>
      </trkpt>
      <trkpt lat="46.69776" lon="-1.9342">
        <ele>5</ele>
        <time>2018-01-15T18:26:31Z</time>
      </trkpt>
      <trkpt lat="46.69779" lon="-1.9342">
        <ele>5</ele>
        <time>2018-01-15T18:27:31Z</time>
      </trkpt>
      <trkpt lat="46.69785" lon="-1.93422">
        <ele>5</ele>
        <time>2018-01-15T18:28:31Z</time>
      </trkpt>
      <trkpt lat="46.69785" lon="-1.93421">
        <ele>5</ele>
        <time>2018-01-15T18:29:31Z</time>
      </trkpt>
      <trkpt lat="46.69786" lon="-1.93421">
        <ele>5</ele>
        <time>2018-01-15T18:30:31Z</time>
      </trkpt>
      <trkpt lat="46.69786" lon="-1.9342">
        <ele>5</ele>
        <time>2018-01-15T18:31:31Z</time>
      </trkpt>
      <trkpt lat="46.69786" lon="-1.93419">
        <ele>5</ele>
        <time>2018-01-15T18:32:31Z</time>
      </trkpt>
      <trkpt lat="46.69786" lon="-1.93418">
        <ele>5</ele>
        <time>2018-01-15T18:33:31Z</time>
      </trkpt>
      <trkpt lat="46.69787" lon="-1.93418">
        <ele>5</ele>
        <time>2018-01-15T18:34:31Z</time>
      </trkpt>
      <trkpt lat="46.69787" lon="-1.93417">
        <ele>5</ele>
        <time>2018-01-15T18:35:31Z</time>
      </trkpt>
      <trkpt lat="46.69788" lon="-1.93417">
        <ele>5</ele>
        <time>2018-01-15T18:36:31Z</time>
      </trkpt>
      <trkpt lat="46.69789" lon="-1.93417">
        <ele>5</ele>
        <time>2018-01-15T18:37:31Z</time>
      </trkpt>
      <trkpt lat="46.6979" lon="-1.93417">
        <ele>5</ele>
        <time>2018-01-15T18:38:31Z</time>
      </trkpt>
      <trkpt lat="46.69791" lon="-1.93417">
        <ele>5</ele>
        <time>2018-01-15T18:39:31Z</time>
      </trkpt>
      <trkpt lat="46.69791" lon="-1.93418">
        <ele>5</ele>
        <time>2018-01-15T18:40:31Z</time>
      </trkpt>
      <trkpt lat="46.69792" lon="-1.93418">
        <ele>5</ele>
        <time>2018-01-15T18:41:31Z</time>
      </trkpt>
      <trkpt lat="46.69792" lon="-1.93419">
        <ele>5</ele>
        <time>2018-01-15T18:42:31Z</time>
      </trkpt>
      <trkpt lat="46.69792" lon="-1.9342">
        <ele>5</ele>
        <time>2018-01-15T18:43:31Z</time>
      </trkpt>
      <trkpt lat="46.69793" lon="-1.9342">
        <ele>5</ele>
        <time>2018-01-15T18:44:31Z</time>
      </trkpt>
      <trkpt lat="46.69797" lon="-1.93421">
        <ele>5</ele>
        <time>2018-01-15T18:45:31Z</time>
      </trkpt>
      <trkpt lat="46.69798" lon="-1.93421">
        <ele>5</ele>
        <time>2018-01-15T18:46:31Z</time>
      </trkpt>
      <trkpt lat="46.69806" lon="-1.93419">
        <ele>5</ele>
        <time>2018-01-15T18:47:31Z</time>
      </trkpt>
      <trkpt lat="46.69824" lon="-1.93411">
        <ele>5</ele>
        <time>2018-01-15T18:48:31Z</time>
      </trkpt>
      <trkpt lat="46.69892" lon="-1.93385">
        <ele>5</ele>
        <time>2018-01-15T18:49:31Z</time>
      </trkpt>
      <trkpt lat="46.69898" lon="-1.93383">
        <ele>5</ele>
        <time>2018-01-15T18:50:31Z</time>
      </trkpt>
      <trkpt lat="46.69901" lon="-1.93383">
        <ele>5</ele>
        <time>2018-01-15T18:51:31Z</time>
      </trkpt>
      <trkpt lat="46.69908" lon="-1.93383">
        <ele>4</ele>
        <time>2018-01-15T18:52:31Z</time>
      </trkpt>
      <trkpt lat="46.69908" lon="-1.93383">
        <ele>4</ele>
        <time>2018-01-15T18:53:31Z</time>
      </trkpt>
      <trkpt lat="46.69907" lon="-1.93379">
        <ele>5</ele>
        <time>2018-01-15T18:54:31Z</time>
      </trkpt>
      <trkpt lat="46.69908" lon="-1.93377">
        <ele>5</ele>
        <time>2018-01-15T18:55:31Z</time>
      </trkpt>
      <trkpt lat="46.69908" lon="-1.93376">
        <ele>5</ele>
        <time>2018-01-15T18:56:31Z</time>
      </trkpt>
      <trkpt lat="46.69909" lon="-1.93375">
        <ele>5</ele>
        <time>2018-01-15T18:57:31Z</time>
      </trkpt>
      <trkpt lat="46.69911" lon="-1.93375">
        <ele>5</ele>
        <time>2018-01-15T18:58:31Z</time>
      </trkpt>
      <trkpt lat="46.69912" lon="-1.93375">
        <ele>5</ele>
        <time>2018-01-15T18:59:31Z</time>
      </trkpt>
      <trkpt lat="46.69914" lon="-1.93375">
        <ele>5</ele>
        <time>2018-01-15T19:00:31Z</time>
      </trkpt>
      <trkpt lat="46.69915" lon="-1.93376">
        <ele>5</ele>
        <time>2018-01-15T19:01:31Z</time>
      </trkpt>
      <trkpt lat="46.69915" lon="-1.93377">
        <ele>4</ele>
        <time>2018-01-15T19:02:31Z</time>
      </trkpt>
      <trkpt lat="46.69916" lon="-1.93379">
        <ele>4</ele>
        <time>2018-01-15T19:03:31Z</time>
      </trkpt>
      <trkpt lat="46.69916" lon="-1.93382">
        <ele>4</ele>
        <time>2018-01-15T19:04:31Z</time>
      </trkpt>
      <trkpt lat="46.69915" lon="-1.93383">
        <ele>4</ele>
        <time>2018-01-15T19:05:31Z</time>
      </trkpt>
    </trkseg>
  </trk>
</gpx>